<?xml version="1.0" encoding="UTF-8" standalone="no" ?>
<gpx xmlns="http://www.topografix.com/GPX/1/1" xmlns:xsi="http://www.w3.org/2001/XMLSchema-instance" xsi:schemaLocation="http://www.topografix.com/GPX/1/1 http://www.topografix.com/GPX/1/1/gpx.xsd" version="1.1" creator="VisuGPX - https://www.visugpx.com">
  <metadata>
    <name>Dreuil-les-Amiens, Argoeuvre</name>
  </metadata>
  <trk>
    <name><![CDATA[Dreuil-les-Amiens, Argoeuvre]]></name>
    <extensions>
      <line xmlns="http://www.topografix.com/GPX/gpx_style/0/2">
        <color>0000FF</color>
        <width>4</width>
      </line>
    </extensions>
    <trkseg>
      <trkpt lat="49.92119" lon="2.26244">
        <ele>19.6</ele>
        <time>2022-03-11T12:50:48Z</time>
      </trkpt>
      <trkpt lat="49.92119" lon="2.26244">
        <ele>19.6</ele>
        <time>2022-03-11T12:50:49Z</time>
      </trkpt>
      <trkpt lat="49.92119" lon="2.26244">
        <ele>19.6</ele>
        <time>2022-03-11T12:50:50Z</time>
      </trkpt>
      <trkpt lat="49.92119" lon="2.26244">
        <ele>19.6</ele>
        <time>2022-03-11T12:50:51Z</time>
      </trkpt>
      <trkpt lat="49.92119" lon="2.26244">
        <ele>19.6</ele>
        <time>2022-03-11T12:50:52Z</time>
      </trkpt>
      <trkpt lat="49.92119" lon="2.26244">
        <ele>19.6</ele>
        <time>2022-03-11T12:50:53Z</time>
      </trkpt>
      <trkpt lat="49.92119" lon="2.26244">
        <ele>19.6</ele>
        <time>2022-03-11T12:50:54Z</time>
      </trkpt>
      <trkpt lat="49.92119" lon="2.26244">
        <ele>19.6</ele>
        <time>2022-03-11T12:50:55Z</time>
      </trkpt>
      <trkpt lat="49.92119" lon="2.26244">
        <ele>19.6</ele>
        <time>2022-03-11T12:50:56Z</time>
      </trkpt>
      <trkpt lat="49.92119" lon="2.26244">
        <ele>19.6</ele>
        <time>2022-03-11T12:50:57Z</time>
      </trkpt>
      <trkpt lat="49.92119" lon="2.26244">
        <ele>19.6</ele>
        <time>2022-03-11T12:50:58Z</time>
      </trkpt>
      <trkpt lat="49.92119" lon="2.26244">
        <ele>19.6</ele>
        <time>2022-03-11T12:50:59Z</time>
      </trkpt>
      <trkpt lat="49.92119" lon="2.26244">
        <ele>19.6</ele>
        <time>2022-03-11T12:51:00Z</time>
      </trkpt>
      <trkpt lat="49.92119" lon="2.26244">
        <ele>19.6</ele>
        <time>2022-03-11T12:51:01Z</time>
      </trkpt>
      <trkpt lat="49.92119" lon="2.26244">
        <ele>19.6</ele>
        <time>2022-03-11T12:51:02Z</time>
      </trkpt>
      <trkpt lat="49.92119" lon="2.26244">
        <ele>19.6</ele>
        <time>2022-03-11T12:51:03Z</time>
      </trkpt>
      <trkpt lat="49.92119" lon="2.26244">
        <ele>19.6</ele>
        <time>2022-03-11T12:51:04Z</time>
      </trkpt>
      <trkpt lat="49.92119" lon="2.26244">
        <ele>19.6</ele>
        <time>2022-03-11T12:51:05Z</time>
      </trkpt>
      <trkpt lat="49.92119" lon="2.26244">
        <ele>19.6</ele>
        <time>2022-03-11T12:51:06Z</time>
      </trkpt>
      <trkpt lat="49.92119" lon="2.26244">
        <ele>19.6</ele>
        <time>2022-03-11T12:51:07Z</time>
      </trkpt>
      <trkpt lat="49.92119" lon="2.26244">
        <ele>19.6</ele>
        <time>2022-03-11T12:51:08Z</time>
      </trkpt>
      <trkpt lat="49.92119" lon="2.26244">
        <ele>19.6</ele>
        <time>2022-03-11T12:51:09Z</time>
      </trkpt>
      <trkpt lat="49.92119" lon="2.26244">
        <ele>19.6</ele>
        <time>2022-03-11T12:51:10Z</time>
      </trkpt>
      <trkpt lat="49.92119" lon="2.26244">
        <ele>19.6</ele>
        <time>2022-03-11T12:51:11Z</time>
      </trkpt>
      <trkpt lat="49.92119" lon="2.26244">
        <ele>19.6</ele>
        <time>2022-03-11T12:51:12Z</time>
      </trkpt>
      <trkpt lat="49.92119" lon="2.26244">
        <ele>19.6</ele>
        <time>2022-03-11T12:51:13Z</time>
      </trkpt>
      <trkpt lat="49.92119" lon="2.26244">
        <ele>19.6</ele>
        <time>2022-03-11T12:51:14Z</time>
      </trkpt>
      <trkpt lat="49.92119" lon="2.26243">
        <ele>19.6</ele>
        <time>2022-03-11T12:51:15Z</time>
      </trkpt>
      <trkpt lat="49.92119" lon="2.26243">
        <ele>19.6</ele>
        <time>2022-03-11T12:51:16Z</time>
      </trkpt>
      <trkpt lat="49.92119" lon="2.26243">
        <ele>19.6</ele>
        <time>2022-03-11T12:51:17Z</time>
      </trkpt>
      <trkpt lat="49.92119" lon="2.26243">
        <ele>19.6</ele>
        <time>2022-03-11T12:51:18Z</time>
      </trkpt>
      <trkpt lat="49.92119" lon="2.26243">
        <ele>19.6</ele>
        <time>2022-03-11T12:51:19Z</time>
      </trkpt>
      <trkpt lat="49.92119" lon="2.26243">
        <ele>19.6</ele>
        <time>2022-03-11T12:51:20Z</time>
      </trkpt>
      <trkpt lat="49.92119" lon="2.26243">
        <ele>19.6</ele>
        <time>2022-03-11T12:51:21Z</time>
      </trkpt>
      <trkpt lat="49.92119" lon="2.26243">
        <ele>19.6</ele>
        <time>2022-03-11T12:51:22Z</time>
      </trkpt>
      <trkpt lat="49.92119" lon="2.26243">
        <ele>19.6</ele>
        <time>2022-03-11T12:51:23Z</time>
      </trkpt>
      <trkpt lat="49.92119" lon="2.26243">
        <ele>19.6</ele>
        <time>2022-03-11T12:51:24Z</time>
      </trkpt>
      <trkpt lat="49.92119" lon="2.26243">
        <ele>19.6</ele>
        <time>2022-03-11T12:51:25Z</time>
      </trkpt>
      <trkpt lat="49.92119" lon="2.26243">
        <ele>19.6</ele>
        <time>2022-03-11T12:51:26Z</time>
      </trkpt>
      <trkpt lat="49.92119" lon="2.26243">
        <ele>19.6</ele>
        <time>2022-03-11T12:51:27Z</time>
      </trkpt>
      <trkpt lat="49.92119" lon="2.26243">
        <ele>19.6</ele>
        <time>2022-03-11T12:51:28Z</time>
      </trkpt>
      <trkpt lat="49.92119" lon="2.26243">
        <ele>19.6</ele>
        <time>2022-03-11T12:51:29Z</time>
      </trkpt>
      <trkpt lat="49.92119" lon="2.26243">
        <ele>19.6</ele>
        <time>2022-03-11T12:51:30Z</time>
      </trkpt>
      <trkpt lat="49.92119" lon="2.26243">
        <ele>19.6</ele>
        <time>2022-03-11T12:51:31Z</time>
      </trkpt>
      <trkpt lat="49.92119" lon="2.26243">
        <ele>19.6</ele>
        <time>2022-03-11T12:51:32Z</time>
      </trkpt>
      <trkpt lat="49.92119" lon="2.26243">
        <ele>19.6</ele>
        <time>2022-03-11T12:51:33Z</time>
      </trkpt>
      <trkpt lat="49.92119" lon="2.26243">
        <ele>19.6</ele>
        <time>2022-03-11T12:51:34Z</time>
      </trkpt>
      <trkpt lat="49.92119" lon="2.26243">
        <ele>19.6</ele>
        <time>2022-03-11T12:51:35Z</time>
      </trkpt>
      <trkpt lat="49.92119" lon="2.26243">
        <ele>19.6</ele>
        <time>2022-03-11T12:51:36Z</time>
      </trkpt>
      <trkpt lat="49.92119" lon="2.26243">
        <ele>19.6</ele>
        <time>2022-03-11T12:51:37Z</time>
      </trkpt>
      <trkpt lat="49.92119" lon="2.26243">
        <ele>19.6</ele>
        <time>2022-03-11T12:51:38Z</time>
      </trkpt>
      <trkpt lat="49.92119" lon="2.26243">
        <ele>19.6</ele>
        <time>2022-03-11T12:51:39Z</time>
      </trkpt>
      <trkpt lat="49.92119" lon="2.26243">
        <ele>19.6</ele>
        <time>2022-03-11T12:51:40Z</time>
      </trkpt>
      <trkpt lat="49.92119" lon="2.26243">
        <ele>19.6</ele>
        <time>2022-03-11T12:51:41Z</time>
      </trkpt>
      <trkpt lat="49.92119" lon="2.26243">
        <ele>19.6</ele>
        <time>2022-03-11T12:51:42Z</time>
      </trkpt>
      <trkpt lat="49.92119" lon="2.26243">
        <ele>19.6</ele>
        <time>2022-03-11T12:51:43Z</time>
      </trkpt>
      <trkpt lat="49.92119" lon="2.26243">
        <ele>19.6</ele>
        <time>2022-03-11T12:51:44Z</time>
      </trkpt>
      <trkpt lat="49.92119" lon="2.26243">
        <ele>19.6</ele>
        <time>2022-03-11T12:51:45Z</time>
      </trkpt>
      <trkpt lat="49.92119" lon="2.26243">
        <ele>19.6</ele>
        <time>2022-03-11T12:51:46Z</time>
      </trkpt>
      <trkpt lat="49.92119" lon="2.26243">
        <ele>19.6</ele>
        <time>2022-03-11T12:51:47Z</time>
      </trkpt>
      <trkpt lat="49.92119" lon="2.26243">
        <ele>19.6</ele>
        <time>2022-03-11T12:51:48Z</time>
      </trkpt>
      <trkpt lat="49.92119" lon="2.26243">
        <ele>19.6</ele>
        <time>2022-03-11T12:51:49Z</time>
      </trkpt>
      <trkpt lat="49.92118" lon="2.26243">
        <ele>19.6</ele>
        <time>2022-03-11T12:51:50Z</time>
      </trkpt>
      <trkpt lat="49.92118" lon="2.26243">
        <ele>19.6</ele>
        <time>2022-03-11T12:51:51Z</time>
      </trkpt>
      <trkpt lat="49.92118" lon="2.26243">
        <ele>19.6</ele>
        <time>2022-03-11T12:51:52Z</time>
      </trkpt>
      <trkpt lat="49.92118" lon="2.26243">
        <ele>19.6</ele>
        <time>2022-03-11T12:51:53Z</time>
      </trkpt>
      <trkpt lat="49.92118" lon="2.26243">
        <ele>19.6</ele>
        <time>2022-03-11T12:51:54Z</time>
      </trkpt>
      <trkpt lat="49.92118" lon="2.26243">
        <ele>19.6</ele>
        <time>2022-03-11T12:51:55Z</time>
      </trkpt>
      <trkpt lat="49.92118" lon="2.26243">
        <ele>19.6</ele>
        <time>2022-03-11T12:51:56Z</time>
      </trkpt>
      <trkpt lat="49.92118" lon="2.26243">
        <ele>19.6</ele>
        <time>2022-03-11T12:51:57Z</time>
      </trkpt>
      <trkpt lat="49.92118" lon="2.26243">
        <ele>19.6</ele>
        <time>2022-03-11T12:51:58Z</time>
      </trkpt>
      <trkpt lat="49.92118" lon="2.26242">
        <ele>19.6</ele>
        <time>2022-03-11T12:51:59Z</time>
      </trkpt>
      <trkpt lat="49.92118" lon="2.26242">
        <ele>19.6</ele>
        <time>2022-03-11T12:52:00Z</time>
      </trkpt>
      <trkpt lat="49.92118" lon="2.26242">
        <ele>19.6</ele>
        <time>2022-03-11T12:52:01Z</time>
      </trkpt>
      <trkpt lat="49.92118" lon="2.26242">
        <ele>19.6</ele>
        <time>2022-03-11T12:52:02Z</time>
      </trkpt>
      <trkpt lat="49.92118" lon="2.26242">
        <ele>19.6</ele>
        <time>2022-03-11T12:52:03Z</time>
      </trkpt>
      <trkpt lat="49.92118" lon="2.26242">
        <ele>19.6</ele>
        <time>2022-03-11T12:52:04Z</time>
      </trkpt>
      <trkpt lat="49.92118" lon="2.26242">
        <ele>19.6</ele>
        <time>2022-03-11T12:52:05Z</time>
      </trkpt>
      <trkpt lat="49.92118" lon="2.26242">
        <ele>19.6</ele>
        <time>2022-03-11T12:52:06Z</time>
      </trkpt>
      <trkpt lat="49.92118" lon="2.26242">
        <ele>19.6</ele>
        <time>2022-03-11T12:52:07Z</time>
      </trkpt>
      <trkpt lat="49.92118" lon="2.26242">
        <ele>19.6</ele>
        <time>2022-03-11T12:52:08Z</time>
      </trkpt>
      <trkpt lat="49.92118" lon="2.26242">
        <ele>19.6</ele>
        <time>2022-03-11T12:52:09Z</time>
      </trkpt>
      <trkpt lat="49.92118" lon="2.26242">
        <ele>19.6</ele>
        <time>2022-03-11T12:52:10Z</time>
      </trkpt>
      <trkpt lat="49.92118" lon="2.26242">
        <ele>19.6</ele>
        <time>2022-03-11T12:52:11Z</time>
      </trkpt>
      <trkpt lat="49.92118" lon="2.26242">
        <ele>19.6</ele>
        <time>2022-03-11T12:52:12Z</time>
      </trkpt>
      <trkpt lat="49.92118" lon="2.26242">
        <ele>19.6</ele>
        <time>2022-03-11T12:52:13Z</time>
      </trkpt>
      <trkpt lat="49.92118" lon="2.26242">
        <ele>19.6</ele>
        <time>2022-03-11T12:52:14Z</time>
      </trkpt>
      <trkpt lat="49.92118" lon="2.26242">
        <ele>19.6</ele>
        <time>2022-03-11T12:52:15Z</time>
      </trkpt>
      <trkpt lat="49.92118" lon="2.26242">
        <ele>19.6</ele>
        <time>2022-03-11T12:52:16Z</time>
      </trkpt>
      <trkpt lat="49.92118" lon="2.26242">
        <ele>19.6</ele>
        <time>2022-03-11T12:52:17Z</time>
      </trkpt>
      <trkpt lat="49.92118" lon="2.26242">
        <ele>19.6</ele>
        <time>2022-03-11T12:52:18Z</time>
      </trkpt>
      <trkpt lat="49.92118" lon="2.26242">
        <ele>19.6</ele>
        <time>2022-03-11T12:52:19Z</time>
      </trkpt>
      <trkpt lat="49.92118" lon="2.26242">
        <ele>19.6</ele>
        <time>2022-03-11T12:52:20Z</time>
      </trkpt>
      <trkpt lat="49.92118" lon="2.26242">
        <ele>19.6</ele>
        <time>2022-03-11T12:52:21Z</time>
      </trkpt>
      <trkpt lat="49.92118" lon="2.26242">
        <ele>19.6</ele>
        <time>2022-03-11T12:52:22Z</time>
      </trkpt>
      <trkpt lat="49.92118" lon="2.26242">
        <ele>19.6</ele>
        <time>2022-03-11T12:52:23Z</time>
      </trkpt>
      <trkpt lat="49.92118" lon="2.26242">
        <ele>19.6</ele>
        <time>2022-03-11T12:52:24Z</time>
      </trkpt>
      <trkpt lat="49.92118" lon="2.26242">
        <ele>19.6</ele>
        <time>2022-03-11T12:52:25Z</time>
      </trkpt>
      <trkpt lat="49.92118" lon="2.26242">
        <ele>19.6</ele>
        <time>2022-03-11T12:52:26Z</time>
      </trkpt>
      <trkpt lat="49.92118" lon="2.26242">
        <ele>19.6</ele>
        <time>2022-03-11T12:52:27Z</time>
      </trkpt>
      <trkpt lat="49.92118" lon="2.26242">
        <ele>19.6</ele>
        <time>2022-03-11T12:52:28Z</time>
      </trkpt>
      <trkpt lat="49.92118" lon="2.26242">
        <ele>19.6</ele>
        <time>2022-03-11T12:52:29Z</time>
      </trkpt>
      <trkpt lat="49.92118" lon="2.26242">
        <ele>19.6</ele>
        <time>2022-03-11T12:52:30Z</time>
      </trkpt>
      <trkpt lat="49.92118" lon="2.26242">
        <ele>19.6</ele>
        <time>2022-03-11T12:52:31Z</time>
      </trkpt>
      <trkpt lat="49.92118" lon="2.26242">
        <ele>19.6</ele>
        <time>2022-03-11T12:52:32Z</time>
      </trkpt>
      <trkpt lat="49.92118" lon="2.26242">
        <ele>19.6</ele>
        <time>2022-03-11T12:52:33Z</time>
      </trkpt>
      <trkpt lat="49.92118" lon="2.26242">
        <ele>19.6</ele>
        <time>2022-03-11T12:52:34Z</time>
      </trkpt>
      <trkpt lat="49.92118" lon="2.26242">
        <ele>19.6</ele>
        <time>2022-03-11T12:52:35Z</time>
      </trkpt>
      <trkpt lat="49.92118" lon="2.26242">
        <ele>19.6</ele>
        <time>2022-03-11T12:52:36Z</time>
      </trkpt>
      <trkpt lat="49.92118" lon="2.26242">
        <ele>19.6</ele>
        <time>2022-03-11T12:52:37Z</time>
      </trkpt>
      <trkpt lat="49.92118" lon="2.26242">
        <ele>19.6</ele>
        <time>2022-03-11T12:52:38Z</time>
      </trkpt>
      <trkpt lat="49.92118" lon="2.26242">
        <ele>19.6</ele>
        <time>2022-03-11T12:52:39Z</time>
      </trkpt>
      <trkpt lat="49.92118" lon="2.26242">
        <ele>19.6</ele>
        <time>2022-03-11T12:52:40Z</time>
      </trkpt>
      <trkpt lat="49.92118" lon="2.26242">
        <ele>19.6</ele>
        <time>2022-03-11T12:52:41Z</time>
      </trkpt>
      <trkpt lat="49.92118" lon="2.26241">
        <ele>19.6</ele>
        <time>2022-03-11T12:52:42Z</time>
      </trkpt>
      <trkpt lat="49.92118" lon="2.26241">
        <ele>19.6</ele>
        <time>2022-03-11T12:52:43Z</time>
      </trkpt>
      <trkpt lat="49.92118" lon="2.26241">
        <ele>19.6</ele>
        <time>2022-03-11T12:52:44Z</time>
      </trkpt>
      <trkpt lat="49.92118" lon="2.26241">
        <ele>19.6</ele>
        <time>2022-03-11T12:52:45Z</time>
      </trkpt>
      <trkpt lat="49.92118" lon="2.26241">
        <ele>19.6</ele>
        <time>2022-03-11T12:52:46Z</time>
      </trkpt>
      <trkpt lat="49.92118" lon="2.26241">
        <ele>19.6</ele>
        <time>2022-03-11T12:52:47Z</time>
      </trkpt>
      <trkpt lat="49.92118" lon="2.26241">
        <ele>19.6</ele>
        <time>2022-03-11T12:52:48Z</time>
      </trkpt>
      <trkpt lat="49.92118" lon="2.26241">
        <ele>19.6</ele>
        <time>2022-03-11T12:52:49Z</time>
      </trkpt>
      <trkpt lat="49.92118" lon="2.26241">
        <ele>19.6</ele>
        <time>2022-03-11T12:52:50Z</time>
      </trkpt>
      <trkpt lat="49.92118" lon="2.26241">
        <ele>19.6</ele>
        <time>2022-03-11T12:52:51Z</time>
      </trkpt>
      <trkpt lat="49.92118" lon="2.26241">
        <ele>19.6</ele>
        <time>2022-03-11T12:52:52Z</time>
      </trkpt>
      <trkpt lat="49.92118" lon="2.26241">
        <ele>19.6</ele>
        <time>2022-03-11T12:52:53Z</time>
      </trkpt>
      <trkpt lat="49.92118" lon="2.26241">
        <ele>19.6</ele>
        <time>2022-03-11T12:52:54Z</time>
      </trkpt>
      <trkpt lat="49.92118" lon="2.26241">
        <ele>19.6</ele>
        <time>2022-03-11T12:52:55Z</time>
      </trkpt>
      <trkpt lat="49.92118" lon="2.26241">
        <ele>19.6</ele>
        <time>2022-03-11T12:52:56Z</time>
      </trkpt>
      <trkpt lat="49.92118" lon="2.26241">
        <ele>19.6</ele>
        <time>2022-03-11T12:52:57Z</time>
      </trkpt>
      <trkpt lat="49.92118" lon="2.26241">
        <ele>19.6</ele>
        <time>2022-03-11T12:52:58Z</time>
      </trkpt>
      <trkpt lat="49.92118" lon="2.26241">
        <ele>19.6</ele>
        <time>2022-03-11T12:52:59Z</time>
      </trkpt>
      <trkpt lat="49.92118" lon="2.26241">
        <ele>19.6</ele>
        <time>2022-03-11T12:53:00Z</time>
      </trkpt>
      <trkpt lat="49.92118" lon="2.26241">
        <ele>19.6</ele>
        <time>2022-03-11T12:53:01Z</time>
      </trkpt>
      <trkpt lat="49.92118" lon="2.26241">
        <ele>19.6</ele>
        <time>2022-03-11T12:53:02Z</time>
      </trkpt>
      <trkpt lat="49.92118" lon="2.26241">
        <ele>19.6</ele>
        <time>2022-03-11T12:53:03Z</time>
      </trkpt>
      <trkpt lat="49.92118" lon="2.26241">
        <ele>19.6</ele>
        <time>2022-03-11T12:53:04Z</time>
      </trkpt>
      <trkpt lat="49.92118" lon="2.26241">
        <ele>19.6</ele>
        <time>2022-03-11T12:53:05Z</time>
      </trkpt>
      <trkpt lat="49.92118" lon="2.26241">
        <ele>19.6</ele>
        <time>2022-03-11T12:53:06Z</time>
      </trkpt>
      <trkpt lat="49.92118" lon="2.26241">
        <ele>19.6</ele>
        <time>2022-03-11T12:53:07Z</time>
      </trkpt>
      <trkpt lat="49.92118" lon="2.26241">
        <ele>19.6</ele>
        <time>2022-03-11T12:53:08Z</time>
      </trkpt>
      <trkpt lat="49.92118" lon="2.26241">
        <ele>19.6</ele>
        <time>2022-03-11T12:53:09Z</time>
      </trkpt>
      <trkpt lat="49.92118" lon="2.26241">
        <ele>19.6</ele>
        <time>2022-03-11T12:53:10Z</time>
      </trkpt>
      <trkpt lat="49.92118" lon="2.26241">
        <ele>19.6</ele>
        <time>2022-03-11T12:53:11Z</time>
      </trkpt>
      <trkpt lat="49.92118" lon="2.26241">
        <ele>19.6</ele>
        <time>2022-03-11T12:53:12Z</time>
      </trkpt>
      <trkpt lat="49.92118" lon="2.26241">
        <ele>19.6</ele>
        <time>2022-03-11T12:53:13Z</time>
      </trkpt>
      <trkpt lat="49.92118" lon="2.26241">
        <ele>19.6</ele>
        <time>2022-03-11T12:53:14Z</time>
      </trkpt>
      <trkpt lat="49.92118" lon="2.26241">
        <ele>19.6</ele>
        <time>2022-03-11T12:53:15Z</time>
      </trkpt>
      <trkpt lat="49.92118" lon="2.26241">
        <ele>19.6</ele>
        <time>2022-03-11T12:53:16Z</time>
      </trkpt>
      <trkpt lat="49.92117" lon="2.26241">
        <ele>19.6</ele>
        <time>2022-03-11T12:53:17Z</time>
      </trkpt>
      <trkpt lat="49.92117" lon="2.26241">
        <ele>19.6</ele>
        <time>2022-03-11T12:53:18Z</time>
      </trkpt>
      <trkpt lat="49.92117" lon="2.26241">
        <ele>19.6</ele>
        <time>2022-03-11T12:53:19Z</time>
      </trkpt>
      <trkpt lat="49.92117" lon="2.26241">
        <ele>19.6</ele>
        <time>2022-03-11T12:53:20Z</time>
      </trkpt>
      <trkpt lat="49.92117" lon="2.26241">
        <ele>19.6</ele>
        <time>2022-03-11T12:53:21Z</time>
      </trkpt>
      <trkpt lat="49.92117" lon="2.26241">
        <ele>19.6</ele>
        <time>2022-03-11T12:53:22Z</time>
      </trkpt>
      <trkpt lat="49.92117" lon="2.26241">
        <ele>19.6</ele>
        <time>2022-03-11T12:53:23Z</time>
      </trkpt>
      <trkpt lat="49.92117" lon="2.26241">
        <ele>19.6</ele>
        <time>2022-03-11T12:53:24Z</time>
      </trkpt>
      <trkpt lat="49.92117" lon="2.26241">
        <ele>19.6</ele>
        <time>2022-03-11T12:53:25Z</time>
      </trkpt>
      <trkpt lat="49.92117" lon="2.2624">
        <ele>19.6</ele>
        <time>2022-03-11T12:53:26Z</time>
      </trkpt>
      <trkpt lat="49.92117" lon="2.2624">
        <ele>19.6</ele>
        <time>2022-03-11T12:53:27Z</time>
      </trkpt>
      <trkpt lat="49.92117" lon="2.2624">
        <ele>19.6</ele>
        <time>2022-03-11T12:53:28Z</time>
      </trkpt>
      <trkpt lat="49.92117" lon="2.2624">
        <ele>19.6</ele>
        <time>2022-03-11T12:53:29Z</time>
      </trkpt>
      <trkpt lat="49.92117" lon="2.2624">
        <ele>19.6</ele>
        <time>2022-03-11T12:53:30Z</time>
      </trkpt>
      <trkpt lat="49.92117" lon="2.2624">
        <ele>19.6</ele>
        <time>2022-03-11T12:53:31Z</time>
      </trkpt>
      <trkpt lat="49.92117" lon="2.2624">
        <ele>19.6</ele>
        <time>2022-03-11T12:53:32Z</time>
      </trkpt>
      <trkpt lat="49.92117" lon="2.2624">
        <ele>19.6</ele>
        <time>2022-03-11T12:53:33Z</time>
      </trkpt>
      <trkpt lat="49.92117" lon="2.2624">
        <ele>19.6</ele>
        <time>2022-03-11T12:53:34Z</time>
      </trkpt>
      <trkpt lat="49.92117" lon="2.2624">
        <ele>19.6</ele>
        <time>2022-03-11T12:53:35Z</time>
      </trkpt>
      <trkpt lat="49.92117" lon="2.2624">
        <ele>19.6</ele>
        <time>2022-03-11T12:53:36Z</time>
      </trkpt>
      <trkpt lat="49.92117" lon="2.2624">
        <ele>19.6</ele>
        <time>2022-03-11T12:53:37Z</time>
      </trkpt>
      <trkpt lat="49.92117" lon="2.2624">
        <ele>19.6</ele>
        <time>2022-03-11T12:53:38Z</time>
      </trkpt>
      <trkpt lat="49.92117" lon="2.2624">
        <ele>19.6</ele>
        <time>2022-03-11T12:53:39Z</time>
      </trkpt>
      <trkpt lat="49.92117" lon="2.2624">
        <ele>19.6</ele>
        <time>2022-03-11T12:53:40Z</time>
      </trkpt>
      <trkpt lat="49.92117" lon="2.2624">
        <ele>19.6</ele>
        <time>2022-03-11T12:53:41Z</time>
      </trkpt>
      <trkpt lat="49.92117" lon="2.2624">
        <ele>19.6</ele>
        <time>2022-03-11T12:53:42Z</time>
      </trkpt>
      <trkpt lat="49.92117" lon="2.2624">
        <ele>19.6</ele>
        <time>2022-03-11T12:53:43Z</time>
      </trkpt>
      <trkpt lat="49.92117" lon="2.2624">
        <ele>19.6</ele>
        <time>2022-03-11T12:53:44Z</time>
      </trkpt>
      <trkpt lat="49.92117" lon="2.2624">
        <ele>19.6</ele>
        <time>2022-03-11T12:53:45Z</time>
      </trkpt>
      <trkpt lat="49.92117" lon="2.2624">
        <ele>19.6</ele>
        <time>2022-03-11T12:53:46Z</time>
      </trkpt>
      <trkpt lat="49.92117" lon="2.2624">
        <ele>19.6</ele>
        <time>2022-03-11T12:53:47Z</time>
      </trkpt>
      <trkpt lat="49.92117" lon="2.2624">
        <ele>19.6</ele>
        <time>2022-03-11T12:53:48Z</time>
      </trkpt>
      <trkpt lat="49.92117" lon="2.2624">
        <ele>19.6</ele>
        <time>2022-03-11T12:53:49Z</time>
      </trkpt>
      <trkpt lat="49.92117" lon="2.2624">
        <ele>19.6</ele>
        <time>2022-03-11T12:53:50Z</time>
      </trkpt>
      <trkpt lat="49.92117" lon="2.2624">
        <ele>19.6</ele>
        <time>2022-03-11T12:53:51Z</time>
      </trkpt>
      <trkpt lat="49.92117" lon="2.2624">
        <ele>19.6</ele>
        <time>2022-03-11T12:53:52Z</time>
      </trkpt>
      <trkpt lat="49.92117" lon="2.2624">
        <ele>19.6</ele>
        <time>2022-03-11T12:53:53Z</time>
      </trkpt>
      <trkpt lat="49.92117" lon="2.2624">
        <ele>19.6</ele>
        <time>2022-03-11T12:53:54Z</time>
      </trkpt>
      <trkpt lat="49.92117" lon="2.2624">
        <ele>19.6</ele>
        <time>2022-03-11T12:53:55Z</time>
      </trkpt>
      <trkpt lat="49.92117" lon="2.2624">
        <ele>19.6</ele>
        <time>2022-03-11T12:53:56Z</time>
      </trkpt>
      <trkpt lat="49.92117" lon="2.2624">
        <ele>19.6</ele>
        <time>2022-03-11T12:53:57Z</time>
      </trkpt>
      <trkpt lat="49.92117" lon="2.2624">
        <ele>19.6</ele>
        <time>2022-03-11T12:53:58Z</time>
      </trkpt>
      <trkpt lat="49.92117" lon="2.2624">
        <ele>19.6</ele>
        <time>2022-03-11T12:53:59Z</time>
      </trkpt>
      <trkpt lat="49.92117" lon="2.2624">
        <ele>19.6</ele>
        <time>2022-03-11T12:54:00Z</time>
      </trkpt>
      <trkpt lat="49.92117" lon="2.2624">
        <ele>19.6</ele>
        <time>2022-03-11T12:54:01Z</time>
      </trkpt>
      <trkpt lat="49.92117" lon="2.2624">
        <ele>19.6</ele>
        <time>2022-03-11T12:54:02Z</time>
      </trkpt>
      <trkpt lat="49.92117" lon="2.2624">
        <ele>19.6</ele>
        <time>2022-03-11T12:54:03Z</time>
      </trkpt>
      <trkpt lat="49.92117" lon="2.2624">
        <ele>19.6</ele>
        <time>2022-03-11T12:54:04Z</time>
      </trkpt>
      <trkpt lat="49.92117" lon="2.2624">
        <ele>19.6</ele>
        <time>2022-03-11T12:54:05Z</time>
      </trkpt>
      <trkpt lat="49.92116" lon="2.26239">
        <ele>19.6</ele>
        <time>2022-03-11T12:54:06Z</time>
      </trkpt>
      <trkpt lat="49.92116" lon="2.26238">
        <ele>19.6</ele>
        <time>2022-03-11T12:54:07Z</time>
      </trkpt>
      <trkpt lat="49.92116" lon="2.26238">
        <ele>19.6</ele>
        <time>2022-03-11T12:54:08Z</time>
      </trkpt>
      <trkpt lat="49.92116" lon="2.26238">
        <ele>19.6</ele>
        <time>2022-03-11T12:54:09Z</time>
      </trkpt>
      <trkpt lat="49.92116" lon="2.26238">
        <ele>19.6</ele>
        <time>2022-03-11T12:54:10Z</time>
      </trkpt>
      <trkpt lat="49.92116" lon="2.26238">
        <ele>19.6</ele>
        <time>2022-03-11T12:54:11Z</time>
      </trkpt>
      <trkpt lat="49.92116" lon="2.26238">
        <ele>19.6</ele>
        <time>2022-03-11T12:54:12Z</time>
      </trkpt>
      <trkpt lat="49.92115" lon="2.26237">
        <ele>19.6</ele>
        <time>2022-03-11T12:54:13Z</time>
      </trkpt>
      <trkpt lat="49.92115" lon="2.26237">
        <ele>19.6</ele>
        <time>2022-03-11T12:54:14Z</time>
      </trkpt>
      <trkpt lat="49.92115" lon="2.26237">
        <ele>19.6</ele>
        <time>2022-03-11T12:54:15Z</time>
      </trkpt>
      <trkpt lat="49.92115" lon="2.26237">
        <ele>19.6</ele>
        <time>2022-03-11T12:54:16Z</time>
      </trkpt>
      <trkpt lat="49.92115" lon="2.26236">
        <ele>19.6</ele>
        <time>2022-03-11T12:54:17Z</time>
      </trkpt>
      <trkpt lat="49.92115" lon="2.26236">
        <ele>19.6</ele>
        <time>2022-03-11T12:54:18Z</time>
      </trkpt>
      <trkpt lat="49.92115" lon="2.26236">
        <ele>19.6</ele>
        <time>2022-03-11T12:54:19Z</time>
      </trkpt>
      <trkpt lat="49.92115" lon="2.26236">
        <ele>19.6</ele>
        <time>2022-03-11T12:54:20Z</time>
      </trkpt>
      <trkpt lat="49.92115" lon="2.26236">
        <ele>19.6</ele>
        <time>2022-03-11T12:54:21Z</time>
      </trkpt>
      <trkpt lat="49.92115" lon="2.26236">
        <ele>19.6</ele>
        <time>2022-03-11T12:54:22Z</time>
      </trkpt>
      <trkpt lat="49.92115" lon="2.26236">
        <ele>19.6</ele>
        <time>2022-03-11T12:54:23Z</time>
      </trkpt>
      <trkpt lat="49.92115" lon="2.26236">
        <ele>19.6</ele>
        <time>2022-03-11T12:54:24Z</time>
      </trkpt>
      <trkpt lat="49.92115" lon="2.26236">
        <ele>19.6</ele>
        <time>2022-03-11T12:54:25Z</time>
      </trkpt>
      <trkpt lat="49.92115" lon="2.26236">
        <ele>19.6</ele>
        <time>2022-03-11T12:54:26Z</time>
      </trkpt>
      <trkpt lat="49.92115" lon="2.26236">
        <ele>19.6</ele>
        <time>2022-03-11T12:54:27Z</time>
      </trkpt>
      <trkpt lat="49.92115" lon="2.26236">
        <ele>19.6</ele>
        <time>2022-03-11T12:54:28Z</time>
      </trkpt>
      <trkpt lat="49.92115" lon="2.26236">
        <ele>19.6</ele>
        <time>2022-03-11T12:54:29Z</time>
      </trkpt>
      <trkpt lat="49.92115" lon="2.26236">
        <ele>19.6</ele>
        <time>2022-03-11T12:54:30Z</time>
      </trkpt>
      <trkpt lat="49.92115" lon="2.26236">
        <ele>19.6</ele>
        <time>2022-03-11T12:54:31Z</time>
      </trkpt>
      <trkpt lat="49.92115" lon="2.26236">
        <ele>19.6</ele>
        <time>2022-03-11T12:54:32Z</time>
      </trkpt>
      <trkpt lat="49.92115" lon="2.26236">
        <ele>19.6</ele>
        <time>2022-03-11T12:54:33Z</time>
      </trkpt>
      <trkpt lat="49.92115" lon="2.26236">
        <ele>19.6</ele>
        <time>2022-03-11T12:54:34Z</time>
      </trkpt>
      <trkpt lat="49.92115" lon="2.26236">
        <ele>19.6</ele>
        <time>2022-03-11T12:54:35Z</time>
      </trkpt>
      <trkpt lat="49.92115" lon="2.26236">
        <ele>19.6</ele>
        <time>2022-03-11T12:54:36Z</time>
      </trkpt>
      <trkpt lat="49.92115" lon="2.26236">
        <ele>19.6</ele>
        <time>2022-03-11T12:54:37Z</time>
      </trkpt>
      <trkpt lat="49.92115" lon="2.26236">
        <ele>19.6</ele>
        <time>2022-03-11T12:54:38Z</time>
      </trkpt>
      <trkpt lat="49.92115" lon="2.26236">
        <ele>19.6</ele>
        <time>2022-03-11T12:54:39Z</time>
      </trkpt>
      <trkpt lat="49.92115" lon="2.26236">
        <ele>19.6</ele>
        <time>2022-03-11T12:54:40Z</time>
      </trkpt>
      <trkpt lat="49.92115" lon="2.26236">
        <ele>19.6</ele>
        <time>2022-03-11T12:54:41Z</time>
      </trkpt>
      <trkpt lat="49.92115" lon="2.26236">
        <ele>19.6</ele>
        <time>2022-03-11T12:54:42Z</time>
      </trkpt>
      <trkpt lat="49.92115" lon="2.26236">
        <ele>19.6</ele>
        <time>2022-03-11T12:54:43Z</time>
      </trkpt>
      <trkpt lat="49.92115" lon="2.26236">
        <ele>19.6</ele>
        <time>2022-03-11T12:54:44Z</time>
      </trkpt>
      <trkpt lat="49.92115" lon="2.26236">
        <ele>19.6</ele>
        <time>2022-03-11T12:54:45Z</time>
      </trkpt>
      <trkpt lat="49.92115" lon="2.26236">
        <ele>19.6</ele>
        <time>2022-03-11T12:54:46Z</time>
      </trkpt>
      <trkpt lat="49.92115" lon="2.26236">
        <ele>19.6</ele>
        <time>2022-03-11T12:54:47Z</time>
      </trkpt>
      <trkpt lat="49.92115" lon="2.26236">
        <ele>19.6</ele>
        <time>2022-03-11T12:54:48Z</time>
      </trkpt>
      <trkpt lat="49.92115" lon="2.26236">
        <ele>19.6</ele>
        <time>2022-03-11T12:54:49Z</time>
      </trkpt>
      <trkpt lat="49.92115" lon="2.26236">
        <ele>19.6</ele>
        <time>2022-03-11T12:54:50Z</time>
      </trkpt>
      <trkpt lat="49.92115" lon="2.26236">
        <ele>19.6</ele>
        <time>2022-03-11T12:54:51Z</time>
      </trkpt>
      <trkpt lat="49.92115" lon="2.26236">
        <ele>19.6</ele>
        <time>2022-03-11T12:54:52Z</time>
      </trkpt>
      <trkpt lat="49.92115" lon="2.26236">
        <ele>19.6</ele>
        <time>2022-03-11T12:54:53Z</time>
      </trkpt>
      <trkpt lat="49.92115" lon="2.26236">
        <ele>19.6</ele>
        <time>2022-03-11T12:54:54Z</time>
      </trkpt>
      <trkpt lat="49.92115" lon="2.26236">
        <ele>19.6</ele>
        <time>2022-03-11T12:54:55Z</time>
      </trkpt>
      <trkpt lat="49.92115" lon="2.26236">
        <ele>19.6</ele>
        <time>2022-03-11T12:54:56Z</time>
      </trkpt>
      <trkpt lat="49.92115" lon="2.26236">
        <ele>19.6</ele>
        <time>2022-03-11T12:54:57Z</time>
      </trkpt>
      <trkpt lat="49.92115" lon="2.26236">
        <ele>19.6</ele>
        <time>2022-03-11T12:54:58Z</time>
      </trkpt>
      <trkpt lat="49.92115" lon="2.26236">
        <ele>19.6</ele>
        <time>2022-03-11T12:54:59Z</time>
      </trkpt>
      <trkpt lat="49.92115" lon="2.26236">
        <ele>19.6</ele>
        <time>2022-03-11T12:55:00Z</time>
      </trkpt>
      <trkpt lat="49.92115" lon="2.26236">
        <ele>19.6</ele>
        <time>2022-03-11T12:55:01Z</time>
      </trkpt>
      <trkpt lat="49.92115" lon="2.26236">
        <ele>19.6</ele>
        <time>2022-03-11T12:55:02Z</time>
      </trkpt>
      <trkpt lat="49.92115" lon="2.26236">
        <ele>19.6</ele>
        <time>2022-03-11T12:55:03Z</time>
      </trkpt>
      <trkpt lat="49.92115" lon="2.26236">
        <ele>19.6</ele>
        <time>2022-03-11T12:55:04Z</time>
      </trkpt>
      <trkpt lat="49.92115" lon="2.26236">
        <ele>19.6</ele>
        <time>2022-03-11T12:55:05Z</time>
      </trkpt>
      <trkpt lat="49.92115" lon="2.26236">
        <ele>19.6</ele>
        <time>2022-03-11T12:55:06Z</time>
      </trkpt>
      <trkpt lat="49.92115" lon="2.26236">
        <ele>19.6</ele>
        <time>2022-03-11T12:55:07Z</time>
      </trkpt>
      <trkpt lat="49.92115" lon="2.26236">
        <ele>19.6</ele>
        <time>2022-03-11T12:55:08Z</time>
      </trkpt>
      <trkpt lat="49.92115" lon="2.26236">
        <ele>19.6</ele>
        <time>2022-03-11T12:55:09Z</time>
      </trkpt>
      <trkpt lat="49.92115" lon="2.26236">
        <ele>19.6</ele>
        <time>2022-03-11T12:55:10Z</time>
      </trkpt>
      <trkpt lat="49.92115" lon="2.26236">
        <ele>19.6</ele>
        <time>2022-03-11T12:55:11Z</time>
      </trkpt>
      <trkpt lat="49.92115" lon="2.26236">
        <ele>19.6</ele>
        <time>2022-03-11T12:55:12Z</time>
      </trkpt>
      <trkpt lat="49.92115" lon="2.26236">
        <ele>19.6</ele>
        <time>2022-03-11T12:55:13Z</time>
      </trkpt>
      <trkpt lat="49.92115" lon="2.26236">
        <ele>19.6</ele>
        <time>2022-03-11T12:55:14Z</time>
      </trkpt>
      <trkpt lat="49.92115" lon="2.26235">
        <ele>19.6</ele>
        <time>2022-03-11T12:55:15Z</time>
      </trkpt>
      <trkpt lat="49.92115" lon="2.26234">
        <ele>19.6</ele>
        <time>2022-03-11T12:55:16Z</time>
      </trkpt>
      <trkpt lat="49.92115" lon="2.26233">
        <ele>19.6</ele>
        <time>2022-03-11T12:55:17Z</time>
      </trkpt>
      <trkpt lat="49.92115" lon="2.26233">
        <ele>19.6</ele>
        <time>2022-03-11T12:55:18Z</time>
      </trkpt>
      <trkpt lat="49.92115" lon="2.26232">
        <ele>19.6</ele>
        <time>2022-03-11T12:55:19Z</time>
      </trkpt>
      <trkpt lat="49.92115" lon="2.26232">
        <ele>19.6</ele>
        <time>2022-03-11T12:55:20Z</time>
      </trkpt>
      <trkpt lat="49.92115" lon="2.26232">
        <ele>19.6</ele>
        <time>2022-03-11T12:55:21Z</time>
      </trkpt>
      <trkpt lat="49.92115" lon="2.26232">
        <ele>19.6</ele>
        <time>2022-03-11T12:55:22Z</time>
      </trkpt>
      <trkpt lat="49.92115" lon="2.26231">
        <ele>19.6</ele>
        <time>2022-03-11T12:55:23Z</time>
      </trkpt>
      <trkpt lat="49.92115" lon="2.26231">
        <ele>19.6</ele>
        <time>2022-03-11T12:55:24Z</time>
      </trkpt>
      <trkpt lat="49.92115" lon="2.26231">
        <ele>19.6</ele>
        <time>2022-03-11T12:55:25Z</time>
      </trkpt>
      <trkpt lat="49.92115" lon="2.26231">
        <ele>19.6</ele>
        <time>2022-03-11T12:55:26Z</time>
      </trkpt>
      <trkpt lat="49.92115" lon="2.26231">
        <ele>19.6</ele>
        <time>2022-03-11T12:55:27Z</time>
      </trkpt>
      <trkpt lat="49.92115" lon="2.26231">
        <ele>19.6</ele>
        <time>2022-03-11T12:55:28Z</time>
      </trkpt>
      <trkpt lat="49.92115" lon="2.26231">
        <ele>19.6</ele>
        <time>2022-03-11T12:55:29Z</time>
      </trkpt>
      <trkpt lat="49.92115" lon="2.26231">
        <ele>19.6</ele>
        <time>2022-03-11T12:55:30Z</time>
      </trkpt>
      <trkpt lat="49.92115" lon="2.26231">
        <ele>19.6</ele>
        <time>2022-03-11T12:55:31Z</time>
      </trkpt>
      <trkpt lat="49.92115" lon="2.26231">
        <ele>19.6</ele>
        <time>2022-03-11T12:55:32Z</time>
      </trkpt>
      <trkpt lat="49.92115" lon="2.26231">
        <ele>19.6</ele>
        <time>2022-03-11T12:55:33Z</time>
      </trkpt>
      <trkpt lat="49.92115" lon="2.26231">
        <ele>19.6</ele>
        <time>2022-03-11T12:55:34Z</time>
      </trkpt>
      <trkpt lat="49.92115" lon="2.26231">
        <ele>19.6</ele>
        <time>2022-03-11T12:55:35Z</time>
      </trkpt>
      <trkpt lat="49.92115" lon="2.26231">
        <ele>19.6</ele>
        <time>2022-03-11T12:55:36Z</time>
      </trkpt>
      <trkpt lat="49.92115" lon="2.26231">
        <ele>19.6</ele>
        <time>2022-03-11T12:55:37Z</time>
      </trkpt>
      <trkpt lat="49.92115" lon="2.26231">
        <ele>19.6</ele>
        <time>2022-03-11T12:55:38Z</time>
      </trkpt>
      <trkpt lat="49.92115" lon="2.26231">
        <ele>19.6</ele>
        <time>2022-03-11T12:55:39Z</time>
      </trkpt>
      <trkpt lat="49.92115" lon="2.26231">
        <ele>19.6</ele>
        <time>2022-03-11T12:55:40Z</time>
      </trkpt>
      <trkpt lat="49.92115" lon="2.26231">
        <ele>19.6</ele>
        <time>2022-03-11T12:55:41Z</time>
      </trkpt>
      <trkpt lat="49.92115" lon="2.26231">
        <ele>19.6</ele>
        <time>2022-03-11T12:55:42Z</time>
      </trkpt>
      <trkpt lat="49.92115" lon="2.26231">
        <ele>19.6</ele>
        <time>2022-03-11T12:55:43Z</time>
      </trkpt>
      <trkpt lat="49.92115" lon="2.26231">
        <ele>19.6</ele>
        <time>2022-03-11T12:55:44Z</time>
      </trkpt>
      <trkpt lat="49.92115" lon="2.26231">
        <ele>19.6</ele>
        <time>2022-03-11T12:55:45Z</time>
      </trkpt>
      <trkpt lat="49.92115" lon="2.26231">
        <ele>19.6</ele>
        <time>2022-03-11T12:55:46Z</time>
      </trkpt>
      <trkpt lat="49.92115" lon="2.26231">
        <ele>19.6</ele>
        <time>2022-03-11T12:55:47Z</time>
      </trkpt>
      <trkpt lat="49.92115" lon="2.26231">
        <ele>19.6</ele>
        <time>2022-03-11T12:55:48Z</time>
      </trkpt>
      <trkpt lat="49.92115" lon="2.26231">
        <ele>19.6</ele>
        <time>2022-03-11T12:55:49Z</time>
      </trkpt>
      <trkpt lat="49.92115" lon="2.26231">
        <ele>19.6</ele>
        <time>2022-03-11T12:55:50Z</time>
      </trkpt>
      <trkpt lat="49.92115" lon="2.26231">
        <ele>19.6</ele>
        <time>2022-03-11T12:55:51Z</time>
      </trkpt>
      <trkpt lat="49.92115" lon="2.26231">
        <ele>19.6</ele>
        <time>2022-03-11T12:55:52Z</time>
      </trkpt>
      <trkpt lat="49.92115" lon="2.26231">
        <ele>19.6</ele>
        <time>2022-03-11T12:55:53Z</time>
      </trkpt>
      <trkpt lat="49.92115" lon="2.26231">
        <ele>19.6</ele>
        <time>2022-03-11T12:55:54Z</time>
      </trkpt>
      <trkpt lat="49.92115" lon="2.26231">
        <ele>19.6</ele>
        <time>2022-03-11T12:55:55Z</time>
      </trkpt>
      <trkpt lat="49.92115" lon="2.26231">
        <ele>19.6</ele>
        <time>2022-03-11T12:55:56Z</time>
      </trkpt>
      <trkpt lat="49.92115" lon="2.26231">
        <ele>19.6</ele>
        <time>2022-03-11T12:55:57Z</time>
      </trkpt>
      <trkpt lat="49.92115" lon="2.26231">
        <ele>19.6</ele>
        <time>2022-03-11T12:55:58Z</time>
      </trkpt>
      <trkpt lat="49.92115" lon="2.26231">
        <ele>19.6</ele>
        <time>2022-03-11T12:55:59Z</time>
      </trkpt>
      <trkpt lat="49.92115" lon="2.26231">
        <ele>19.6</ele>
        <time>2022-03-11T12:56:00Z</time>
      </trkpt>
      <trkpt lat="49.92115" lon="2.26231">
        <ele>19.6</ele>
        <time>2022-03-11T12:56:01Z</time>
      </trkpt>
      <trkpt lat="49.92115" lon="2.26231">
        <ele>19.6</ele>
        <time>2022-03-11T12:56:02Z</time>
      </trkpt>
      <trkpt lat="49.92115" lon="2.26231">
        <ele>19.6</ele>
        <time>2022-03-11T12:56:03Z</time>
      </trkpt>
      <trkpt lat="49.92115" lon="2.26231">
        <ele>19.6</ele>
        <time>2022-03-11T12:56:04Z</time>
      </trkpt>
      <trkpt lat="49.92115" lon="2.26231">
        <ele>19.6</ele>
        <time>2022-03-11T12:56:05Z</time>
      </trkpt>
      <trkpt lat="49.92115" lon="2.26231">
        <ele>19.6</ele>
        <time>2022-03-11T12:56:06Z</time>
      </trkpt>
      <trkpt lat="49.92115" lon="2.26231">
        <ele>19.6</ele>
        <time>2022-03-11T12:56:07Z</time>
      </trkpt>
      <trkpt lat="49.92115" lon="2.26231">
        <ele>19.6</ele>
        <time>2022-03-11T12:56:08Z</time>
      </trkpt>
      <trkpt lat="49.92115" lon="2.26231">
        <ele>19.6</ele>
        <time>2022-03-11T12:56:09Z</time>
      </trkpt>
      <trkpt lat="49.92115" lon="2.26231">
        <ele>19.6</ele>
        <time>2022-03-11T12:56:10Z</time>
      </trkpt>
      <trkpt lat="49.92115" lon="2.26231">
        <ele>19.6</ele>
        <time>2022-03-11T12:56:11Z</time>
      </trkpt>
      <trkpt lat="49.92115" lon="2.26231">
        <ele>19.6</ele>
        <time>2022-03-11T12:56:12Z</time>
      </trkpt>
      <trkpt lat="49.92115" lon="2.26231">
        <ele>19.6</ele>
        <time>2022-03-11T12:56:13Z</time>
      </trkpt>
      <trkpt lat="49.92115" lon="2.26231">
        <ele>19.6</ele>
        <time>2022-03-11T12:56:14Z</time>
      </trkpt>
      <trkpt lat="49.92115" lon="2.26231">
        <ele>19.6</ele>
        <time>2022-03-11T12:56:15Z</time>
      </trkpt>
      <trkpt lat="49.92115" lon="2.26231">
        <ele>19.6</ele>
        <time>2022-03-11T12:56:16Z</time>
      </trkpt>
      <trkpt lat="49.92115" lon="2.26231">
        <ele>19.6</ele>
        <time>2022-03-11T12:56:17Z</time>
      </trkpt>
      <trkpt lat="49.92115" lon="2.26231">
        <ele>19.6</ele>
        <time>2022-03-11T12:56:18Z</time>
      </trkpt>
      <trkpt lat="49.92115" lon="2.26231">
        <ele>19.6</ele>
        <time>2022-03-11T12:56:19Z</time>
      </trkpt>
      <trkpt lat="49.92115" lon="2.26231">
        <ele>19.6</ele>
        <time>2022-03-11T12:56:20Z</time>
      </trkpt>
      <trkpt lat="49.92115" lon="2.26231">
        <ele>19.6</ele>
        <time>2022-03-11T12:56:21Z</time>
      </trkpt>
      <trkpt lat="49.92115" lon="2.26231">
        <ele>19.6</ele>
        <time>2022-03-11T12:56:22Z</time>
      </trkpt>
      <trkpt lat="49.92115" lon="2.26231">
        <ele>19.6</ele>
        <time>2022-03-11T12:56:23Z</time>
      </trkpt>
      <trkpt lat="49.92115" lon="2.26231">
        <ele>19.6</ele>
        <time>2022-03-11T12:56:24Z</time>
      </trkpt>
      <trkpt lat="49.92115" lon="2.26231">
        <ele>19.6</ele>
        <time>2022-03-11T12:56:25Z</time>
      </trkpt>
      <trkpt lat="49.92115" lon="2.26231">
        <ele>19.6</ele>
        <time>2022-03-11T12:56:27Z</time>
      </trkpt>
      <trkpt lat="49.92115" lon="2.26231">
        <ele>19.6</ele>
        <time>2022-03-11T12:56:28Z</time>
      </trkpt>
      <trkpt lat="49.92117" lon="2.26231">
        <ele>19.6</ele>
        <time>2022-03-11T12:56:29Z</time>
      </trkpt>
      <trkpt lat="49.92118" lon="2.26231">
        <ele>19.6</ele>
        <time>2022-03-11T12:56:30Z</time>
      </trkpt>
      <trkpt lat="49.92118" lon="2.26231">
        <ele>19.6</ele>
        <time>2022-03-11T12:56:31Z</time>
      </trkpt>
      <trkpt lat="49.92119" lon="2.2623">
        <ele>19.6</ele>
        <time>2022-03-11T12:56:32Z</time>
      </trkpt>
      <trkpt lat="49.92119" lon="2.2623">
        <ele>19.6</ele>
        <time>2022-03-11T12:56:33Z</time>
      </trkpt>
      <trkpt lat="49.92119" lon="2.26231">
        <ele>19.6</ele>
        <time>2022-03-11T12:56:34Z</time>
      </trkpt>
      <trkpt lat="49.92119" lon="2.26231">
        <ele>19.6</ele>
        <time>2022-03-11T12:56:35Z</time>
      </trkpt>
      <trkpt lat="49.92119" lon="2.26231">
        <ele>19.6</ele>
        <time>2022-03-11T12:56:36Z</time>
      </trkpt>
      <trkpt lat="49.92119" lon="2.26231">
        <ele>19.6</ele>
        <time>2022-03-11T12:56:37Z</time>
      </trkpt>
      <trkpt lat="49.92119" lon="2.26231">
        <ele>19.6</ele>
        <time>2022-03-11T12:56:38Z</time>
      </trkpt>
      <trkpt lat="49.92119" lon="2.26231">
        <ele>19.6</ele>
        <time>2022-03-11T12:56:39Z</time>
      </trkpt>
      <trkpt lat="49.92119" lon="2.26231">
        <ele>19.6</ele>
        <time>2022-03-11T12:56:40Z</time>
      </trkpt>
      <trkpt lat="49.92119" lon="2.26231">
        <ele>19.6</ele>
        <time>2022-03-11T12:56:41Z</time>
      </trkpt>
      <trkpt lat="49.92119" lon="2.26231">
        <ele>19.6</ele>
        <time>2022-03-11T12:56:42Z</time>
      </trkpt>
      <trkpt lat="49.92119" lon="2.26231">
        <ele>19.6</ele>
        <time>2022-03-11T12:56:43Z</time>
      </trkpt>
      <trkpt lat="49.92119" lon="2.26231">
        <ele>19.6</ele>
        <time>2022-03-11T12:56:44Z</time>
      </trkpt>
      <trkpt lat="49.92119" lon="2.26231">
        <ele>19.6</ele>
        <time>2022-03-11T12:56:45Z</time>
      </trkpt>
      <trkpt lat="49.92119" lon="2.26231">
        <ele>19.6</ele>
        <time>2022-03-11T12:56:46Z</time>
      </trkpt>
      <trkpt lat="49.92119" lon="2.26231">
        <ele>19.6</ele>
        <time>2022-03-11T12:56:47Z</time>
      </trkpt>
      <trkpt lat="49.92119" lon="2.26231">
        <ele>19.6</ele>
        <time>2022-03-11T12:56:48Z</time>
      </trkpt>
      <trkpt lat="49.92119" lon="2.26231">
        <ele>19.6</ele>
        <time>2022-03-11T12:56:49Z</time>
      </trkpt>
      <trkpt lat="49.92119" lon="2.26231">
        <ele>19.6</ele>
        <time>2022-03-11T12:56:50Z</time>
      </trkpt>
      <trkpt lat="49.92119" lon="2.26231">
        <ele>19.6</ele>
        <time>2022-03-11T12:56:51Z</time>
      </trkpt>
      <trkpt lat="49.92119" lon="2.26231">
        <ele>19.6</ele>
        <time>2022-03-11T12:56:52Z</time>
      </trkpt>
      <trkpt lat="49.92119" lon="2.26231">
        <ele>19.6</ele>
        <time>2022-03-11T12:56:53Z</time>
      </trkpt>
      <trkpt lat="49.92119" lon="2.26231">
        <ele>19.6</ele>
        <time>2022-03-11T12:56:54Z</time>
      </trkpt>
      <trkpt lat="49.92119" lon="2.26231">
        <ele>19.6</ele>
        <time>2022-03-11T12:56:55Z</time>
      </trkpt>
      <trkpt lat="49.92119" lon="2.26231">
        <ele>19.6</ele>
        <time>2022-03-11T12:56:56Z</time>
      </trkpt>
      <trkpt lat="49.92119" lon="2.26231">
        <ele>19.6</ele>
        <time>2022-03-11T12:56:57Z</time>
      </trkpt>
      <trkpt lat="49.92119" lon="2.26231">
        <ele>19.6</ele>
        <time>2022-03-11T12:56:58Z</time>
      </trkpt>
      <trkpt lat="49.92119" lon="2.26231">
        <ele>19.6</ele>
        <time>2022-03-11T12:56:59Z</time>
      </trkpt>
      <trkpt lat="49.92119" lon="2.26231">
        <ele>19.6</ele>
        <time>2022-03-11T12:57:00Z</time>
      </trkpt>
      <trkpt lat="49.92119" lon="2.26231">
        <ele>19.6</ele>
        <time>2022-03-11T12:57:01Z</time>
      </trkpt>
      <trkpt lat="49.92119" lon="2.26231">
        <ele>19.6</ele>
        <time>2022-03-11T12:57:02Z</time>
      </trkpt>
      <trkpt lat="49.92119" lon="2.26231">
        <ele>19.6</ele>
        <time>2022-03-11T12:57:03Z</time>
      </trkpt>
      <trkpt lat="49.92119" lon="2.26231">
        <ele>19.6</ele>
        <time>2022-03-11T12:57:04Z</time>
      </trkpt>
      <trkpt lat="49.92119" lon="2.26231">
        <ele>19.6</ele>
        <time>2022-03-11T12:57:05Z</time>
      </trkpt>
      <trkpt lat="49.92119" lon="2.26231">
        <ele>19.6</ele>
        <time>2022-03-11T12:57:06Z</time>
      </trkpt>
      <trkpt lat="49.92119" lon="2.26231">
        <ele>19.6</ele>
        <time>2022-03-11T12:57:07Z</time>
      </trkpt>
      <trkpt lat="49.92119" lon="2.26231">
        <ele>19.6</ele>
        <time>2022-03-11T12:57:08Z</time>
      </trkpt>
      <trkpt lat="49.92119" lon="2.26231">
        <ele>19.6</ele>
        <time>2022-03-11T12:57:09Z</time>
      </trkpt>
      <trkpt lat="49.92119" lon="2.26231">
        <ele>19.6</ele>
        <time>2022-03-11T12:57:10Z</time>
      </trkpt>
      <trkpt lat="49.92119" lon="2.26231">
        <ele>19.6</ele>
        <time>2022-03-11T12:57:11Z</time>
      </trkpt>
      <trkpt lat="49.92119" lon="2.26231">
        <ele>19.6</ele>
        <time>2022-03-11T12:57:12Z</time>
      </trkpt>
      <trkpt lat="49.92119" lon="2.26231">
        <ele>19.6</ele>
        <time>2022-03-11T12:57:13Z</time>
      </trkpt>
      <trkpt lat="49.92119" lon="2.26231">
        <ele>19.6</ele>
        <time>2022-03-11T12:57:14Z</time>
      </trkpt>
      <trkpt lat="49.92119" lon="2.26231">
        <ele>19.6</ele>
        <time>2022-03-11T12:57:15Z</time>
      </trkpt>
      <trkpt lat="49.92119" lon="2.26231">
        <ele>19.6</ele>
        <time>2022-03-11T12:57:16Z</time>
      </trkpt>
      <trkpt lat="49.92119" lon="2.26231">
        <ele>19.6</ele>
        <time>2022-03-11T12:57:17Z</time>
      </trkpt>
      <trkpt lat="49.92119" lon="2.26231">
        <ele>19.6</ele>
        <time>2022-03-11T12:57:18Z</time>
      </trkpt>
      <trkpt lat="49.92119" lon="2.26231">
        <ele>19.6</ele>
        <time>2022-03-11T12:57:19Z</time>
      </trkpt>
      <trkpt lat="49.92119" lon="2.26231">
        <ele>19.6</ele>
        <time>2022-03-11T12:57:20Z</time>
      </trkpt>
      <trkpt lat="49.92119" lon="2.26231">
        <ele>19.6</ele>
        <time>2022-03-11T12:57:21Z</time>
      </trkpt>
      <trkpt lat="49.92119" lon="2.26231">
        <ele>19.6</ele>
        <time>2022-03-11T12:57:22Z</time>
      </trkpt>
      <trkpt lat="49.92119" lon="2.26231">
        <ele>19.6</ele>
        <time>2022-03-11T12:57:23Z</time>
      </trkpt>
      <trkpt lat="49.92119" lon="2.26231">
        <ele>19.6</ele>
        <time>2022-03-11T12:57:24Z</time>
      </trkpt>
      <trkpt lat="49.92119" lon="2.26231">
        <ele>19.6</ele>
        <time>2022-03-11T12:57:25Z</time>
      </trkpt>
      <trkpt lat="49.92119" lon="2.26231">
        <ele>19.6</ele>
        <time>2022-03-11T12:57:26Z</time>
      </trkpt>
      <trkpt lat="49.92119" lon="2.26231">
        <ele>19.6</ele>
        <time>2022-03-11T12:57:27Z</time>
      </trkpt>
      <trkpt lat="49.92119" lon="2.26231">
        <ele>19.6</ele>
        <time>2022-03-11T12:57:28Z</time>
      </trkpt>
      <trkpt lat="49.92119" lon="2.26231">
        <ele>19.6</ele>
        <time>2022-03-11T12:57:29Z</time>
      </trkpt>
      <trkpt lat="49.92119" lon="2.26231">
        <ele>19.6</ele>
        <time>2022-03-11T12:57:30Z</time>
      </trkpt>
      <trkpt lat="49.92119" lon="2.26231">
        <ele>19.6</ele>
        <time>2022-03-11T12:57:31Z</time>
      </trkpt>
      <trkpt lat="49.92119" lon="2.26231">
        <ele>19.6</ele>
        <time>2022-03-11T12:57:32Z</time>
      </trkpt>
      <trkpt lat="49.92119" lon="2.26231">
        <ele>19.6</ele>
        <time>2022-03-11T12:57:33Z</time>
      </trkpt>
      <trkpt lat="49.92119" lon="2.26231">
        <ele>19.6</ele>
        <time>2022-03-11T12:57:34Z</time>
      </trkpt>
      <trkpt lat="49.92119" lon="2.26231">
        <ele>19.6</ele>
        <time>2022-03-11T12:57:35Z</time>
      </trkpt>
      <trkpt lat="49.92119" lon="2.26231">
        <ele>19.6</ele>
        <time>2022-03-11T12:57:36Z</time>
      </trkpt>
      <trkpt lat="49.92119" lon="2.26231">
        <ele>19.6</ele>
        <time>2022-03-11T12:57:37Z</time>
      </trkpt>
      <trkpt lat="49.92119" lon="2.26231">
        <ele>19.6</ele>
        <time>2022-03-11T12:57:38Z</time>
      </trkpt>
      <trkpt lat="49.92119" lon="2.26231">
        <ele>19.6</ele>
        <time>2022-03-11T12:57:39Z</time>
      </trkpt>
      <trkpt lat="49.92119" lon="2.26231">
        <ele>19.6</ele>
        <time>2022-03-11T12:57:40Z</time>
      </trkpt>
      <trkpt lat="49.92119" lon="2.26231">
        <ele>19.6</ele>
        <time>2022-03-11T12:57:41Z</time>
      </trkpt>
      <trkpt lat="49.92119" lon="2.26231">
        <ele>19.6</ele>
        <time>2022-03-11T12:57:42Z</time>
      </trkpt>
      <trkpt lat="49.92119" lon="2.26231">
        <ele>19.6</ele>
        <time>2022-03-11T12:57:43Z</time>
      </trkpt>
      <trkpt lat="49.92119" lon="2.26231">
        <ele>19.6</ele>
        <time>2022-03-11T12:57:44Z</time>
      </trkpt>
      <trkpt lat="49.92119" lon="2.26231">
        <ele>19.6</ele>
        <time>2022-03-11T12:57:45Z</time>
      </trkpt>
      <trkpt lat="49.92119" lon="2.26231">
        <ele>19.6</ele>
        <time>2022-03-11T12:57:46Z</time>
      </trkpt>
      <trkpt lat="49.92119" lon="2.26231">
        <ele>19.6</ele>
        <time>2022-03-11T12:57:47Z</time>
      </trkpt>
      <trkpt lat="49.92119" lon="2.26231">
        <ele>19.6</ele>
        <time>2022-03-11T12:57:48Z</time>
      </trkpt>
      <trkpt lat="49.92119" lon="2.26231">
        <ele>19.6</ele>
        <time>2022-03-11T12:57:49Z</time>
      </trkpt>
      <trkpt lat="49.92119" lon="2.26231">
        <ele>19.6</ele>
        <time>2022-03-11T12:57:50Z</time>
      </trkpt>
      <trkpt lat="49.92119" lon="2.26231">
        <ele>19.6</ele>
        <time>2022-03-11T12:57:51Z</time>
      </trkpt>
      <trkpt lat="49.92119" lon="2.26231">
        <ele>19.6</ele>
        <time>2022-03-11T12:57:52Z</time>
      </trkpt>
      <trkpt lat="49.92119" lon="2.26231">
        <ele>19.6</ele>
        <time>2022-03-11T12:57:53Z</time>
      </trkpt>
      <trkpt lat="49.92119" lon="2.2623">
        <ele>19.6</ele>
        <time>2022-03-11T12:57:54Z</time>
      </trkpt>
      <trkpt lat="49.92119" lon="2.26229">
        <ele>19.6</ele>
        <time>2022-03-11T12:57:55Z</time>
      </trkpt>
      <trkpt lat="49.92119" lon="2.26229">
        <ele>19.6</ele>
        <time>2022-03-11T12:57:56Z</time>
      </trkpt>
      <trkpt lat="49.9212" lon="2.26229">
        <ele>19.6</ele>
        <time>2022-03-11T12:57:57Z</time>
      </trkpt>
      <trkpt lat="49.9212" lon="2.26229">
        <ele>19.6</ele>
        <time>2022-03-11T12:57:58Z</time>
      </trkpt>
      <trkpt lat="49.9212" lon="2.26229">
        <ele>19.6</ele>
        <time>2022-03-11T12:57:59Z</time>
      </trkpt>
      <trkpt lat="49.9212" lon="2.26229">
        <ele>19.6</ele>
        <time>2022-03-11T12:58:00Z</time>
      </trkpt>
      <trkpt lat="49.9212" lon="2.26229">
        <ele>19.6</ele>
        <time>2022-03-11T12:58:01Z</time>
      </trkpt>
      <trkpt lat="49.9212" lon="2.26229">
        <ele>19.6</ele>
        <time>2022-03-11T12:58:02Z</time>
      </trkpt>
      <trkpt lat="49.9212" lon="2.26229">
        <ele>19.6</ele>
        <time>2022-03-11T12:58:03Z</time>
      </trkpt>
      <trkpt lat="49.9212" lon="2.26229">
        <ele>19.6</ele>
        <time>2022-03-11T12:58:04Z</time>
      </trkpt>
      <trkpt lat="49.9212" lon="2.26229">
        <ele>19.6</ele>
        <time>2022-03-11T12:58:05Z</time>
      </trkpt>
      <trkpt lat="49.9212" lon="2.26229">
        <ele>19.6</ele>
        <time>2022-03-11T12:58:06Z</time>
      </trkpt>
      <trkpt lat="49.9212" lon="2.26229">
        <ele>19.6</ele>
        <time>2022-03-11T12:58:07Z</time>
      </trkpt>
      <trkpt lat="49.9212" lon="2.26229">
        <ele>19.6</ele>
        <time>2022-03-11T12:58:08Z</time>
      </trkpt>
      <trkpt lat="49.9212" lon="2.26229">
        <ele>19.6</ele>
        <time>2022-03-11T12:58:09Z</time>
      </trkpt>
      <trkpt lat="49.9212" lon="2.26229">
        <ele>19.6</ele>
        <time>2022-03-11T12:58:10Z</time>
      </trkpt>
      <trkpt lat="49.9212" lon="2.26229">
        <ele>19.6</ele>
        <time>2022-03-11T12:58:11Z</time>
      </trkpt>
      <trkpt lat="49.9212" lon="2.26229">
        <ele>19.6</ele>
        <time>2022-03-11T12:58:12Z</time>
      </trkpt>
      <trkpt lat="49.9212" lon="2.26229">
        <ele>19.6</ele>
        <time>2022-03-11T12:58:13Z</time>
      </trkpt>
      <trkpt lat="49.9212" lon="2.26229">
        <ele>19.6</ele>
        <time>2022-03-11T12:58:14Z</time>
      </trkpt>
      <trkpt lat="49.9212" lon="2.26229">
        <ele>19.6</ele>
        <time>2022-03-11T12:58:15Z</time>
      </trkpt>
      <trkpt lat="49.9212" lon="2.26229">
        <ele>19.6</ele>
        <time>2022-03-11T12:58:16Z</time>
      </trkpt>
      <trkpt lat="49.92119" lon="2.2623">
        <ele>19.6</ele>
        <time>2022-03-11T12:58:17Z</time>
      </trkpt>
      <trkpt lat="49.92119" lon="2.2623">
        <ele>19.6</ele>
        <time>2022-03-11T12:58:18Z</time>
      </trkpt>
      <trkpt lat="49.92119" lon="2.2623">
        <ele>19.6</ele>
        <time>2022-03-11T12:58:19Z</time>
      </trkpt>
      <trkpt lat="49.92119" lon="2.2623">
        <ele>19.6</ele>
        <time>2022-03-11T12:58:20Z</time>
      </trkpt>
      <trkpt lat="49.92119" lon="2.2623">
        <ele>19.6</ele>
        <time>2022-03-11T12:58:21Z</time>
      </trkpt>
      <trkpt lat="49.92119" lon="2.2623">
        <ele>19.6</ele>
        <time>2022-03-11T12:58:22Z</time>
      </trkpt>
      <trkpt lat="49.92119" lon="2.2623">
        <ele>19.6</ele>
        <time>2022-03-11T12:58:23Z</time>
      </trkpt>
      <trkpt lat="49.92119" lon="2.2623">
        <ele>19.6</ele>
        <time>2022-03-11T12:58:24Z</time>
      </trkpt>
      <trkpt lat="49.92119" lon="2.2623">
        <ele>19.6</ele>
        <time>2022-03-11T12:58:25Z</time>
      </trkpt>
      <trkpt lat="49.92119" lon="2.2623">
        <ele>19.6</ele>
        <time>2022-03-11T12:58:26Z</time>
      </trkpt>
      <trkpt lat="49.92119" lon="2.2623">
        <ele>19.6</ele>
        <time>2022-03-11T12:58:27Z</time>
      </trkpt>
      <trkpt lat="49.92119" lon="2.2623">
        <ele>19.6</ele>
        <time>2022-03-11T12:58:28Z</time>
      </trkpt>
      <trkpt lat="49.92119" lon="2.2623">
        <ele>19.6</ele>
        <time>2022-03-11T12:58:29Z</time>
      </trkpt>
      <trkpt lat="49.92119" lon="2.2623">
        <ele>19.6</ele>
        <time>2022-03-11T12:58:30Z</time>
      </trkpt>
      <trkpt lat="49.9212" lon="2.2623">
        <ele>19.6</ele>
        <time>2022-03-11T12:58:31Z</time>
      </trkpt>
      <trkpt lat="49.9212" lon="2.2623">
        <ele>19.6</ele>
        <time>2022-03-11T12:58:32Z</time>
      </trkpt>
      <trkpt lat="49.9212" lon="2.2623">
        <ele>19.6</ele>
        <time>2022-03-11T12:58:33Z</time>
      </trkpt>
      <trkpt lat="49.9212" lon="2.26229">
        <ele>19.6</ele>
        <time>2022-03-11T12:58:34Z</time>
      </trkpt>
      <trkpt lat="49.92119" lon="2.26229">
        <ele>19.6</ele>
        <time>2022-03-11T12:58:35Z</time>
      </trkpt>
      <trkpt lat="49.92119" lon="2.26229">
        <ele>19.6</ele>
        <time>2022-03-11T12:58:36Z</time>
      </trkpt>
      <trkpt lat="49.92119" lon="2.26229">
        <ele>19.6</ele>
        <time>2022-03-11T12:58:37Z</time>
      </trkpt>
      <trkpt lat="49.92119" lon="2.26229">
        <ele>19.6</ele>
        <time>2022-03-11T12:58:38Z</time>
      </trkpt>
      <trkpt lat="49.92119" lon="2.26229">
        <ele>19.6</ele>
        <time>2022-03-11T12:58:39Z</time>
      </trkpt>
      <trkpt lat="49.92119" lon="2.26229">
        <ele>19.6</ele>
        <time>2022-03-11T12:58:40Z</time>
      </trkpt>
      <trkpt lat="49.92119" lon="2.26229">
        <ele>19.6</ele>
        <time>2022-03-11T12:58:41Z</time>
      </trkpt>
      <trkpt lat="49.92119" lon="2.26229">
        <ele>19.6</ele>
        <time>2022-03-11T12:58:42Z</time>
      </trkpt>
      <trkpt lat="49.92119" lon="2.26229">
        <ele>19.6</ele>
        <time>2022-03-11T12:58:43Z</time>
      </trkpt>
      <trkpt lat="49.92119" lon="2.26228">
        <ele>19.6</ele>
        <time>2022-03-11T12:58:44Z</time>
      </trkpt>
      <trkpt lat="49.92119" lon="2.26228">
        <ele>19.6</ele>
        <time>2022-03-11T12:58:45Z</time>
      </trkpt>
      <trkpt lat="49.92119" lon="2.26228">
        <ele>19.6</ele>
        <time>2022-03-11T12:58:46Z</time>
      </trkpt>
      <trkpt lat="49.92119" lon="2.26228">
        <ele>19.6</ele>
        <time>2022-03-11T12:58:47Z</time>
      </trkpt>
      <trkpt lat="49.92119" lon="2.26228">
        <ele>19.6</ele>
        <time>2022-03-11T12:58:48Z</time>
      </trkpt>
      <trkpt lat="49.92119" lon="2.26228">
        <ele>19.6</ele>
        <time>2022-03-11T12:58:49Z</time>
      </trkpt>
      <trkpt lat="49.92118" lon="2.26228">
        <ele>19.6</ele>
        <time>2022-03-11T12:58:50Z</time>
      </trkpt>
      <trkpt lat="49.92118" lon="2.26228">
        <ele>19.6</ele>
        <time>2022-03-11T12:58:51Z</time>
      </trkpt>
      <trkpt lat="49.92118" lon="2.26228">
        <ele>19.6</ele>
        <time>2022-03-11T12:58:52Z</time>
      </trkpt>
      <trkpt lat="49.92118" lon="2.26228">
        <ele>19.6</ele>
        <time>2022-03-11T12:58:53Z</time>
      </trkpt>
      <trkpt lat="49.92118" lon="2.26228">
        <ele>19.6</ele>
        <time>2022-03-11T12:58:54Z</time>
      </trkpt>
      <trkpt lat="49.92118" lon="2.26228">
        <ele>19.6</ele>
        <time>2022-03-11T12:58:55Z</time>
      </trkpt>
      <trkpt lat="49.92118" lon="2.26228">
        <ele>19.6</ele>
        <time>2022-03-11T12:58:56Z</time>
      </trkpt>
      <trkpt lat="49.92118" lon="2.26228">
        <ele>19.6</ele>
        <time>2022-03-11T12:58:57Z</time>
      </trkpt>
      <trkpt lat="49.92118" lon="2.26228">
        <ele>19.6</ele>
        <time>2022-03-11T12:58:58Z</time>
      </trkpt>
      <trkpt lat="49.92118" lon="2.26228">
        <ele>19.6</ele>
        <time>2022-03-11T12:58:59Z</time>
      </trkpt>
      <trkpt lat="49.92118" lon="2.26228">
        <ele>19.6</ele>
        <time>2022-03-11T12:59:00Z</time>
      </trkpt>
      <trkpt lat="49.92118" lon="2.26228">
        <ele>19.6</ele>
        <time>2022-03-11T12:59:01Z</time>
      </trkpt>
      <trkpt lat="49.92118" lon="2.26228">
        <ele>19.6</ele>
        <time>2022-03-11T12:59:02Z</time>
      </trkpt>
      <trkpt lat="49.92118" lon="2.26228">
        <ele>19.6</ele>
        <time>2022-03-11T12:59:03Z</time>
      </trkpt>
      <trkpt lat="49.92118" lon="2.26228">
        <ele>19.6</ele>
        <time>2022-03-11T12:59:04Z</time>
      </trkpt>
      <trkpt lat="49.92118" lon="2.26228">
        <ele>19.6</ele>
        <time>2022-03-11T12:59:05Z</time>
      </trkpt>
      <trkpt lat="49.92118" lon="2.26228">
        <ele>19.6</ele>
        <time>2022-03-11T12:59:06Z</time>
      </trkpt>
      <trkpt lat="49.92118" lon="2.26228">
        <ele>19.6</ele>
        <time>2022-03-11T12:59:07Z</time>
      </trkpt>
      <trkpt lat="49.92118" lon="2.26228">
        <ele>19.6</ele>
        <time>2022-03-11T12:59:08Z</time>
      </trkpt>
      <trkpt lat="49.92118" lon="2.26228">
        <ele>19.6</ele>
        <time>2022-03-11T12:59:09Z</time>
      </trkpt>
      <trkpt lat="49.92118" lon="2.26228">
        <ele>19.6</ele>
        <time>2022-03-11T12:59:10Z</time>
      </trkpt>
      <trkpt lat="49.92118" lon="2.26228">
        <ele>19.6</ele>
        <time>2022-03-11T12:59:11Z</time>
      </trkpt>
      <trkpt lat="49.92118" lon="2.26228">
        <ele>19.6</ele>
        <time>2022-03-11T12:59:12Z</time>
      </trkpt>
      <trkpt lat="49.92118" lon="2.26228">
        <ele>19.6</ele>
        <time>2022-03-11T12:59:13Z</time>
      </trkpt>
      <trkpt lat="49.92118" lon="2.26228">
        <ele>19.6</ele>
        <time>2022-03-11T12:59:14Z</time>
      </trkpt>
      <trkpt lat="49.92118" lon="2.26228">
        <ele>19.6</ele>
        <time>2022-03-11T12:59:15Z</time>
      </trkpt>
      <trkpt lat="49.92118" lon="2.26228">
        <ele>19.6</ele>
        <time>2022-03-11T12:59:16Z</time>
      </trkpt>
      <trkpt lat="49.92118" lon="2.26228">
        <ele>19.6</ele>
        <time>2022-03-11T12:59:17Z</time>
      </trkpt>
      <trkpt lat="49.92118" lon="2.26228">
        <ele>19.6</ele>
        <time>2022-03-11T12:59:18Z</time>
      </trkpt>
      <trkpt lat="49.92118" lon="2.26228">
        <ele>19.6</ele>
        <time>2022-03-11T12:59:19Z</time>
      </trkpt>
      <trkpt lat="49.92118" lon="2.26228">
        <ele>19.6</ele>
        <time>2022-03-11T12:59:20Z</time>
      </trkpt>
      <trkpt lat="49.92118" lon="2.26228">
        <ele>19.6</ele>
        <time>2022-03-11T12:59:21Z</time>
      </trkpt>
      <trkpt lat="49.92118" lon="2.26228">
        <ele>19.6</ele>
        <time>2022-03-11T12:59:22Z</time>
      </trkpt>
      <trkpt lat="49.92118" lon="2.26228">
        <ele>19.6</ele>
        <time>2022-03-11T12:59:23Z</time>
      </trkpt>
      <trkpt lat="49.92118" lon="2.26228">
        <ele>19.6</ele>
        <time>2022-03-11T12:59:24Z</time>
      </trkpt>
      <trkpt lat="49.92118" lon="2.26228">
        <ele>19.6</ele>
        <time>2022-03-11T12:59:25Z</time>
      </trkpt>
      <trkpt lat="49.92118" lon="2.26228">
        <ele>19.6</ele>
        <time>2022-03-11T12:59:26Z</time>
      </trkpt>
      <trkpt lat="49.92118" lon="2.26228">
        <ele>19.6</ele>
        <time>2022-03-11T12:59:27Z</time>
      </trkpt>
      <trkpt lat="49.92118" lon="2.26228">
        <ele>19.6</ele>
        <time>2022-03-11T12:59:28Z</time>
      </trkpt>
      <trkpt lat="49.92118" lon="2.26228">
        <ele>19.6</ele>
        <time>2022-03-11T12:59:29Z</time>
      </trkpt>
      <trkpt lat="49.92118" lon="2.26228">
        <ele>19.6</ele>
        <time>2022-03-11T12:59:30Z</time>
      </trkpt>
      <trkpt lat="49.92118" lon="2.26228">
        <ele>19.6</ele>
        <time>2022-03-11T12:59:31Z</time>
      </trkpt>
      <trkpt lat="49.92118" lon="2.26228">
        <ele>19.6</ele>
        <time>2022-03-11T12:59:32Z</time>
      </trkpt>
      <trkpt lat="49.92118" lon="2.26228">
        <ele>19.6</ele>
        <time>2022-03-11T12:59:33Z</time>
      </trkpt>
      <trkpt lat="49.92118" lon="2.26228">
        <ele>19.6</ele>
        <time>2022-03-11T12:59:34Z</time>
      </trkpt>
      <trkpt lat="49.92118" lon="2.26228">
        <ele>19.6</ele>
        <time>2022-03-11T12:59:35Z</time>
      </trkpt>
      <trkpt lat="49.92118" lon="2.26228">
        <ele>19.6</ele>
        <time>2022-03-11T12:59:36Z</time>
      </trkpt>
      <trkpt lat="49.92118" lon="2.26228">
        <ele>19.6</ele>
        <time>2022-03-11T12:59:37Z</time>
      </trkpt>
      <trkpt lat="49.92118" lon="2.26228">
        <ele>19.6</ele>
        <time>2022-03-11T12:59:38Z</time>
      </trkpt>
      <trkpt lat="49.92118" lon="2.26228">
        <ele>19.6</ele>
        <time>2022-03-11T12:59:39Z</time>
      </trkpt>
      <trkpt lat="49.92118" lon="2.26228">
        <ele>19.6</ele>
        <time>2022-03-11T12:59:40Z</time>
      </trkpt>
      <trkpt lat="49.92118" lon="2.26228">
        <ele>19.6</ele>
        <time>2022-03-11T12:59:41Z</time>
      </trkpt>
      <trkpt lat="49.92118" lon="2.26228">
        <ele>19.6</ele>
        <time>2022-03-11T12:59:42Z</time>
      </trkpt>
      <trkpt lat="49.92118" lon="2.26228">
        <ele>19.6</ele>
        <time>2022-03-11T12:59:43Z</time>
      </trkpt>
      <trkpt lat="49.92118" lon="2.26228">
        <ele>19.6</ele>
        <time>2022-03-11T12:59:44Z</time>
      </trkpt>
      <trkpt lat="49.92118" lon="2.26228">
        <ele>19.6</ele>
        <time>2022-03-11T12:59:45Z</time>
      </trkpt>
      <trkpt lat="49.92118" lon="2.26228">
        <ele>19.6</ele>
        <time>2022-03-11T12:59:46Z</time>
      </trkpt>
      <trkpt lat="49.92118" lon="2.26228">
        <ele>19.6</ele>
        <time>2022-03-11T12:59:47Z</time>
      </trkpt>
      <trkpt lat="49.92119" lon="2.26228">
        <ele>19.6</ele>
        <time>2022-03-11T12:59:48Z</time>
      </trkpt>
      <trkpt lat="49.92118" lon="2.26229">
        <ele>19.6</ele>
        <time>2022-03-11T12:59:49Z</time>
      </trkpt>
      <trkpt lat="49.92118" lon="2.26229">
        <ele>19.6</ele>
        <time>2022-03-11T12:59:50Z</time>
      </trkpt>
      <trkpt lat="49.92118" lon="2.26229">
        <ele>19.6</ele>
        <time>2022-03-11T12:59:51Z</time>
      </trkpt>
      <trkpt lat="49.92118" lon="2.26229">
        <ele>19.6</ele>
        <time>2022-03-11T12:59:52Z</time>
      </trkpt>
      <trkpt lat="49.92118" lon="2.26229">
        <ele>19.6</ele>
        <time>2022-03-11T12:59:53Z</time>
      </trkpt>
      <trkpt lat="49.92118" lon="2.26229">
        <ele>19.6</ele>
        <time>2022-03-11T12:59:54Z</time>
      </trkpt>
      <trkpt lat="49.92118" lon="2.26229">
        <ele>19.6</ele>
        <time>2022-03-11T12:59:55Z</time>
      </trkpt>
      <trkpt lat="49.92118" lon="2.26229">
        <ele>19.6</ele>
        <time>2022-03-11T12:59:56Z</time>
      </trkpt>
      <trkpt lat="49.92118" lon="2.26229">
        <ele>19.6</ele>
        <time>2022-03-11T12:59:57Z</time>
      </trkpt>
      <trkpt lat="49.92118" lon="2.26229">
        <ele>19.6</ele>
        <time>2022-03-11T12:59:58Z</time>
      </trkpt>
      <trkpt lat="49.92118" lon="2.26229">
        <ele>19.6</ele>
        <time>2022-03-11T12:59:59Z</time>
      </trkpt>
      <trkpt lat="49.92118" lon="2.26229">
        <ele>19.6</ele>
        <time>2022-03-11T13:00:00Z</time>
      </trkpt>
      <trkpt lat="49.92118" lon="2.26229">
        <ele>19.6</ele>
        <time>2022-03-11T13:00:01Z</time>
      </trkpt>
      <trkpt lat="49.92118" lon="2.26229">
        <ele>19.6</ele>
        <time>2022-03-11T13:00:02Z</time>
      </trkpt>
      <trkpt lat="49.92118" lon="2.26229">
        <ele>19.6</ele>
        <time>2022-03-11T13:00:03Z</time>
      </trkpt>
      <trkpt lat="49.92118" lon="2.26228">
        <ele>19.6</ele>
        <time>2022-03-11T13:00:04Z</time>
      </trkpt>
      <trkpt lat="49.92117" lon="2.26228">
        <ele>19.6</ele>
        <time>2022-03-11T13:00:05Z</time>
      </trkpt>
      <trkpt lat="49.92116" lon="2.2623">
        <ele>19.6</ele>
        <time>2022-03-11T13:00:06Z</time>
      </trkpt>
      <trkpt lat="49.92116" lon="2.2623">
        <ele>19.6</ele>
        <time>2022-03-11T13:00:07Z</time>
      </trkpt>
      <trkpt lat="49.92115" lon="2.2623">
        <ele>19.6</ele>
        <time>2022-03-11T13:00:08Z</time>
      </trkpt>
      <trkpt lat="49.92115" lon="2.26231">
        <ele>19.6</ele>
        <time>2022-03-11T13:00:09Z</time>
      </trkpt>
      <trkpt lat="49.92115" lon="2.26231">
        <ele>19.6</ele>
        <time>2022-03-11T13:00:10Z</time>
      </trkpt>
      <trkpt lat="49.92114" lon="2.26231">
        <ele>19.6</ele>
        <time>2022-03-11T13:00:11Z</time>
      </trkpt>
      <trkpt lat="49.92113" lon="2.26232">
        <ele>19.6</ele>
        <time>2022-03-11T13:00:12Z</time>
      </trkpt>
      <trkpt lat="49.92111" lon="2.26232">
        <ele>19.6</ele>
        <time>2022-03-11T13:00:13Z</time>
      </trkpt>
      <trkpt lat="49.92111" lon="2.26232">
        <ele>19.6</ele>
        <time>2022-03-11T13:00:14Z</time>
      </trkpt>
      <trkpt lat="49.9211" lon="2.26233">
        <ele>19.6</ele>
        <time>2022-03-11T13:00:15Z</time>
      </trkpt>
      <trkpt lat="49.92111" lon="2.26234">
        <ele>19.6</ele>
        <time>2022-03-11T13:00:16Z</time>
      </trkpt>
      <trkpt lat="49.92111" lon="2.26234">
        <ele>19.6</ele>
        <time>2022-03-11T13:00:17Z</time>
      </trkpt>
      <trkpt lat="49.92112" lon="2.26235">
        <ele>19.6</ele>
        <time>2022-03-11T13:00:18Z</time>
      </trkpt>
      <trkpt lat="49.92112" lon="2.26235">
        <ele>19.6</ele>
        <time>2022-03-11T13:00:19Z</time>
      </trkpt>
      <trkpt lat="49.92112" lon="2.26235">
        <ele>19.6</ele>
        <time>2022-03-11T13:00:20Z</time>
      </trkpt>
      <trkpt lat="49.92113" lon="2.26236">
        <ele>19.6</ele>
        <time>2022-03-11T13:00:21Z</time>
      </trkpt>
      <trkpt lat="49.92113" lon="2.26236">
        <ele>19.6</ele>
        <time>2022-03-11T13:00:22Z</time>
      </trkpt>
      <trkpt lat="49.92113" lon="2.26236">
        <ele>19.6</ele>
        <time>2022-03-11T13:00:23Z</time>
      </trkpt>
      <trkpt lat="49.92113" lon="2.26236">
        <ele>19.6</ele>
        <time>2022-03-11T13:00:24Z</time>
      </trkpt>
      <trkpt lat="49.92113" lon="2.26236">
        <ele>19.6</ele>
        <time>2022-03-11T13:00:25Z</time>
      </trkpt>
      <trkpt lat="49.92113" lon="2.26236">
        <ele>19.6</ele>
        <time>2022-03-11T13:00:26Z</time>
      </trkpt>
      <trkpt lat="49.92113" lon="2.26236">
        <ele>19.6</ele>
        <time>2022-03-11T13:00:27Z</time>
      </trkpt>
      <trkpt lat="49.92113" lon="2.26235">
        <ele>19.6</ele>
        <time>2022-03-11T13:00:28Z</time>
      </trkpt>
      <trkpt lat="49.92113" lon="2.26235">
        <ele>19.6</ele>
        <time>2022-03-11T13:00:29Z</time>
      </trkpt>
      <trkpt lat="49.92113" lon="2.26235">
        <ele>19.6</ele>
        <time>2022-03-11T13:00:30Z</time>
      </trkpt>
      <trkpt lat="49.92113" lon="2.26235">
        <ele>19.6</ele>
        <time>2022-03-11T13:00:31Z</time>
      </trkpt>
      <trkpt lat="49.92113" lon="2.26235">
        <ele>19.6</ele>
        <time>2022-03-11T13:00:32Z</time>
      </trkpt>
      <trkpt lat="49.92113" lon="2.26235">
        <ele>19.6</ele>
        <time>2022-03-11T13:00:33Z</time>
      </trkpt>
      <trkpt lat="49.92113" lon="2.26235">
        <ele>19.6</ele>
        <time>2022-03-11T13:00:34Z</time>
      </trkpt>
      <trkpt lat="49.92113" lon="2.26235">
        <ele>19.6</ele>
        <time>2022-03-11T13:00:35Z</time>
      </trkpt>
      <trkpt lat="49.92113" lon="2.26235">
        <ele>19.6</ele>
        <time>2022-03-11T13:00:36Z</time>
      </trkpt>
      <trkpt lat="49.92113" lon="2.26235">
        <ele>19.6</ele>
        <time>2022-03-11T13:00:37Z</time>
      </trkpt>
      <trkpt lat="49.92113" lon="2.26235">
        <ele>19.6</ele>
        <time>2022-03-11T13:00:38Z</time>
      </trkpt>
      <trkpt lat="49.92113" lon="2.26235">
        <ele>19.6</ele>
        <time>2022-03-11T13:00:39Z</time>
      </trkpt>
      <trkpt lat="49.92113" lon="2.26235">
        <ele>19.6</ele>
        <time>2022-03-11T13:00:40Z</time>
      </trkpt>
      <trkpt lat="49.92113" lon="2.26235">
        <ele>19.6</ele>
        <time>2022-03-11T13:00:41Z</time>
      </trkpt>
      <trkpt lat="49.92114" lon="2.26235">
        <ele>19.6</ele>
        <time>2022-03-11T13:00:42Z</time>
      </trkpt>
      <trkpt lat="49.92114" lon="2.26235">
        <ele>19.6</ele>
        <time>2022-03-11T13:00:43Z</time>
      </trkpt>
      <trkpt lat="49.92114" lon="2.26235">
        <ele>19.6</ele>
        <time>2022-03-11T13:00:44Z</time>
      </trkpt>
      <trkpt lat="49.92114" lon="2.26235">
        <ele>19.6</ele>
        <time>2022-03-11T13:00:45Z</time>
      </trkpt>
      <trkpt lat="49.92114" lon="2.26235">
        <ele>19.6</ele>
        <time>2022-03-11T13:00:46Z</time>
      </trkpt>
      <trkpt lat="49.92114" lon="2.26235">
        <ele>19.6</ele>
        <time>2022-03-11T13:00:47Z</time>
      </trkpt>
      <trkpt lat="49.92114" lon="2.26235">
        <ele>19.6</ele>
        <time>2022-03-11T13:00:48Z</time>
      </trkpt>
      <trkpt lat="49.92114" lon="2.26235">
        <ele>19.6</ele>
        <time>2022-03-11T13:00:49Z</time>
      </trkpt>
      <trkpt lat="49.92114" lon="2.26235">
        <ele>19.6</ele>
        <time>2022-03-11T13:00:50Z</time>
      </trkpt>
      <trkpt lat="49.92114" lon="2.26235">
        <ele>19.6</ele>
        <time>2022-03-11T13:00:51Z</time>
      </trkpt>
      <trkpt lat="49.92114" lon="2.26235">
        <ele>19.6</ele>
        <time>2022-03-11T13:00:52Z</time>
      </trkpt>
      <trkpt lat="49.92114" lon="2.26234">
        <ele>19.6</ele>
        <time>2022-03-11T13:00:53Z</time>
      </trkpt>
      <trkpt lat="49.92114" lon="2.26234">
        <ele>19.6</ele>
        <time>2022-03-11T13:00:54Z</time>
      </trkpt>
      <trkpt lat="49.92114" lon="2.26234">
        <ele>19.6</ele>
        <time>2022-03-11T13:00:55Z</time>
      </trkpt>
      <trkpt lat="49.92114" lon="2.26234">
        <ele>19.6</ele>
        <time>2022-03-11T13:00:56Z</time>
      </trkpt>
      <trkpt lat="49.92114" lon="2.26234">
        <ele>19.6</ele>
        <time>2022-03-11T13:00:57Z</time>
      </trkpt>
      <trkpt lat="49.92114" lon="2.26234">
        <ele>19.6</ele>
        <time>2022-03-11T13:00:58Z</time>
      </trkpt>
      <trkpt lat="49.92114" lon="2.26234">
        <ele>19.6</ele>
        <time>2022-03-11T13:00:59Z</time>
      </trkpt>
      <trkpt lat="49.92114" lon="2.26234">
        <ele>19.6</ele>
        <time>2022-03-11T13:01:00Z</time>
      </trkpt>
      <trkpt lat="49.92114" lon="2.26234">
        <ele>19.6</ele>
        <time>2022-03-11T13:01:01Z</time>
      </trkpt>
      <trkpt lat="49.92114" lon="2.26234">
        <ele>19.6</ele>
        <time>2022-03-11T13:01:02Z</time>
      </trkpt>
      <trkpt lat="49.92114" lon="2.26234">
        <ele>19.6</ele>
        <time>2022-03-11T13:01:03Z</time>
      </trkpt>
      <trkpt lat="49.92114" lon="2.26234">
        <ele>19.6</ele>
        <time>2022-03-11T13:01:04Z</time>
      </trkpt>
      <trkpt lat="49.92114" lon="2.26234">
        <ele>19.6</ele>
        <time>2022-03-11T13:01:05Z</time>
      </trkpt>
      <trkpt lat="49.92114" lon="2.26234">
        <ele>19.6</ele>
        <time>2022-03-11T13:01:06Z</time>
      </trkpt>
      <trkpt lat="49.92114" lon="2.26234">
        <ele>19.6</ele>
        <time>2022-03-11T13:01:07Z</time>
      </trkpt>
      <trkpt lat="49.92114" lon="2.26234">
        <ele>19.6</ele>
        <time>2022-03-11T13:01:08Z</time>
      </trkpt>
      <trkpt lat="49.92115" lon="2.26234">
        <ele>19.6</ele>
        <time>2022-03-11T13:01:09Z</time>
      </trkpt>
      <trkpt lat="49.92115" lon="2.26234">
        <ele>19.6</ele>
        <time>2022-03-11T13:01:10Z</time>
      </trkpt>
      <trkpt lat="49.92115" lon="2.26234">
        <ele>19.6</ele>
        <time>2022-03-11T13:01:11Z</time>
      </trkpt>
      <trkpt lat="49.92115" lon="2.26234">
        <ele>19.6</ele>
        <time>2022-03-11T13:01:12Z</time>
      </trkpt>
      <trkpt lat="49.92115" lon="2.26234">
        <ele>19.6</ele>
        <time>2022-03-11T13:01:13Z</time>
      </trkpt>
      <trkpt lat="49.92115" lon="2.26234">
        <ele>19.6</ele>
        <time>2022-03-11T13:01:14Z</time>
      </trkpt>
      <trkpt lat="49.92115" lon="2.26234">
        <ele>19.6</ele>
        <time>2022-03-11T13:01:15Z</time>
      </trkpt>
      <trkpt lat="49.92115" lon="2.26234">
        <ele>19.6</ele>
        <time>2022-03-11T13:01:16Z</time>
      </trkpt>
      <trkpt lat="49.92115" lon="2.26233">
        <ele>19.6</ele>
        <time>2022-03-11T13:01:17Z</time>
      </trkpt>
      <trkpt lat="49.92115" lon="2.26233">
        <ele>19.6</ele>
        <time>2022-03-11T13:01:18Z</time>
      </trkpt>
      <trkpt lat="49.92115" lon="2.26233">
        <ele>19.6</ele>
        <time>2022-03-11T13:01:19Z</time>
      </trkpt>
      <trkpt lat="49.92115" lon="2.26233">
        <ele>19.6</ele>
        <time>2022-03-11T13:01:20Z</time>
      </trkpt>
      <trkpt lat="49.92115" lon="2.26233">
        <ele>19.6</ele>
        <time>2022-03-11T13:01:21Z</time>
      </trkpt>
      <trkpt lat="49.92115" lon="2.26233">
        <ele>19.6</ele>
        <time>2022-03-11T13:01:22Z</time>
      </trkpt>
      <trkpt lat="49.92115" lon="2.26233">
        <ele>19.6</ele>
        <time>2022-03-11T13:01:23Z</time>
      </trkpt>
      <trkpt lat="49.92115" lon="2.26233">
        <ele>19.6</ele>
        <time>2022-03-11T13:01:24Z</time>
      </trkpt>
      <trkpt lat="49.92115" lon="2.26233">
        <ele>19.6</ele>
        <time>2022-03-11T13:01:25Z</time>
      </trkpt>
      <trkpt lat="49.92115" lon="2.26233">
        <ele>19.6</ele>
        <time>2022-03-11T13:01:26Z</time>
      </trkpt>
      <trkpt lat="49.92115" lon="2.26233">
        <ele>19.6</ele>
        <time>2022-03-11T13:01:27Z</time>
      </trkpt>
      <trkpt lat="49.92115" lon="2.26233">
        <ele>19.6</ele>
        <time>2022-03-11T13:01:28Z</time>
      </trkpt>
      <trkpt lat="49.92115" lon="2.26233">
        <ele>19.6</ele>
        <time>2022-03-11T13:01:29Z</time>
      </trkpt>
      <trkpt lat="49.92115" lon="2.26233">
        <ele>19.6</ele>
        <time>2022-03-11T13:01:30Z</time>
      </trkpt>
      <trkpt lat="49.92115" lon="2.26233">
        <ele>19.6</ele>
        <time>2022-03-11T13:01:31Z</time>
      </trkpt>
      <trkpt lat="49.92115" lon="2.26233">
        <ele>19.6</ele>
        <time>2022-03-11T13:01:32Z</time>
      </trkpt>
      <trkpt lat="49.92115" lon="2.26233">
        <ele>19.6</ele>
        <time>2022-03-11T13:01:33Z</time>
      </trkpt>
      <trkpt lat="49.92115" lon="2.26233">
        <ele>19.6</ele>
        <time>2022-03-11T13:01:34Z</time>
      </trkpt>
      <trkpt lat="49.92116" lon="2.26233">
        <ele>19.6</ele>
        <time>2022-03-11T13:01:35Z</time>
      </trkpt>
      <trkpt lat="49.92116" lon="2.26233">
        <ele>19.6</ele>
        <time>2022-03-11T13:01:36Z</time>
      </trkpt>
      <trkpt lat="49.92116" lon="2.26233">
        <ele>19.6</ele>
        <time>2022-03-11T13:01:37Z</time>
      </trkpt>
      <trkpt lat="49.92116" lon="2.26233">
        <ele>19.6</ele>
        <time>2022-03-11T13:01:38Z</time>
      </trkpt>
      <trkpt lat="49.92116" lon="2.26233">
        <ele>19.6</ele>
        <time>2022-03-11T13:01:39Z</time>
      </trkpt>
      <trkpt lat="49.92116" lon="2.26233">
        <ele>19.6</ele>
        <time>2022-03-11T13:01:40Z</time>
      </trkpt>
      <trkpt lat="49.92116" lon="2.26233">
        <ele>19.6</ele>
        <time>2022-03-11T13:01:41Z</time>
      </trkpt>
      <trkpt lat="49.92116" lon="2.26232">
        <ele>19.6</ele>
        <time>2022-03-11T13:01:42Z</time>
      </trkpt>
      <trkpt lat="49.92116" lon="2.26232">
        <ele>19.6</ele>
        <time>2022-03-11T13:01:43Z</time>
      </trkpt>
      <trkpt lat="49.92117" lon="2.26232">
        <ele>19.6</ele>
        <time>2022-03-11T13:01:44Z</time>
      </trkpt>
      <trkpt lat="49.92118" lon="2.26232">
        <ele>19.6</ele>
        <time>2022-03-11T13:01:45Z</time>
      </trkpt>
      <trkpt lat="49.92118" lon="2.26232">
        <ele>19.6</ele>
        <time>2022-03-11T13:01:46Z</time>
      </trkpt>
      <trkpt lat="49.92118" lon="2.26232">
        <ele>19.6</ele>
        <time>2022-03-11T13:01:47Z</time>
      </trkpt>
      <trkpt lat="49.92118" lon="2.26232">
        <ele>19.6</ele>
        <time>2022-03-11T13:01:48Z</time>
      </trkpt>
      <trkpt lat="49.92118" lon="2.26232">
        <ele>19.6</ele>
        <time>2022-03-11T13:01:49Z</time>
      </trkpt>
      <trkpt lat="49.92118" lon="2.26232">
        <ele>19.6</ele>
        <time>2022-03-11T13:01:50Z</time>
      </trkpt>
      <trkpt lat="49.92118" lon="2.26232">
        <ele>19.6</ele>
        <time>2022-03-11T13:01:51Z</time>
      </trkpt>
      <trkpt lat="49.92118" lon="2.26232">
        <ele>19.6</ele>
        <time>2022-03-11T13:01:52Z</time>
      </trkpt>
      <trkpt lat="49.92118" lon="2.26232">
        <ele>19.6</ele>
        <time>2022-03-11T13:01:53Z</time>
      </trkpt>
      <trkpt lat="49.92118" lon="2.26232">
        <ele>19.6</ele>
        <time>2022-03-11T13:01:54Z</time>
      </trkpt>
      <trkpt lat="49.92118" lon="2.26232">
        <ele>19.6</ele>
        <time>2022-03-11T13:01:55Z</time>
      </trkpt>
      <trkpt lat="49.92118" lon="2.26232">
        <ele>19.6</ele>
        <time>2022-03-11T13:01:56Z</time>
      </trkpt>
      <trkpt lat="49.92118" lon="2.26232">
        <ele>19.6</ele>
        <time>2022-03-11T13:01:57Z</time>
      </trkpt>
      <trkpt lat="49.92118" lon="2.26232">
        <ele>19.6</ele>
        <time>2022-03-11T13:01:58Z</time>
      </trkpt>
      <trkpt lat="49.92118" lon="2.26232">
        <ele>19.6</ele>
        <time>2022-03-11T13:01:59Z</time>
      </trkpt>
      <trkpt lat="49.92118" lon="2.26232">
        <ele>19.6</ele>
        <time>2022-03-11T13:02:00Z</time>
      </trkpt>
      <trkpt lat="49.92118" lon="2.26232">
        <ele>19.6</ele>
        <time>2022-03-11T13:02:01Z</time>
      </trkpt>
      <trkpt lat="49.92118" lon="2.26232">
        <ele>19.6</ele>
        <time>2022-03-11T13:02:02Z</time>
      </trkpt>
      <trkpt lat="49.92119" lon="2.26231">
        <ele>19.6</ele>
        <time>2022-03-11T13:02:03Z</time>
      </trkpt>
      <trkpt lat="49.92119" lon="2.26231">
        <ele>19.6</ele>
        <time>2022-03-11T13:02:04Z</time>
      </trkpt>
      <trkpt lat="49.9212" lon="2.2623">
        <ele>19.6</ele>
        <time>2022-03-11T13:02:05Z</time>
      </trkpt>
      <trkpt lat="49.9212" lon="2.2623">
        <ele>19.6</ele>
        <time>2022-03-11T13:02:06Z</time>
      </trkpt>
      <trkpt lat="49.9212" lon="2.2623">
        <ele>19.6</ele>
        <time>2022-03-11T13:02:07Z</time>
      </trkpt>
      <trkpt lat="49.9212" lon="2.2623">
        <ele>19.6</ele>
        <time>2022-03-11T13:02:08Z</time>
      </trkpt>
      <trkpt lat="49.9212" lon="2.2623">
        <ele>19.6</ele>
        <time>2022-03-11T13:02:09Z</time>
      </trkpt>
      <trkpt lat="49.9212" lon="2.2623">
        <ele>19.6</ele>
        <time>2022-03-11T13:02:10Z</time>
      </trkpt>
      <trkpt lat="49.9212" lon="2.2623">
        <ele>19.6</ele>
        <time>2022-03-11T13:02:11Z</time>
      </trkpt>
      <trkpt lat="49.9212" lon="2.2623">
        <ele>19.6</ele>
        <time>2022-03-11T13:02:12Z</time>
      </trkpt>
      <trkpt lat="49.9212" lon="2.2623">
        <ele>19.6</ele>
        <time>2022-03-11T13:02:13Z</time>
      </trkpt>
      <trkpt lat="49.9212" lon="2.2623">
        <ele>19.6</ele>
        <time>2022-03-11T13:02:14Z</time>
      </trkpt>
      <trkpt lat="49.9212" lon="2.2623">
        <ele>19.6</ele>
        <time>2022-03-11T13:02:15Z</time>
      </trkpt>
      <trkpt lat="49.9212" lon="2.2623">
        <ele>19.6</ele>
        <time>2022-03-11T13:02:16Z</time>
      </trkpt>
      <trkpt lat="49.9212" lon="2.2623">
        <ele>19.6</ele>
        <time>2022-03-11T13:02:17Z</time>
      </trkpt>
      <trkpt lat="49.9212" lon="2.26229">
        <ele>19.6</ele>
        <time>2022-03-11T13:02:18Z</time>
      </trkpt>
      <trkpt lat="49.9212" lon="2.26229">
        <ele>19.6</ele>
        <time>2022-03-11T13:02:19Z</time>
      </trkpt>
      <trkpt lat="49.92121" lon="2.26227">
        <ele>19.6</ele>
        <time>2022-03-11T13:02:20Z</time>
      </trkpt>
      <trkpt lat="49.92121" lon="2.26226">
        <ele>19.6</ele>
        <time>2022-03-11T13:02:21Z</time>
      </trkpt>
      <trkpt lat="49.92122" lon="2.26225">
        <ele>19.6</ele>
        <time>2022-03-11T13:02:22Z</time>
      </trkpt>
      <trkpt lat="49.92122" lon="2.26224">
        <ele>19.6</ele>
        <time>2022-03-11T13:02:23Z</time>
      </trkpt>
      <trkpt lat="49.92122" lon="2.26224">
        <ele>19.6</ele>
        <time>2022-03-11T13:02:24Z</time>
      </trkpt>
      <trkpt lat="49.92122" lon="2.26224">
        <ele>19.6</ele>
        <time>2022-03-11T13:02:25Z</time>
      </trkpt>
      <trkpt lat="49.92122" lon="2.26224">
        <ele>19.6</ele>
        <time>2022-03-11T13:02:26Z</time>
      </trkpt>
      <trkpt lat="49.92123" lon="2.26224">
        <ele>19.6</ele>
        <time>2022-03-11T13:02:27Z</time>
      </trkpt>
      <trkpt lat="49.92123" lon="2.26223">
        <ele>19.6</ele>
        <time>2022-03-11T13:02:28Z</time>
      </trkpt>
      <trkpt lat="49.92123" lon="2.26222">
        <ele>19.6</ele>
        <time>2022-03-11T13:02:29Z</time>
      </trkpt>
      <trkpt lat="49.92123" lon="2.26221">
        <ele>19.6</ele>
        <time>2022-03-11T13:02:30Z</time>
      </trkpt>
      <trkpt lat="49.92123" lon="2.26219">
        <ele>19.6</ele>
        <time>2022-03-11T13:02:31Z</time>
      </trkpt>
      <trkpt lat="49.92122" lon="2.26217">
        <ele>19.6</ele>
        <time>2022-03-11T13:02:32Z</time>
      </trkpt>
      <trkpt lat="49.92122" lon="2.26217">
        <ele>19.6</ele>
        <time>2022-03-11T13:02:33Z</time>
      </trkpt>
      <trkpt lat="49.92122" lon="2.26216">
        <ele>19.6</ele>
        <time>2022-03-11T13:02:34Z</time>
      </trkpt>
      <trkpt lat="49.92123" lon="2.26216">
        <ele>19.6</ele>
        <time>2022-03-11T13:02:35Z</time>
      </trkpt>
      <trkpt lat="49.92123" lon="2.26216">
        <ele>19.6</ele>
        <time>2022-03-11T13:02:36Z</time>
      </trkpt>
      <trkpt lat="49.92123" lon="2.26215">
        <ele>19.6</ele>
        <time>2022-03-11T13:02:37Z</time>
      </trkpt>
      <trkpt lat="49.92123" lon="2.26215">
        <ele>19.6</ele>
        <time>2022-03-11T13:02:38Z</time>
      </trkpt>
      <trkpt lat="49.92123" lon="2.26214">
        <ele>19.6</ele>
        <time>2022-03-11T13:02:39Z</time>
      </trkpt>
      <trkpt lat="49.92123" lon="2.26214">
        <ele>19.6</ele>
        <time>2022-03-11T13:02:40Z</time>
      </trkpt>
      <trkpt lat="49.92123" lon="2.26211">
        <ele>19.6</ele>
        <time>2022-03-11T13:02:41Z</time>
      </trkpt>
      <trkpt lat="49.92124" lon="2.2621">
        <ele>19.6</ele>
        <time>2022-03-11T13:02:42Z</time>
      </trkpt>
      <trkpt lat="49.92124" lon="2.26209">
        <ele>19.6</ele>
        <time>2022-03-11T13:02:43Z</time>
      </trkpt>
      <trkpt lat="49.92124" lon="2.26208">
        <ele>19.6</ele>
        <time>2022-03-11T13:02:44Z</time>
      </trkpt>
      <trkpt lat="49.92124" lon="2.26208">
        <ele>19.6</ele>
        <time>2022-03-11T13:02:45Z</time>
      </trkpt>
      <trkpt lat="49.92124" lon="2.26208">
        <ele>19.6</ele>
        <time>2022-03-11T13:02:46Z</time>
      </trkpt>
      <trkpt lat="49.92124" lon="2.26207">
        <ele>19.6</ele>
        <time>2022-03-11T13:02:47Z</time>
      </trkpt>
      <trkpt lat="49.92125" lon="2.26207">
        <ele>19.6</ele>
        <time>2022-03-11T13:02:49Z</time>
      </trkpt>
      <trkpt lat="49.92125" lon="2.26206">
        <ele>19.6</ele>
        <time>2022-03-11T13:02:51Z</time>
      </trkpt>
      <trkpt lat="49.92126" lon="2.26205">
        <ele>19.6</ele>
        <time>2022-03-11T13:02:52Z</time>
      </trkpt>
      <trkpt lat="49.92126" lon="2.26205">
        <ele>19.6</ele>
        <time>2022-03-11T13:02:53Z</time>
      </trkpt>
      <trkpt lat="49.92127" lon="2.26204">
        <ele>19.6</ele>
        <time>2022-03-11T13:02:54Z</time>
      </trkpt>
      <trkpt lat="49.92128" lon="2.26203">
        <ele>19.6</ele>
        <time>2022-03-11T13:02:56Z</time>
      </trkpt>
      <trkpt lat="49.92128" lon="2.26203">
        <ele>19.6</ele>
        <time>2022-03-11T13:02:57Z</time>
      </trkpt>
      <trkpt lat="49.92129" lon="2.26202">
        <ele>19.6</ele>
        <time>2022-03-11T13:02:58Z</time>
      </trkpt>
      <trkpt lat="49.9213" lon="2.26202">
        <ele>19.6</ele>
        <time>2022-03-11T13:03:00Z</time>
      </trkpt>
      <trkpt lat="49.92132" lon="2.26201">
        <ele>19.6</ele>
        <time>2022-03-11T13:03:01Z</time>
      </trkpt>
      <trkpt lat="49.92133" lon="2.262">
        <ele>19.5</ele>
        <time>2022-03-11T13:03:02Z</time>
      </trkpt>
      <trkpt lat="49.92134" lon="2.262">
        <ele>19.5</ele>
        <time>2022-03-11T13:03:03Z</time>
      </trkpt>
      <trkpt lat="49.92135" lon="2.26199">
        <ele>19.5</ele>
        <time>2022-03-11T13:03:04Z</time>
      </trkpt>
      <trkpt lat="49.92136" lon="2.26199">
        <ele>19.5</ele>
        <time>2022-03-11T13:03:05Z</time>
      </trkpt>
      <trkpt lat="49.92138" lon="2.26198">
        <ele>19.5</ele>
        <time>2022-03-11T13:03:07Z</time>
      </trkpt>
      <trkpt lat="49.92139" lon="2.26197">
        <ele>19.5</ele>
        <time>2022-03-11T13:03:08Z</time>
      </trkpt>
      <trkpt lat="49.9214" lon="2.26197">
        <ele>19.4</ele>
        <time>2022-03-11T13:03:09Z</time>
      </trkpt>
      <trkpt lat="49.9214" lon="2.26197">
        <ele>19.4</ele>
        <time>2022-03-11T13:03:10Z</time>
      </trkpt>
      <trkpt lat="49.92141" lon="2.26196">
        <ele>19.4</ele>
        <time>2022-03-11T13:03:11Z</time>
      </trkpt>
      <trkpt lat="49.92142" lon="2.26194">
        <ele>19.4</ele>
        <time>2022-03-11T13:03:12Z</time>
      </trkpt>
      <trkpt lat="49.92142" lon="2.26191">
        <ele>19.5</ele>
        <time>2022-03-11T13:03:14Z</time>
      </trkpt>
      <trkpt lat="49.92142" lon="2.2619">
        <ele>19.5</ele>
        <time>2022-03-11T13:03:15Z</time>
      </trkpt>
      <trkpt lat="49.92142" lon="2.26188">
        <ele>19.5</ele>
        <time>2022-03-11T13:03:16Z</time>
      </trkpt>
      <trkpt lat="49.92142" lon="2.26186">
        <ele>19.5</ele>
        <time>2022-03-11T13:03:17Z</time>
      </trkpt>
      <trkpt lat="49.92142" lon="2.26183">
        <ele>19.5</ele>
        <time>2022-03-11T13:03:19Z</time>
      </trkpt>
      <trkpt lat="49.92142" lon="2.26181">
        <ele>19.5</ele>
        <time>2022-03-11T13:03:20Z</time>
      </trkpt>
      <trkpt lat="49.92141" lon="2.26179">
        <ele>19.5</ele>
        <time>2022-03-11T13:03:22Z</time>
      </trkpt>
      <trkpt lat="49.92142" lon="2.26178">
        <ele>19.5</ele>
        <time>2022-03-11T13:03:23Z</time>
      </trkpt>
      <trkpt lat="49.92142" lon="2.26176">
        <ele>19.5</ele>
        <time>2022-03-11T13:03:24Z</time>
      </trkpt>
      <trkpt lat="49.92142" lon="2.26175">
        <ele>19.4</ele>
        <time>2022-03-11T13:03:25Z</time>
      </trkpt>
      <trkpt lat="49.92142" lon="2.26173">
        <ele>19.4</ele>
        <time>2022-03-11T13:03:26Z</time>
      </trkpt>
      <trkpt lat="49.92142" lon="2.26172">
        <ele>19.4</ele>
        <time>2022-03-11T13:03:27Z</time>
      </trkpt>
      <trkpt lat="49.92142" lon="2.2617">
        <ele>19.4</ele>
        <time>2022-03-11T13:03:28Z</time>
      </trkpt>
      <trkpt lat="49.92143" lon="2.26169">
        <ele>19.4</ele>
        <time>2022-03-11T13:03:29Z</time>
      </trkpt>
      <trkpt lat="49.92144" lon="2.26167">
        <ele>19.4</ele>
        <time>2022-03-11T13:03:30Z</time>
      </trkpt>
      <trkpt lat="49.92145" lon="2.26165">
        <ele>19.4</ele>
        <time>2022-03-11T13:03:31Z</time>
      </trkpt>
      <trkpt lat="49.92146" lon="2.26162">
        <ele>19.4</ele>
        <time>2022-03-11T13:03:32Z</time>
      </trkpt>
      <trkpt lat="49.92146" lon="2.2616">
        <ele>19.4</ele>
        <time>2022-03-11T13:03:34Z</time>
      </trkpt>
      <trkpt lat="49.92146" lon="2.26159">
        <ele>19.4</ele>
        <time>2022-03-11T13:03:35Z</time>
      </trkpt>
      <trkpt lat="49.92146" lon="2.26157">
        <ele>19.4</ele>
        <time>2022-03-11T13:03:36Z</time>
      </trkpt>
      <trkpt lat="49.92146" lon="2.26154">
        <ele>19.4</ele>
        <time>2022-03-11T13:03:37Z</time>
      </trkpt>
      <trkpt lat="49.92146" lon="2.26151">
        <ele>19.4</ele>
        <time>2022-03-11T13:03:38Z</time>
      </trkpt>
      <trkpt lat="49.92147" lon="2.2615">
        <ele>19.4</ele>
        <time>2022-03-11T13:03:39Z</time>
      </trkpt>
      <trkpt lat="49.92147" lon="2.26149">
        <ele>19.4</ele>
        <time>2022-03-11T13:03:40Z</time>
      </trkpt>
      <trkpt lat="49.92149" lon="2.26145">
        <ele>19.4</ele>
        <time>2022-03-11T13:03:41Z</time>
      </trkpt>
      <trkpt lat="49.92149" lon="2.26144">
        <ele>19.4</ele>
        <time>2022-03-11T13:03:42Z</time>
      </trkpt>
      <trkpt lat="49.9215" lon="2.26143">
        <ele>19.4</ele>
        <time>2022-03-11T13:03:43Z</time>
      </trkpt>
      <trkpt lat="49.92151" lon="2.26141">
        <ele>19.4</ele>
        <time>2022-03-11T13:03:44Z</time>
      </trkpt>
      <trkpt lat="49.92152" lon="2.26139">
        <ele>19.3</ele>
        <time>2022-03-11T13:03:45Z</time>
      </trkpt>
      <trkpt lat="49.92152" lon="2.26138">
        <ele>19.3</ele>
        <time>2022-03-11T13:03:47Z</time>
      </trkpt>
      <trkpt lat="49.92153" lon="2.26136">
        <ele>19.3</ele>
        <time>2022-03-11T13:03:48Z</time>
      </trkpt>
      <trkpt lat="49.92153" lon="2.26135">
        <ele>19.3</ele>
        <time>2022-03-11T13:03:49Z</time>
      </trkpt>
      <trkpt lat="49.92153" lon="2.26135">
        <ele>19.3</ele>
        <time>2022-03-11T13:03:50Z</time>
      </trkpt>
      <trkpt lat="49.92153" lon="2.26133">
        <ele>19.3</ele>
        <time>2022-03-11T13:03:51Z</time>
      </trkpt>
      <trkpt lat="49.92153" lon="2.26131">
        <ele>19.3</ele>
        <time>2022-03-11T13:03:52Z</time>
      </trkpt>
      <trkpt lat="49.92153" lon="2.26128">
        <ele>19.3</ele>
        <time>2022-03-11T13:03:53Z</time>
      </trkpt>
      <trkpt lat="49.92153" lon="2.26127">
        <ele>19.3</ele>
        <time>2022-03-11T13:03:54Z</time>
      </trkpt>
      <trkpt lat="49.92153" lon="2.26126">
        <ele>19.3</ele>
        <time>2022-03-11T13:03:55Z</time>
      </trkpt>
      <trkpt lat="49.92153" lon="2.26123">
        <ele>19.3</ele>
        <time>2022-03-11T13:03:56Z</time>
      </trkpt>
      <trkpt lat="49.92154" lon="2.26121">
        <ele>19.3</ele>
        <time>2022-03-11T13:03:57Z</time>
      </trkpt>
      <trkpt lat="49.92154" lon="2.2612">
        <ele>19.3</ele>
        <time>2022-03-11T13:03:58Z</time>
      </trkpt>
      <trkpt lat="49.92154" lon="2.26117">
        <ele>19.3</ele>
        <time>2022-03-11T13:03:59Z</time>
      </trkpt>
      <trkpt lat="49.92153" lon="2.26116">
        <ele>19.3</ele>
        <time>2022-03-11T13:04:00Z</time>
      </trkpt>
      <trkpt lat="49.92153" lon="2.26114">
        <ele>19.3</ele>
        <time>2022-03-11T13:04:01Z</time>
      </trkpt>
      <trkpt lat="49.92153" lon="2.26112">
        <ele>19.3</ele>
        <time>2022-03-11T13:04:02Z</time>
      </trkpt>
      <trkpt lat="49.92153" lon="2.2611">
        <ele>19.3</ele>
        <time>2022-03-11T13:04:03Z</time>
      </trkpt>
      <trkpt lat="49.92153" lon="2.26108">
        <ele>19.2</ele>
        <time>2022-03-11T13:04:05Z</time>
      </trkpt>
      <trkpt lat="49.92152" lon="2.26105">
        <ele>19.2</ele>
        <time>2022-03-11T13:04:06Z</time>
      </trkpt>
      <trkpt lat="49.92152" lon="2.26102">
        <ele>19.2</ele>
        <time>2022-03-11T13:04:07Z</time>
      </trkpt>
      <trkpt lat="49.92151" lon="2.26101">
        <ele>19.2</ele>
        <time>2022-03-11T13:04:08Z</time>
      </trkpt>
      <trkpt lat="49.92151" lon="2.261">
        <ele>19.2</ele>
        <time>2022-03-11T13:04:09Z</time>
      </trkpt>
      <trkpt lat="49.9215" lon="2.26098">
        <ele>19.2</ele>
        <time>2022-03-11T13:04:10Z</time>
      </trkpt>
      <trkpt lat="49.92149" lon="2.26096">
        <ele>19.2</ele>
        <time>2022-03-11T13:04:11Z</time>
      </trkpt>
      <trkpt lat="49.92148" lon="2.26094">
        <ele>19.1</ele>
        <time>2022-03-11T13:04:12Z</time>
      </trkpt>
      <trkpt lat="49.92147" lon="2.2609">
        <ele>19.1</ele>
        <time>2022-03-11T13:04:14Z</time>
      </trkpt>
      <trkpt lat="49.92146" lon="2.26088">
        <ele>19.1</ele>
        <time>2022-03-11T13:04:15Z</time>
      </trkpt>
      <trkpt lat="49.92145" lon="2.26087">
        <ele>19.1</ele>
        <time>2022-03-11T13:04:16Z</time>
      </trkpt>
      <trkpt lat="49.92145" lon="2.26085">
        <ele>19.1</ele>
        <time>2022-03-11T13:04:17Z</time>
      </trkpt>
      <trkpt lat="49.92144" lon="2.26082">
        <ele>19.1</ele>
        <time>2022-03-11T13:04:18Z</time>
      </trkpt>
      <trkpt lat="49.92144" lon="2.26081">
        <ele>19</ele>
        <time>2022-03-11T13:04:19Z</time>
      </trkpt>
      <trkpt lat="49.92143" lon="2.2608">
        <ele>18.9</ele>
        <time>2022-03-11T13:04:20Z</time>
      </trkpt>
      <trkpt lat="49.92143" lon="2.26078">
        <ele>18.9</ele>
        <time>2022-03-11T13:04:21Z</time>
      </trkpt>
      <trkpt lat="49.92143" lon="2.26076">
        <ele>18.8</ele>
        <time>2022-03-11T13:04:22Z</time>
      </trkpt>
      <trkpt lat="49.92143" lon="2.26073">
        <ele>18.8</ele>
        <time>2022-03-11T13:04:24Z</time>
      </trkpt>
      <trkpt lat="49.92144" lon="2.26072">
        <ele>18.7</ele>
        <time>2022-03-11T13:04:25Z</time>
      </trkpt>
      <trkpt lat="49.92145" lon="2.2607">
        <ele>18.7</ele>
        <time>2022-03-11T13:04:26Z</time>
      </trkpt>
      <trkpt lat="49.92146" lon="2.26068">
        <ele>18.7</ele>
        <time>2022-03-11T13:04:27Z</time>
      </trkpt>
      <trkpt lat="49.92147" lon="2.26067">
        <ele>18.7</ele>
        <time>2022-03-11T13:04:28Z</time>
      </trkpt>
      <trkpt lat="49.92148" lon="2.26065">
        <ele>18.7</ele>
        <time>2022-03-11T13:04:29Z</time>
      </trkpt>
      <trkpt lat="49.92149" lon="2.26063">
        <ele>18.7</ele>
        <time>2022-03-11T13:04:30Z</time>
      </trkpt>
      <trkpt lat="49.9215" lon="2.26061">
        <ele>18.7</ele>
        <time>2022-03-11T13:04:31Z</time>
      </trkpt>
      <trkpt lat="49.9215" lon="2.26059">
        <ele>18.7</ele>
        <time>2022-03-11T13:04:33Z</time>
      </trkpt>
      <trkpt lat="49.92151" lon="2.26057">
        <ele>18.7</ele>
        <time>2022-03-11T13:04:34Z</time>
      </trkpt>
      <trkpt lat="49.92151" lon="2.26055">
        <ele>18.7</ele>
        <time>2022-03-11T13:04:35Z</time>
      </trkpt>
      <trkpt lat="49.92152" lon="2.26054">
        <ele>18.7</ele>
        <time>2022-03-11T13:04:36Z</time>
      </trkpt>
      <trkpt lat="49.92152" lon="2.26053">
        <ele>18.8</ele>
        <time>2022-03-11T13:04:37Z</time>
      </trkpt>
      <trkpt lat="49.92153" lon="2.26052">
        <ele>18.8</ele>
        <time>2022-03-11T13:04:38Z</time>
      </trkpt>
      <trkpt lat="49.92155" lon="2.26052">
        <ele>18.8</ele>
        <time>2022-03-11T13:04:39Z</time>
      </trkpt>
      <trkpt lat="49.92156" lon="2.26052">
        <ele>18.8</ele>
        <time>2022-03-11T13:04:40Z</time>
      </trkpt>
      <trkpt lat="49.92158" lon="2.26053">
        <ele>18.8</ele>
        <time>2022-03-11T13:04:41Z</time>
      </trkpt>
      <trkpt lat="49.92159" lon="2.26053">
        <ele>18.8</ele>
        <time>2022-03-11T13:04:42Z</time>
      </trkpt>
      <trkpt lat="49.92159" lon="2.26054">
        <ele>18.8</ele>
        <time>2022-03-11T13:04:43Z</time>
      </trkpt>
      <trkpt lat="49.92161" lon="2.26054">
        <ele>18.8</ele>
        <time>2022-03-11T13:04:44Z</time>
      </trkpt>
      <trkpt lat="49.92163" lon="2.26054">
        <ele>18.8</ele>
        <time>2022-03-11T13:04:45Z</time>
      </trkpt>
      <trkpt lat="49.92165" lon="2.26053">
        <ele>18.8</ele>
        <time>2022-03-11T13:04:46Z</time>
      </trkpt>
      <trkpt lat="49.92166" lon="2.26052">
        <ele>18.8</ele>
        <time>2022-03-11T13:04:48Z</time>
      </trkpt>
      <trkpt lat="49.92167" lon="2.26051">
        <ele>18.8</ele>
        <time>2022-03-11T13:04:50Z</time>
      </trkpt>
      <trkpt lat="49.92168" lon="2.2605">
        <ele>18.8</ele>
        <time>2022-03-11T13:04:51Z</time>
      </trkpt>
      <trkpt lat="49.92169" lon="2.26048">
        <ele>18.8</ele>
        <time>2022-03-11T13:04:52Z</time>
      </trkpt>
      <trkpt lat="49.92169" lon="2.26047">
        <ele>18.8</ele>
        <time>2022-03-11T13:04:53Z</time>
      </trkpt>
      <trkpt lat="49.9217" lon="2.26046">
        <ele>18.8</ele>
        <time>2022-03-11T13:04:54Z</time>
      </trkpt>
      <trkpt lat="49.92171" lon="2.26044">
        <ele>18.8</ele>
        <time>2022-03-11T13:04:55Z</time>
      </trkpt>
      <trkpt lat="49.92172" lon="2.26042">
        <ele>18.9</ele>
        <time>2022-03-11T13:04:57Z</time>
      </trkpt>
      <trkpt lat="49.92173" lon="2.26041">
        <ele>18.9</ele>
        <time>2022-03-11T13:04:58Z</time>
      </trkpt>
      <trkpt lat="49.92173" lon="2.2604">
        <ele>18.9</ele>
        <time>2022-03-11T13:04:59Z</time>
      </trkpt>
      <trkpt lat="49.92174" lon="2.26039">
        <ele>18.9</ele>
        <time>2022-03-11T13:05:00Z</time>
      </trkpt>
      <trkpt lat="49.92175" lon="2.26038">
        <ele>18.9</ele>
        <time>2022-03-11T13:05:02Z</time>
      </trkpt>
      <trkpt lat="49.92176" lon="2.26037">
        <ele>18.9</ele>
        <time>2022-03-11T13:05:03Z</time>
      </trkpt>
      <trkpt lat="49.92176" lon="2.26036">
        <ele>18.9</ele>
        <time>2022-03-11T13:05:04Z</time>
      </trkpt>
      <trkpt lat="49.92177" lon="2.26035">
        <ele>18.9</ele>
        <time>2022-03-11T13:05:05Z</time>
      </trkpt>
      <trkpt lat="49.92177" lon="2.26034">
        <ele>18.9</ele>
        <time>2022-03-11T13:05:06Z</time>
      </trkpt>
      <trkpt lat="49.92178" lon="2.26033">
        <ele>18.9</ele>
        <time>2022-03-11T13:05:08Z</time>
      </trkpt>
      <trkpt lat="49.92179" lon="2.26032">
        <ele>18.9</ele>
        <time>2022-03-11T13:05:09Z</time>
      </trkpt>
      <trkpt lat="49.9218" lon="2.26029">
        <ele>19</ele>
        <time>2022-03-11T13:05:10Z</time>
      </trkpt>
      <trkpt lat="49.92181" lon="2.26028">
        <ele>19</ele>
        <time>2022-03-11T13:05:11Z</time>
      </trkpt>
      <trkpt lat="49.92182" lon="2.26027">
        <ele>19</ele>
        <time>2022-03-11T13:05:12Z</time>
      </trkpt>
      <trkpt lat="49.92184" lon="2.26025">
        <ele>19</ele>
        <time>2022-03-11T13:05:13Z</time>
      </trkpt>
      <trkpt lat="49.92184" lon="2.26024">
        <ele>19</ele>
        <time>2022-03-11T13:05:15Z</time>
      </trkpt>
      <trkpt lat="49.92185" lon="2.26024">
        <ele>19.1</ele>
        <time>2022-03-11T13:05:16Z</time>
      </trkpt>
      <trkpt lat="49.92187" lon="2.26022">
        <ele>19.1</ele>
        <time>2022-03-11T13:05:17Z</time>
      </trkpt>
      <trkpt lat="49.92187" lon="2.26021">
        <ele>19.1</ele>
        <time>2022-03-11T13:05:18Z</time>
      </trkpt>
      <trkpt lat="49.92188" lon="2.2602">
        <ele>19.1</ele>
        <time>2022-03-11T13:05:19Z</time>
      </trkpt>
      <trkpt lat="49.92189" lon="2.26019">
        <ele>19.1</ele>
        <time>2022-03-11T13:05:20Z</time>
      </trkpt>
      <trkpt lat="49.9219" lon="2.26017">
        <ele>19.1</ele>
        <time>2022-03-11T13:05:21Z</time>
      </trkpt>
      <trkpt lat="49.92192" lon="2.26015">
        <ele>19.2</ele>
        <time>2022-03-11T13:05:22Z</time>
      </trkpt>
      <trkpt lat="49.92193" lon="2.26015">
        <ele>19.2</ele>
        <time>2022-03-11T13:05:23Z</time>
      </trkpt>
      <trkpt lat="49.92193" lon="2.26014">
        <ele>19.2</ele>
        <time>2022-03-11T13:05:24Z</time>
      </trkpt>
      <trkpt lat="49.92194" lon="2.26012">
        <ele>19.2</ele>
        <time>2022-03-11T13:05:25Z</time>
      </trkpt>
      <trkpt lat="49.92196" lon="2.26011">
        <ele>19.2</ele>
        <time>2022-03-11T13:05:26Z</time>
      </trkpt>
      <trkpt lat="49.92197" lon="2.2601">
        <ele>19.2</ele>
        <time>2022-03-11T13:05:28Z</time>
      </trkpt>
      <trkpt lat="49.92197" lon="2.26008">
        <ele>19.2</ele>
        <time>2022-03-11T13:05:29Z</time>
      </trkpt>
      <trkpt lat="49.92198" lon="2.26007">
        <ele>19.3</ele>
        <time>2022-03-11T13:05:30Z</time>
      </trkpt>
      <trkpt lat="49.92198" lon="2.26006">
        <ele>19.3</ele>
        <time>2022-03-11T13:05:31Z</time>
      </trkpt>
      <trkpt lat="49.92199" lon="2.26004">
        <ele>19.3</ele>
        <time>2022-03-11T13:05:32Z</time>
      </trkpt>
      <trkpt lat="49.922" lon="2.26002">
        <ele>19.3</ele>
        <time>2022-03-11T13:05:33Z</time>
      </trkpt>
      <trkpt lat="49.92201" lon="2.26">
        <ele>19.3</ele>
        <time>2022-03-11T13:05:34Z</time>
      </trkpt>
      <trkpt lat="49.92201" lon="2.25998">
        <ele>19.3</ele>
        <time>2022-03-11T13:05:35Z</time>
      </trkpt>
      <trkpt lat="49.92202" lon="2.25997">
        <ele>19.3</ele>
        <time>2022-03-11T13:05:37Z</time>
      </trkpt>
      <trkpt lat="49.92203" lon="2.25995">
        <ele>19.3</ele>
        <time>2022-03-11T13:05:38Z</time>
      </trkpt>
      <trkpt lat="49.92205" lon="2.25992">
        <ele>19.3</ele>
        <time>2022-03-11T13:05:39Z</time>
      </trkpt>
      <trkpt lat="49.92206" lon="2.25991">
        <ele>19.3</ele>
        <time>2022-03-11T13:05:41Z</time>
      </trkpt>
      <trkpt lat="49.92207" lon="2.25989">
        <ele>19.3</ele>
        <time>2022-03-11T13:05:42Z</time>
      </trkpt>
      <trkpt lat="49.92207" lon="2.25988">
        <ele>19.3</ele>
        <time>2022-03-11T13:05:43Z</time>
      </trkpt>
      <trkpt lat="49.92208" lon="2.25987">
        <ele>19.3</ele>
        <time>2022-03-11T13:05:44Z</time>
      </trkpt>
      <trkpt lat="49.92209" lon="2.25986">
        <ele>19.3</ele>
        <time>2022-03-11T13:05:45Z</time>
      </trkpt>
      <trkpt lat="49.9221" lon="2.25985">
        <ele>19.3</ele>
        <time>2022-03-11T13:05:46Z</time>
      </trkpt>
      <trkpt lat="49.92211" lon="2.25983">
        <ele>19.3</ele>
        <time>2022-03-11T13:05:47Z</time>
      </trkpt>
      <trkpt lat="49.92212" lon="2.25982">
        <ele>19.3</ele>
        <time>2022-03-11T13:05:48Z</time>
      </trkpt>
      <trkpt lat="49.92213" lon="2.2598">
        <ele>19.3</ele>
        <time>2022-03-11T13:05:49Z</time>
      </trkpt>
      <trkpt lat="49.92215" lon="2.25978">
        <ele>19.3</ele>
        <time>2022-03-11T13:05:50Z</time>
      </trkpt>
      <trkpt lat="49.92215" lon="2.25977">
        <ele>19.3</ele>
        <time>2022-03-11T13:05:52Z</time>
      </trkpt>
      <trkpt lat="49.92216" lon="2.25977">
        <ele>19.3</ele>
        <time>2022-03-11T13:05:53Z</time>
      </trkpt>
      <trkpt lat="49.92217" lon="2.25976">
        <ele>19.3</ele>
        <time>2022-03-11T13:05:54Z</time>
      </trkpt>
      <trkpt lat="49.92218" lon="2.25974">
        <ele>19.2</ele>
        <time>2022-03-11T13:05:55Z</time>
      </trkpt>
      <trkpt lat="49.92218" lon="2.25973">
        <ele>19.2</ele>
        <time>2022-03-11T13:05:56Z</time>
      </trkpt>
      <trkpt lat="49.92219" lon="2.25971">
        <ele>19.2</ele>
        <time>2022-03-11T13:05:57Z</time>
      </trkpt>
      <trkpt lat="49.9222" lon="2.2597">
        <ele>19.2</ele>
        <time>2022-03-11T13:05:58Z</time>
      </trkpt>
      <trkpt lat="49.9222" lon="2.25968">
        <ele>19.2</ele>
        <time>2022-03-11T13:05:59Z</time>
      </trkpt>
      <trkpt lat="49.92221" lon="2.25966">
        <ele>19.2</ele>
        <time>2022-03-11T13:06:00Z</time>
      </trkpt>
      <trkpt lat="49.92222" lon="2.25965">
        <ele>19.2</ele>
        <time>2022-03-11T13:06:01Z</time>
      </trkpt>
      <trkpt lat="49.92222" lon="2.25963">
        <ele>19.2</ele>
        <time>2022-03-11T13:06:02Z</time>
      </trkpt>
      <trkpt lat="49.92223" lon="2.25962">
        <ele>19.2</ele>
        <time>2022-03-11T13:06:03Z</time>
      </trkpt>
      <trkpt lat="49.92223" lon="2.2596">
        <ele>19.2</ele>
        <time>2022-03-11T13:06:04Z</time>
      </trkpt>
      <trkpt lat="49.92224" lon="2.25959">
        <ele>19.2</ele>
        <time>2022-03-11T13:06:06Z</time>
      </trkpt>
      <trkpt lat="49.92224" lon="2.25958">
        <ele>19.1</ele>
        <time>2022-03-11T13:06:07Z</time>
      </trkpt>
      <trkpt lat="49.92224" lon="2.25956">
        <ele>19.1</ele>
        <time>2022-03-11T13:06:08Z</time>
      </trkpt>
      <trkpt lat="49.92225" lon="2.25954">
        <ele>19.1</ele>
        <time>2022-03-11T13:06:09Z</time>
      </trkpt>
      <trkpt lat="49.92225" lon="2.25951">
        <ele>19.1</ele>
        <time>2022-03-11T13:06:10Z</time>
      </trkpt>
      <trkpt lat="49.92226" lon="2.2595">
        <ele>19.1</ele>
        <time>2022-03-11T13:06:11Z</time>
      </trkpt>
      <trkpt lat="49.92226" lon="2.25949">
        <ele>19.1</ele>
        <time>2022-03-11T13:06:12Z</time>
      </trkpt>
      <trkpt lat="49.92227" lon="2.25947">
        <ele>19.1</ele>
        <time>2022-03-11T13:06:13Z</time>
      </trkpt>
      <trkpt lat="49.92227" lon="2.25945">
        <ele>19.1</ele>
        <time>2022-03-11T13:06:14Z</time>
      </trkpt>
      <trkpt lat="49.92228" lon="2.25942">
        <ele>19.1</ele>
        <time>2022-03-11T13:06:15Z</time>
      </trkpt>
      <trkpt lat="49.92229" lon="2.25941">
        <ele>19.1</ele>
        <time>2022-03-11T13:06:16Z</time>
      </trkpt>
      <trkpt lat="49.92229" lon="2.2594">
        <ele>19.1</ele>
        <time>2022-03-11T13:06:17Z</time>
      </trkpt>
      <trkpt lat="49.9223" lon="2.25938">
        <ele>19.1</ele>
        <time>2022-03-11T13:06:18Z</time>
      </trkpt>
      <trkpt lat="49.9223" lon="2.25936">
        <ele>19.1</ele>
        <time>2022-03-11T13:06:20Z</time>
      </trkpt>
      <trkpt lat="49.92231" lon="2.25935">
        <ele>19</ele>
        <time>2022-03-11T13:06:21Z</time>
      </trkpt>
      <trkpt lat="49.92231" lon="2.25932">
        <ele>19</ele>
        <time>2022-03-11T13:06:22Z</time>
      </trkpt>
      <trkpt lat="49.92232" lon="2.2593">
        <ele>19</ele>
        <time>2022-03-11T13:06:23Z</time>
      </trkpt>
      <trkpt lat="49.92232" lon="2.25929">
        <ele>19</ele>
        <time>2022-03-11T13:06:24Z</time>
      </trkpt>
      <trkpt lat="49.92232" lon="2.25926">
        <ele>19</ele>
        <time>2022-03-11T13:06:25Z</time>
      </trkpt>
      <trkpt lat="49.92232" lon="2.25925">
        <ele>19</ele>
        <time>2022-03-11T13:06:26Z</time>
      </trkpt>
      <trkpt lat="49.92233" lon="2.25923">
        <ele>19</ele>
        <time>2022-03-11T13:06:27Z</time>
      </trkpt>
      <trkpt lat="49.92233" lon="2.25921">
        <ele>19</ele>
        <time>2022-03-11T13:06:28Z</time>
      </trkpt>
      <trkpt lat="49.92233" lon="2.25919">
        <ele>19</ele>
        <time>2022-03-11T13:06:29Z</time>
      </trkpt>
      <trkpt lat="49.92234" lon="2.25916">
        <ele>19</ele>
        <time>2022-03-11T13:06:30Z</time>
      </trkpt>
      <trkpt lat="49.92234" lon="2.25914">
        <ele>19</ele>
        <time>2022-03-11T13:06:31Z</time>
      </trkpt>
      <trkpt lat="49.92235" lon="2.25912">
        <ele>19</ele>
        <time>2022-03-11T13:06:32Z</time>
      </trkpt>
      <trkpt lat="49.92235" lon="2.2591">
        <ele>19</ele>
        <time>2022-03-11T13:06:33Z</time>
      </trkpt>
      <trkpt lat="49.92236" lon="2.25908">
        <ele>19</ele>
        <time>2022-03-11T13:06:35Z</time>
      </trkpt>
      <trkpt lat="49.92236" lon="2.25905">
        <ele>19</ele>
        <time>2022-03-11T13:06:36Z</time>
      </trkpt>
      <trkpt lat="49.92236" lon="2.25904">
        <ele>18.9</ele>
        <time>2022-03-11T13:06:37Z</time>
      </trkpt>
      <trkpt lat="49.92237" lon="2.25902">
        <ele>18.9</ele>
        <time>2022-03-11T13:06:38Z</time>
      </trkpt>
      <trkpt lat="49.92237" lon="2.259">
        <ele>18.9</ele>
        <time>2022-03-11T13:06:39Z</time>
      </trkpt>
      <trkpt lat="49.92237" lon="2.25898">
        <ele>18.9</ele>
        <time>2022-03-11T13:06:40Z</time>
      </trkpt>
      <trkpt lat="49.92238" lon="2.25895">
        <ele>18.9</ele>
        <time>2022-03-11T13:06:41Z</time>
      </trkpt>
      <trkpt lat="49.92238" lon="2.25894">
        <ele>18.9</ele>
        <time>2022-03-11T13:06:42Z</time>
      </trkpt>
      <trkpt lat="49.92239" lon="2.25893">
        <ele>18.9</ele>
        <time>2022-03-11T13:06:43Z</time>
      </trkpt>
      <trkpt lat="49.92239" lon="2.25891">
        <ele>18.9</ele>
        <time>2022-03-11T13:06:44Z</time>
      </trkpt>
      <trkpt lat="49.9224" lon="2.25888">
        <ele>18.9</ele>
        <time>2022-03-11T13:06:45Z</time>
      </trkpt>
      <trkpt lat="49.9224" lon="2.25886">
        <ele>18.9</ele>
        <time>2022-03-11T13:06:46Z</time>
      </trkpt>
      <trkpt lat="49.92241" lon="2.25884">
        <ele>18.9</ele>
        <time>2022-03-11T13:06:47Z</time>
      </trkpt>
      <trkpt lat="49.92241" lon="2.25883">
        <ele>18.9</ele>
        <time>2022-03-11T13:06:48Z</time>
      </trkpt>
      <trkpt lat="49.92241" lon="2.25882">
        <ele>18.8</ele>
        <time>2022-03-11T13:06:50Z</time>
      </trkpt>
      <trkpt lat="49.92242" lon="2.25879">
        <ele>18.8</ele>
        <time>2022-03-11T13:06:51Z</time>
      </trkpt>
      <trkpt lat="49.92242" lon="2.25877">
        <ele>18.8</ele>
        <time>2022-03-11T13:06:52Z</time>
      </trkpt>
      <trkpt lat="49.92243" lon="2.25875">
        <ele>18.8</ele>
        <time>2022-03-11T13:06:53Z</time>
      </trkpt>
      <trkpt lat="49.92244" lon="2.25872">
        <ele>18.8</ele>
        <time>2022-03-11T13:06:54Z</time>
      </trkpt>
      <trkpt lat="49.92244" lon="2.25871">
        <ele>18.8</ele>
        <time>2022-03-11T13:06:55Z</time>
      </trkpt>
      <trkpt lat="49.92244" lon="2.2587">
        <ele>18.8</ele>
        <time>2022-03-11T13:06:56Z</time>
      </trkpt>
      <trkpt lat="49.92245" lon="2.25868">
        <ele>18.8</ele>
        <time>2022-03-11T13:06:57Z</time>
      </trkpt>
      <trkpt lat="49.92245" lon="2.25865">
        <ele>18.8</ele>
        <time>2022-03-11T13:06:58Z</time>
      </trkpt>
      <trkpt lat="49.92245" lon="2.25862">
        <ele>18.7</ele>
        <time>2022-03-11T13:06:59Z</time>
      </trkpt>
      <trkpt lat="49.92245" lon="2.2586">
        <ele>18.7</ele>
        <time>2022-03-11T13:07:01Z</time>
      </trkpt>
      <trkpt lat="49.92245" lon="2.25858">
        <ele>18.7</ele>
        <time>2022-03-11T13:07:02Z</time>
      </trkpt>
      <trkpt lat="49.92245" lon="2.25856">
        <ele>18.7</ele>
        <time>2022-03-11T13:07:03Z</time>
      </trkpt>
      <trkpt lat="49.92245" lon="2.25855">
        <ele>18.7</ele>
        <time>2022-03-11T13:07:04Z</time>
      </trkpt>
      <trkpt lat="49.92246" lon="2.25852">
        <ele>18.7</ele>
        <time>2022-03-11T13:07:05Z</time>
      </trkpt>
      <trkpt lat="49.92246" lon="2.2585">
        <ele>18.7</ele>
        <time>2022-03-11T13:07:06Z</time>
      </trkpt>
      <trkpt lat="49.92246" lon="2.25849">
        <ele>18.7</ele>
        <time>2022-03-11T13:07:07Z</time>
      </trkpt>
      <trkpt lat="49.92246" lon="2.25847">
        <ele>18.7</ele>
        <time>2022-03-11T13:07:08Z</time>
      </trkpt>
      <trkpt lat="49.92246" lon="2.25845">
        <ele>18.7</ele>
        <time>2022-03-11T13:07:10Z</time>
      </trkpt>
      <trkpt lat="49.92246" lon="2.25844">
        <ele>18.7</ele>
        <time>2022-03-11T13:07:11Z</time>
      </trkpt>
      <trkpt lat="49.92247" lon="2.25841">
        <ele>18.7</ele>
        <time>2022-03-11T13:07:12Z</time>
      </trkpt>
      <trkpt lat="49.92248" lon="2.25841">
        <ele>18.6</ele>
        <time>2022-03-11T13:07:13Z</time>
      </trkpt>
      <trkpt lat="49.92248" lon="2.2584">
        <ele>18.6</ele>
        <time>2022-03-11T13:07:14Z</time>
      </trkpt>
      <trkpt lat="49.92249" lon="2.25839">
        <ele>18.6</ele>
        <time>2022-03-11T13:07:15Z</time>
      </trkpt>
      <trkpt lat="49.92249" lon="2.25836">
        <ele>18.6</ele>
        <time>2022-03-11T13:07:17Z</time>
      </trkpt>
      <trkpt lat="49.9225" lon="2.25835">
        <ele>18.6</ele>
        <time>2022-03-11T13:07:18Z</time>
      </trkpt>
      <trkpt lat="49.9225" lon="2.25834">
        <ele>18.6</ele>
        <time>2022-03-11T13:07:19Z</time>
      </trkpt>
      <trkpt lat="49.92251" lon="2.25831">
        <ele>18.6</ele>
        <time>2022-03-11T13:07:20Z</time>
      </trkpt>
      <trkpt lat="49.92251" lon="2.25829">
        <ele>18.6</ele>
        <time>2022-03-11T13:07:21Z</time>
      </trkpt>
      <trkpt lat="49.92251" lon="2.25828">
        <ele>18.6</ele>
        <time>2022-03-11T13:07:22Z</time>
      </trkpt>
      <trkpt lat="49.92251" lon="2.25826">
        <ele>18.6</ele>
        <time>2022-03-11T13:07:23Z</time>
      </trkpt>
      <trkpt lat="49.92252" lon="2.25824">
        <ele>18.6</ele>
        <time>2022-03-11T13:07:24Z</time>
      </trkpt>
      <trkpt lat="49.92252" lon="2.25823">
        <ele>18.6</ele>
        <time>2022-03-11T13:07:25Z</time>
      </trkpt>
      <trkpt lat="49.92252" lon="2.25821">
        <ele>18.6</ele>
        <time>2022-03-11T13:07:26Z</time>
      </trkpt>
      <trkpt lat="49.92252" lon="2.25819">
        <ele>18.6</ele>
        <time>2022-03-11T13:07:27Z</time>
      </trkpt>
      <trkpt lat="49.92252" lon="2.25818">
        <ele>18.6</ele>
        <time>2022-03-11T13:07:28Z</time>
      </trkpt>
      <trkpt lat="49.92253" lon="2.25816">
        <ele>18.6</ele>
        <time>2022-03-11T13:07:30Z</time>
      </trkpt>
      <trkpt lat="49.92253" lon="2.25814">
        <ele>18.6</ele>
        <time>2022-03-11T13:07:31Z</time>
      </trkpt>
      <trkpt lat="49.92252" lon="2.25813">
        <ele>18.6</ele>
        <time>2022-03-11T13:07:32Z</time>
      </trkpt>
      <trkpt lat="49.92252" lon="2.25811">
        <ele>18.6</ele>
        <time>2022-03-11T13:07:33Z</time>
      </trkpt>
      <trkpt lat="49.92252" lon="2.2581">
        <ele>18.6</ele>
        <time>2022-03-11T13:07:34Z</time>
      </trkpt>
      <trkpt lat="49.92252" lon="2.25808">
        <ele>18.6</ele>
        <time>2022-03-11T13:07:35Z</time>
      </trkpt>
      <trkpt lat="49.92252" lon="2.25805">
        <ele>18.6</ele>
        <time>2022-03-11T13:07:36Z</time>
      </trkpt>
      <trkpt lat="49.92252" lon="2.25803">
        <ele>18.6</ele>
        <time>2022-03-11T13:07:37Z</time>
      </trkpt>
      <trkpt lat="49.92252" lon="2.25802">
        <ele>18.6</ele>
        <time>2022-03-11T13:07:38Z</time>
      </trkpt>
      <trkpt lat="49.92253" lon="2.258">
        <ele>18.6</ele>
        <time>2022-03-11T13:07:39Z</time>
      </trkpt>
      <trkpt lat="49.92253" lon="2.25798">
        <ele>18.5</ele>
        <time>2022-03-11T13:07:40Z</time>
      </trkpt>
      <trkpt lat="49.92253" lon="2.25796">
        <ele>18.5</ele>
        <time>2022-03-11T13:07:42Z</time>
      </trkpt>
      <trkpt lat="49.92253" lon="2.25794">
        <ele>18.5</ele>
        <time>2022-03-11T13:07:43Z</time>
      </trkpt>
      <trkpt lat="49.92253" lon="2.25792">
        <ele>18.5</ele>
        <time>2022-03-11T13:07:44Z</time>
      </trkpt>
      <trkpt lat="49.92253" lon="2.2579">
        <ele>18.5</ele>
        <time>2022-03-11T13:07:45Z</time>
      </trkpt>
      <trkpt lat="49.92254" lon="2.25788">
        <ele>18.5</ele>
        <time>2022-03-11T13:07:46Z</time>
      </trkpt>
      <trkpt lat="49.92254" lon="2.25785">
        <ele>18.5</ele>
        <time>2022-03-11T13:07:47Z</time>
      </trkpt>
      <trkpt lat="49.92254" lon="2.25783">
        <ele>18.5</ele>
        <time>2022-03-11T13:07:48Z</time>
      </trkpt>
      <trkpt lat="49.92254" lon="2.25781">
        <ele>18.5</ele>
        <time>2022-03-11T13:07:49Z</time>
      </trkpt>
      <trkpt lat="49.92254" lon="2.25779">
        <ele>18.5</ele>
        <time>2022-03-11T13:07:50Z</time>
      </trkpt>
      <trkpt lat="49.92254" lon="2.25777">
        <ele>18.4</ele>
        <time>2022-03-11T13:07:51Z</time>
      </trkpt>
      <trkpt lat="49.92254" lon="2.25775">
        <ele>18.4</ele>
        <time>2022-03-11T13:07:52Z</time>
      </trkpt>
      <trkpt lat="49.92254" lon="2.25771">
        <ele>18.4</ele>
        <time>2022-03-11T13:07:54Z</time>
      </trkpt>
      <trkpt lat="49.92254" lon="2.2577">
        <ele>18.4</ele>
        <time>2022-03-11T13:07:55Z</time>
      </trkpt>
      <trkpt lat="49.92254" lon="2.25768">
        <ele>18.4</ele>
        <time>2022-03-11T13:07:56Z</time>
      </trkpt>
      <trkpt lat="49.92255" lon="2.25766">
        <ele>18.4</ele>
        <time>2022-03-11T13:07:57Z</time>
      </trkpt>
      <trkpt lat="49.92255" lon="2.25764">
        <ele>18.4</ele>
        <time>2022-03-11T13:07:58Z</time>
      </trkpt>
      <trkpt lat="49.92255" lon="2.2576">
        <ele>18.4</ele>
        <time>2022-03-11T13:07:59Z</time>
      </trkpt>
      <trkpt lat="49.92255" lon="2.25759">
        <ele>18.4</ele>
        <time>2022-03-11T13:08:00Z</time>
      </trkpt>
      <trkpt lat="49.92255" lon="2.25757">
        <ele>18.4</ele>
        <time>2022-03-11T13:08:01Z</time>
      </trkpt>
      <trkpt lat="49.92255" lon="2.25755">
        <ele>18.4</ele>
        <time>2022-03-11T13:08:02Z</time>
      </trkpt>
      <trkpt lat="49.92255" lon="2.25753">
        <ele>18.3</ele>
        <time>2022-03-11T13:08:03Z</time>
      </trkpt>
      <trkpt lat="49.92255" lon="2.25749">
        <ele>18.3</ele>
        <time>2022-03-11T13:08:04Z</time>
      </trkpt>
      <trkpt lat="49.92255" lon="2.25748">
        <ele>18.3</ele>
        <time>2022-03-11T13:08:05Z</time>
      </trkpt>
      <trkpt lat="49.92256" lon="2.25747">
        <ele>18.3</ele>
        <time>2022-03-11T13:08:06Z</time>
      </trkpt>
      <trkpt lat="49.92256" lon="2.25745">
        <ele>18.3</ele>
        <time>2022-03-11T13:08:08Z</time>
      </trkpt>
      <trkpt lat="49.92256" lon="2.25742">
        <ele>18.3</ele>
        <time>2022-03-11T13:08:09Z</time>
      </trkpt>
      <trkpt lat="49.92256" lon="2.2574">
        <ele>18.3</ele>
        <time>2022-03-11T13:08:10Z</time>
      </trkpt>
      <trkpt lat="49.92256" lon="2.25738">
        <ele>18.3</ele>
        <time>2022-03-11T13:08:11Z</time>
      </trkpt>
      <trkpt lat="49.92256" lon="2.25735">
        <ele>18.3</ele>
        <time>2022-03-11T13:08:12Z</time>
      </trkpt>
      <trkpt lat="49.92257" lon="2.25734">
        <ele>18.3</ele>
        <time>2022-03-11T13:08:13Z</time>
      </trkpt>
      <trkpt lat="49.92257" lon="2.25732">
        <ele>18.3</ele>
        <time>2022-03-11T13:08:14Z</time>
      </trkpt>
      <trkpt lat="49.92257" lon="2.2573">
        <ele>18.3</ele>
        <time>2022-03-11T13:08:15Z</time>
      </trkpt>
      <trkpt lat="49.92257" lon="2.25728">
        <ele>18.3</ele>
        <time>2022-03-11T13:08:16Z</time>
      </trkpt>
      <trkpt lat="49.92258" lon="2.25725">
        <ele>18.3</ele>
        <time>2022-03-11T13:08:17Z</time>
      </trkpt>
      <trkpt lat="49.92258" lon="2.25723">
        <ele>18.3</ele>
        <time>2022-03-11T13:08:18Z</time>
      </trkpt>
      <trkpt lat="49.92258" lon="2.25722">
        <ele>18.3</ele>
        <time>2022-03-11T13:08:19Z</time>
      </trkpt>
      <trkpt lat="49.92258" lon="2.2572">
        <ele>18.3</ele>
        <time>2022-03-11T13:08:21Z</time>
      </trkpt>
      <trkpt lat="49.92258" lon="2.25719">
        <ele>18.3</ele>
        <time>2022-03-11T13:08:22Z</time>
      </trkpt>
      <trkpt lat="49.92259" lon="2.25717">
        <ele>18.3</ele>
        <time>2022-03-11T13:08:23Z</time>
      </trkpt>
      <trkpt lat="49.92259" lon="2.25715">
        <ele>18.3</ele>
        <time>2022-03-11T13:08:24Z</time>
      </trkpt>
      <trkpt lat="49.92259" lon="2.25713">
        <ele>18.3</ele>
        <time>2022-03-11T13:08:25Z</time>
      </trkpt>
      <trkpt lat="49.92259" lon="2.25711">
        <ele>18.3</ele>
        <time>2022-03-11T13:08:26Z</time>
      </trkpt>
      <trkpt lat="49.92259" lon="2.25708">
        <ele>18.2</ele>
        <time>2022-03-11T13:08:27Z</time>
      </trkpt>
      <trkpt lat="49.92259" lon="2.25707">
        <ele>18.2</ele>
        <time>2022-03-11T13:08:28Z</time>
      </trkpt>
      <trkpt lat="49.92259" lon="2.25705">
        <ele>18.2</ele>
        <time>2022-03-11T13:08:29Z</time>
      </trkpt>
      <trkpt lat="49.92259" lon="2.25703">
        <ele>18.2</ele>
        <time>2022-03-11T13:08:30Z</time>
      </trkpt>
      <trkpt lat="49.92259" lon="2.25701">
        <ele>18.2</ele>
        <time>2022-03-11T13:08:31Z</time>
      </trkpt>
      <trkpt lat="49.92259" lon="2.25699">
        <ele>18.2</ele>
        <time>2022-03-11T13:08:33Z</time>
      </trkpt>
      <trkpt lat="49.9226" lon="2.25698">
        <ele>18.2</ele>
        <time>2022-03-11T13:08:34Z</time>
      </trkpt>
      <trkpt lat="49.9226" lon="2.25696">
        <ele>18.2</ele>
        <time>2022-03-11T13:08:35Z</time>
      </trkpt>
      <trkpt lat="49.9226" lon="2.25694">
        <ele>18.2</ele>
        <time>2022-03-11T13:08:36Z</time>
      </trkpt>
      <trkpt lat="49.9226" lon="2.25692">
        <ele>18.2</ele>
        <time>2022-03-11T13:08:37Z</time>
      </trkpt>
      <trkpt lat="49.9226" lon="2.25691">
        <ele>18.2</ele>
        <time>2022-03-11T13:08:38Z</time>
      </trkpt>
      <trkpt lat="49.9226" lon="2.25689">
        <ele>18.2</ele>
        <time>2022-03-11T13:08:39Z</time>
      </trkpt>
      <trkpt lat="49.9226" lon="2.25686">
        <ele>18.2</ele>
        <time>2022-03-11T13:08:40Z</time>
      </trkpt>
      <trkpt lat="49.9226" lon="2.25685">
        <ele>18.2</ele>
        <time>2022-03-11T13:08:41Z</time>
      </trkpt>
      <trkpt lat="49.9226" lon="2.25683">
        <ele>18.2</ele>
        <time>2022-03-11T13:08:42Z</time>
      </trkpt>
      <trkpt lat="49.9226" lon="2.25681">
        <ele>18.2</ele>
        <time>2022-03-11T13:08:43Z</time>
      </trkpt>
      <trkpt lat="49.92261" lon="2.2568">
        <ele>18.2</ele>
        <time>2022-03-11T13:08:45Z</time>
      </trkpt>
      <trkpt lat="49.92261" lon="2.25678">
        <ele>18.2</ele>
        <time>2022-03-11T13:08:46Z</time>
      </trkpt>
      <trkpt lat="49.92261" lon="2.25676">
        <ele>18.2</ele>
        <time>2022-03-11T13:08:47Z</time>
      </trkpt>
      <trkpt lat="49.92262" lon="2.25674">
        <ele>18.2</ele>
        <time>2022-03-11T13:08:48Z</time>
      </trkpt>
      <trkpt lat="49.92262" lon="2.25673">
        <ele>18.2</ele>
        <time>2022-03-11T13:08:49Z</time>
      </trkpt>
      <trkpt lat="49.92262" lon="2.25669">
        <ele>18.2</ele>
        <time>2022-03-11T13:08:50Z</time>
      </trkpt>
      <trkpt lat="49.92263" lon="2.25668">
        <ele>18.2</ele>
        <time>2022-03-11T13:08:51Z</time>
      </trkpt>
      <trkpt lat="49.92263" lon="2.25667">
        <ele>18.2</ele>
        <time>2022-03-11T13:08:52Z</time>
      </trkpt>
      <trkpt lat="49.92263" lon="2.25665">
        <ele>18.2</ele>
        <time>2022-03-11T13:08:53Z</time>
      </trkpt>
      <trkpt lat="49.92263" lon="2.25663">
        <ele>18.2</ele>
        <time>2022-03-11T13:08:54Z</time>
      </trkpt>
      <trkpt lat="49.92264" lon="2.25661">
        <ele>18.1</ele>
        <time>2022-03-11T13:08:55Z</time>
      </trkpt>
      <trkpt lat="49.92264" lon="2.25658">
        <ele>18.1</ele>
        <time>2022-03-11T13:08:57Z</time>
      </trkpt>
      <trkpt lat="49.92265" lon="2.25657">
        <ele>18.1</ele>
        <time>2022-03-11T13:08:58Z</time>
      </trkpt>
      <trkpt lat="49.92265" lon="2.25656">
        <ele>18.1</ele>
        <time>2022-03-11T13:08:59Z</time>
      </trkpt>
      <trkpt lat="49.92265" lon="2.25654">
        <ele>18.1</ele>
        <time>2022-03-11T13:09:00Z</time>
      </trkpt>
      <trkpt lat="49.92265" lon="2.25652">
        <ele>18.1</ele>
        <time>2022-03-11T13:09:01Z</time>
      </trkpt>
      <trkpt lat="49.92266" lon="2.2565">
        <ele>18.1</ele>
        <time>2022-03-11T13:09:02Z</time>
      </trkpt>
      <trkpt lat="49.92266" lon="2.25647">
        <ele>18.1</ele>
        <time>2022-03-11T13:09:03Z</time>
      </trkpt>
      <trkpt lat="49.92266" lon="2.25646">
        <ele>18.1</ele>
        <time>2022-03-11T13:09:04Z</time>
      </trkpt>
      <trkpt lat="49.92266" lon="2.25645">
        <ele>18.1</ele>
        <time>2022-03-11T13:09:05Z</time>
      </trkpt>
      <trkpt lat="49.92267" lon="2.25643">
        <ele>18.1</ele>
        <time>2022-03-11T13:09:06Z</time>
      </trkpt>
      <trkpt lat="49.92267" lon="2.25641">
        <ele>18.1</ele>
        <time>2022-03-11T13:09:08Z</time>
      </trkpt>
      <trkpt lat="49.92267" lon="2.25639">
        <ele>18.1</ele>
        <time>2022-03-11T13:09:09Z</time>
      </trkpt>
      <trkpt lat="49.92267" lon="2.25636">
        <ele>18.1</ele>
        <time>2022-03-11T13:09:10Z</time>
      </trkpt>
      <trkpt lat="49.92268" lon="2.25635">
        <ele>18.1</ele>
        <time>2022-03-11T13:09:11Z</time>
      </trkpt>
      <trkpt lat="49.92268" lon="2.25633">
        <ele>18.1</ele>
        <time>2022-03-11T13:09:12Z</time>
      </trkpt>
      <trkpt lat="49.92268" lon="2.25631">
        <ele>18.1</ele>
        <time>2022-03-11T13:09:13Z</time>
      </trkpt>
      <trkpt lat="49.92268" lon="2.25629">
        <ele>18.1</ele>
        <time>2022-03-11T13:09:14Z</time>
      </trkpt>
      <trkpt lat="49.92269" lon="2.25627">
        <ele>18.1</ele>
        <time>2022-03-11T13:09:15Z</time>
      </trkpt>
      <trkpt lat="49.92269" lon="2.25625">
        <ele>18.1</ele>
        <time>2022-03-11T13:09:16Z</time>
      </trkpt>
      <trkpt lat="49.92269" lon="2.25624">
        <ele>18.1</ele>
        <time>2022-03-11T13:09:17Z</time>
      </trkpt>
      <trkpt lat="49.9227" lon="2.25622">
        <ele>18.1</ele>
        <time>2022-03-11T13:09:19Z</time>
      </trkpt>
      <trkpt lat="49.9227" lon="2.25621">
        <ele>18.1</ele>
        <time>2022-03-11T13:09:20Z</time>
      </trkpt>
      <trkpt lat="49.9227" lon="2.25619">
        <ele>18.1</ele>
        <time>2022-03-11T13:09:21Z</time>
      </trkpt>
      <trkpt lat="49.92271" lon="2.25616">
        <ele>18.1</ele>
        <time>2022-03-11T13:09:22Z</time>
      </trkpt>
      <trkpt lat="49.92271" lon="2.25615">
        <ele>18.1</ele>
        <time>2022-03-11T13:09:23Z</time>
      </trkpt>
      <trkpt lat="49.92272" lon="2.25614">
        <ele>18.1</ele>
        <time>2022-03-11T13:09:24Z</time>
      </trkpt>
      <trkpt lat="49.92272" lon="2.25611">
        <ele>18.2</ele>
        <time>2022-03-11T13:09:25Z</time>
      </trkpt>
      <trkpt lat="49.92273" lon="2.25609">
        <ele>18.2</ele>
        <time>2022-03-11T13:09:26Z</time>
      </trkpt>
      <trkpt lat="49.92273" lon="2.25608">
        <ele>18.2</ele>
        <time>2022-03-11T13:09:27Z</time>
      </trkpt>
      <trkpt lat="49.92274" lon="2.25605">
        <ele>18.2</ele>
        <time>2022-03-11T13:09:28Z</time>
      </trkpt>
      <trkpt lat="49.92274" lon="2.25604">
        <ele>18.2</ele>
        <time>2022-03-11T13:09:30Z</time>
      </trkpt>
      <trkpt lat="49.92274" lon="2.25603">
        <ele>18.2</ele>
        <time>2022-03-11T13:09:31Z</time>
      </trkpt>
      <trkpt lat="49.92274" lon="2.25601">
        <ele>18.2</ele>
        <time>2022-03-11T13:09:32Z</time>
      </trkpt>
      <trkpt lat="49.92275" lon="2.25599">
        <ele>18.2</ele>
        <time>2022-03-11T13:09:33Z</time>
      </trkpt>
      <trkpt lat="49.92275" lon="2.25598">
        <ele>18.3</ele>
        <time>2022-03-11T13:09:34Z</time>
      </trkpt>
      <trkpt lat="49.92276" lon="2.25595">
        <ele>18.3</ele>
        <time>2022-03-11T13:09:35Z</time>
      </trkpt>
      <trkpt lat="49.92276" lon="2.25593">
        <ele>18.3</ele>
        <time>2022-03-11T13:09:36Z</time>
      </trkpt>
      <trkpt lat="49.92276" lon="2.25592">
        <ele>18.3</ele>
        <time>2022-03-11T13:09:37Z</time>
      </trkpt>
      <trkpt lat="49.92277" lon="2.2559">
        <ele>18.3</ele>
        <time>2022-03-11T13:09:38Z</time>
      </trkpt>
      <trkpt lat="49.92277" lon="2.25588">
        <ele>18.4</ele>
        <time>2022-03-11T13:09:40Z</time>
      </trkpt>
      <trkpt lat="49.92278" lon="2.25587">
        <ele>18.4</ele>
        <time>2022-03-11T13:09:41Z</time>
      </trkpt>
      <trkpt lat="49.92278" lon="2.25585">
        <ele>18.4</ele>
        <time>2022-03-11T13:09:42Z</time>
      </trkpt>
      <trkpt lat="49.92279" lon="2.25583">
        <ele>18.4</ele>
        <time>2022-03-11T13:09:43Z</time>
      </trkpt>
      <trkpt lat="49.9228" lon="2.25582">
        <ele>18.4</ele>
        <time>2022-03-11T13:09:44Z</time>
      </trkpt>
      <trkpt lat="49.9228" lon="2.25581">
        <ele>18.5</ele>
        <time>2022-03-11T13:09:45Z</time>
      </trkpt>
      <trkpt lat="49.92281" lon="2.25579">
        <ele>18.5</ele>
        <time>2022-03-11T13:09:46Z</time>
      </trkpt>
      <trkpt lat="49.92282" lon="2.25578">
        <ele>18.5</ele>
        <time>2022-03-11T13:09:47Z</time>
      </trkpt>
      <trkpt lat="49.92283" lon="2.25576">
        <ele>18.5</ele>
        <time>2022-03-11T13:09:48Z</time>
      </trkpt>
      <trkpt lat="49.92283" lon="2.25575">
        <ele>18.6</ele>
        <time>2022-03-11T13:09:49Z</time>
      </trkpt>
      <trkpt lat="49.92284" lon="2.25574">
        <ele>18.6</ele>
        <time>2022-03-11T13:09:51Z</time>
      </trkpt>
      <trkpt lat="49.92284" lon="2.25572">
        <ele>18.6</ele>
        <time>2022-03-11T13:09:52Z</time>
      </trkpt>
      <trkpt lat="49.92285" lon="2.2557">
        <ele>18.6</ele>
        <time>2022-03-11T13:09:53Z</time>
      </trkpt>
      <trkpt lat="49.92286" lon="2.25569">
        <ele>18.6</ele>
        <time>2022-03-11T13:09:54Z</time>
      </trkpt>
      <trkpt lat="49.92287" lon="2.25567">
        <ele>18.7</ele>
        <time>2022-03-11T13:09:55Z</time>
      </trkpt>
      <trkpt lat="49.92287" lon="2.25565">
        <ele>18.7</ele>
        <time>2022-03-11T13:09:56Z</time>
      </trkpt>
      <trkpt lat="49.92288" lon="2.25563">
        <ele>18.7</ele>
        <time>2022-03-11T13:09:57Z</time>
      </trkpt>
      <trkpt lat="49.92288" lon="2.25562">
        <ele>18.7</ele>
        <time>2022-03-11T13:09:59Z</time>
      </trkpt>
      <trkpt lat="49.92288" lon="2.2556">
        <ele>18.8</ele>
        <time>2022-03-11T13:10:00Z</time>
      </trkpt>
      <trkpt lat="49.92289" lon="2.25557">
        <ele>18.8</ele>
        <time>2022-03-11T13:10:01Z</time>
      </trkpt>
      <trkpt lat="49.92289" lon="2.25556">
        <ele>18.8</ele>
        <time>2022-03-11T13:10:02Z</time>
      </trkpt>
      <trkpt lat="49.9229" lon="2.25555">
        <ele>18.9</ele>
        <time>2022-03-11T13:10:03Z</time>
      </trkpt>
      <trkpt lat="49.9229" lon="2.25553">
        <ele>18.9</ele>
        <time>2022-03-11T13:10:04Z</time>
      </trkpt>
      <trkpt lat="49.92291" lon="2.25551">
        <ele>18.9</ele>
        <time>2022-03-11T13:10:05Z</time>
      </trkpt>
      <trkpt lat="49.92292" lon="2.25548">
        <ele>18.9</ele>
        <time>2022-03-11T13:10:06Z</time>
      </trkpt>
      <trkpt lat="49.92292" lon="2.25547">
        <ele>19</ele>
        <time>2022-03-11T13:10:07Z</time>
      </trkpt>
      <trkpt lat="49.92293" lon="2.25545">
        <ele>19</ele>
        <time>2022-03-11T13:10:08Z</time>
      </trkpt>
      <trkpt lat="49.92294" lon="2.25542">
        <ele>19</ele>
        <time>2022-03-11T13:10:10Z</time>
      </trkpt>
      <trkpt lat="49.92294" lon="2.25541">
        <ele>19</ele>
        <time>2022-03-11T13:10:11Z</time>
      </trkpt>
      <trkpt lat="49.92295" lon="2.2554">
        <ele>19.1</ele>
        <time>2022-03-11T13:10:12Z</time>
      </trkpt>
      <trkpt lat="49.92295" lon="2.25536">
        <ele>19.1</ele>
        <time>2022-03-11T13:10:13Z</time>
      </trkpt>
      <trkpt lat="49.92295" lon="2.25535">
        <ele>19.1</ele>
        <time>2022-03-11T13:10:14Z</time>
      </trkpt>
      <trkpt lat="49.92295" lon="2.25533">
        <ele>19.1</ele>
        <time>2022-03-11T13:10:15Z</time>
      </trkpt>
      <trkpt lat="49.92296" lon="2.25531">
        <ele>19.2</ele>
        <time>2022-03-11T13:10:16Z</time>
      </trkpt>
      <trkpt lat="49.92296" lon="2.25529">
        <ele>19.2</ele>
        <time>2022-03-11T13:10:17Z</time>
      </trkpt>
      <trkpt lat="49.92296" lon="2.25527">
        <ele>19.2</ele>
        <time>2022-03-11T13:10:18Z</time>
      </trkpt>
      <trkpt lat="49.92296" lon="2.25525">
        <ele>19.2</ele>
        <time>2022-03-11T13:10:19Z</time>
      </trkpt>
      <trkpt lat="49.92296" lon="2.25521">
        <ele>19.3</ele>
        <time>2022-03-11T13:10:21Z</time>
      </trkpt>
      <trkpt lat="49.92296" lon="2.2552">
        <ele>19.3</ele>
        <time>2022-03-11T13:10:22Z</time>
      </trkpt>
      <trkpt lat="49.92296" lon="2.25519">
        <ele>19.3</ele>
        <time>2022-03-11T13:10:23Z</time>
      </trkpt>
      <trkpt lat="49.92296" lon="2.25517">
        <ele>19.3</ele>
        <time>2022-03-11T13:10:24Z</time>
      </trkpt>
      <trkpt lat="49.92296" lon="2.25514">
        <ele>19.3</ele>
        <time>2022-03-11T13:10:25Z</time>
      </trkpt>
      <trkpt lat="49.92296" lon="2.25512">
        <ele>19.4</ele>
        <time>2022-03-11T13:10:26Z</time>
      </trkpt>
      <trkpt lat="49.92296" lon="2.2551">
        <ele>19.4</ele>
        <time>2022-03-11T13:10:27Z</time>
      </trkpt>
      <trkpt lat="49.92295" lon="2.25509">
        <ele>19.4</ele>
        <time>2022-03-11T13:10:29Z</time>
      </trkpt>
      <trkpt lat="49.92296" lon="2.25507">
        <ele>19.4</ele>
        <time>2022-03-11T13:10:30Z</time>
      </trkpt>
      <trkpt lat="49.92296" lon="2.25505">
        <ele>19.4</ele>
        <time>2022-03-11T13:10:31Z</time>
      </trkpt>
      <trkpt lat="49.92296" lon="2.25503">
        <ele>19.4</ele>
        <time>2022-03-11T13:10:32Z</time>
      </trkpt>
      <trkpt lat="49.92296" lon="2.255">
        <ele>19.5</ele>
        <time>2022-03-11T13:10:33Z</time>
      </trkpt>
      <trkpt lat="49.92296" lon="2.25498">
        <ele>19.5</ele>
        <time>2022-03-11T13:10:34Z</time>
      </trkpt>
      <trkpt lat="49.92296" lon="2.25497">
        <ele>19.5</ele>
        <time>2022-03-11T13:10:35Z</time>
      </trkpt>
      <trkpt lat="49.92297" lon="2.25495">
        <ele>19.5</ele>
        <time>2022-03-11T13:10:36Z</time>
      </trkpt>
      <trkpt lat="49.92297" lon="2.25493">
        <ele>19.5</ele>
        <time>2022-03-11T13:10:37Z</time>
      </trkpt>
      <trkpt lat="49.92297" lon="2.25491">
        <ele>19.5</ele>
        <time>2022-03-11T13:10:39Z</time>
      </trkpt>
      <trkpt lat="49.92297" lon="2.25489">
        <ele>19.5</ele>
        <time>2022-03-11T13:10:40Z</time>
      </trkpt>
      <trkpt lat="49.92297" lon="2.25487">
        <ele>19.6</ele>
        <time>2022-03-11T13:10:41Z</time>
      </trkpt>
      <trkpt lat="49.92297" lon="2.25485">
        <ele>19.6</ele>
        <time>2022-03-11T13:10:42Z</time>
      </trkpt>
      <trkpt lat="49.92297" lon="2.25483">
        <ele>19.6</ele>
        <time>2022-03-11T13:10:43Z</time>
      </trkpt>
      <trkpt lat="49.92297" lon="2.25481">
        <ele>19.6</ele>
        <time>2022-03-11T13:10:44Z</time>
      </trkpt>
      <trkpt lat="49.92298" lon="2.25479">
        <ele>19.6</ele>
        <time>2022-03-11T13:10:45Z</time>
      </trkpt>
      <trkpt lat="49.92298" lon="2.25477">
        <ele>19.6</ele>
        <time>2022-03-11T13:10:46Z</time>
      </trkpt>
      <trkpt lat="49.92298" lon="2.25475">
        <ele>19.7</ele>
        <time>2022-03-11T13:10:48Z</time>
      </trkpt>
      <trkpt lat="49.92298" lon="2.25472">
        <ele>19.7</ele>
        <time>2022-03-11T13:10:49Z</time>
      </trkpt>
      <trkpt lat="49.92298" lon="2.2547">
        <ele>19.7</ele>
        <time>2022-03-11T13:10:50Z</time>
      </trkpt>
      <trkpt lat="49.92298" lon="2.25469">
        <ele>19.7</ele>
        <time>2022-03-11T13:10:51Z</time>
      </trkpt>
      <trkpt lat="49.92299" lon="2.25467">
        <ele>19.7</ele>
        <time>2022-03-11T13:10:52Z</time>
      </trkpt>
      <trkpt lat="49.92299" lon="2.25465">
        <ele>19.7</ele>
        <time>2022-03-11T13:10:53Z</time>
      </trkpt>
      <trkpt lat="49.923" lon="2.25463">
        <ele>19.7</ele>
        <time>2022-03-11T13:10:54Z</time>
      </trkpt>
      <trkpt lat="49.923" lon="2.2546">
        <ele>19.7</ele>
        <time>2022-03-11T13:10:55Z</time>
      </trkpt>
      <trkpt lat="49.923" lon="2.25457">
        <ele>19.8</ele>
        <time>2022-03-11T13:10:56Z</time>
      </trkpt>
      <trkpt lat="49.923" lon="2.25456">
        <ele>19.8</ele>
        <time>2022-03-11T13:10:58Z</time>
      </trkpt>
      <trkpt lat="49.923" lon="2.25454">
        <ele>19.8</ele>
        <time>2022-03-11T13:10:59Z</time>
      </trkpt>
      <trkpt lat="49.923" lon="2.25452">
        <ele>19.8</ele>
        <time>2022-03-11T13:11:00Z</time>
      </trkpt>
      <trkpt lat="49.923" lon="2.25451">
        <ele>19.8</ele>
        <time>2022-03-11T13:11:01Z</time>
      </trkpt>
      <trkpt lat="49.923" lon="2.25449">
        <ele>19.8</ele>
        <time>2022-03-11T13:11:02Z</time>
      </trkpt>
      <trkpt lat="49.92301" lon="2.25447">
        <ele>19.8</ele>
        <time>2022-03-11T13:11:03Z</time>
      </trkpt>
      <trkpt lat="49.92301" lon="2.25445">
        <ele>19.8</ele>
        <time>2022-03-11T13:11:04Z</time>
      </trkpt>
      <trkpt lat="49.92301" lon="2.25443">
        <ele>19.8</ele>
        <time>2022-03-11T13:11:05Z</time>
      </trkpt>
      <trkpt lat="49.92302" lon="2.2544">
        <ele>19.9</ele>
        <time>2022-03-11T13:11:06Z</time>
      </trkpt>
      <trkpt lat="49.92302" lon="2.25439">
        <ele>19.9</ele>
        <time>2022-03-11T13:11:07Z</time>
      </trkpt>
      <trkpt lat="49.92302" lon="2.25438">
        <ele>19.9</ele>
        <time>2022-03-11T13:11:08Z</time>
      </trkpt>
      <trkpt lat="49.92303" lon="2.25436">
        <ele>19.9</ele>
        <time>2022-03-11T13:11:09Z</time>
      </trkpt>
      <trkpt lat="49.92303" lon="2.25434">
        <ele>19.9</ele>
        <time>2022-03-11T13:11:10Z</time>
      </trkpt>
      <trkpt lat="49.92304" lon="2.25433">
        <ele>19.9</ele>
        <time>2022-03-11T13:11:12Z</time>
      </trkpt>
      <trkpt lat="49.92304" lon="2.25431">
        <ele>20</ele>
        <time>2022-03-11T13:11:13Z</time>
      </trkpt>
      <trkpt lat="49.92305" lon="2.2543">
        <ele>20</ele>
        <time>2022-03-11T13:11:14Z</time>
      </trkpt>
      <trkpt lat="49.92306" lon="2.25429">
        <ele>20</ele>
        <time>2022-03-11T13:11:15Z</time>
      </trkpt>
      <trkpt lat="49.92306" lon="2.25428">
        <ele>20</ele>
        <time>2022-03-11T13:11:17Z</time>
      </trkpt>
      <trkpt lat="49.92307" lon="2.25427">
        <ele>20</ele>
        <time>2022-03-11T13:11:18Z</time>
      </trkpt>
      <trkpt lat="49.92308" lon="2.25425">
        <ele>20</ele>
        <time>2022-03-11T13:11:19Z</time>
      </trkpt>
      <trkpt lat="49.92309" lon="2.25422">
        <ele>20.1</ele>
        <time>2022-03-11T13:11:20Z</time>
      </trkpt>
      <trkpt lat="49.92309" lon="2.25421">
        <ele>20.1</ele>
        <time>2022-03-11T13:11:21Z</time>
      </trkpt>
      <trkpt lat="49.9231" lon="2.2542">
        <ele>20.1</ele>
        <time>2022-03-11T13:11:22Z</time>
      </trkpt>
      <trkpt lat="49.9231" lon="2.25418">
        <ele>20.1</ele>
        <time>2022-03-11T13:11:23Z</time>
      </trkpt>
      <trkpt lat="49.9231" lon="2.25416">
        <ele>20.1</ele>
        <time>2022-03-11T13:11:25Z</time>
      </trkpt>
      <trkpt lat="49.92311" lon="2.25414">
        <ele>20.1</ele>
        <time>2022-03-11T13:11:26Z</time>
      </trkpt>
      <trkpt lat="49.92311" lon="2.25413">
        <ele>20.2</ele>
        <time>2022-03-11T13:11:27Z</time>
      </trkpt>
      <trkpt lat="49.92311" lon="2.25411">
        <ele>20.2</ele>
        <time>2022-03-11T13:11:28Z</time>
      </trkpt>
      <trkpt lat="49.92311" lon="2.2541">
        <ele>20.2</ele>
        <time>2022-03-11T13:11:29Z</time>
      </trkpt>
      <trkpt lat="49.9231" lon="2.25408">
        <ele>20.2</ele>
        <time>2022-03-11T13:11:30Z</time>
      </trkpt>
      <trkpt lat="49.92309" lon="2.25407">
        <ele>20.2</ele>
        <time>2022-03-11T13:11:31Z</time>
      </trkpt>
      <trkpt lat="49.92309" lon="2.25405">
        <ele>20.2</ele>
        <time>2022-03-11T13:11:33Z</time>
      </trkpt>
      <trkpt lat="49.92309" lon="2.25403">
        <ele>20.3</ele>
        <time>2022-03-11T13:11:34Z</time>
      </trkpt>
      <trkpt lat="49.92309" lon="2.25401">
        <ele>20.3</ele>
        <time>2022-03-11T13:11:35Z</time>
      </trkpt>
      <trkpt lat="49.92309" lon="2.25399">
        <ele>20.3</ele>
        <time>2022-03-11T13:11:36Z</time>
      </trkpt>
      <trkpt lat="49.9231" lon="2.25397">
        <ele>20.3</ele>
        <time>2022-03-11T13:11:37Z</time>
      </trkpt>
      <trkpt lat="49.9231" lon="2.25396">
        <ele>20.3</ele>
        <time>2022-03-11T13:11:39Z</time>
      </trkpt>
      <trkpt lat="49.9231" lon="2.25392">
        <ele>20.4</ele>
        <time>2022-03-11T13:11:40Z</time>
      </trkpt>
      <trkpt lat="49.9231" lon="2.25391">
        <ele>20.4</ele>
        <time>2022-03-11T13:11:41Z</time>
      </trkpt>
      <trkpt lat="49.92311" lon="2.2539">
        <ele>20.4</ele>
        <time>2022-03-11T13:11:42Z</time>
      </trkpt>
      <trkpt lat="49.92311" lon="2.25387">
        <ele>20.4</ele>
        <time>2022-03-11T13:11:43Z</time>
      </trkpt>
      <trkpt lat="49.92311" lon="2.25385">
        <ele>20.4</ele>
        <time>2022-03-11T13:11:45Z</time>
      </trkpt>
      <trkpt lat="49.92311" lon="2.25384">
        <ele>20.4</ele>
        <time>2022-03-11T13:11:46Z</time>
      </trkpt>
      <trkpt lat="49.92312" lon="2.25382">
        <ele>20.4</ele>
        <time>2022-03-11T13:11:47Z</time>
      </trkpt>
      <trkpt lat="49.92312" lon="2.25381">
        <ele>20.5</ele>
        <time>2022-03-11T13:11:48Z</time>
      </trkpt>
      <trkpt lat="49.92312" lon="2.25379">
        <ele>20.5</ele>
        <time>2022-03-11T13:11:49Z</time>
      </trkpt>
      <trkpt lat="49.92312" lon="2.25377">
        <ele>20.5</ele>
        <time>2022-03-11T13:11:50Z</time>
      </trkpt>
      <trkpt lat="49.92312" lon="2.25376">
        <ele>20.5</ele>
        <time>2022-03-11T13:11:51Z</time>
      </trkpt>
      <trkpt lat="49.92312" lon="2.25374">
        <ele>20.5</ele>
        <time>2022-03-11T13:11:52Z</time>
      </trkpt>
      <trkpt lat="49.92312" lon="2.25372">
        <ele>20.5</ele>
        <time>2022-03-11T13:11:53Z</time>
      </trkpt>
      <trkpt lat="49.92313" lon="2.2537">
        <ele>20.5</ele>
        <time>2022-03-11T13:11:54Z</time>
      </trkpt>
      <trkpt lat="49.92313" lon="2.25369">
        <ele>20.5</ele>
        <time>2022-03-11T13:11:56Z</time>
      </trkpt>
      <trkpt lat="49.92314" lon="2.25366">
        <ele>20.6</ele>
        <time>2022-03-11T13:11:57Z</time>
      </trkpt>
      <trkpt lat="49.92314" lon="2.25365">
        <ele>20.6</ele>
        <time>2022-03-11T13:11:58Z</time>
      </trkpt>
      <trkpt lat="49.92314" lon="2.25363">
        <ele>20.6</ele>
        <time>2022-03-11T13:11:59Z</time>
      </trkpt>
      <trkpt lat="49.92315" lon="2.25362">
        <ele>20.6</ele>
        <time>2022-03-11T13:12:00Z</time>
      </trkpt>
      <trkpt lat="49.92315" lon="2.2536">
        <ele>20.6</ele>
        <time>2022-03-11T13:12:01Z</time>
      </trkpt>
      <trkpt lat="49.92316" lon="2.25358">
        <ele>20.6</ele>
        <time>2022-03-11T13:12:03Z</time>
      </trkpt>
      <trkpt lat="49.92316" lon="2.25356">
        <ele>20.6</ele>
        <time>2022-03-11T13:12:04Z</time>
      </trkpt>
      <trkpt lat="49.92317" lon="2.25355">
        <ele>20.6</ele>
        <time>2022-03-11T13:12:05Z</time>
      </trkpt>
      <trkpt lat="49.92317" lon="2.25353">
        <ele>20.6</ele>
        <time>2022-03-11T13:12:06Z</time>
      </trkpt>
      <trkpt lat="49.92318" lon="2.25352">
        <ele>20.7</ele>
        <time>2022-03-11T13:12:07Z</time>
      </trkpt>
      <trkpt lat="49.92319" lon="2.2535">
        <ele>20.7</ele>
        <time>2022-03-11T13:12:08Z</time>
      </trkpt>
      <trkpt lat="49.92319" lon="2.25348">
        <ele>20.7</ele>
        <time>2022-03-11T13:12:10Z</time>
      </trkpt>
      <trkpt lat="49.92318" lon="2.25346">
        <ele>20.7</ele>
        <time>2022-03-11T13:12:11Z</time>
      </trkpt>
      <trkpt lat="49.92318" lon="2.25345">
        <ele>20.7</ele>
        <time>2022-03-11T13:12:12Z</time>
      </trkpt>
      <trkpt lat="49.92318" lon="2.25343">
        <ele>20.7</ele>
        <time>2022-03-11T13:12:13Z</time>
      </trkpt>
      <trkpt lat="49.92319" lon="2.25342">
        <ele>20.7</ele>
        <time>2022-03-11T13:12:14Z</time>
      </trkpt>
      <trkpt lat="49.9232" lon="2.2534">
        <ele>20.7</ele>
        <time>2022-03-11T13:12:15Z</time>
      </trkpt>
      <trkpt lat="49.92321" lon="2.25339">
        <ele>20.7</ele>
        <time>2022-03-11T13:12:16Z</time>
      </trkpt>
      <trkpt lat="49.92321" lon="2.25337">
        <ele>20.8</ele>
        <time>2022-03-11T13:12:18Z</time>
      </trkpt>
      <trkpt lat="49.92321" lon="2.25335">
        <ele>20.8</ele>
        <time>2022-03-11T13:12:19Z</time>
      </trkpt>
      <trkpt lat="49.9232" lon="2.25333">
        <ele>20.8</ele>
        <time>2022-03-11T13:12:20Z</time>
      </trkpt>
      <trkpt lat="49.9232" lon="2.25331">
        <ele>20.8</ele>
        <time>2022-03-11T13:12:21Z</time>
      </trkpt>
      <trkpt lat="49.9232" lon="2.25329">
        <ele>20.8</ele>
        <time>2022-03-11T13:12:22Z</time>
      </trkpt>
      <trkpt lat="49.9232" lon="2.25326">
        <ele>20.8</ele>
        <time>2022-03-11T13:12:23Z</time>
      </trkpt>
      <trkpt lat="49.92321" lon="2.25325">
        <ele>20.8</ele>
        <time>2022-03-11T13:12:25Z</time>
      </trkpt>
      <trkpt lat="49.92321" lon="2.25324">
        <ele>20.8</ele>
        <time>2022-03-11T13:12:26Z</time>
      </trkpt>
      <trkpt lat="49.92321" lon="2.25322">
        <ele>20.8</ele>
        <time>2022-03-11T13:12:27Z</time>
      </trkpt>
      <trkpt lat="49.92322" lon="2.25321">
        <ele>20.8</ele>
        <time>2022-03-11T13:12:28Z</time>
      </trkpt>
      <trkpt lat="49.92322" lon="2.25319">
        <ele>20.8</ele>
        <time>2022-03-11T13:12:29Z</time>
      </trkpt>
      <trkpt lat="49.92323" lon="2.25316">
        <ele>20.8</ele>
        <time>2022-03-11T13:12:30Z</time>
      </trkpt>
      <trkpt lat="49.92323" lon="2.25315">
        <ele>20.8</ele>
        <time>2022-03-11T13:12:32Z</time>
      </trkpt>
      <trkpt lat="49.92323" lon="2.25314">
        <ele>20.8</ele>
        <time>2022-03-11T13:12:33Z</time>
      </trkpt>
      <trkpt lat="49.92323" lon="2.25312">
        <ele>20.8</ele>
        <time>2022-03-11T13:12:34Z</time>
      </trkpt>
      <trkpt lat="49.92323" lon="2.2531">
        <ele>20.8</ele>
        <time>2022-03-11T13:12:35Z</time>
      </trkpt>
      <trkpt lat="49.92324" lon="2.25308">
        <ele>20.8</ele>
        <time>2022-03-11T13:12:36Z</time>
      </trkpt>
      <trkpt lat="49.92324" lon="2.25306">
        <ele>20.8</ele>
        <time>2022-03-11T13:12:38Z</time>
      </trkpt>
      <trkpt lat="49.92324" lon="2.25304">
        <ele>20.8</ele>
        <time>2022-03-11T13:12:39Z</time>
      </trkpt>
      <trkpt lat="49.92324" lon="2.25303">
        <ele>20.8</ele>
        <time>2022-03-11T13:12:40Z</time>
      </trkpt>
      <trkpt lat="49.92324" lon="2.25301">
        <ele>20.8</ele>
        <time>2022-03-11T13:12:41Z</time>
      </trkpt>
      <trkpt lat="49.92325" lon="2.25299">
        <ele>20.8</ele>
        <time>2022-03-11T13:12:42Z</time>
      </trkpt>
      <trkpt lat="49.92325" lon="2.25297">
        <ele>20.8</ele>
        <time>2022-03-11T13:12:44Z</time>
      </trkpt>
      <trkpt lat="49.92326" lon="2.25296">
        <ele>20.8</ele>
        <time>2022-03-11T13:12:45Z</time>
      </trkpt>
      <trkpt lat="49.92326" lon="2.25294">
        <ele>20.8</ele>
        <time>2022-03-11T13:12:46Z</time>
      </trkpt>
      <trkpt lat="49.92327" lon="2.25292">
        <ele>20.8</ele>
        <time>2022-03-11T13:12:47Z</time>
      </trkpt>
      <trkpt lat="49.92328" lon="2.25289">
        <ele>20.8</ele>
        <time>2022-03-11T13:12:48Z</time>
      </trkpt>
      <trkpt lat="49.92328" lon="2.25288">
        <ele>20.8</ele>
        <time>2022-03-11T13:12:49Z</time>
      </trkpt>
      <trkpt lat="49.92329" lon="2.25287">
        <ele>20.8</ele>
        <time>2022-03-11T13:12:50Z</time>
      </trkpt>
      <trkpt lat="49.92329" lon="2.25285">
        <ele>20.8</ele>
        <time>2022-03-11T13:12:52Z</time>
      </trkpt>
      <trkpt lat="49.9233" lon="2.25284">
        <ele>20.8</ele>
        <time>2022-03-11T13:12:53Z</time>
      </trkpt>
      <trkpt lat="49.9233" lon="2.25282">
        <ele>20.8</ele>
        <time>2022-03-11T13:12:54Z</time>
      </trkpt>
      <trkpt lat="49.92331" lon="2.25281">
        <ele>20.8</ele>
        <time>2022-03-11T13:12:55Z</time>
      </trkpt>
      <trkpt lat="49.92331" lon="2.25279">
        <ele>20.8</ele>
        <time>2022-03-11T13:12:56Z</time>
      </trkpt>
      <trkpt lat="49.92332" lon="2.25278">
        <ele>20.9</ele>
        <time>2022-03-11T13:12:57Z</time>
      </trkpt>
      <trkpt lat="49.92332" lon="2.25276">
        <ele>20.9</ele>
        <time>2022-03-11T13:12:58Z</time>
      </trkpt>
      <trkpt lat="49.92333" lon="2.25275">
        <ele>20.9</ele>
        <time>2022-03-11T13:12:59Z</time>
      </trkpt>
      <trkpt lat="49.92334" lon="2.25273">
        <ele>20.9</ele>
        <time>2022-03-11T13:13:00Z</time>
      </trkpt>
      <trkpt lat="49.92335" lon="2.25272">
        <ele>20.9</ele>
        <time>2022-03-11T13:13:01Z</time>
      </trkpt>
      <trkpt lat="49.92336" lon="2.2527">
        <ele>20.9</ele>
        <time>2022-03-11T13:13:02Z</time>
      </trkpt>
      <trkpt lat="49.92337" lon="2.25267">
        <ele>20.9</ele>
        <time>2022-03-11T13:13:03Z</time>
      </trkpt>
      <trkpt lat="49.92338" lon="2.25266">
        <ele>20.9</ele>
        <time>2022-03-11T13:13:05Z</time>
      </trkpt>
      <trkpt lat="49.92338" lon="2.25265">
        <ele>20.9</ele>
        <time>2022-03-11T13:13:06Z</time>
      </trkpt>
      <trkpt lat="49.92339" lon="2.25263">
        <ele>20.9</ele>
        <time>2022-03-11T13:13:07Z</time>
      </trkpt>
      <trkpt lat="49.92339" lon="2.25261">
        <ele>20.9</ele>
        <time>2022-03-11T13:13:08Z</time>
      </trkpt>
      <trkpt lat="49.9234" lon="2.25258">
        <ele>20.9</ele>
        <time>2022-03-11T13:13:10Z</time>
      </trkpt>
      <trkpt lat="49.92341" lon="2.25256">
        <ele>20.9</ele>
        <time>2022-03-11T13:13:11Z</time>
      </trkpt>
      <trkpt lat="49.92341" lon="2.25255">
        <ele>20.9</ele>
        <time>2022-03-11T13:13:12Z</time>
      </trkpt>
      <trkpt lat="49.92341" lon="2.25253">
        <ele>20.9</ele>
        <time>2022-03-11T13:13:13Z</time>
      </trkpt>
      <trkpt lat="49.92342" lon="2.25251">
        <ele>20.9</ele>
        <time>2022-03-11T13:13:15Z</time>
      </trkpt>
      <trkpt lat="49.92342" lon="2.2525">
        <ele>20.9</ele>
        <time>2022-03-11T13:13:16Z</time>
      </trkpt>
      <trkpt lat="49.92343" lon="2.25248">
        <ele>20.9</ele>
        <time>2022-03-11T13:13:17Z</time>
      </trkpt>
      <trkpt lat="49.92343" lon="2.25248">
        <ele>21</ele>
        <time>2022-03-11T13:13:18Z</time>
      </trkpt>
      <trkpt lat="49.92344" lon="2.25247">
        <ele>21</ele>
        <time>2022-03-11T13:13:19Z</time>
      </trkpt>
      <trkpt lat="49.92345" lon="2.25246">
        <ele>21</ele>
        <time>2022-03-11T13:13:21Z</time>
      </trkpt>
      <trkpt lat="49.92346" lon="2.25246">
        <ele>21</ele>
        <time>2022-03-11T13:13:22Z</time>
      </trkpt>
      <trkpt lat="49.92346" lon="2.25246">
        <ele>21</ele>
        <time>2022-03-11T13:13:24Z</time>
      </trkpt>
      <trkpt lat="49.92346" lon="2.25245">
        <ele>21</ele>
        <time>2022-03-11T13:13:25Z</time>
      </trkpt>
      <trkpt lat="49.92346" lon="2.25245">
        <ele>21</ele>
        <time>2022-03-11T13:13:26Z</time>
      </trkpt>
      <trkpt lat="49.92346" lon="2.25245">
        <ele>21</ele>
        <time>2022-03-11T13:13:27Z</time>
      </trkpt>
      <trkpt lat="49.92346" lon="2.25245">
        <ele>21</ele>
        <time>2022-03-11T13:13:28Z</time>
      </trkpt>
      <trkpt lat="49.92347" lon="2.25245">
        <ele>21</ele>
        <time>2022-03-11T13:13:29Z</time>
      </trkpt>
      <trkpt lat="49.92346" lon="2.25245">
        <ele>21</ele>
        <time>2022-03-11T13:13:30Z</time>
      </trkpt>
      <trkpt lat="49.92345" lon="2.25246">
        <ele>21</ele>
        <time>2022-03-11T13:13:31Z</time>
      </trkpt>
      <trkpt lat="49.92345" lon="2.25246">
        <ele>21</ele>
        <time>2022-03-11T13:13:32Z</time>
      </trkpt>
      <trkpt lat="49.92345" lon="2.25246">
        <ele>21</ele>
        <time>2022-03-11T13:13:33Z</time>
      </trkpt>
      <trkpt lat="49.92345" lon="2.25246">
        <ele>21</ele>
        <time>2022-03-11T13:13:34Z</time>
      </trkpt>
      <trkpt lat="49.92345" lon="2.25245">
        <ele>21</ele>
        <time>2022-03-11T13:13:35Z</time>
      </trkpt>
      <trkpt lat="49.92345" lon="2.25245">
        <ele>21</ele>
        <time>2022-03-11T13:13:36Z</time>
      </trkpt>
      <trkpt lat="49.92345" lon="2.25244">
        <ele>21</ele>
        <time>2022-03-11T13:13:37Z</time>
      </trkpt>
      <trkpt lat="49.92345" lon="2.25243">
        <ele>21</ele>
        <time>2022-03-11T13:13:38Z</time>
      </trkpt>
      <trkpt lat="49.92345" lon="2.25242">
        <ele>21</ele>
        <time>2022-03-11T13:13:39Z</time>
      </trkpt>
      <trkpt lat="49.92345" lon="2.25241">
        <ele>21</ele>
        <time>2022-03-11T13:13:40Z</time>
      </trkpt>
      <trkpt lat="49.92345" lon="2.25239">
        <ele>21</ele>
        <time>2022-03-11T13:13:41Z</time>
      </trkpt>
      <trkpt lat="49.92346" lon="2.25238">
        <ele>21</ele>
        <time>2022-03-11T13:13:42Z</time>
      </trkpt>
      <trkpt lat="49.92346" lon="2.25236">
        <ele>21</ele>
        <time>2022-03-11T13:13:43Z</time>
      </trkpt>
      <trkpt lat="49.92346" lon="2.25235">
        <ele>21</ele>
        <time>2022-03-11T13:13:44Z</time>
      </trkpt>
      <trkpt lat="49.92346" lon="2.25234">
        <ele>21.1</ele>
        <time>2022-03-11T13:13:45Z</time>
      </trkpt>
      <trkpt lat="49.92346" lon="2.25232">
        <ele>21.1</ele>
        <time>2022-03-11T13:13:46Z</time>
      </trkpt>
      <trkpt lat="49.92347" lon="2.25231">
        <ele>21.1</ele>
        <time>2022-03-11T13:13:47Z</time>
      </trkpt>
      <trkpt lat="49.92347" lon="2.25229">
        <ele>21.1</ele>
        <time>2022-03-11T13:13:48Z</time>
      </trkpt>
      <trkpt lat="49.92347" lon="2.25228">
        <ele>21.1</ele>
        <time>2022-03-11T13:13:49Z</time>
      </trkpt>
      <trkpt lat="49.92348" lon="2.25226">
        <ele>21.1</ele>
        <time>2022-03-11T13:13:50Z</time>
      </trkpt>
      <trkpt lat="49.92348" lon="2.25224">
        <ele>21.1</ele>
        <time>2022-03-11T13:13:51Z</time>
      </trkpt>
      <trkpt lat="49.92348" lon="2.25223">
        <ele>21.1</ele>
        <time>2022-03-11T13:13:52Z</time>
      </trkpt>
      <trkpt lat="49.92348" lon="2.25222">
        <ele>21.1</ele>
        <time>2022-03-11T13:13:53Z</time>
      </trkpt>
      <trkpt lat="49.92348" lon="2.2522">
        <ele>21.1</ele>
        <time>2022-03-11T13:13:54Z</time>
      </trkpt>
      <trkpt lat="49.92348" lon="2.25219">
        <ele>21.1</ele>
        <time>2022-03-11T13:13:55Z</time>
      </trkpt>
      <trkpt lat="49.92348" lon="2.25217">
        <ele>21.1</ele>
        <time>2022-03-11T13:13:56Z</time>
      </trkpt>
      <trkpt lat="49.92348" lon="2.25215">
        <ele>21.1</ele>
        <time>2022-03-11T13:13:57Z</time>
      </trkpt>
      <trkpt lat="49.92348" lon="2.25212">
        <ele>21.1</ele>
        <time>2022-03-11T13:13:58Z</time>
      </trkpt>
      <trkpt lat="49.92348" lon="2.2521">
        <ele>21.1</ele>
        <time>2022-03-11T13:13:59Z</time>
      </trkpt>
      <trkpt lat="49.92348" lon="2.25209">
        <ele>21.1</ele>
        <time>2022-03-11T13:14:00Z</time>
      </trkpt>
      <trkpt lat="49.92349" lon="2.25205">
        <ele>21.1</ele>
        <time>2022-03-11T13:14:01Z</time>
      </trkpt>
      <trkpt lat="49.9235" lon="2.25202">
        <ele>21.2</ele>
        <time>2022-03-11T13:14:02Z</time>
      </trkpt>
      <trkpt lat="49.9235" lon="2.25199">
        <ele>21.2</ele>
        <time>2022-03-11T13:14:03Z</time>
      </trkpt>
      <trkpt lat="49.9235" lon="2.25196">
        <ele>21.2</ele>
        <time>2022-03-11T13:14:05Z</time>
      </trkpt>
      <trkpt lat="49.9235" lon="2.25194">
        <ele>21.2</ele>
        <time>2022-03-11T13:14:06Z</time>
      </trkpt>
      <trkpt lat="49.9235" lon="2.25193">
        <ele>21.2</ele>
        <time>2022-03-11T13:14:07Z</time>
      </trkpt>
      <trkpt lat="49.92351" lon="2.2519">
        <ele>21.2</ele>
        <time>2022-03-11T13:14:08Z</time>
      </trkpt>
      <trkpt lat="49.92351" lon="2.25189">
        <ele>21.2</ele>
        <time>2022-03-11T13:14:09Z</time>
      </trkpt>
      <trkpt lat="49.92351" lon="2.25187">
        <ele>21.2</ele>
        <time>2022-03-11T13:14:10Z</time>
      </trkpt>
      <trkpt lat="49.92351" lon="2.25184">
        <ele>21.2</ele>
        <time>2022-03-11T13:14:11Z</time>
      </trkpt>
      <trkpt lat="49.92351" lon="2.25183">
        <ele>21.2</ele>
        <time>2022-03-11T13:14:12Z</time>
      </trkpt>
      <trkpt lat="49.92351" lon="2.25181">
        <ele>21.2</ele>
        <time>2022-03-11T13:14:13Z</time>
      </trkpt>
      <trkpt lat="49.92351" lon="2.25178">
        <ele>21.2</ele>
        <time>2022-03-11T13:14:14Z</time>
      </trkpt>
      <trkpt lat="49.92351" lon="2.25177">
        <ele>21.2</ele>
        <time>2022-03-11T13:14:15Z</time>
      </trkpt>
      <trkpt lat="49.92351" lon="2.25176">
        <ele>21.2</ele>
        <time>2022-03-11T13:14:16Z</time>
      </trkpt>
      <trkpt lat="49.92351" lon="2.25173">
        <ele>21.2</ele>
        <time>2022-03-11T13:14:17Z</time>
      </trkpt>
      <trkpt lat="49.92352" lon="2.25171">
        <ele>21.2</ele>
        <time>2022-03-11T13:14:18Z</time>
      </trkpt>
      <trkpt lat="49.92352" lon="2.25169">
        <ele>21.2</ele>
        <time>2022-03-11T13:14:19Z</time>
      </trkpt>
      <trkpt lat="49.92352" lon="2.25167">
        <ele>21.2</ele>
        <time>2022-03-11T13:14:20Z</time>
      </trkpt>
      <trkpt lat="49.92353" lon="2.25165">
        <ele>21.2</ele>
        <time>2022-03-11T13:14:22Z</time>
      </trkpt>
      <trkpt lat="49.92353" lon="2.25162">
        <ele>21.2</ele>
        <time>2022-03-11T13:14:23Z</time>
      </trkpt>
      <trkpt lat="49.92354" lon="2.25161">
        <ele>21.2</ele>
        <time>2022-03-11T13:14:24Z</time>
      </trkpt>
      <trkpt lat="49.92354" lon="2.2516">
        <ele>21.2</ele>
        <time>2022-03-11T13:14:25Z</time>
      </trkpt>
      <trkpt lat="49.92354" lon="2.25157">
        <ele>21.2</ele>
        <time>2022-03-11T13:14:26Z</time>
      </trkpt>
      <trkpt lat="49.92355" lon="2.25155">
        <ele>21.2</ele>
        <time>2022-03-11T13:14:28Z</time>
      </trkpt>
      <trkpt lat="49.92355" lon="2.25153">
        <ele>21.2</ele>
        <time>2022-03-11T13:14:29Z</time>
      </trkpt>
      <trkpt lat="49.92356" lon="2.25151">
        <ele>21.2</ele>
        <time>2022-03-11T13:14:30Z</time>
      </trkpt>
      <trkpt lat="49.92356" lon="2.25148">
        <ele>21.2</ele>
        <time>2022-03-11T13:14:31Z</time>
      </trkpt>
      <trkpt lat="49.92356" lon="2.25146">
        <ele>21.2</ele>
        <time>2022-03-11T13:14:32Z</time>
      </trkpt>
      <trkpt lat="49.92357" lon="2.25145">
        <ele>21.2</ele>
        <time>2022-03-11T13:14:33Z</time>
      </trkpt>
      <trkpt lat="49.92357" lon="2.25143">
        <ele>21.1</ele>
        <time>2022-03-11T13:14:34Z</time>
      </trkpt>
      <trkpt lat="49.92358" lon="2.25141">
        <ele>21.1</ele>
        <time>2022-03-11T13:14:35Z</time>
      </trkpt>
      <trkpt lat="49.92358" lon="2.25139">
        <ele>21.1</ele>
        <time>2022-03-11T13:14:36Z</time>
      </trkpt>
      <trkpt lat="49.92359" lon="2.25137">
        <ele>21.1</ele>
        <time>2022-03-11T13:14:37Z</time>
      </trkpt>
      <trkpt lat="49.92359" lon="2.25135">
        <ele>21.1</ele>
        <time>2022-03-11T13:14:39Z</time>
      </trkpt>
      <trkpt lat="49.9236" lon="2.25133">
        <ele>21.1</ele>
        <time>2022-03-11T13:14:40Z</time>
      </trkpt>
      <trkpt lat="49.9236" lon="2.25131">
        <ele>21.1</ele>
        <time>2022-03-11T13:14:41Z</time>
      </trkpt>
      <trkpt lat="49.9236" lon="2.25128">
        <ele>21</ele>
        <time>2022-03-11T13:14:42Z</time>
      </trkpt>
      <trkpt lat="49.9236" lon="2.25126">
        <ele>21</ele>
        <time>2022-03-11T13:14:43Z</time>
      </trkpt>
      <trkpt lat="49.9236" lon="2.25123">
        <ele>21</ele>
        <time>2022-03-11T13:14:44Z</time>
      </trkpt>
      <trkpt lat="49.9236" lon="2.25121">
        <ele>21</ele>
        <time>2022-03-11T13:14:45Z</time>
      </trkpt>
      <trkpt lat="49.92361" lon="2.25117">
        <ele>21</ele>
        <time>2022-03-11T13:14:46Z</time>
      </trkpt>
      <trkpt lat="49.92361" lon="2.25116">
        <ele>21</ele>
        <time>2022-03-11T13:14:48Z</time>
      </trkpt>
      <trkpt lat="49.92361" lon="2.25115">
        <ele>21</ele>
        <time>2022-03-11T13:14:49Z</time>
      </trkpt>
      <trkpt lat="49.92361" lon="2.25111">
        <ele>20.9</ele>
        <time>2022-03-11T13:14:50Z</time>
      </trkpt>
      <trkpt lat="49.92361" lon="2.2511">
        <ele>20.9</ele>
        <time>2022-03-11T13:14:51Z</time>
      </trkpt>
      <trkpt lat="49.92362" lon="2.25109">
        <ele>20.9</ele>
        <time>2022-03-11T13:14:52Z</time>
      </trkpt>
      <trkpt lat="49.92362" lon="2.25106">
        <ele>20.9</ele>
        <time>2022-03-11T13:14:53Z</time>
      </trkpt>
      <trkpt lat="49.92362" lon="2.25105">
        <ele>20.9</ele>
        <time>2022-03-11T13:14:54Z</time>
      </trkpt>
      <trkpt lat="49.92363" lon="2.25103">
        <ele>20.9</ele>
        <time>2022-03-11T13:14:55Z</time>
      </trkpt>
      <trkpt lat="49.92363" lon="2.25101">
        <ele>20.8</ele>
        <time>2022-03-11T13:14:56Z</time>
      </trkpt>
      <trkpt lat="49.92364" lon="2.25099">
        <ele>20.8</ele>
        <time>2022-03-11T13:14:57Z</time>
      </trkpt>
      <trkpt lat="49.92364" lon="2.25097">
        <ele>20.8</ele>
        <time>2022-03-11T13:14:59Z</time>
      </trkpt>
      <trkpt lat="49.92365" lon="2.25095">
        <ele>20.7</ele>
        <time>2022-03-11T13:15:00Z</time>
      </trkpt>
      <trkpt lat="49.92365" lon="2.25093">
        <ele>20.7</ele>
        <time>2022-03-11T13:15:01Z</time>
      </trkpt>
      <trkpt lat="49.92366" lon="2.25091">
        <ele>20.7</ele>
        <time>2022-03-11T13:15:02Z</time>
      </trkpt>
      <trkpt lat="49.92366" lon="2.25088">
        <ele>20.7</ele>
        <time>2022-03-11T13:15:03Z</time>
      </trkpt>
      <trkpt lat="49.92367" lon="2.25086">
        <ele>20.6</ele>
        <time>2022-03-11T13:15:04Z</time>
      </trkpt>
      <trkpt lat="49.92367" lon="2.25084">
        <ele>20.6</ele>
        <time>2022-03-11T13:15:06Z</time>
      </trkpt>
      <trkpt lat="49.92367" lon="2.25081">
        <ele>20.6</ele>
        <time>2022-03-11T13:15:07Z</time>
      </trkpt>
      <trkpt lat="49.92368" lon="2.25079">
        <ele>20.5</ele>
        <time>2022-03-11T13:15:08Z</time>
      </trkpt>
      <trkpt lat="49.92367" lon="2.25076">
        <ele>20.5</ele>
        <time>2022-03-11T13:15:09Z</time>
      </trkpt>
      <trkpt lat="49.92367" lon="2.25075">
        <ele>20.5</ele>
        <time>2022-03-11T13:15:10Z</time>
      </trkpt>
      <trkpt lat="49.92367" lon="2.25073">
        <ele>20.4</ele>
        <time>2022-03-11T13:15:11Z</time>
      </trkpt>
      <trkpt lat="49.92368" lon="2.25071">
        <ele>20.4</ele>
        <time>2022-03-11T13:15:12Z</time>
      </trkpt>
      <trkpt lat="49.92368" lon="2.25069">
        <ele>20.4</ele>
        <time>2022-03-11T13:15:13Z</time>
      </trkpt>
      <trkpt lat="49.92368" lon="2.25066">
        <ele>20.4</ele>
        <time>2022-03-11T13:15:15Z</time>
      </trkpt>
      <trkpt lat="49.92368" lon="2.25064">
        <ele>20.3</ele>
        <time>2022-03-11T13:15:16Z</time>
      </trkpt>
      <trkpt lat="49.92369" lon="2.25063">
        <ele>20.3</ele>
        <time>2022-03-11T13:15:17Z</time>
      </trkpt>
      <trkpt lat="49.92369" lon="2.25061">
        <ele>20.3</ele>
        <time>2022-03-11T13:15:18Z</time>
      </trkpt>
      <trkpt lat="49.92369" lon="2.25059">
        <ele>20.3</ele>
        <time>2022-03-11T13:15:20Z</time>
      </trkpt>
      <trkpt lat="49.92369" lon="2.25057">
        <ele>20.3</ele>
        <time>2022-03-11T13:15:21Z</time>
      </trkpt>
      <trkpt lat="49.92369" lon="2.25055">
        <ele>20.3</ele>
        <time>2022-03-11T13:15:22Z</time>
      </trkpt>
      <trkpt lat="49.92369" lon="2.25054">
        <ele>20.2</ele>
        <time>2022-03-11T13:15:23Z</time>
      </trkpt>
      <trkpt lat="49.9237" lon="2.25051">
        <ele>20.2</ele>
        <time>2022-03-11T13:15:24Z</time>
      </trkpt>
      <trkpt lat="49.9237" lon="2.25049">
        <ele>20.2</ele>
        <time>2022-03-11T13:15:25Z</time>
      </trkpt>
      <trkpt lat="49.9237" lon="2.25048">
        <ele>20.2</ele>
        <time>2022-03-11T13:15:26Z</time>
      </trkpt>
      <trkpt lat="49.9237" lon="2.25047">
        <ele>20.2</ele>
        <time>2022-03-11T13:15:28Z</time>
      </trkpt>
      <trkpt lat="49.9237" lon="2.25045">
        <ele>20.2</ele>
        <time>2022-03-11T13:15:29Z</time>
      </trkpt>
      <trkpt lat="49.92371" lon="2.25044">
        <ele>20.2</ele>
        <time>2022-03-11T13:15:30Z</time>
      </trkpt>
      <trkpt lat="49.92371" lon="2.2504">
        <ele>20.1</ele>
        <time>2022-03-11T13:15:31Z</time>
      </trkpt>
      <trkpt lat="49.92372" lon="2.25039">
        <ele>20.1</ele>
        <time>2022-03-11T13:15:32Z</time>
      </trkpt>
      <trkpt lat="49.92372" lon="2.25038">
        <ele>20.1</ele>
        <time>2022-03-11T13:15:33Z</time>
      </trkpt>
      <trkpt lat="49.92373" lon="2.25035">
        <ele>20.1</ele>
        <time>2022-03-11T13:15:34Z</time>
      </trkpt>
      <trkpt lat="49.92373" lon="2.25033">
        <ele>20.1</ele>
        <time>2022-03-11T13:15:35Z</time>
      </trkpt>
      <trkpt lat="49.92374" lon="2.25032">
        <ele>20.1</ele>
        <time>2022-03-11T13:15:36Z</time>
      </trkpt>
      <trkpt lat="49.92374" lon="2.2503">
        <ele>20.1</ele>
        <time>2022-03-11T13:15:38Z</time>
      </trkpt>
      <trkpt lat="49.92374" lon="2.25029">
        <ele>20.1</ele>
        <time>2022-03-11T13:15:39Z</time>
      </trkpt>
      <trkpt lat="49.92374" lon="2.25029">
        <ele>20.1</ele>
        <time>2022-03-11T13:15:40Z</time>
      </trkpt>
      <trkpt lat="49.92374" lon="2.25028">
        <ele>20</ele>
        <time>2022-03-11T13:15:41Z</time>
      </trkpt>
      <trkpt lat="49.92374" lon="2.25026">
        <ele>20</ele>
        <time>2022-03-11T13:15:42Z</time>
      </trkpt>
      <trkpt lat="49.92374" lon="2.25025">
        <ele>20</ele>
        <time>2022-03-11T13:15:43Z</time>
      </trkpt>
      <trkpt lat="49.92373" lon="2.25025">
        <ele>20</ele>
        <time>2022-03-11T13:15:44Z</time>
      </trkpt>
      <trkpt lat="49.92372" lon="2.25024">
        <ele>20</ele>
        <time>2022-03-11T13:15:45Z</time>
      </trkpt>
      <trkpt lat="49.92371" lon="2.25024">
        <ele>20</ele>
        <time>2022-03-11T13:15:46Z</time>
      </trkpt>
      <trkpt lat="49.92371" lon="2.25024">
        <ele>20</ele>
        <time>2022-03-11T13:15:47Z</time>
      </trkpt>
      <trkpt lat="49.92371" lon="2.25023">
        <ele>20</ele>
        <time>2022-03-11T13:15:48Z</time>
      </trkpt>
      <trkpt lat="49.92371" lon="2.25023">
        <ele>20</ele>
        <time>2022-03-11T13:15:49Z</time>
      </trkpt>
      <trkpt lat="49.92371" lon="2.25023">
        <ele>20</ele>
        <time>2022-03-11T13:15:50Z</time>
      </trkpt>
      <trkpt lat="49.92371" lon="2.25022">
        <ele>20</ele>
        <time>2022-03-11T13:15:51Z</time>
      </trkpt>
      <trkpt lat="49.92371" lon="2.25022">
        <ele>20</ele>
        <time>2022-03-11T13:15:52Z</time>
      </trkpt>
      <trkpt lat="49.92371" lon="2.25022">
        <ele>20</ele>
        <time>2022-03-11T13:15:53Z</time>
      </trkpt>
      <trkpt lat="49.92371" lon="2.25021">
        <ele>20</ele>
        <time>2022-03-11T13:15:54Z</time>
      </trkpt>
      <trkpt lat="49.92371" lon="2.25021">
        <ele>20</ele>
        <time>2022-03-11T13:15:55Z</time>
      </trkpt>
      <trkpt lat="49.92371" lon="2.25021">
        <ele>20</ele>
        <time>2022-03-11T13:15:57Z</time>
      </trkpt>
      <trkpt lat="49.92371" lon="2.2502">
        <ele>20</ele>
        <time>2022-03-11T13:15:58Z</time>
      </trkpt>
      <trkpt lat="49.92371" lon="2.2502">
        <ele>20</ele>
        <time>2022-03-11T13:15:59Z</time>
      </trkpt>
      <trkpt lat="49.92371" lon="2.25019">
        <ele>20</ele>
        <time>2022-03-11T13:16:00Z</time>
      </trkpt>
      <trkpt lat="49.92371" lon="2.25019">
        <ele>20</ele>
        <time>2022-03-11T13:16:01Z</time>
      </trkpt>
      <trkpt lat="49.92371" lon="2.25019">
        <ele>20</ele>
        <time>2022-03-11T13:16:02Z</time>
      </trkpt>
      <trkpt lat="49.92372" lon="2.25015">
        <ele>19.9</ele>
        <time>2022-03-11T13:16:04Z</time>
      </trkpt>
      <trkpt lat="49.92372" lon="2.25014">
        <ele>19.9</ele>
        <time>2022-03-11T13:16:05Z</time>
      </trkpt>
      <trkpt lat="49.92373" lon="2.25013">
        <ele>19.9</ele>
        <time>2022-03-11T13:16:06Z</time>
      </trkpt>
      <trkpt lat="49.92373" lon="2.2501">
        <ele>19.9</ele>
        <time>2022-03-11T13:16:07Z</time>
      </trkpt>
      <trkpt lat="49.92373" lon="2.25008">
        <ele>19.9</ele>
        <time>2022-03-11T13:16:08Z</time>
      </trkpt>
      <trkpt lat="49.92374" lon="2.25005">
        <ele>19.9</ele>
        <time>2022-03-11T13:16:09Z</time>
      </trkpt>
      <trkpt lat="49.92374" lon="2.25002">
        <ele>19.9</ele>
        <time>2022-03-11T13:16:10Z</time>
      </trkpt>
      <trkpt lat="49.92375" lon="2.25">
        <ele>19.9</ele>
        <time>2022-03-11T13:16:11Z</time>
      </trkpt>
      <trkpt lat="49.92375" lon="2.24998">
        <ele>19.9</ele>
        <time>2022-03-11T13:16:13Z</time>
      </trkpt>
      <trkpt lat="49.92375" lon="2.24995">
        <ele>19.9</ele>
        <time>2022-03-11T13:16:14Z</time>
      </trkpt>
      <trkpt lat="49.92376" lon="2.24993">
        <ele>19.9</ele>
        <time>2022-03-11T13:16:15Z</time>
      </trkpt>
      <trkpt lat="49.92377" lon="2.24991">
        <ele>19.8</ele>
        <time>2022-03-11T13:16:16Z</time>
      </trkpt>
      <trkpt lat="49.92377" lon="2.24988">
        <ele>19.8</ele>
        <time>2022-03-11T13:16:17Z</time>
      </trkpt>
      <trkpt lat="49.92378" lon="2.24986">
        <ele>19.8</ele>
        <time>2022-03-11T13:16:18Z</time>
      </trkpt>
      <trkpt lat="49.92378" lon="2.24983">
        <ele>19.8</ele>
        <time>2022-03-11T13:16:19Z</time>
      </trkpt>
      <trkpt lat="49.92379" lon="2.24981">
        <ele>19.8</ele>
        <time>2022-03-11T13:16:20Z</time>
      </trkpt>
      <trkpt lat="49.92379" lon="2.24979">
        <ele>19.8</ele>
        <time>2022-03-11T13:16:21Z</time>
      </trkpt>
      <trkpt lat="49.9238" lon="2.24977">
        <ele>19.8</ele>
        <time>2022-03-11T13:16:23Z</time>
      </trkpt>
      <trkpt lat="49.92381" lon="2.24976">
        <ele>19.8</ele>
        <time>2022-03-11T13:16:24Z</time>
      </trkpt>
      <trkpt lat="49.92382" lon="2.24974">
        <ele>19.8</ele>
        <time>2022-03-11T13:16:25Z</time>
      </trkpt>
      <trkpt lat="49.92383" lon="2.24972">
        <ele>19.8</ele>
        <time>2022-03-11T13:16:26Z</time>
      </trkpt>
      <trkpt lat="49.92383" lon="2.2497">
        <ele>19.8</ele>
        <time>2022-03-11T13:16:27Z</time>
      </trkpt>
      <trkpt lat="49.92384" lon="2.24968">
        <ele>19.8</ele>
        <time>2022-03-11T13:16:28Z</time>
      </trkpt>
      <trkpt lat="49.92385" lon="2.24966">
        <ele>19.8</ele>
        <time>2022-03-11T13:16:29Z</time>
      </trkpt>
      <trkpt lat="49.92386" lon="2.24964">
        <ele>19.8</ele>
        <time>2022-03-11T13:16:30Z</time>
      </trkpt>
      <trkpt lat="49.92386" lon="2.24962">
        <ele>19.8</ele>
        <time>2022-03-11T13:16:32Z</time>
      </trkpt>
      <trkpt lat="49.92387" lon="2.2496">
        <ele>19.7</ele>
        <time>2022-03-11T13:16:33Z</time>
      </trkpt>
      <trkpt lat="49.92388" lon="2.24957">
        <ele>19.7</ele>
        <time>2022-03-11T13:16:34Z</time>
      </trkpt>
      <trkpt lat="49.92389" lon="2.24956">
        <ele>19.7</ele>
        <time>2022-03-11T13:16:35Z</time>
      </trkpt>
      <trkpt lat="49.92389" lon="2.24955">
        <ele>19.7</ele>
        <time>2022-03-11T13:16:36Z</time>
      </trkpt>
      <trkpt lat="49.92391" lon="2.24951">
        <ele>19.7</ele>
        <time>2022-03-11T13:16:37Z</time>
      </trkpt>
      <trkpt lat="49.92391" lon="2.2495">
        <ele>19.7</ele>
        <time>2022-03-11T13:16:39Z</time>
      </trkpt>
      <trkpt lat="49.92392" lon="2.24948">
        <ele>19.7</ele>
        <time>2022-03-11T13:16:40Z</time>
      </trkpt>
      <trkpt lat="49.92392" lon="2.24947">
        <ele>19.7</ele>
        <time>2022-03-11T13:16:41Z</time>
      </trkpt>
      <trkpt lat="49.92393" lon="2.24946">
        <ele>19.7</ele>
        <time>2022-03-11T13:16:42Z</time>
      </trkpt>
      <trkpt lat="49.92394" lon="2.24943">
        <ele>19.7</ele>
        <time>2022-03-11T13:16:43Z</time>
      </trkpt>
      <trkpt lat="49.92395" lon="2.24942">
        <ele>19.7</ele>
        <time>2022-03-11T13:16:44Z</time>
      </trkpt>
      <trkpt lat="49.92395" lon="2.24941">
        <ele>19.7</ele>
        <time>2022-03-11T13:16:45Z</time>
      </trkpt>
      <trkpt lat="49.92396" lon="2.24939">
        <ele>19.7</ele>
        <time>2022-03-11T13:16:47Z</time>
      </trkpt>
      <trkpt lat="49.92397" lon="2.24937">
        <ele>19.7</ele>
        <time>2022-03-11T13:16:48Z</time>
      </trkpt>
      <trkpt lat="49.92397" lon="2.24936">
        <ele>19.7</ele>
        <time>2022-03-11T13:16:49Z</time>
      </trkpt>
      <trkpt lat="49.92397" lon="2.24935">
        <ele>19.7</ele>
        <time>2022-03-11T13:16:50Z</time>
      </trkpt>
      <trkpt lat="49.92398" lon="2.24933">
        <ele>19.7</ele>
        <time>2022-03-11T13:16:51Z</time>
      </trkpt>
      <trkpt lat="49.92399" lon="2.24932">
        <ele>19.6</ele>
        <time>2022-03-11T13:16:52Z</time>
      </trkpt>
      <trkpt lat="49.92399" lon="2.2493">
        <ele>19.6</ele>
        <time>2022-03-11T13:16:53Z</time>
      </trkpt>
      <trkpt lat="49.924" lon="2.24928">
        <ele>19.6</ele>
        <time>2022-03-11T13:16:54Z</time>
      </trkpt>
      <trkpt lat="49.92399" lon="2.24927">
        <ele>19.6</ele>
        <time>2022-03-11T13:16:56Z</time>
      </trkpt>
      <trkpt lat="49.92399" lon="2.24925">
        <ele>19.6</ele>
        <time>2022-03-11T13:16:57Z</time>
      </trkpt>
      <trkpt lat="49.924" lon="2.24923">
        <ele>19.6</ele>
        <time>2022-03-11T13:16:58Z</time>
      </trkpt>
      <trkpt lat="49.924" lon="2.24921">
        <ele>19.6</ele>
        <time>2022-03-11T13:16:59Z</time>
      </trkpt>
      <trkpt lat="49.92401" lon="2.24918">
        <ele>19.6</ele>
        <time>2022-03-11T13:17:00Z</time>
      </trkpt>
      <trkpt lat="49.92401" lon="2.24917">
        <ele>19.5</ele>
        <time>2022-03-11T13:17:01Z</time>
      </trkpt>
      <trkpt lat="49.92401" lon="2.24916">
        <ele>19.5</ele>
        <time>2022-03-11T13:17:02Z</time>
      </trkpt>
      <trkpt lat="49.92402" lon="2.24913">
        <ele>19.5</ele>
        <time>2022-03-11T13:17:04Z</time>
      </trkpt>
      <trkpt lat="49.92402" lon="2.24912">
        <ele>19.5</ele>
        <time>2022-03-11T13:17:05Z</time>
      </trkpt>
      <trkpt lat="49.92403" lon="2.24911">
        <ele>19.5</ele>
        <time>2022-03-11T13:17:06Z</time>
      </trkpt>
      <trkpt lat="49.92403" lon="2.24908">
        <ele>19.4</ele>
        <time>2022-03-11T13:17:07Z</time>
      </trkpt>
      <trkpt lat="49.92404" lon="2.24906">
        <ele>19.4</ele>
        <time>2022-03-11T13:17:08Z</time>
      </trkpt>
      <trkpt lat="49.92404" lon="2.24905">
        <ele>19.4</ele>
        <time>2022-03-11T13:17:09Z</time>
      </trkpt>
      <trkpt lat="49.92404" lon="2.24903">
        <ele>19.4</ele>
        <time>2022-03-11T13:17:10Z</time>
      </trkpt>
      <trkpt lat="49.92404" lon="2.24902">
        <ele>19.4</ele>
        <time>2022-03-11T13:17:11Z</time>
      </trkpt>
      <trkpt lat="49.92405" lon="2.249">
        <ele>19.3</ele>
        <time>2022-03-11T13:17:13Z</time>
      </trkpt>
      <trkpt lat="49.92405" lon="2.24898">
        <ele>19.3</ele>
        <time>2022-03-11T13:17:14Z</time>
      </trkpt>
      <trkpt lat="49.92406" lon="2.24896">
        <ele>19.3</ele>
        <time>2022-03-11T13:17:15Z</time>
      </trkpt>
      <trkpt lat="49.92405" lon="2.24895">
        <ele>19.3</ele>
        <time>2022-03-11T13:17:16Z</time>
      </trkpt>
      <trkpt lat="49.92405" lon="2.24894">
        <ele>19.2</ele>
        <time>2022-03-11T13:17:17Z</time>
      </trkpt>
      <trkpt lat="49.92405" lon="2.24892">
        <ele>19.2</ele>
        <time>2022-03-11T13:17:18Z</time>
      </trkpt>
      <trkpt lat="49.92405" lon="2.24891">
        <ele>19.2</ele>
        <time>2022-03-11T13:17:19Z</time>
      </trkpt>
      <trkpt lat="49.92406" lon="2.24889">
        <ele>19.2</ele>
        <time>2022-03-11T13:17:21Z</time>
      </trkpt>
      <trkpt lat="49.92406" lon="2.24887">
        <ele>19.1</ele>
        <time>2022-03-11T13:17:22Z</time>
      </trkpt>
      <trkpt lat="49.92406" lon="2.24886">
        <ele>19.1</ele>
        <time>2022-03-11T13:17:23Z</time>
      </trkpt>
      <trkpt lat="49.92407" lon="2.24884">
        <ele>19.1</ele>
        <time>2022-03-11T13:17:24Z</time>
      </trkpt>
      <trkpt lat="49.92407" lon="2.24883">
        <ele>19.1</ele>
        <time>2022-03-11T13:17:25Z</time>
      </trkpt>
      <trkpt lat="49.92407" lon="2.24881">
        <ele>19</ele>
        <time>2022-03-11T13:17:26Z</time>
      </trkpt>
      <trkpt lat="49.92407" lon="2.24879">
        <ele>19</ele>
        <time>2022-03-11T13:17:27Z</time>
      </trkpt>
      <trkpt lat="49.92407" lon="2.24877">
        <ele>19</ele>
        <time>2022-03-11T13:17:28Z</time>
      </trkpt>
      <trkpt lat="49.92408" lon="2.24873">
        <ele>18.9</ele>
        <time>2022-03-11T13:17:30Z</time>
      </trkpt>
      <trkpt lat="49.92408" lon="2.24872">
        <ele>18.9</ele>
        <time>2022-03-11T13:17:31Z</time>
      </trkpt>
      <trkpt lat="49.92408" lon="2.24871">
        <ele>18.9</ele>
        <time>2022-03-11T13:17:32Z</time>
      </trkpt>
      <trkpt lat="49.92409" lon="2.24868">
        <ele>18.8</ele>
        <time>2022-03-11T13:17:33Z</time>
      </trkpt>
      <trkpt lat="49.9241" lon="2.24867">
        <ele>18.8</ele>
        <time>2022-03-11T13:17:34Z</time>
      </trkpt>
      <trkpt lat="49.9241" lon="2.24865">
        <ele>18.8</ele>
        <time>2022-03-11T13:17:35Z</time>
      </trkpt>
      <trkpt lat="49.9241" lon="2.24863">
        <ele>18.8</ele>
        <time>2022-03-11T13:17:36Z</time>
      </trkpt>
      <trkpt lat="49.92411" lon="2.24862">
        <ele>18.8</ele>
        <time>2022-03-11T13:17:37Z</time>
      </trkpt>
      <trkpt lat="49.92412" lon="2.2486">
        <ele>18.7</ele>
        <time>2022-03-11T13:17:39Z</time>
      </trkpt>
      <trkpt lat="49.92412" lon="2.24858">
        <ele>18.7</ele>
        <time>2022-03-11T13:17:40Z</time>
      </trkpt>
      <trkpt lat="49.92413" lon="2.24856">
        <ele>18.7</ele>
        <time>2022-03-11T13:17:41Z</time>
      </trkpt>
      <trkpt lat="49.92413" lon="2.24855">
        <ele>18.7</ele>
        <time>2022-03-11T13:17:42Z</time>
      </trkpt>
      <trkpt lat="49.92413" lon="2.24853">
        <ele>18.7</ele>
        <time>2022-03-11T13:17:43Z</time>
      </trkpt>
      <trkpt lat="49.92413" lon="2.24851">
        <ele>18.7</ele>
        <time>2022-03-11T13:17:44Z</time>
      </trkpt>
      <trkpt lat="49.92414" lon="2.2485">
        <ele>18.6</ele>
        <time>2022-03-11T13:17:45Z</time>
      </trkpt>
      <trkpt lat="49.92414" lon="2.24848">
        <ele>18.6</ele>
        <time>2022-03-11T13:17:46Z</time>
      </trkpt>
      <trkpt lat="49.92415" lon="2.24846">
        <ele>18.6</ele>
        <time>2022-03-11T13:17:47Z</time>
      </trkpt>
      <trkpt lat="49.92416" lon="2.24844">
        <ele>18.6</ele>
        <time>2022-03-11T13:17:49Z</time>
      </trkpt>
      <trkpt lat="49.92416" lon="2.24843">
        <ele>18.6</ele>
        <time>2022-03-11T13:17:50Z</time>
      </trkpt>
      <trkpt lat="49.92417" lon="2.24841">
        <ele>18.6</ele>
        <time>2022-03-11T13:17:51Z</time>
      </trkpt>
      <trkpt lat="49.92417" lon="2.2484">
        <ele>18.6</ele>
        <time>2022-03-11T13:17:52Z</time>
      </trkpt>
      <trkpt lat="49.92419" lon="2.24837">
        <ele>18.6</ele>
        <time>2022-03-11T13:17:53Z</time>
      </trkpt>
      <trkpt lat="49.92419" lon="2.24836">
        <ele>18.6</ele>
        <time>2022-03-11T13:17:54Z</time>
      </trkpt>
      <trkpt lat="49.92419" lon="2.24835">
        <ele>18.5</ele>
        <time>2022-03-11T13:17:55Z</time>
      </trkpt>
      <trkpt lat="49.9242" lon="2.24833">
        <ele>18.5</ele>
        <time>2022-03-11T13:17:57Z</time>
      </trkpt>
      <trkpt lat="49.9242" lon="2.24832">
        <ele>18.5</ele>
        <time>2022-03-11T13:17:58Z</time>
      </trkpt>
      <trkpt lat="49.92421" lon="2.2483">
        <ele>18.5</ele>
        <time>2022-03-11T13:17:59Z</time>
      </trkpt>
      <trkpt lat="49.92421" lon="2.24829">
        <ele>18.5</ele>
        <time>2022-03-11T13:18:00Z</time>
      </trkpt>
      <trkpt lat="49.92422" lon="2.24827">
        <ele>18.5</ele>
        <time>2022-03-11T13:18:01Z</time>
      </trkpt>
      <trkpt lat="49.92423" lon="2.24826">
        <ele>18.5</ele>
        <time>2022-03-11T13:18:02Z</time>
      </trkpt>
      <trkpt lat="49.92424" lon="2.24824">
        <ele>18.5</ele>
        <time>2022-03-11T13:18:04Z</time>
      </trkpt>
      <trkpt lat="49.92424" lon="2.24823">
        <ele>18.5</ele>
        <time>2022-03-11T13:18:05Z</time>
      </trkpt>
      <trkpt lat="49.92425" lon="2.24822">
        <ele>18.5</ele>
        <time>2022-03-11T13:18:06Z</time>
      </trkpt>
      <trkpt lat="49.92426" lon="2.2482">
        <ele>18.5</ele>
        <time>2022-03-11T13:18:07Z</time>
      </trkpt>
      <trkpt lat="49.92426" lon="2.24818">
        <ele>18.5</ele>
        <time>2022-03-11T13:18:08Z</time>
      </trkpt>
      <trkpt lat="49.92427" lon="2.24815">
        <ele>18.5</ele>
        <time>2022-03-11T13:18:09Z</time>
      </trkpt>
      <trkpt lat="49.92428" lon="2.24814">
        <ele>18.5</ele>
        <time>2022-03-11T13:18:10Z</time>
      </trkpt>
      <trkpt lat="49.92428" lon="2.24813">
        <ele>18.5</ele>
        <time>2022-03-11T13:18:11Z</time>
      </trkpt>
      <trkpt lat="49.92429" lon="2.24811">
        <ele>18.5</ele>
        <time>2022-03-11T13:18:13Z</time>
      </trkpt>
      <trkpt lat="49.9243" lon="2.24809">
        <ele>18.5</ele>
        <time>2022-03-11T13:18:14Z</time>
      </trkpt>
      <trkpt lat="49.92431" lon="2.24807">
        <ele>18.5</ele>
        <time>2022-03-11T13:18:15Z</time>
      </trkpt>
      <trkpt lat="49.92431" lon="2.24805">
        <ele>18.5</ele>
        <time>2022-03-11T13:18:16Z</time>
      </trkpt>
      <trkpt lat="49.92432" lon="2.24803">
        <ele>18.5</ele>
        <time>2022-03-11T13:18:17Z</time>
      </trkpt>
      <trkpt lat="49.92433" lon="2.24802">
        <ele>18.5</ele>
        <time>2022-03-11T13:18:18Z</time>
      </trkpt>
      <trkpt lat="49.92434" lon="2.248">
        <ele>18.5</ele>
        <time>2022-03-11T13:18:19Z</time>
      </trkpt>
      <trkpt lat="49.92434" lon="2.24798">
        <ele>18.5</ele>
        <time>2022-03-11T13:18:21Z</time>
      </trkpt>
      <trkpt lat="49.92435" lon="2.24796">
        <ele>18.5</ele>
        <time>2022-03-11T13:18:22Z</time>
      </trkpt>
      <trkpt lat="49.92435" lon="2.24795">
        <ele>18.6</ele>
        <time>2022-03-11T13:18:23Z</time>
      </trkpt>
      <trkpt lat="49.92436" lon="2.24793">
        <ele>18.6</ele>
        <time>2022-03-11T13:18:24Z</time>
      </trkpt>
      <trkpt lat="49.92437" lon="2.24791">
        <ele>18.6</ele>
        <time>2022-03-11T13:18:25Z</time>
      </trkpt>
      <trkpt lat="49.92437" lon="2.24789">
        <ele>18.6</ele>
        <time>2022-03-11T13:18:26Z</time>
      </trkpt>
      <trkpt lat="49.92437" lon="2.24788">
        <ele>18.6</ele>
        <time>2022-03-11T13:18:27Z</time>
      </trkpt>
      <trkpt lat="49.92438" lon="2.24785">
        <ele>18.6</ele>
        <time>2022-03-11T13:18:28Z</time>
      </trkpt>
      <trkpt lat="49.92438" lon="2.24784">
        <ele>18.6</ele>
        <time>2022-03-11T13:18:29Z</time>
      </trkpt>
      <trkpt lat="49.92439" lon="2.24783">
        <ele>18.6</ele>
        <time>2022-03-11T13:18:30Z</time>
      </trkpt>
      <trkpt lat="49.92439" lon="2.2478">
        <ele>18.6</ele>
        <time>2022-03-11T13:18:32Z</time>
      </trkpt>
      <trkpt lat="49.9244" lon="2.24779">
        <ele>18.6</ele>
        <time>2022-03-11T13:18:33Z</time>
      </trkpt>
      <trkpt lat="49.9244" lon="2.24777">
        <ele>18.6</ele>
        <time>2022-03-11T13:18:34Z</time>
      </trkpt>
      <trkpt lat="49.9244" lon="2.24774">
        <ele>18.6</ele>
        <time>2022-03-11T13:18:35Z</time>
      </trkpt>
      <trkpt lat="49.9244" lon="2.24773">
        <ele>18.6</ele>
        <time>2022-03-11T13:18:36Z</time>
      </trkpt>
      <trkpt lat="49.92441" lon="2.24772">
        <ele>18.7</ele>
        <time>2022-03-11T13:18:37Z</time>
      </trkpt>
      <trkpt lat="49.92441" lon="2.2477">
        <ele>18.7</ele>
        <time>2022-03-11T13:18:39Z</time>
      </trkpt>
      <trkpt lat="49.92441" lon="2.24768">
        <ele>18.7</ele>
        <time>2022-03-11T13:18:40Z</time>
      </trkpt>
      <trkpt lat="49.9244" lon="2.24766">
        <ele>18.7</ele>
        <time>2022-03-11T13:18:42Z</time>
      </trkpt>
      <trkpt lat="49.92439" lon="2.24765">
        <ele>18.7</ele>
        <time>2022-03-11T13:18:43Z</time>
      </trkpt>
      <trkpt lat="49.92439" lon="2.24763">
        <ele>18.7</ele>
        <time>2022-03-11T13:18:44Z</time>
      </trkpt>
      <trkpt lat="49.9244" lon="2.24762">
        <ele>18.7</ele>
        <time>2022-03-11T13:18:45Z</time>
      </trkpt>
      <trkpt lat="49.9244" lon="2.2476">
        <ele>18.7</ele>
        <time>2022-03-11T13:18:46Z</time>
      </trkpt>
      <trkpt lat="49.9244" lon="2.24759">
        <ele>18.7</ele>
        <time>2022-03-11T13:18:47Z</time>
      </trkpt>
      <trkpt lat="49.9244" lon="2.24758">
        <ele>18.7</ele>
        <time>2022-03-11T13:18:49Z</time>
      </trkpt>
      <trkpt lat="49.9244" lon="2.24756">
        <ele>18.8</ele>
        <time>2022-03-11T13:18:50Z</time>
      </trkpt>
      <trkpt lat="49.9244" lon="2.24755">
        <ele>18.8</ele>
        <time>2022-03-11T13:18:51Z</time>
      </trkpt>
      <trkpt lat="49.92441" lon="2.24753">
        <ele>18.8</ele>
        <time>2022-03-11T13:18:52Z</time>
      </trkpt>
      <trkpt lat="49.92441" lon="2.24751">
        <ele>18.8</ele>
        <time>2022-03-11T13:18:53Z</time>
      </trkpt>
      <trkpt lat="49.92442" lon="2.2475">
        <ele>18.8</ele>
        <time>2022-03-11T13:18:54Z</time>
      </trkpt>
      <trkpt lat="49.92442" lon="2.24748">
        <ele>18.8</ele>
        <time>2022-03-11T13:18:55Z</time>
      </trkpt>
      <trkpt lat="49.92443" lon="2.24746">
        <ele>18.8</ele>
        <time>2022-03-11T13:18:57Z</time>
      </trkpt>
      <trkpt lat="49.92444" lon="2.24743">
        <ele>18.8</ele>
        <time>2022-03-11T13:18:58Z</time>
      </trkpt>
      <trkpt lat="49.92444" lon="2.24742">
        <ele>18.8</ele>
        <time>2022-03-11T13:18:59Z</time>
      </trkpt>
      <trkpt lat="49.92444" lon="2.2474">
        <ele>18.9</ele>
        <time>2022-03-11T13:19:00Z</time>
      </trkpt>
      <trkpt lat="49.92444" lon="2.24738">
        <ele>18.9</ele>
        <time>2022-03-11T13:19:01Z</time>
      </trkpt>
      <trkpt lat="49.92445" lon="2.24736">
        <ele>18.9</ele>
        <time>2022-03-11T13:19:02Z</time>
      </trkpt>
      <trkpt lat="49.92445" lon="2.24733">
        <ele>18.9</ele>
        <time>2022-03-11T13:19:03Z</time>
      </trkpt>
      <trkpt lat="49.92445" lon="2.24732">
        <ele>18.9</ele>
        <time>2022-03-11T13:19:05Z</time>
      </trkpt>
      <trkpt lat="49.92446" lon="2.2473">
        <ele>18.9</ele>
        <time>2022-03-11T13:19:06Z</time>
      </trkpt>
      <trkpt lat="49.92446" lon="2.24728">
        <ele>18.9</ele>
        <time>2022-03-11T13:19:07Z</time>
      </trkpt>
      <trkpt lat="49.92446" lon="2.24726">
        <ele>18.9</ele>
        <time>2022-03-11T13:19:08Z</time>
      </trkpt>
      <trkpt lat="49.92446" lon="2.24723">
        <ele>18.9</ele>
        <time>2022-03-11T13:19:09Z</time>
      </trkpt>
      <trkpt lat="49.92446" lon="2.24722">
        <ele>18.9</ele>
        <time>2022-03-11T13:19:10Z</time>
      </trkpt>
      <trkpt lat="49.92447" lon="2.2472">
        <ele>18.9</ele>
        <time>2022-03-11T13:19:11Z</time>
      </trkpt>
      <trkpt lat="49.92447" lon="2.24718">
        <ele>18.9</ele>
        <time>2022-03-11T13:19:13Z</time>
      </trkpt>
      <trkpt lat="49.92447" lon="2.24716">
        <ele>18.9</ele>
        <time>2022-03-11T13:19:14Z</time>
      </trkpt>
      <trkpt lat="49.92448" lon="2.24713">
        <ele>18.9</ele>
        <time>2022-03-11T13:19:15Z</time>
      </trkpt>
      <trkpt lat="49.92448" lon="2.24712">
        <ele>18.9</ele>
        <time>2022-03-11T13:19:16Z</time>
      </trkpt>
      <trkpt lat="49.92448" lon="2.24711">
        <ele>18.9</ele>
        <time>2022-03-11T13:19:17Z</time>
      </trkpt>
      <trkpt lat="49.92449" lon="2.24708">
        <ele>18.9</ele>
        <time>2022-03-11T13:19:18Z</time>
      </trkpt>
      <trkpt lat="49.92449" lon="2.24706">
        <ele>18.9</ele>
        <time>2022-03-11T13:19:20Z</time>
      </trkpt>
      <trkpt lat="49.92449" lon="2.24705">
        <ele>18.9</ele>
        <time>2022-03-11T13:19:21Z</time>
      </trkpt>
      <trkpt lat="49.92449" lon="2.24702">
        <ele>18.9</ele>
        <time>2022-03-11T13:19:22Z</time>
      </trkpt>
      <trkpt lat="49.92449" lon="2.24701">
        <ele>18.9</ele>
        <time>2022-03-11T13:19:23Z</time>
      </trkpt>
      <trkpt lat="49.92449" lon="2.24699">
        <ele>18.9</ele>
        <time>2022-03-11T13:19:24Z</time>
      </trkpt>
      <trkpt lat="49.92449" lon="2.24698">
        <ele>18.9</ele>
        <time>2022-03-11T13:19:25Z</time>
      </trkpt>
      <trkpt lat="49.92449" lon="2.24696">
        <ele>18.9</ele>
        <time>2022-03-11T13:19:26Z</time>
      </trkpt>
      <trkpt lat="49.92449" lon="2.24694">
        <ele>18.9</ele>
        <time>2022-03-11T13:19:28Z</time>
      </trkpt>
      <trkpt lat="49.92449" lon="2.24692">
        <ele>18.9</ele>
        <time>2022-03-11T13:19:29Z</time>
      </trkpt>
      <trkpt lat="49.9245" lon="2.2469">
        <ele>18.9</ele>
        <time>2022-03-11T13:19:30Z</time>
      </trkpt>
      <trkpt lat="49.9245" lon="2.24688">
        <ele>18.9</ele>
        <time>2022-03-11T13:19:31Z</time>
      </trkpt>
      <trkpt lat="49.9245" lon="2.24687">
        <ele>18.9</ele>
        <time>2022-03-11T13:19:32Z</time>
      </trkpt>
      <trkpt lat="49.9245" lon="2.24685">
        <ele>18.9</ele>
        <time>2022-03-11T13:19:33Z</time>
      </trkpt>
      <trkpt lat="49.92449" lon="2.24684">
        <ele>18.9</ele>
        <time>2022-03-11T13:19:34Z</time>
      </trkpt>
      <trkpt lat="49.92449" lon="2.24682">
        <ele>18.9</ele>
        <time>2022-03-11T13:19:36Z</time>
      </trkpt>
      <trkpt lat="49.92449" lon="2.2468">
        <ele>19</ele>
        <time>2022-03-11T13:19:37Z</time>
      </trkpt>
      <trkpt lat="49.9245" lon="2.24678">
        <ele>19</ele>
        <time>2022-03-11T13:19:38Z</time>
      </trkpt>
      <trkpt lat="49.9245" lon="2.24676">
        <ele>19</ele>
        <time>2022-03-11T13:19:39Z</time>
      </trkpt>
      <trkpt lat="49.9245" lon="2.24674">
        <ele>19</ele>
        <time>2022-03-11T13:19:40Z</time>
      </trkpt>
      <trkpt lat="49.9245" lon="2.24671">
        <ele>19</ele>
        <time>2022-03-11T13:19:41Z</time>
      </trkpt>
      <trkpt lat="49.9245" lon="2.24669">
        <ele>19</ele>
        <time>2022-03-11T13:19:42Z</time>
      </trkpt>
      <trkpt lat="49.9245" lon="2.24667">
        <ele>19.1</ele>
        <time>2022-03-11T13:19:44Z</time>
      </trkpt>
      <trkpt lat="49.9245" lon="2.24665">
        <ele>19.1</ele>
        <time>2022-03-11T13:19:45Z</time>
      </trkpt>
      <trkpt lat="49.92449" lon="2.24662">
        <ele>19.1</ele>
        <time>2022-03-11T13:19:46Z</time>
      </trkpt>
      <trkpt lat="49.92449" lon="2.2466">
        <ele>19.1</ele>
        <time>2022-03-11T13:19:47Z</time>
      </trkpt>
      <trkpt lat="49.92449" lon="2.24658">
        <ele>19.1</ele>
        <time>2022-03-11T13:19:48Z</time>
      </trkpt>
      <trkpt lat="49.92448" lon="2.24655">
        <ele>19.2</ele>
        <time>2022-03-11T13:19:49Z</time>
      </trkpt>
      <trkpt lat="49.92448" lon="2.24653">
        <ele>19.2</ele>
        <time>2022-03-11T13:19:50Z</time>
      </trkpt>
      <trkpt lat="49.92448" lon="2.24649">
        <ele>19.2</ele>
        <time>2022-03-11T13:19:51Z</time>
      </trkpt>
      <trkpt lat="49.92448" lon="2.24647">
        <ele>19.3</ele>
        <time>2022-03-11T13:19:53Z</time>
      </trkpt>
      <trkpt lat="49.92448" lon="2.24646">
        <ele>19.3</ele>
        <time>2022-03-11T13:19:54Z</time>
      </trkpt>
      <trkpt lat="49.92448" lon="2.24644">
        <ele>19.3</ele>
        <time>2022-03-11T13:19:55Z</time>
      </trkpt>
      <trkpt lat="49.92447" lon="2.24642">
        <ele>19.3</ele>
        <time>2022-03-11T13:19:56Z</time>
      </trkpt>
      <trkpt lat="49.92448" lon="2.2464">
        <ele>19.4</ele>
        <time>2022-03-11T13:19:57Z</time>
      </trkpt>
      <trkpt lat="49.92448" lon="2.24638">
        <ele>19.4</ele>
        <time>2022-03-11T13:19:58Z</time>
      </trkpt>
      <trkpt lat="49.92448" lon="2.24636">
        <ele>19.4</ele>
        <time>2022-03-11T13:20:00Z</time>
      </trkpt>
      <trkpt lat="49.92448" lon="2.24633">
        <ele>19.5</ele>
        <time>2022-03-11T13:20:01Z</time>
      </trkpt>
      <trkpt lat="49.92448" lon="2.24631">
        <ele>19.5</ele>
        <time>2022-03-11T13:20:02Z</time>
      </trkpt>
      <trkpt lat="49.92448" lon="2.24628">
        <ele>19.5</ele>
        <time>2022-03-11T13:20:03Z</time>
      </trkpt>
      <trkpt lat="49.92449" lon="2.24626">
        <ele>19.6</ele>
        <time>2022-03-11T13:20:04Z</time>
      </trkpt>
      <trkpt lat="49.92449" lon="2.24624">
        <ele>19.6</ele>
        <time>2022-03-11T13:20:05Z</time>
      </trkpt>
      <trkpt lat="49.92449" lon="2.24622">
        <ele>19.6</ele>
        <time>2022-03-11T13:20:07Z</time>
      </trkpt>
      <trkpt lat="49.92449" lon="2.2462">
        <ele>19.6</ele>
        <time>2022-03-11T13:20:08Z</time>
      </trkpt>
      <trkpt lat="49.92449" lon="2.24616">
        <ele>19.6</ele>
        <time>2022-03-11T13:20:09Z</time>
      </trkpt>
      <trkpt lat="49.92449" lon="2.24615">
        <ele>19.6</ele>
        <time>2022-03-11T13:20:10Z</time>
      </trkpt>
      <trkpt lat="49.92449" lon="2.24613">
        <ele>19.6</ele>
        <time>2022-03-11T13:20:11Z</time>
      </trkpt>
      <trkpt lat="49.92449" lon="2.2461">
        <ele>19.7</ele>
        <time>2022-03-11T13:20:12Z</time>
      </trkpt>
      <trkpt lat="49.92449" lon="2.24609">
        <ele>19.7</ele>
        <time>2022-03-11T13:20:14Z</time>
      </trkpt>
      <trkpt lat="49.92449" lon="2.24608">
        <ele>19.7</ele>
        <time>2022-03-11T13:20:15Z</time>
      </trkpt>
      <trkpt lat="49.9245" lon="2.24604">
        <ele>19.7</ele>
        <time>2022-03-11T13:20:16Z</time>
      </trkpt>
      <trkpt lat="49.9245" lon="2.24603">
        <ele>19.7</ele>
        <time>2022-03-11T13:20:17Z</time>
      </trkpt>
      <trkpt lat="49.92451" lon="2.24601">
        <ele>19.7</ele>
        <time>2022-03-11T13:20:18Z</time>
      </trkpt>
      <trkpt lat="49.92451" lon="2.24599">
        <ele>19.7</ele>
        <time>2022-03-11T13:20:19Z</time>
      </trkpt>
      <trkpt lat="49.92451" lon="2.24597">
        <ele>19.7</ele>
        <time>2022-03-11T13:20:20Z</time>
      </trkpt>
      <trkpt lat="49.92451" lon="2.24595">
        <ele>19.7</ele>
        <time>2022-03-11T13:20:22Z</time>
      </trkpt>
      <trkpt lat="49.92452" lon="2.24593">
        <ele>19.8</ele>
        <time>2022-03-11T13:20:23Z</time>
      </trkpt>
      <trkpt lat="49.92452" lon="2.24591">
        <ele>19.8</ele>
        <time>2022-03-11T13:20:24Z</time>
      </trkpt>
      <trkpt lat="49.92452" lon="2.24589">
        <ele>19.8</ele>
        <time>2022-03-11T13:20:25Z</time>
      </trkpt>
      <trkpt lat="49.92453" lon="2.24587">
        <ele>19.8</ele>
        <time>2022-03-11T13:20:26Z</time>
      </trkpt>
      <trkpt lat="49.92453" lon="2.24585">
        <ele>19.8</ele>
        <time>2022-03-11T13:20:27Z</time>
      </trkpt>
      <trkpt lat="49.92454" lon="2.24583">
        <ele>19.8</ele>
        <time>2022-03-11T13:20:29Z</time>
      </trkpt>
      <trkpt lat="49.92455" lon="2.24582">
        <ele>19.8</ele>
        <time>2022-03-11T13:20:30Z</time>
      </trkpt>
      <trkpt lat="49.92455" lon="2.2458">
        <ele>19.8</ele>
        <time>2022-03-11T13:20:31Z</time>
      </trkpt>
      <trkpt lat="49.92456" lon="2.24578">
        <ele>19.8</ele>
        <time>2022-03-11T13:20:32Z</time>
      </trkpt>
      <trkpt lat="49.92456" lon="2.24576">
        <ele>19.9</ele>
        <time>2022-03-11T13:20:33Z</time>
      </trkpt>
      <trkpt lat="49.92457" lon="2.24573">
        <ele>19.9</ele>
        <time>2022-03-11T13:20:34Z</time>
      </trkpt>
      <trkpt lat="49.92457" lon="2.24571">
        <ele>19.9</ele>
        <time>2022-03-11T13:20:36Z</time>
      </trkpt>
      <trkpt lat="49.92457" lon="2.24569">
        <ele>19.9</ele>
        <time>2022-03-11T13:20:37Z</time>
      </trkpt>
      <trkpt lat="49.92458" lon="2.24568">
        <ele>19.9</ele>
        <time>2022-03-11T13:20:38Z</time>
      </trkpt>
      <trkpt lat="49.92458" lon="2.24566">
        <ele>19.9</ele>
        <time>2022-03-11T13:20:39Z</time>
      </trkpt>
      <trkpt lat="49.92458" lon="2.24564">
        <ele>19.9</ele>
        <time>2022-03-11T13:20:40Z</time>
      </trkpt>
      <trkpt lat="49.92458" lon="2.24563">
        <ele>19.9</ele>
        <time>2022-03-11T13:20:41Z</time>
      </trkpt>
      <trkpt lat="49.92457" lon="2.24561">
        <ele>19.9</ele>
        <time>2022-03-11T13:20:42Z</time>
      </trkpt>
      <trkpt lat="49.92457" lon="2.2456">
        <ele>20</ele>
        <time>2022-03-11T13:20:44Z</time>
      </trkpt>
      <trkpt lat="49.92457" lon="2.24558">
        <ele>20</ele>
        <time>2022-03-11T13:20:45Z</time>
      </trkpt>
      <trkpt lat="49.92458" lon="2.24557">
        <ele>20</ele>
        <time>2022-03-11T13:20:46Z</time>
      </trkpt>
      <trkpt lat="49.92458" lon="2.24556">
        <ele>20</ele>
        <time>2022-03-11T13:20:47Z</time>
      </trkpt>
      <trkpt lat="49.92458" lon="2.24554">
        <ele>20</ele>
        <time>2022-03-11T13:20:48Z</time>
      </trkpt>
      <trkpt lat="49.92459" lon="2.24553">
        <ele>20</ele>
        <time>2022-03-11T13:20:49Z</time>
      </trkpt>
      <trkpt lat="49.92459" lon="2.24551">
        <ele>20</ele>
        <time>2022-03-11T13:20:50Z</time>
      </trkpt>
      <trkpt lat="49.9246" lon="2.2455">
        <ele>20</ele>
        <time>2022-03-11T13:20:52Z</time>
      </trkpt>
      <trkpt lat="49.9246" lon="2.24549">
        <ele>20</ele>
        <time>2022-03-11T13:20:53Z</time>
      </trkpt>
      <trkpt lat="49.92461" lon="2.24548">
        <ele>20</ele>
        <time>2022-03-11T13:20:54Z</time>
      </trkpt>
      <trkpt lat="49.92462" lon="2.24547">
        <ele>20.1</ele>
        <time>2022-03-11T13:20:55Z</time>
      </trkpt>
      <trkpt lat="49.92463" lon="2.24546">
        <ele>20.1</ele>
        <time>2022-03-11T13:20:56Z</time>
      </trkpt>
      <trkpt lat="49.92464" lon="2.24545">
        <ele>20.1</ele>
        <time>2022-03-11T13:20:57Z</time>
      </trkpt>
      <trkpt lat="49.92465" lon="2.24543">
        <ele>20.1</ele>
        <time>2022-03-11T13:20:59Z</time>
      </trkpt>
      <trkpt lat="49.92466" lon="2.24543">
        <ele>20.1</ele>
        <time>2022-03-11T13:21:00Z</time>
      </trkpt>
      <trkpt lat="49.92467" lon="2.24542">
        <ele>20.1</ele>
        <time>2022-03-11T13:21:01Z</time>
      </trkpt>
      <trkpt lat="49.92467" lon="2.24541">
        <ele>20.1</ele>
        <time>2022-03-11T13:21:02Z</time>
      </trkpt>
      <trkpt lat="49.92468" lon="2.24541">
        <ele>20.1</ele>
        <time>2022-03-11T13:21:03Z</time>
      </trkpt>
      <trkpt lat="49.9247" lon="2.24539">
        <ele>20.1</ele>
        <time>2022-03-11T13:21:04Z</time>
      </trkpt>
      <trkpt lat="49.9247" lon="2.24538">
        <ele>20.2</ele>
        <time>2022-03-11T13:21:05Z</time>
      </trkpt>
      <trkpt lat="49.92471" lon="2.24537">
        <ele>20.2</ele>
        <time>2022-03-11T13:21:06Z</time>
      </trkpt>
      <trkpt lat="49.92471" lon="2.24535">
        <ele>20.2</ele>
        <time>2022-03-11T13:21:07Z</time>
      </trkpt>
      <trkpt lat="49.92472" lon="2.24534">
        <ele>20.2</ele>
        <time>2022-03-11T13:21:09Z</time>
      </trkpt>
      <trkpt lat="49.92472" lon="2.24533">
        <ele>20.2</ele>
        <time>2022-03-11T13:21:10Z</time>
      </trkpt>
      <trkpt lat="49.92473" lon="2.24531">
        <ele>20.2</ele>
        <time>2022-03-11T13:21:11Z</time>
      </trkpt>
      <trkpt lat="49.92473" lon="2.2453">
        <ele>20.2</ele>
        <time>2022-03-11T13:21:12Z</time>
      </trkpt>
      <trkpt lat="49.92474" lon="2.24528">
        <ele>20.2</ele>
        <time>2022-03-11T13:21:13Z</time>
      </trkpt>
      <trkpt lat="49.92474" lon="2.24527">
        <ele>20.2</ele>
        <time>2022-03-11T13:21:14Z</time>
      </trkpt>
      <trkpt lat="49.92475" lon="2.24525">
        <ele>20.3</ele>
        <time>2022-03-11T13:21:15Z</time>
      </trkpt>
      <trkpt lat="49.92476" lon="2.24524">
        <ele>20.3</ele>
        <time>2022-03-11T13:21:16Z</time>
      </trkpt>
      <trkpt lat="49.92477" lon="2.24521">
        <ele>20.3</ele>
        <time>2022-03-11T13:21:18Z</time>
      </trkpt>
      <trkpt lat="49.92477" lon="2.2452">
        <ele>20.3</ele>
        <time>2022-03-11T13:21:19Z</time>
      </trkpt>
      <trkpt lat="49.92478" lon="2.24518">
        <ele>20.3</ele>
        <time>2022-03-11T13:21:20Z</time>
      </trkpt>
      <trkpt lat="49.92478" lon="2.24517">
        <ele>20.3</ele>
        <time>2022-03-11T13:21:22Z</time>
      </trkpt>
      <trkpt lat="49.92479" lon="2.24515">
        <ele>20.3</ele>
        <time>2022-03-11T13:21:23Z</time>
      </trkpt>
      <trkpt lat="49.92479" lon="2.24514">
        <ele>20.3</ele>
        <time>2022-03-11T13:21:24Z</time>
      </trkpt>
      <trkpt lat="49.92479" lon="2.24512">
        <ele>20.4</ele>
        <time>2022-03-11T13:21:25Z</time>
      </trkpt>
      <trkpt lat="49.92479" lon="2.2451">
        <ele>20.4</ele>
        <time>2022-03-11T13:21:26Z</time>
      </trkpt>
      <trkpt lat="49.92479" lon="2.24508">
        <ele>20.4</ele>
        <time>2022-03-11T13:21:27Z</time>
      </trkpt>
      <trkpt lat="49.92479" lon="2.24506">
        <ele>20.4</ele>
        <time>2022-03-11T13:21:28Z</time>
      </trkpt>
      <trkpt lat="49.9248" lon="2.24504">
        <ele>20.4</ele>
        <time>2022-03-11T13:21:29Z</time>
      </trkpt>
      <trkpt lat="49.9248" lon="2.24501">
        <ele>20.4</ele>
        <time>2022-03-11T13:21:31Z</time>
      </trkpt>
      <trkpt lat="49.9248" lon="2.24498">
        <ele>20.5</ele>
        <time>2022-03-11T13:21:32Z</time>
      </trkpt>
      <trkpt lat="49.9248" lon="2.24496">
        <ele>20.5</ele>
        <time>2022-03-11T13:21:33Z</time>
      </trkpt>
      <trkpt lat="49.9248" lon="2.24493">
        <ele>20.5</ele>
        <time>2022-03-11T13:21:34Z</time>
      </trkpt>
      <trkpt lat="49.9248" lon="2.24491">
        <ele>20.5</ele>
        <time>2022-03-11T13:21:35Z</time>
      </trkpt>
      <trkpt lat="49.9248" lon="2.24489">
        <ele>20.5</ele>
        <time>2022-03-11T13:21:36Z</time>
      </trkpt>
      <trkpt lat="49.92481" lon="2.24486">
        <ele>20.5</ele>
        <time>2022-03-11T13:21:37Z</time>
      </trkpt>
      <trkpt lat="49.92481" lon="2.24484">
        <ele>20.6</ele>
        <time>2022-03-11T13:21:38Z</time>
      </trkpt>
      <trkpt lat="49.92482" lon="2.24482">
        <ele>20.6</ele>
        <time>2022-03-11T13:21:40Z</time>
      </trkpt>
      <trkpt lat="49.92482" lon="2.24479">
        <ele>20.6</ele>
        <time>2022-03-11T13:21:41Z</time>
      </trkpt>
      <trkpt lat="49.92482" lon="2.24477">
        <ele>20.6</ele>
        <time>2022-03-11T13:21:42Z</time>
      </trkpt>
      <trkpt lat="49.92483" lon="2.24475">
        <ele>20.7</ele>
        <time>2022-03-11T13:21:43Z</time>
      </trkpt>
      <trkpt lat="49.92483" lon="2.24473">
        <ele>20.7</ele>
        <time>2022-03-11T13:21:44Z</time>
      </trkpt>
      <trkpt lat="49.92483" lon="2.24471">
        <ele>20.7</ele>
        <time>2022-03-11T13:21:45Z</time>
      </trkpt>
      <trkpt lat="49.92484" lon="2.24468">
        <ele>20.7</ele>
        <time>2022-03-11T13:21:46Z</time>
      </trkpt>
      <trkpt lat="49.92484" lon="2.24466">
        <ele>20.7</ele>
        <time>2022-03-11T13:21:47Z</time>
      </trkpt>
      <trkpt lat="49.92484" lon="2.24464">
        <ele>20.8</ele>
        <time>2022-03-11T13:21:49Z</time>
      </trkpt>
      <trkpt lat="49.92485" lon="2.24462">
        <ele>20.8</ele>
        <time>2022-03-11T13:21:50Z</time>
      </trkpt>
      <trkpt lat="49.92485" lon="2.2446">
        <ele>20.8</ele>
        <time>2022-03-11T13:21:51Z</time>
      </trkpt>
      <trkpt lat="49.92485" lon="2.24459">
        <ele>20.8</ele>
        <time>2022-03-11T13:21:52Z</time>
      </trkpt>
      <trkpt lat="49.92486" lon="2.24457">
        <ele>20.8</ele>
        <time>2022-03-11T13:21:53Z</time>
      </trkpt>
      <trkpt lat="49.92486" lon="2.24455">
        <ele>20.9</ele>
        <time>2022-03-11T13:21:54Z</time>
      </trkpt>
      <trkpt lat="49.92486" lon="2.24454">
        <ele>20.9</ele>
        <time>2022-03-11T13:21:55Z</time>
      </trkpt>
      <trkpt lat="49.92486" lon="2.24452">
        <ele>20.9</ele>
        <time>2022-03-11T13:21:56Z</time>
      </trkpt>
      <trkpt lat="49.92487" lon="2.24451">
        <ele>20.9</ele>
        <time>2022-03-11T13:21:58Z</time>
      </trkpt>
      <trkpt lat="49.92487" lon="2.2445">
        <ele>20.9</ele>
        <time>2022-03-11T13:21:59Z</time>
      </trkpt>
      <trkpt lat="49.92488" lon="2.24448">
        <ele>20.9</ele>
        <time>2022-03-11T13:22:00Z</time>
      </trkpt>
      <trkpt lat="49.92488" lon="2.24447">
        <ele>20.9</ele>
        <time>2022-03-11T13:22:01Z</time>
      </trkpt>
      <trkpt lat="49.92488" lon="2.24446">
        <ele>21</ele>
        <time>2022-03-11T13:22:02Z</time>
      </trkpt>
      <trkpt lat="49.92489" lon="2.24445">
        <ele>21</ele>
        <time>2022-03-11T13:22:03Z</time>
      </trkpt>
      <trkpt lat="49.92489" lon="2.24444">
        <ele>21</ele>
        <time>2022-03-11T13:22:04Z</time>
      </trkpt>
      <trkpt lat="49.9249" lon="2.24441">
        <ele>21</ele>
        <time>2022-03-11T13:22:05Z</time>
      </trkpt>
      <trkpt lat="49.9249" lon="2.2444">
        <ele>21</ele>
        <time>2022-03-11T13:22:07Z</time>
      </trkpt>
      <trkpt lat="49.92491" lon="2.24439">
        <ele>21</ele>
        <time>2022-03-11T13:22:08Z</time>
      </trkpt>
      <trkpt lat="49.92492" lon="2.24437">
        <ele>21.1</ele>
        <time>2022-03-11T13:22:09Z</time>
      </trkpt>
      <trkpt lat="49.92492" lon="2.24435">
        <ele>21.1</ele>
        <time>2022-03-11T13:22:10Z</time>
      </trkpt>
      <trkpt lat="49.92493" lon="2.24434">
        <ele>21.1</ele>
        <time>2022-03-11T13:22:11Z</time>
      </trkpt>
      <trkpt lat="49.92494" lon="2.24432">
        <ele>21.1</ele>
        <time>2022-03-11T13:22:12Z</time>
      </trkpt>
      <trkpt lat="49.92495" lon="2.2443">
        <ele>21.1</ele>
        <time>2022-03-11T13:22:13Z</time>
      </trkpt>
      <trkpt lat="49.92496" lon="2.24429">
        <ele>21.2</ele>
        <time>2022-03-11T13:22:14Z</time>
      </trkpt>
      <trkpt lat="49.92496" lon="2.24428">
        <ele>21.2</ele>
        <time>2022-03-11T13:22:16Z</time>
      </trkpt>
      <trkpt lat="49.92497" lon="2.24426">
        <ele>21.2</ele>
        <time>2022-03-11T13:22:17Z</time>
      </trkpt>
      <trkpt lat="49.92498" lon="2.24423">
        <ele>21.2</ele>
        <time>2022-03-11T13:22:18Z</time>
      </trkpt>
      <trkpt lat="49.92499" lon="2.24421">
        <ele>21.3</ele>
        <time>2022-03-11T13:22:19Z</time>
      </trkpt>
      <trkpt lat="49.92499" lon="2.2442">
        <ele>21.3</ele>
        <time>2022-03-11T13:22:20Z</time>
      </trkpt>
      <trkpt lat="49.925" lon="2.24419">
        <ele>21.3</ele>
        <time>2022-03-11T13:22:21Z</time>
      </trkpt>
      <trkpt lat="49.92501" lon="2.24416">
        <ele>21.3</ele>
        <time>2022-03-11T13:22:22Z</time>
      </trkpt>
      <trkpt lat="49.92502" lon="2.24414">
        <ele>21.3</ele>
        <time>2022-03-11T13:22:23Z</time>
      </trkpt>
      <trkpt lat="49.92503" lon="2.24412">
        <ele>21.4</ele>
        <time>2022-03-11T13:22:25Z</time>
      </trkpt>
      <trkpt lat="49.92503" lon="2.2441">
        <ele>21.4</ele>
        <time>2022-03-11T13:22:26Z</time>
      </trkpt>
      <trkpt lat="49.92504" lon="2.24408">
        <ele>21.4</ele>
        <time>2022-03-11T13:22:27Z</time>
      </trkpt>
      <trkpt lat="49.92505" lon="2.24406">
        <ele>21.4</ele>
        <time>2022-03-11T13:22:28Z</time>
      </trkpt>
      <trkpt lat="49.92506" lon="2.24404">
        <ele>21.5</ele>
        <time>2022-03-11T13:22:29Z</time>
      </trkpt>
      <trkpt lat="49.92507" lon="2.24402">
        <ele>21.5</ele>
        <time>2022-03-11T13:22:30Z</time>
      </trkpt>
      <trkpt lat="49.92508" lon="2.244">
        <ele>21.5</ele>
        <time>2022-03-11T13:22:31Z</time>
      </trkpt>
      <trkpt lat="49.92508" lon="2.24398">
        <ele>21.5</ele>
        <time>2022-03-11T13:22:33Z</time>
      </trkpt>
      <trkpt lat="49.92509" lon="2.24395">
        <ele>21.5</ele>
        <time>2022-03-11T13:22:34Z</time>
      </trkpt>
      <trkpt lat="49.92509" lon="2.24393">
        <ele>21.6</ele>
        <time>2022-03-11T13:22:35Z</time>
      </trkpt>
      <trkpt lat="49.9251" lon="2.24391">
        <ele>21.6</ele>
        <time>2022-03-11T13:22:36Z</time>
      </trkpt>
      <trkpt lat="49.9251" lon="2.24388">
        <ele>21.6</ele>
        <time>2022-03-11T13:22:38Z</time>
      </trkpt>
      <trkpt lat="49.92511" lon="2.24386">
        <ele>21.6</ele>
        <time>2022-03-11T13:22:39Z</time>
      </trkpt>
      <trkpt lat="49.92512" lon="2.24383">
        <ele>21.6</ele>
        <time>2022-03-11T13:22:40Z</time>
      </trkpt>
      <trkpt lat="49.92513" lon="2.24381">
        <ele>21.6</ele>
        <time>2022-03-11T13:22:42Z</time>
      </trkpt>
      <trkpt lat="49.92513" lon="2.24379">
        <ele>21.7</ele>
        <time>2022-03-11T13:22:43Z</time>
      </trkpt>
      <trkpt lat="49.92514" lon="2.24377">
        <ele>21.7</ele>
        <time>2022-03-11T13:22:44Z</time>
      </trkpt>
      <trkpt lat="49.92514" lon="2.24374">
        <ele>21.7</ele>
        <time>2022-03-11T13:22:45Z</time>
      </trkpt>
      <trkpt lat="49.92515" lon="2.24373">
        <ele>21.7</ele>
        <time>2022-03-11T13:22:46Z</time>
      </trkpt>
      <trkpt lat="49.92515" lon="2.24372">
        <ele>21.7</ele>
        <time>2022-03-11T13:22:47Z</time>
      </trkpt>
      <trkpt lat="49.92516" lon="2.2437">
        <ele>21.7</ele>
        <time>2022-03-11T13:22:48Z</time>
      </trkpt>
      <trkpt lat="49.92517" lon="2.24368">
        <ele>21.7</ele>
        <time>2022-03-11T13:22:49Z</time>
      </trkpt>
      <trkpt lat="49.92517" lon="2.24366">
        <ele>21.7</ele>
        <time>2022-03-11T13:22:51Z</time>
      </trkpt>
      <trkpt lat="49.92518" lon="2.24365">
        <ele>21.7</ele>
        <time>2022-03-11T13:22:52Z</time>
      </trkpt>
      <trkpt lat="49.92519" lon="2.24363">
        <ele>21.7</ele>
        <time>2022-03-11T13:22:53Z</time>
      </trkpt>
      <trkpt lat="49.9252" lon="2.24361">
        <ele>21.7</ele>
        <time>2022-03-11T13:22:54Z</time>
      </trkpt>
      <trkpt lat="49.92521" lon="2.24359">
        <ele>21.7</ele>
        <time>2022-03-11T13:22:55Z</time>
      </trkpt>
      <trkpt lat="49.92522" lon="2.24358">
        <ele>21.7</ele>
        <time>2022-03-11T13:22:56Z</time>
      </trkpt>
      <trkpt lat="49.92522" lon="2.24356">
        <ele>21.7</ele>
        <time>2022-03-11T13:22:57Z</time>
      </trkpt>
      <trkpt lat="49.92523" lon="2.24355">
        <ele>21.7</ele>
        <time>2022-03-11T13:22:59Z</time>
      </trkpt>
      <trkpt lat="49.92524" lon="2.24353">
        <ele>21.7</ele>
        <time>2022-03-11T13:23:00Z</time>
      </trkpt>
      <trkpt lat="49.92524" lon="2.24351">
        <ele>21.7</ele>
        <time>2022-03-11T13:23:01Z</time>
      </trkpt>
      <trkpt lat="49.92524" lon="2.2435">
        <ele>21.7</ele>
        <time>2022-03-11T13:23:02Z</time>
      </trkpt>
      <trkpt lat="49.92525" lon="2.24349">
        <ele>21.7</ele>
        <time>2022-03-11T13:23:03Z</time>
      </trkpt>
      <trkpt lat="49.92525" lon="2.24348">
        <ele>21.7</ele>
        <time>2022-03-11T13:23:04Z</time>
      </trkpt>
      <trkpt lat="49.92526" lon="2.24346">
        <ele>21.7</ele>
        <time>2022-03-11T13:23:05Z</time>
      </trkpt>
      <trkpt lat="49.92527" lon="2.24345">
        <ele>21.7</ele>
        <time>2022-03-11T13:23:06Z</time>
      </trkpt>
      <trkpt lat="49.92527" lon="2.24343">
        <ele>21.7</ele>
        <time>2022-03-11T13:23:08Z</time>
      </trkpt>
      <trkpt lat="49.92528" lon="2.24342">
        <ele>21.7</ele>
        <time>2022-03-11T13:23:09Z</time>
      </trkpt>
      <trkpt lat="49.92529" lon="2.2434">
        <ele>21.6</ele>
        <time>2022-03-11T13:23:10Z</time>
      </trkpt>
      <trkpt lat="49.92529" lon="2.24339">
        <ele>21.6</ele>
        <time>2022-03-11T13:23:11Z</time>
      </trkpt>
      <trkpt lat="49.92529" lon="2.24337">
        <ele>21.6</ele>
        <time>2022-03-11T13:23:12Z</time>
      </trkpt>
      <trkpt lat="49.9253" lon="2.24336">
        <ele>21.6</ele>
        <time>2022-03-11T13:23:13Z</time>
      </trkpt>
      <trkpt lat="49.9253" lon="2.24334">
        <ele>21.6</ele>
        <time>2022-03-11T13:23:14Z</time>
      </trkpt>
      <trkpt lat="49.9253" lon="2.24332">
        <ele>21.6</ele>
        <time>2022-03-11T13:23:15Z</time>
      </trkpt>
      <trkpt lat="49.9253" lon="2.24331">
        <ele>21.6</ele>
        <time>2022-03-11T13:23:17Z</time>
      </trkpt>
      <trkpt lat="49.9253" lon="2.2433">
        <ele>21.6</ele>
        <time>2022-03-11T13:23:18Z</time>
      </trkpt>
      <trkpt lat="49.9253" lon="2.24329">
        <ele>21.6</ele>
        <time>2022-03-11T13:23:19Z</time>
      </trkpt>
      <trkpt lat="49.9253" lon="2.24328">
        <ele>21.6</ele>
        <time>2022-03-11T13:23:20Z</time>
      </trkpt>
      <trkpt lat="49.92531" lon="2.24325">
        <ele>21.5</ele>
        <time>2022-03-11T13:23:21Z</time>
      </trkpt>
      <trkpt lat="49.92531" lon="2.24324">
        <ele>21.5</ele>
        <time>2022-03-11T13:23:22Z</time>
      </trkpt>
      <trkpt lat="49.92531" lon="2.24323">
        <ele>21.5</ele>
        <time>2022-03-11T13:23:23Z</time>
      </trkpt>
      <trkpt lat="49.92531" lon="2.24321">
        <ele>21.5</ele>
        <time>2022-03-11T13:23:25Z</time>
      </trkpt>
      <trkpt lat="49.92531" lon="2.2432">
        <ele>21.5</ele>
        <time>2022-03-11T13:23:26Z</time>
      </trkpt>
      <trkpt lat="49.92531" lon="2.24319">
        <ele>21.5</ele>
        <time>2022-03-11T13:23:27Z</time>
      </trkpt>
      <trkpt lat="49.92532" lon="2.24318">
        <ele>21.5</ele>
        <time>2022-03-11T13:23:28Z</time>
      </trkpt>
      <trkpt lat="49.92532" lon="2.24316">
        <ele>21.4</ele>
        <time>2022-03-11T13:23:29Z</time>
      </trkpt>
      <trkpt lat="49.92532" lon="2.24313">
        <ele>21.4</ele>
        <time>2022-03-11T13:23:30Z</time>
      </trkpt>
      <trkpt lat="49.92533" lon="2.24311">
        <ele>21.4</ele>
        <time>2022-03-11T13:23:31Z</time>
      </trkpt>
      <trkpt lat="49.92533" lon="2.24309">
        <ele>21.4</ele>
        <time>2022-03-11T13:23:32Z</time>
      </trkpt>
      <trkpt lat="49.92534" lon="2.24306">
        <ele>21.3</ele>
        <time>2022-03-11T13:23:34Z</time>
      </trkpt>
      <trkpt lat="49.92535" lon="2.24305">
        <ele>21.3</ele>
        <time>2022-03-11T13:23:35Z</time>
      </trkpt>
      <trkpt lat="49.92535" lon="2.24304">
        <ele>21.3</ele>
        <time>2022-03-11T13:23:36Z</time>
      </trkpt>
      <trkpt lat="49.92536" lon="2.24301">
        <ele>21.3</ele>
        <time>2022-03-11T13:23:37Z</time>
      </trkpt>
      <trkpt lat="49.92536" lon="2.243">
        <ele>21.3</ele>
        <time>2022-03-11T13:23:38Z</time>
      </trkpt>
      <trkpt lat="49.92537" lon="2.24299">
        <ele>21.2</ele>
        <time>2022-03-11T13:23:39Z</time>
      </trkpt>
      <trkpt lat="49.92538" lon="2.24297">
        <ele>21.2</ele>
        <time>2022-03-11T13:23:40Z</time>
      </trkpt>
      <trkpt lat="49.92539" lon="2.24295">
        <ele>21.2</ele>
        <time>2022-03-11T13:23:41Z</time>
      </trkpt>
      <trkpt lat="49.9254" lon="2.24292">
        <ele>21.1</ele>
        <time>2022-03-11T13:23:43Z</time>
      </trkpt>
      <trkpt lat="49.9254" lon="2.24291">
        <ele>21.1</ele>
        <time>2022-03-11T13:23:44Z</time>
      </trkpt>
      <trkpt lat="49.9254" lon="2.2429">
        <ele>21.1</ele>
        <time>2022-03-11T13:23:45Z</time>
      </trkpt>
      <trkpt lat="49.92541" lon="2.24288">
        <ele>21.1</ele>
        <time>2022-03-11T13:23:46Z</time>
      </trkpt>
      <trkpt lat="49.92541" lon="2.24287">
        <ele>21.1</ele>
        <time>2022-03-11T13:23:47Z</time>
      </trkpt>
      <trkpt lat="49.92542" lon="2.24285">
        <ele>21.1</ele>
        <time>2022-03-11T13:23:48Z</time>
      </trkpt>
      <trkpt lat="49.92542" lon="2.24284">
        <ele>21</ele>
        <time>2022-03-11T13:23:49Z</time>
      </trkpt>
      <trkpt lat="49.92543" lon="2.24282">
        <ele>21</ele>
        <time>2022-03-11T13:23:50Z</time>
      </trkpt>
      <trkpt lat="49.92543" lon="2.2428">
        <ele>21</ele>
        <time>2022-03-11T13:23:52Z</time>
      </trkpt>
      <trkpt lat="49.92544" lon="2.24277">
        <ele>21</ele>
        <time>2022-03-11T13:23:53Z</time>
      </trkpt>
      <trkpt lat="49.92545" lon="2.24276">
        <ele>20.9</ele>
        <time>2022-03-11T13:23:54Z</time>
      </trkpt>
      <trkpt lat="49.92545" lon="2.24275">
        <ele>20.9</ele>
        <time>2022-03-11T13:23:55Z</time>
      </trkpt>
      <trkpt lat="49.92546" lon="2.24272">
        <ele>20.9</ele>
        <time>2022-03-11T13:23:56Z</time>
      </trkpt>
      <trkpt lat="49.92546" lon="2.2427">
        <ele>20.9</ele>
        <time>2022-03-11T13:23:57Z</time>
      </trkpt>
      <trkpt lat="49.92546" lon="2.24269">
        <ele>20.9</ele>
        <time>2022-03-11T13:23:58Z</time>
      </trkpt>
      <trkpt lat="49.92546" lon="2.24267">
        <ele>20.9</ele>
        <time>2022-03-11T13:23:59Z</time>
      </trkpt>
      <trkpt lat="49.92547" lon="2.24265">
        <ele>20.8</ele>
        <time>2022-03-11T13:24:00Z</time>
      </trkpt>
      <trkpt lat="49.92547" lon="2.24262">
        <ele>20.8</ele>
        <time>2022-03-11T13:24:02Z</time>
      </trkpt>
      <trkpt lat="49.92547" lon="2.2426">
        <ele>20.8</ele>
        <time>2022-03-11T13:24:03Z</time>
      </trkpt>
      <trkpt lat="49.92547" lon="2.24259">
        <ele>20.8</ele>
        <time>2022-03-11T13:24:04Z</time>
      </trkpt>
      <trkpt lat="49.92547" lon="2.24258">
        <ele>20.8</ele>
        <time>2022-03-11T13:24:05Z</time>
      </trkpt>
      <trkpt lat="49.92547" lon="2.24256">
        <ele>20.8</ele>
        <time>2022-03-11T13:24:06Z</time>
      </trkpt>
      <trkpt lat="49.92547" lon="2.24254">
        <ele>20.7</ele>
        <time>2022-03-11T13:24:07Z</time>
      </trkpt>
      <trkpt lat="49.92548" lon="2.24252">
        <ele>20.7</ele>
        <time>2022-03-11T13:24:08Z</time>
      </trkpt>
      <trkpt lat="49.92548" lon="2.2425">
        <ele>20.7</ele>
        <time>2022-03-11T13:24:09Z</time>
      </trkpt>
      <trkpt lat="49.92549" lon="2.24247">
        <ele>20.7</ele>
        <time>2022-03-11T13:24:11Z</time>
      </trkpt>
      <trkpt lat="49.92549" lon="2.24245">
        <ele>20.7</ele>
        <time>2022-03-11T13:24:12Z</time>
      </trkpt>
      <trkpt lat="49.92549" lon="2.24244">
        <ele>20.7</ele>
        <time>2022-03-11T13:24:13Z</time>
      </trkpt>
      <trkpt lat="49.9255" lon="2.24242">
        <ele>20.7</ele>
        <time>2022-03-11T13:24:14Z</time>
      </trkpt>
      <trkpt lat="49.9255" lon="2.2424">
        <ele>20.7</ele>
        <time>2022-03-11T13:24:15Z</time>
      </trkpt>
      <trkpt lat="49.9255" lon="2.24238">
        <ele>20.7</ele>
        <time>2022-03-11T13:24:16Z</time>
      </trkpt>
      <trkpt lat="49.92551" lon="2.24235">
        <ele>20.6</ele>
        <time>2022-03-11T13:24:17Z</time>
      </trkpt>
      <trkpt lat="49.92551" lon="2.24233">
        <ele>20.6</ele>
        <time>2022-03-11T13:24:18Z</time>
      </trkpt>
      <trkpt lat="49.92551" lon="2.24231">
        <ele>20.6</ele>
        <time>2022-03-11T13:24:20Z</time>
      </trkpt>
      <trkpt lat="49.92551" lon="2.24229">
        <ele>20.6</ele>
        <time>2022-03-11T13:24:21Z</time>
      </trkpt>
      <trkpt lat="49.92551" lon="2.24226">
        <ele>20.6</ele>
        <time>2022-03-11T13:24:22Z</time>
      </trkpt>
      <trkpt lat="49.92552" lon="2.24224">
        <ele>20.6</ele>
        <time>2022-03-11T13:24:23Z</time>
      </trkpt>
      <trkpt lat="49.92552" lon="2.24222">
        <ele>20.6</ele>
        <time>2022-03-11T13:24:24Z</time>
      </trkpt>
      <trkpt lat="49.92552" lon="2.2422">
        <ele>20.6</ele>
        <time>2022-03-11T13:24:25Z</time>
      </trkpt>
      <trkpt lat="49.92553" lon="2.24218">
        <ele>20.6</ele>
        <time>2022-03-11T13:24:26Z</time>
      </trkpt>
      <trkpt lat="49.92554" lon="2.24215">
        <ele>20.6</ele>
        <time>2022-03-11T13:24:28Z</time>
      </trkpt>
      <trkpt lat="49.92554" lon="2.24214">
        <ele>20.6</ele>
        <time>2022-03-11T13:24:29Z</time>
      </trkpt>
      <trkpt lat="49.92554" lon="2.24213">
        <ele>20.6</ele>
        <time>2022-03-11T13:24:30Z</time>
      </trkpt>
      <trkpt lat="49.92555" lon="2.2421">
        <ele>20.6</ele>
        <time>2022-03-11T13:24:31Z</time>
      </trkpt>
      <trkpt lat="49.92555" lon="2.24209">
        <ele>20.6</ele>
        <time>2022-03-11T13:24:32Z</time>
      </trkpt>
      <trkpt lat="49.92555" lon="2.24208">
        <ele>20.6</ele>
        <time>2022-03-11T13:24:33Z</time>
      </trkpt>
      <trkpt lat="49.92556" lon="2.24207">
        <ele>20.6</ele>
        <time>2022-03-11T13:24:34Z</time>
      </trkpt>
      <trkpt lat="49.92556" lon="2.24203">
        <ele>20.6</ele>
        <time>2022-03-11T13:24:35Z</time>
      </trkpt>
      <trkpt lat="49.92556" lon="2.24202">
        <ele>20.6</ele>
        <time>2022-03-11T13:24:37Z</time>
      </trkpt>
      <trkpt lat="49.92556" lon="2.24201">
        <ele>20.6</ele>
        <time>2022-03-11T13:24:38Z</time>
      </trkpt>
      <trkpt lat="49.92557" lon="2.24199">
        <ele>20.6</ele>
        <time>2022-03-11T13:24:39Z</time>
      </trkpt>
      <trkpt lat="49.92557" lon="2.24197">
        <ele>20.6</ele>
        <time>2022-03-11T13:24:40Z</time>
      </trkpt>
      <trkpt lat="49.92557" lon="2.24196">
        <ele>20.6</ele>
        <time>2022-03-11T13:24:41Z</time>
      </trkpt>
      <trkpt lat="49.92557" lon="2.24194">
        <ele>20.6</ele>
        <time>2022-03-11T13:24:42Z</time>
      </trkpt>
      <trkpt lat="49.92557" lon="2.24192">
        <ele>20.5</ele>
        <time>2022-03-11T13:24:43Z</time>
      </trkpt>
      <trkpt lat="49.92558" lon="2.24191">
        <ele>20.5</ele>
        <time>2022-03-11T13:24:44Z</time>
      </trkpt>
      <trkpt lat="49.92558" lon="2.24189">
        <ele>20.5</ele>
        <time>2022-03-11T13:24:45Z</time>
      </trkpt>
      <trkpt lat="49.92558" lon="2.24187">
        <ele>20.5</ele>
        <time>2022-03-11T13:24:47Z</time>
      </trkpt>
      <trkpt lat="49.92558" lon="2.24185">
        <ele>20.5</ele>
        <time>2022-03-11T13:24:48Z</time>
      </trkpt>
      <trkpt lat="49.92559" lon="2.24184">
        <ele>20.5</ele>
        <time>2022-03-11T13:24:49Z</time>
      </trkpt>
      <trkpt lat="49.92559" lon="2.24182">
        <ele>20.5</ele>
        <time>2022-03-11T13:24:50Z</time>
      </trkpt>
      <trkpt lat="49.92559" lon="2.24181">
        <ele>20.5</ele>
        <time>2022-03-11T13:24:51Z</time>
      </trkpt>
      <trkpt lat="49.9256" lon="2.24179">
        <ele>20.5</ele>
        <time>2022-03-11T13:24:52Z</time>
      </trkpt>
      <trkpt lat="49.9256" lon="2.24178">
        <ele>20.5</ele>
        <time>2022-03-11T13:24:53Z</time>
      </trkpt>
      <trkpt lat="49.9256" lon="2.24177">
        <ele>20.5</ele>
        <time>2022-03-11T13:24:54Z</time>
      </trkpt>
      <trkpt lat="49.9256" lon="2.24176">
        <ele>20.5</ele>
        <time>2022-03-11T13:24:55Z</time>
      </trkpt>
      <trkpt lat="49.9256" lon="2.24173">
        <ele>20.4</ele>
        <time>2022-03-11T13:24:56Z</time>
      </trkpt>
      <trkpt lat="49.9256" lon="2.24172">
        <ele>20.4</ele>
        <time>2022-03-11T13:24:57Z</time>
      </trkpt>
      <trkpt lat="49.92561" lon="2.2417">
        <ele>20.4</ele>
        <time>2022-03-11T13:24:58Z</time>
      </trkpt>
      <trkpt lat="49.92561" lon="2.24168">
        <ele>20.4</ele>
        <time>2022-03-11T13:24:59Z</time>
      </trkpt>
      <trkpt lat="49.92561" lon="2.24166">
        <ele>20.4</ele>
        <time>2022-03-11T13:25:00Z</time>
      </trkpt>
      <trkpt lat="49.92562" lon="2.24165">
        <ele>20.4</ele>
        <time>2022-03-11T13:25:02Z</time>
      </trkpt>
      <trkpt lat="49.92562" lon="2.24163">
        <ele>20.4</ele>
        <time>2022-03-11T13:25:03Z</time>
      </trkpt>
      <trkpt lat="49.92562" lon="2.24161">
        <ele>20.3</ele>
        <time>2022-03-11T13:25:04Z</time>
      </trkpt>
      <trkpt lat="49.92563" lon="2.2416">
        <ele>20.3</ele>
        <time>2022-03-11T13:25:05Z</time>
      </trkpt>
      <trkpt lat="49.92563" lon="2.24156">
        <ele>20.3</ele>
        <time>2022-03-11T13:25:07Z</time>
      </trkpt>
      <trkpt lat="49.92564" lon="2.24155">
        <ele>20.3</ele>
        <time>2022-03-11T13:25:08Z</time>
      </trkpt>
      <trkpt lat="49.92564" lon="2.24152">
        <ele>20.3</ele>
        <time>2022-03-11T13:25:09Z</time>
      </trkpt>
      <trkpt lat="49.92564" lon="2.2415">
        <ele>20.2</ele>
        <time>2022-03-11T13:25:10Z</time>
      </trkpt>
      <trkpt lat="49.92564" lon="2.24147">
        <ele>20.2</ele>
        <time>2022-03-11T13:25:11Z</time>
      </trkpt>
      <trkpt lat="49.92564" lon="2.24145">
        <ele>20.2</ele>
        <time>2022-03-11T13:25:12Z</time>
      </trkpt>
      <trkpt lat="49.92564" lon="2.24144">
        <ele>20.2</ele>
        <time>2022-03-11T13:25:13Z</time>
      </trkpt>
      <trkpt lat="49.92564" lon="2.24141">
        <ele>20.1</ele>
        <time>2022-03-11T13:25:15Z</time>
      </trkpt>
      <trkpt lat="49.92564" lon="2.24139">
        <ele>20.1</ele>
        <time>2022-03-11T13:25:16Z</time>
      </trkpt>
      <trkpt lat="49.92564" lon="2.24138">
        <ele>20.1</ele>
        <time>2022-03-11T13:25:17Z</time>
      </trkpt>
      <trkpt lat="49.92564" lon="2.24136">
        <ele>20.1</ele>
        <time>2022-03-11T13:25:18Z</time>
      </trkpt>
      <trkpt lat="49.92564" lon="2.24135">
        <ele>20.1</ele>
        <time>2022-03-11T13:25:19Z</time>
      </trkpt>
      <trkpt lat="49.92564" lon="2.24133">
        <ele>20.1</ele>
        <time>2022-03-11T13:25:20Z</time>
      </trkpt>
      <trkpt lat="49.92564" lon="2.2413">
        <ele>20</ele>
        <time>2022-03-11T13:25:21Z</time>
      </trkpt>
      <trkpt lat="49.92564" lon="2.24128">
        <ele>20</ele>
        <time>2022-03-11T13:25:22Z</time>
      </trkpt>
      <trkpt lat="49.92564" lon="2.24127">
        <ele>20</ele>
        <time>2022-03-11T13:25:23Z</time>
      </trkpt>
      <trkpt lat="49.92565" lon="2.24125">
        <ele>20</ele>
        <time>2022-03-11T13:25:25Z</time>
      </trkpt>
      <trkpt lat="49.92565" lon="2.24123">
        <ele>20</ele>
        <time>2022-03-11T13:25:26Z</time>
      </trkpt>
      <trkpt lat="49.92565" lon="2.2412">
        <ele>19.9</ele>
        <time>2022-03-11T13:25:27Z</time>
      </trkpt>
      <trkpt lat="49.92566" lon="2.24118">
        <ele>19.9</ele>
        <time>2022-03-11T13:25:28Z</time>
      </trkpt>
      <trkpt lat="49.92566" lon="2.24116">
        <ele>19.9</ele>
        <time>2022-03-11T13:25:29Z</time>
      </trkpt>
      <trkpt lat="49.92567" lon="2.24114">
        <ele>19.9</ele>
        <time>2022-03-11T13:25:30Z</time>
      </trkpt>
      <trkpt lat="49.92567" lon="2.24112">
        <ele>19.8</ele>
        <time>2022-03-11T13:25:31Z</time>
      </trkpt>
      <trkpt lat="49.92567" lon="2.24109">
        <ele>19.8</ele>
        <time>2022-03-11T13:25:32Z</time>
      </trkpt>
      <trkpt lat="49.92568" lon="2.24107">
        <ele>19.8</ele>
        <time>2022-03-11T13:25:34Z</time>
      </trkpt>
      <trkpt lat="49.92568" lon="2.24105">
        <ele>19.8</ele>
        <time>2022-03-11T13:25:35Z</time>
      </trkpt>
      <trkpt lat="49.92569" lon="2.24102">
        <ele>19.7</ele>
        <time>2022-03-11T13:25:36Z</time>
      </trkpt>
      <trkpt lat="49.92569" lon="2.24101">
        <ele>19.7</ele>
        <time>2022-03-11T13:25:37Z</time>
      </trkpt>
      <trkpt lat="49.92569" lon="2.241">
        <ele>19.7</ele>
        <time>2022-03-11T13:25:38Z</time>
      </trkpt>
      <trkpt lat="49.9257" lon="2.24098">
        <ele>19.7</ele>
        <time>2022-03-11T13:25:39Z</time>
      </trkpt>
      <trkpt lat="49.9257" lon="2.24096">
        <ele>19.7</ele>
        <time>2022-03-11T13:25:40Z</time>
      </trkpt>
      <trkpt lat="49.92571" lon="2.24094">
        <ele>19.7</ele>
        <time>2022-03-11T13:25:42Z</time>
      </trkpt>
      <trkpt lat="49.92571" lon="2.24093">
        <ele>19.6</ele>
        <time>2022-03-11T13:25:43Z</time>
      </trkpt>
      <trkpt lat="49.92572" lon="2.24091">
        <ele>19.6</ele>
        <time>2022-03-11T13:25:44Z</time>
      </trkpt>
      <trkpt lat="49.92573" lon="2.24088">
        <ele>19.6</ele>
        <time>2022-03-11T13:25:45Z</time>
      </trkpt>
      <trkpt lat="49.92574" lon="2.24087">
        <ele>19.6</ele>
        <time>2022-03-11T13:25:46Z</time>
      </trkpt>
      <trkpt lat="49.92574" lon="2.24086">
        <ele>19.6</ele>
        <time>2022-03-11T13:25:47Z</time>
      </trkpt>
      <trkpt lat="49.92575" lon="2.24084">
        <ele>19.6</ele>
        <time>2022-03-11T13:25:48Z</time>
      </trkpt>
      <trkpt lat="49.92576" lon="2.24082">
        <ele>19.6</ele>
        <time>2022-03-11T13:25:49Z</time>
      </trkpt>
      <trkpt lat="49.92577" lon="2.24079">
        <ele>19.5</ele>
        <time>2022-03-11T13:25:51Z</time>
      </trkpt>
      <trkpt lat="49.92577" lon="2.24078">
        <ele>19.5</ele>
        <time>2022-03-11T13:25:52Z</time>
      </trkpt>
      <trkpt lat="49.92578" lon="2.24076">
        <ele>19.5</ele>
        <time>2022-03-11T13:25:53Z</time>
      </trkpt>
      <trkpt lat="49.92578" lon="2.24073">
        <ele>19.5</ele>
        <time>2022-03-11T13:25:54Z</time>
      </trkpt>
      <trkpt lat="49.92578" lon="2.24072">
        <ele>19.5</ele>
        <time>2022-03-11T13:25:55Z</time>
      </trkpt>
      <trkpt lat="49.92579" lon="2.2407">
        <ele>19.5</ele>
        <time>2022-03-11T13:25:56Z</time>
      </trkpt>
      <trkpt lat="49.92579" lon="2.24068">
        <ele>19.5</ele>
        <time>2022-03-11T13:25:57Z</time>
      </trkpt>
      <trkpt lat="49.92579" lon="2.24066">
        <ele>19.5</ele>
        <time>2022-03-11T13:25:58Z</time>
      </trkpt>
      <trkpt lat="49.9258" lon="2.24064">
        <ele>19.5</ele>
        <time>2022-03-11T13:26:00Z</time>
      </trkpt>
      <trkpt lat="49.9258" lon="2.24062">
        <ele>19.5</ele>
        <time>2022-03-11T13:26:01Z</time>
      </trkpt>
      <trkpt lat="49.9258" lon="2.2406">
        <ele>19.5</ele>
        <time>2022-03-11T13:26:02Z</time>
      </trkpt>
      <trkpt lat="49.9258" lon="2.24058">
        <ele>19.5</ele>
        <time>2022-03-11T13:26:03Z</time>
      </trkpt>
      <trkpt lat="49.9258" lon="2.24056">
        <ele>19.5</ele>
        <time>2022-03-11T13:26:04Z</time>
      </trkpt>
      <trkpt lat="49.92581" lon="2.24054">
        <ele>19.5</ele>
        <time>2022-03-11T13:26:05Z</time>
      </trkpt>
      <trkpt lat="49.92581" lon="2.24052">
        <ele>19.5</ele>
        <time>2022-03-11T13:26:07Z</time>
      </trkpt>
      <trkpt lat="49.92582" lon="2.2405">
        <ele>19.5</ele>
        <time>2022-03-11T13:26:08Z</time>
      </trkpt>
      <trkpt lat="49.92583" lon="2.24048">
        <ele>19.5</ele>
        <time>2022-03-11T13:26:09Z</time>
      </trkpt>
      <trkpt lat="49.92583" lon="2.24047">
        <ele>19.5</ele>
        <time>2022-03-11T13:26:10Z</time>
      </trkpt>
      <trkpt lat="49.92583" lon="2.24045">
        <ele>19.5</ele>
        <time>2022-03-11T13:26:11Z</time>
      </trkpt>
      <trkpt lat="49.92584" lon="2.24042">
        <ele>19.5</ele>
        <time>2022-03-11T13:26:12Z</time>
      </trkpt>
      <trkpt lat="49.92585" lon="2.24041">
        <ele>19.5</ele>
        <time>2022-03-11T13:26:14Z</time>
      </trkpt>
      <trkpt lat="49.92585" lon="2.2404">
        <ele>19.5</ele>
        <time>2022-03-11T13:26:15Z</time>
      </trkpt>
      <trkpt lat="49.92586" lon="2.24039">
        <ele>19.5</ele>
        <time>2022-03-11T13:26:16Z</time>
      </trkpt>
      <trkpt lat="49.92587" lon="2.24037">
        <ele>19.5</ele>
        <time>2022-03-11T13:26:17Z</time>
      </trkpt>
      <trkpt lat="49.92587" lon="2.24036">
        <ele>19.5</ele>
        <time>2022-03-11T13:26:18Z</time>
      </trkpt>
      <trkpt lat="49.92588" lon="2.24035">
        <ele>19.5</ele>
        <time>2022-03-11T13:26:19Z</time>
      </trkpt>
      <trkpt lat="49.92588" lon="2.24035">
        <ele>19.6</ele>
        <time>2022-03-11T13:26:21Z</time>
      </trkpt>
      <trkpt lat="49.92588" lon="2.24034">
        <ele>19.6</ele>
        <time>2022-03-11T13:26:22Z</time>
      </trkpt>
      <trkpt lat="49.92589" lon="2.24032">
        <ele>19.6</ele>
        <time>2022-03-11T13:26:23Z</time>
      </trkpt>
      <trkpt lat="49.92589" lon="2.24031">
        <ele>19.6</ele>
        <time>2022-03-11T13:26:24Z</time>
      </trkpt>
      <trkpt lat="49.92589" lon="2.24029">
        <ele>19.6</ele>
        <time>2022-03-11T13:26:25Z</time>
      </trkpt>
      <trkpt lat="49.92589" lon="2.24028">
        <ele>19.6</ele>
        <time>2022-03-11T13:26:27Z</time>
      </trkpt>
      <trkpt lat="49.92589" lon="2.24026">
        <ele>19.6</ele>
        <time>2022-03-11T13:26:28Z</time>
      </trkpt>
      <trkpt lat="49.9259" lon="2.24024">
        <ele>19.7</ele>
        <time>2022-03-11T13:26:29Z</time>
      </trkpt>
      <trkpt lat="49.9259" lon="2.24023">
        <ele>19.7</ele>
        <time>2022-03-11T13:26:30Z</time>
      </trkpt>
      <trkpt lat="49.9259" lon="2.24021">
        <ele>19.7</ele>
        <time>2022-03-11T13:26:31Z</time>
      </trkpt>
      <trkpt lat="49.9259" lon="2.2402">
        <ele>19.7</ele>
        <time>2022-03-11T13:26:32Z</time>
      </trkpt>
      <trkpt lat="49.9259" lon="2.24018">
        <ele>19.7</ele>
        <time>2022-03-11T13:26:34Z</time>
      </trkpt>
      <trkpt lat="49.9259" lon="2.24016">
        <ele>19.8</ele>
        <time>2022-03-11T13:26:35Z</time>
      </trkpt>
      <trkpt lat="49.9259" lon="2.24015">
        <ele>19.8</ele>
        <time>2022-03-11T13:26:36Z</time>
      </trkpt>
      <trkpt lat="49.92589" lon="2.24014">
        <ele>19.8</ele>
        <time>2022-03-11T13:26:37Z</time>
      </trkpt>
      <trkpt lat="49.92589" lon="2.24013">
        <ele>19.8</ele>
        <time>2022-03-11T13:26:38Z</time>
      </trkpt>
      <trkpt lat="49.92589" lon="2.24012">
        <ele>19.8</ele>
        <time>2022-03-11T13:26:39Z</time>
      </trkpt>
      <trkpt lat="49.92588" lon="2.2401">
        <ele>19.9</ele>
        <time>2022-03-11T13:26:41Z</time>
      </trkpt>
      <trkpt lat="49.92588" lon="2.24009">
        <ele>19.9</ele>
        <time>2022-03-11T13:26:42Z</time>
      </trkpt>
      <trkpt lat="49.92588" lon="2.24009">
        <ele>19.9</ele>
        <time>2022-03-11T13:26:43Z</time>
      </trkpt>
      <trkpt lat="49.92587" lon="2.24009">
        <ele>19.9</ele>
        <time>2022-03-11T13:26:44Z</time>
      </trkpt>
      <trkpt lat="49.92586" lon="2.24009">
        <ele>19.9</ele>
        <time>2022-03-11T13:26:45Z</time>
      </trkpt>
      <trkpt lat="49.92585" lon="2.24008">
        <ele>20</ele>
        <time>2022-03-11T13:26:46Z</time>
      </trkpt>
      <trkpt lat="49.92585" lon="2.24007">
        <ele>20</ele>
        <time>2022-03-11T13:26:47Z</time>
      </trkpt>
      <trkpt lat="49.92584" lon="2.24007">
        <ele>20</ele>
        <time>2022-03-11T13:26:48Z</time>
      </trkpt>
      <trkpt lat="49.92583" lon="2.24008">
        <ele>20</ele>
        <time>2022-03-11T13:26:49Z</time>
      </trkpt>
      <trkpt lat="49.92583" lon="2.24009">
        <ele>20.1</ele>
        <time>2022-03-11T13:26:50Z</time>
      </trkpt>
      <trkpt lat="49.92583" lon="2.2401">
        <ele>20.1</ele>
        <time>2022-03-11T13:26:51Z</time>
      </trkpt>
      <trkpt lat="49.92583" lon="2.2401">
        <ele>20.1</ele>
        <time>2022-03-11T13:26:52Z</time>
      </trkpt>
      <trkpt lat="49.92583" lon="2.24011">
        <ele>20.1</ele>
        <time>2022-03-11T13:26:53Z</time>
      </trkpt>
      <trkpt lat="49.92583" lon="2.24011">
        <ele>20.1</ele>
        <time>2022-03-11T13:26:54Z</time>
      </trkpt>
      <trkpt lat="49.92583" lon="2.24012">
        <ele>20.1</ele>
        <time>2022-03-11T13:26:55Z</time>
      </trkpt>
      <trkpt lat="49.92583" lon="2.24012">
        <ele>20.1</ele>
        <time>2022-03-11T13:26:56Z</time>
      </trkpt>
      <trkpt lat="49.92583" lon="2.24012">
        <ele>20.1</ele>
        <time>2022-03-11T13:26:57Z</time>
      </trkpt>
      <trkpt lat="49.92583" lon="2.24013">
        <ele>20.1</ele>
        <time>2022-03-11T13:26:58Z</time>
      </trkpt>
      <trkpt lat="49.92583" lon="2.24013">
        <ele>20.1</ele>
        <time>2022-03-11T13:26:59Z</time>
      </trkpt>
      <trkpt lat="49.92583" lon="2.24013">
        <ele>20.1</ele>
        <time>2022-03-11T13:27:00Z</time>
      </trkpt>
      <trkpt lat="49.92584" lon="2.24013">
        <ele>20.1</ele>
        <time>2022-03-11T13:27:01Z</time>
      </trkpt>
      <trkpt lat="49.92584" lon="2.24013">
        <ele>20.2</ele>
        <time>2022-03-11T13:27:02Z</time>
      </trkpt>
      <trkpt lat="49.92584" lon="2.24014">
        <ele>20.2</ele>
        <time>2022-03-11T13:27:03Z</time>
      </trkpt>
      <trkpt lat="49.92584" lon="2.24014">
        <ele>20.2</ele>
        <time>2022-03-11T13:27:04Z</time>
      </trkpt>
      <trkpt lat="49.92584" lon="2.24014">
        <ele>20.2</ele>
        <time>2022-03-11T13:27:05Z</time>
      </trkpt>
      <trkpt lat="49.92584" lon="2.24014">
        <ele>20.2</ele>
        <time>2022-03-11T13:27:06Z</time>
      </trkpt>
      <trkpt lat="49.92584" lon="2.24014">
        <ele>20.2</ele>
        <time>2022-03-11T13:27:07Z</time>
      </trkpt>
      <trkpt lat="49.92584" lon="2.24014">
        <ele>20.2</ele>
        <time>2022-03-11T13:27:08Z</time>
      </trkpt>
      <trkpt lat="49.92585" lon="2.24014">
        <ele>20.2</ele>
        <time>2022-03-11T13:27:09Z</time>
      </trkpt>
      <trkpt lat="49.92585" lon="2.24014">
        <ele>20.2</ele>
        <time>2022-03-11T13:27:10Z</time>
      </trkpt>
      <trkpt lat="49.92585" lon="2.24014">
        <ele>20.2</ele>
        <time>2022-03-11T13:27:11Z</time>
      </trkpt>
      <trkpt lat="49.92585" lon="2.24014">
        <ele>20.2</ele>
        <time>2022-03-11T13:27:12Z</time>
      </trkpt>
      <trkpt lat="49.92585" lon="2.24014">
        <ele>20.2</ele>
        <time>2022-03-11T13:27:13Z</time>
      </trkpt>
      <trkpt lat="49.92585" lon="2.24014">
        <ele>20.2</ele>
        <time>2022-03-11T13:27:14Z</time>
      </trkpt>
      <trkpt lat="49.92585" lon="2.24014">
        <ele>20.2</ele>
        <time>2022-03-11T13:27:15Z</time>
      </trkpt>
      <trkpt lat="49.92585" lon="2.24014">
        <ele>20.2</ele>
        <time>2022-03-11T13:27:16Z</time>
      </trkpt>
      <trkpt lat="49.92585" lon="2.24014">
        <ele>20.2</ele>
        <time>2022-03-11T13:27:17Z</time>
      </trkpt>
      <trkpt lat="49.92585" lon="2.24014">
        <ele>20.2</ele>
        <time>2022-03-11T13:27:18Z</time>
      </trkpt>
      <trkpt lat="49.92585" lon="2.24014">
        <ele>20.2</ele>
        <time>2022-03-11T13:27:19Z</time>
      </trkpt>
      <trkpt lat="49.92585" lon="2.24014">
        <ele>20.2</ele>
        <time>2022-03-11T13:27:20Z</time>
      </trkpt>
      <trkpt lat="49.92585" lon="2.24014">
        <ele>20.2</ele>
        <time>2022-03-11T13:27:21Z</time>
      </trkpt>
      <trkpt lat="49.92585" lon="2.24014">
        <ele>20.2</ele>
        <time>2022-03-11T13:27:22Z</time>
      </trkpt>
      <trkpt lat="49.92585" lon="2.24014">
        <ele>20.2</ele>
        <time>2022-03-11T13:27:23Z</time>
      </trkpt>
      <trkpt lat="49.92585" lon="2.24014">
        <ele>20.2</ele>
        <time>2022-03-11T13:27:24Z</time>
      </trkpt>
      <trkpt lat="49.92586" lon="2.24014">
        <ele>20.2</ele>
        <time>2022-03-11T13:27:25Z</time>
      </trkpt>
      <trkpt lat="49.92586" lon="2.24014">
        <ele>20.2</ele>
        <time>2022-03-11T13:27:26Z</time>
      </trkpt>
      <trkpt lat="49.92586" lon="2.24014">
        <ele>20.2</ele>
        <time>2022-03-11T13:27:27Z</time>
      </trkpt>
      <trkpt lat="49.92586" lon="2.24014">
        <ele>20.2</ele>
        <time>2022-03-11T13:27:28Z</time>
      </trkpt>
      <trkpt lat="49.92586" lon="2.24015">
        <ele>20.2</ele>
        <time>2022-03-11T13:27:29Z</time>
      </trkpt>
      <trkpt lat="49.92586" lon="2.24015">
        <ele>20.2</ele>
        <time>2022-03-11T13:27:30Z</time>
      </trkpt>
      <trkpt lat="49.92586" lon="2.24015">
        <ele>20.2</ele>
        <time>2022-03-11T13:27:31Z</time>
      </trkpt>
      <trkpt lat="49.92586" lon="2.24015">
        <ele>20.2</ele>
        <time>2022-03-11T13:27:32Z</time>
      </trkpt>
      <trkpt lat="49.92586" lon="2.24015">
        <ele>20.2</ele>
        <time>2022-03-11T13:27:33Z</time>
      </trkpt>
      <trkpt lat="49.92586" lon="2.24015">
        <ele>20.2</ele>
        <time>2022-03-11T13:27:34Z</time>
      </trkpt>
      <trkpt lat="49.92586" lon="2.24015">
        <ele>20.2</ele>
        <time>2022-03-11T13:27:35Z</time>
      </trkpt>
      <trkpt lat="49.92586" lon="2.24015">
        <ele>20.2</ele>
        <time>2022-03-11T13:27:36Z</time>
      </trkpt>
      <trkpt lat="49.92586" lon="2.24015">
        <ele>20.2</ele>
        <time>2022-03-11T13:27:37Z</time>
      </trkpt>
      <trkpt lat="49.92586" lon="2.24015">
        <ele>20.2</ele>
        <time>2022-03-11T13:27:38Z</time>
      </trkpt>
      <trkpt lat="49.92586" lon="2.24015">
        <ele>20.2</ele>
        <time>2022-03-11T13:27:39Z</time>
      </trkpt>
      <trkpt lat="49.92586" lon="2.24015">
        <ele>20.2</ele>
        <time>2022-03-11T13:27:40Z</time>
      </trkpt>
      <trkpt lat="49.92587" lon="2.24015">
        <ele>20.2</ele>
        <time>2022-03-11T13:27:41Z</time>
      </trkpt>
      <trkpt lat="49.92587" lon="2.24015">
        <ele>20.2</ele>
        <time>2022-03-11T13:27:42Z</time>
      </trkpt>
      <trkpt lat="49.92587" lon="2.24015">
        <ele>20.2</ele>
        <time>2022-03-11T13:27:43Z</time>
      </trkpt>
      <trkpt lat="49.92587" lon="2.24015">
        <ele>20.2</ele>
        <time>2022-03-11T13:27:44Z</time>
      </trkpt>
      <trkpt lat="49.92587" lon="2.24015">
        <ele>20.2</ele>
        <time>2022-03-11T13:27:45Z</time>
      </trkpt>
      <trkpt lat="49.92587" lon="2.24015">
        <ele>20.2</ele>
        <time>2022-03-11T13:27:46Z</time>
      </trkpt>
      <trkpt lat="49.92587" lon="2.24015">
        <ele>20.2</ele>
        <time>2022-03-11T13:27:47Z</time>
      </trkpt>
      <trkpt lat="49.92587" lon="2.24015">
        <ele>20.2</ele>
        <time>2022-03-11T13:27:48Z</time>
      </trkpt>
      <trkpt lat="49.92587" lon="2.24015">
        <ele>20.2</ele>
        <time>2022-03-11T13:27:49Z</time>
      </trkpt>
      <trkpt lat="49.92587" lon="2.24015">
        <ele>20.2</ele>
        <time>2022-03-11T13:27:50Z</time>
      </trkpt>
      <trkpt lat="49.92587" lon="2.24015">
        <ele>20.2</ele>
        <time>2022-03-11T13:27:51Z</time>
      </trkpt>
      <trkpt lat="49.92587" lon="2.24015">
        <ele>20.2</ele>
        <time>2022-03-11T13:27:52Z</time>
      </trkpt>
      <trkpt lat="49.92587" lon="2.24015">
        <ele>20.2</ele>
        <time>2022-03-11T13:27:53Z</time>
      </trkpt>
      <trkpt lat="49.92587" lon="2.24015">
        <ele>20.3</ele>
        <time>2022-03-11T13:27:54Z</time>
      </trkpt>
      <trkpt lat="49.92587" lon="2.24015">
        <ele>20.3</ele>
        <time>2022-03-11T13:27:55Z</time>
      </trkpt>
      <trkpt lat="49.92587" lon="2.24015">
        <ele>20.3</ele>
        <time>2022-03-11T13:27:56Z</time>
      </trkpt>
      <trkpt lat="49.92588" lon="2.24015">
        <ele>20.3</ele>
        <time>2022-03-11T13:27:57Z</time>
      </trkpt>
      <trkpt lat="49.92588" lon="2.24015">
        <ele>20.3</ele>
        <time>2022-03-11T13:27:58Z</time>
      </trkpt>
      <trkpt lat="49.92588" lon="2.24015">
        <ele>20.3</ele>
        <time>2022-03-11T13:27:59Z</time>
      </trkpt>
      <trkpt lat="49.92588" lon="2.24015">
        <ele>20.3</ele>
        <time>2022-03-11T13:28:00Z</time>
      </trkpt>
      <trkpt lat="49.92588" lon="2.24015">
        <ele>20.3</ele>
        <time>2022-03-11T13:28:01Z</time>
      </trkpt>
      <trkpt lat="49.92588" lon="2.24015">
        <ele>20.3</ele>
        <time>2022-03-11T13:28:02Z</time>
      </trkpt>
      <trkpt lat="49.92588" lon="2.24015">
        <ele>20.3</ele>
        <time>2022-03-11T13:28:03Z</time>
      </trkpt>
      <trkpt lat="49.92588" lon="2.24015">
        <ele>20.3</ele>
        <time>2022-03-11T13:28:04Z</time>
      </trkpt>
      <trkpt lat="49.92588" lon="2.24015">
        <ele>20.3</ele>
        <time>2022-03-11T13:28:05Z</time>
      </trkpt>
      <trkpt lat="49.92589" lon="2.24015">
        <ele>20.3</ele>
        <time>2022-03-11T13:28:06Z</time>
      </trkpt>
      <trkpt lat="49.92589" lon="2.24015">
        <ele>20.3</ele>
        <time>2022-03-11T13:28:07Z</time>
      </trkpt>
      <trkpt lat="49.92589" lon="2.24015">
        <ele>20.3</ele>
        <time>2022-03-11T13:28:08Z</time>
      </trkpt>
      <trkpt lat="49.9259" lon="2.24014">
        <ele>20.3</ele>
        <time>2022-03-11T13:28:09Z</time>
      </trkpt>
      <trkpt lat="49.9259" lon="2.24014">
        <ele>20.3</ele>
        <time>2022-03-11T13:28:10Z</time>
      </trkpt>
      <trkpt lat="49.92589" lon="2.24012">
        <ele>20.3</ele>
        <time>2022-03-11T13:28:11Z</time>
      </trkpt>
      <trkpt lat="49.9259" lon="2.24012">
        <ele>20.3</ele>
        <time>2022-03-11T13:28:12Z</time>
      </trkpt>
      <trkpt lat="49.92589" lon="2.24011">
        <ele>20.4</ele>
        <time>2022-03-11T13:28:13Z</time>
      </trkpt>
      <trkpt lat="49.92588" lon="2.2401">
        <ele>20.4</ele>
        <time>2022-03-11T13:28:14Z</time>
      </trkpt>
      <trkpt lat="49.92588" lon="2.24011">
        <ele>20.4</ele>
        <time>2022-03-11T13:28:15Z</time>
      </trkpt>
      <trkpt lat="49.92588" lon="2.24011">
        <ele>20.4</ele>
        <time>2022-03-11T13:28:16Z</time>
      </trkpt>
      <trkpt lat="49.92587" lon="2.24011">
        <ele>20.4</ele>
        <time>2022-03-11T13:28:17Z</time>
      </trkpt>
      <trkpt lat="49.92587" lon="2.2401">
        <ele>20.4</ele>
        <time>2022-03-11T13:28:18Z</time>
      </trkpt>
      <trkpt lat="49.92587" lon="2.2401">
        <ele>20.4</ele>
        <time>2022-03-11T13:28:19Z</time>
      </trkpt>
      <trkpt lat="49.92587" lon="2.24009">
        <ele>20.4</ele>
        <time>2022-03-11T13:28:20Z</time>
      </trkpt>
      <trkpt lat="49.92587" lon="2.24008">
        <ele>20.4</ele>
        <time>2022-03-11T13:28:21Z</time>
      </trkpt>
      <trkpt lat="49.92587" lon="2.24008">
        <ele>20.4</ele>
        <time>2022-03-11T13:28:23Z</time>
      </trkpt>
      <trkpt lat="49.92587" lon="2.24008">
        <ele>20.4</ele>
        <time>2022-03-11T13:28:24Z</time>
      </trkpt>
      <trkpt lat="49.92587" lon="2.24007">
        <ele>20.4</ele>
        <time>2022-03-11T13:28:25Z</time>
      </trkpt>
      <trkpt lat="49.92587" lon="2.24007">
        <ele>20.4</ele>
        <time>2022-03-11T13:28:26Z</time>
      </trkpt>
      <trkpt lat="49.92587" lon="2.24007">
        <ele>20.4</ele>
        <time>2022-03-11T13:28:27Z</time>
      </trkpt>
      <trkpt lat="49.92587" lon="2.24007">
        <ele>20.4</ele>
        <time>2022-03-11T13:28:28Z</time>
      </trkpt>
      <trkpt lat="49.92587" lon="2.24007">
        <ele>20.4</ele>
        <time>2022-03-11T13:28:29Z</time>
      </trkpt>
      <trkpt lat="49.92587" lon="2.24007">
        <ele>20.4</ele>
        <time>2022-03-11T13:28:30Z</time>
      </trkpt>
      <trkpt lat="49.92587" lon="2.24006">
        <ele>20.4</ele>
        <time>2022-03-11T13:28:31Z</time>
      </trkpt>
      <trkpt lat="49.92587" lon="2.24006">
        <ele>20.4</ele>
        <time>2022-03-11T13:28:32Z</time>
      </trkpt>
      <trkpt lat="49.92587" lon="2.24006">
        <ele>20.5</ele>
        <time>2022-03-11T13:28:33Z</time>
      </trkpt>
      <trkpt lat="49.92587" lon="2.24006">
        <ele>20.5</ele>
        <time>2022-03-11T13:28:34Z</time>
      </trkpt>
      <trkpt lat="49.92587" lon="2.24006">
        <ele>20.5</ele>
        <time>2022-03-11T13:28:35Z</time>
      </trkpt>
      <trkpt lat="49.92587" lon="2.24006">
        <ele>20.5</ele>
        <time>2022-03-11T13:28:36Z</time>
      </trkpt>
      <trkpt lat="49.92587" lon="2.24006">
        <ele>20.5</ele>
        <time>2022-03-11T13:28:37Z</time>
      </trkpt>
      <trkpt lat="49.92587" lon="2.24006">
        <ele>20.5</ele>
        <time>2022-03-11T13:28:38Z</time>
      </trkpt>
      <trkpt lat="49.92587" lon="2.24006">
        <ele>20.5</ele>
        <time>2022-03-11T13:28:39Z</time>
      </trkpt>
      <trkpt lat="49.92587" lon="2.24006">
        <ele>20.5</ele>
        <time>2022-03-11T13:28:40Z</time>
      </trkpt>
      <trkpt lat="49.92587" lon="2.24006">
        <ele>20.5</ele>
        <time>2022-03-11T13:28:41Z</time>
      </trkpt>
      <trkpt lat="49.92587" lon="2.24005">
        <ele>20.5</ele>
        <time>2022-03-11T13:28:42Z</time>
      </trkpt>
      <trkpt lat="49.92586" lon="2.24003">
        <ele>20.5</ele>
        <time>2022-03-11T13:28:43Z</time>
      </trkpt>
      <trkpt lat="49.92586" lon="2.24002">
        <ele>20.5</ele>
        <time>2022-03-11T13:28:44Z</time>
      </trkpt>
      <trkpt lat="49.92586" lon="2.24003">
        <ele>20.5</ele>
        <time>2022-03-11T13:28:45Z</time>
      </trkpt>
      <trkpt lat="49.92585" lon="2.24003">
        <ele>20.5</ele>
        <time>2022-03-11T13:28:46Z</time>
      </trkpt>
      <trkpt lat="49.92585" lon="2.24004">
        <ele>20.5</ele>
        <time>2022-03-11T13:28:47Z</time>
      </trkpt>
      <trkpt lat="49.92585" lon="2.24004">
        <ele>20.5</ele>
        <time>2022-03-11T13:28:48Z</time>
      </trkpt>
      <trkpt lat="49.92586" lon="2.24004">
        <ele>20.5</ele>
        <time>2022-03-11T13:28:49Z</time>
      </trkpt>
      <trkpt lat="49.92586" lon="2.24004">
        <ele>20.5</ele>
        <time>2022-03-11T13:28:50Z</time>
      </trkpt>
      <trkpt lat="49.92586" lon="2.24004">
        <ele>20.5</ele>
        <time>2022-03-11T13:28:51Z</time>
      </trkpt>
      <trkpt lat="49.92586" lon="2.24004">
        <ele>20.5</ele>
        <time>2022-03-11T13:28:52Z</time>
      </trkpt>
      <trkpt lat="49.92586" lon="2.24004">
        <ele>20.5</ele>
        <time>2022-03-11T13:28:53Z</time>
      </trkpt>
      <trkpt lat="49.92586" lon="2.24004">
        <ele>20.5</ele>
        <time>2022-03-11T13:28:54Z</time>
      </trkpt>
      <trkpt lat="49.92586" lon="2.24004">
        <ele>20.5</ele>
        <time>2022-03-11T13:28:55Z</time>
      </trkpt>
      <trkpt lat="49.92586" lon="2.24005">
        <ele>20.5</ele>
        <time>2022-03-11T13:28:56Z</time>
      </trkpt>
      <trkpt lat="49.92586" lon="2.24005">
        <ele>20.5</ele>
        <time>2022-03-11T13:28:57Z</time>
      </trkpt>
      <trkpt lat="49.92586" lon="2.24005">
        <ele>20.5</ele>
        <time>2022-03-11T13:28:58Z</time>
      </trkpt>
      <trkpt lat="49.92586" lon="2.24005">
        <ele>20.5</ele>
        <time>2022-03-11T13:28:59Z</time>
      </trkpt>
      <trkpt lat="49.92586" lon="2.24005">
        <ele>20.5</ele>
        <time>2022-03-11T13:29:00Z</time>
      </trkpt>
      <trkpt lat="49.92586" lon="2.24005">
        <ele>20.5</ele>
        <time>2022-03-11T13:29:01Z</time>
      </trkpt>
      <trkpt lat="49.92586" lon="2.24005">
        <ele>20.5</ele>
        <time>2022-03-11T13:29:02Z</time>
      </trkpt>
      <trkpt lat="49.92586" lon="2.24005">
        <ele>20.5</ele>
        <time>2022-03-11T13:29:03Z</time>
      </trkpt>
      <trkpt lat="49.92585" lon="2.24006">
        <ele>20.5</ele>
        <time>2022-03-11T13:29:04Z</time>
      </trkpt>
      <trkpt lat="49.92585" lon="2.24006">
        <ele>20.5</ele>
        <time>2022-03-11T13:29:05Z</time>
      </trkpt>
      <trkpt lat="49.92585" lon="2.24007">
        <ele>20.5</ele>
        <time>2022-03-11T13:29:06Z</time>
      </trkpt>
      <trkpt lat="49.92586" lon="2.24007">
        <ele>20.5</ele>
        <time>2022-03-11T13:29:07Z</time>
      </trkpt>
      <trkpt lat="49.92586" lon="2.24007">
        <ele>20.5</ele>
        <time>2022-03-11T13:29:08Z</time>
      </trkpt>
      <trkpt lat="49.92586" lon="2.24006">
        <ele>20.5</ele>
        <time>2022-03-11T13:29:09Z</time>
      </trkpt>
      <trkpt lat="49.92586" lon="2.24005">
        <ele>20.5</ele>
        <time>2022-03-11T13:29:10Z</time>
      </trkpt>
      <trkpt lat="49.92586" lon="2.24004">
        <ele>20.5</ele>
        <time>2022-03-11T13:29:11Z</time>
      </trkpt>
      <trkpt lat="49.92587" lon="2.24003">
        <ele>20.5</ele>
        <time>2022-03-11T13:29:12Z</time>
      </trkpt>
      <trkpt lat="49.92587" lon="2.24002">
        <ele>20.4</ele>
        <time>2022-03-11T13:29:13Z</time>
      </trkpt>
      <trkpt lat="49.92587" lon="2.24001">
        <ele>20.4</ele>
        <time>2022-03-11T13:29:14Z</time>
      </trkpt>
      <trkpt lat="49.92587" lon="2.24">
        <ele>20.4</ele>
        <time>2022-03-11T13:29:15Z</time>
      </trkpt>
      <trkpt lat="49.92586" lon="2.23998">
        <ele>20.4</ele>
        <time>2022-03-11T13:29:16Z</time>
      </trkpt>
      <trkpt lat="49.92586" lon="2.23996">
        <ele>20.3</ele>
        <time>2022-03-11T13:29:17Z</time>
      </trkpt>
      <trkpt lat="49.92586" lon="2.23994">
        <ele>20.3</ele>
        <time>2022-03-11T13:29:18Z</time>
      </trkpt>
      <trkpt lat="49.92585" lon="2.2399">
        <ele>20.3</ele>
        <time>2022-03-11T13:29:19Z</time>
      </trkpt>
      <trkpt lat="49.92584" lon="2.23988">
        <ele>20.3</ele>
        <time>2022-03-11T13:29:20Z</time>
      </trkpt>
      <trkpt lat="49.92584" lon="2.23986">
        <ele>20.2</ele>
        <time>2022-03-11T13:29:21Z</time>
      </trkpt>
      <trkpt lat="49.92584" lon="2.23984">
        <ele>20.2</ele>
        <time>2022-03-11T13:29:22Z</time>
      </trkpt>
      <trkpt lat="49.92584" lon="2.23982">
        <ele>20.2</ele>
        <time>2022-03-11T13:29:24Z</time>
      </trkpt>
      <trkpt lat="49.92583" lon="2.2398">
        <ele>20.1</ele>
        <time>2022-03-11T13:29:25Z</time>
      </trkpt>
      <trkpt lat="49.92583" lon="2.23977">
        <ele>20.1</ele>
        <time>2022-03-11T13:29:26Z</time>
      </trkpt>
      <trkpt lat="49.92583" lon="2.23975">
        <ele>20</ele>
        <time>2022-03-11T13:29:27Z</time>
      </trkpt>
      <trkpt lat="49.92582" lon="2.23973">
        <ele>19.9</ele>
        <time>2022-03-11T13:29:28Z</time>
      </trkpt>
      <trkpt lat="49.92581" lon="2.23971">
        <ele>19.9</ele>
        <time>2022-03-11T13:29:29Z</time>
      </trkpt>
      <trkpt lat="49.92581" lon="2.23969">
        <ele>19.9</ele>
        <time>2022-03-11T13:29:31Z</time>
      </trkpt>
      <trkpt lat="49.9258" lon="2.23968">
        <ele>19.8</ele>
        <time>2022-03-11T13:29:32Z</time>
      </trkpt>
      <trkpt lat="49.92579" lon="2.23969">
        <ele>19.8</ele>
        <time>2022-03-11T13:29:33Z</time>
      </trkpt>
      <trkpt lat="49.92579" lon="2.23967">
        <ele>19.8</ele>
        <time>2022-03-11T13:29:34Z</time>
      </trkpt>
      <trkpt lat="49.92579" lon="2.23965">
        <ele>19.8</ele>
        <time>2022-03-11T13:29:35Z</time>
      </trkpt>
      <trkpt lat="49.92579" lon="2.23963">
        <ele>19.7</ele>
        <time>2022-03-11T13:29:37Z</time>
      </trkpt>
      <trkpt lat="49.92579" lon="2.23962">
        <ele>19.7</ele>
        <time>2022-03-11T13:29:38Z</time>
      </trkpt>
      <trkpt lat="49.92579" lon="2.2396">
        <ele>19.7</ele>
        <time>2022-03-11T13:29:39Z</time>
      </trkpt>
      <trkpt lat="49.92579" lon="2.23958">
        <ele>19.7</ele>
        <time>2022-03-11T13:29:40Z</time>
      </trkpt>
      <trkpt lat="49.92579" lon="2.23956">
        <ele>19.6</ele>
        <time>2022-03-11T13:29:41Z</time>
      </trkpt>
      <trkpt lat="49.92579" lon="2.23955">
        <ele>19.6</ele>
        <time>2022-03-11T13:29:42Z</time>
      </trkpt>
      <trkpt lat="49.92578" lon="2.23954">
        <ele>19.5</ele>
        <time>2022-03-11T13:29:43Z</time>
      </trkpt>
      <trkpt lat="49.92578" lon="2.23953">
        <ele>19.5</ele>
        <time>2022-03-11T13:29:45Z</time>
      </trkpt>
      <trkpt lat="49.92578" lon="2.23951">
        <ele>19.5</ele>
        <time>2022-03-11T13:29:46Z</time>
      </trkpt>
      <trkpt lat="49.92579" lon="2.23948">
        <ele>19.5</ele>
        <time>2022-03-11T13:29:47Z</time>
      </trkpt>
      <trkpt lat="49.92579" lon="2.23947">
        <ele>19.4</ele>
        <time>2022-03-11T13:29:48Z</time>
      </trkpt>
      <trkpt lat="49.92579" lon="2.23945">
        <ele>19.4</ele>
        <time>2022-03-11T13:29:49Z</time>
      </trkpt>
      <trkpt lat="49.92579" lon="2.23944">
        <ele>19.4</ele>
        <time>2022-03-11T13:29:50Z</time>
      </trkpt>
      <trkpt lat="49.92579" lon="2.23942">
        <ele>19.4</ele>
        <time>2022-03-11T13:29:52Z</time>
      </trkpt>
      <trkpt lat="49.92579" lon="2.2394">
        <ele>19.4</ele>
        <time>2022-03-11T13:29:53Z</time>
      </trkpt>
      <trkpt lat="49.92579" lon="2.2394">
        <ele>19.4</ele>
        <time>2022-03-11T13:29:54Z</time>
      </trkpt>
      <trkpt lat="49.92579" lon="2.2394">
        <ele>19.3</ele>
        <time>2022-03-11T13:29:55Z</time>
      </trkpt>
      <trkpt lat="49.92579" lon="2.23938">
        <ele>19.3</ele>
        <time>2022-03-11T13:29:56Z</time>
      </trkpt>
      <trkpt lat="49.92579" lon="2.23936">
        <ele>19.3</ele>
        <time>2022-03-11T13:29:57Z</time>
      </trkpt>
      <trkpt lat="49.92579" lon="2.23934">
        <ele>19.3</ele>
        <time>2022-03-11T13:29:59Z</time>
      </trkpt>
      <trkpt lat="49.92579" lon="2.23932">
        <ele>19.3</ele>
        <time>2022-03-11T13:30:00Z</time>
      </trkpt>
      <trkpt lat="49.92579" lon="2.23931">
        <ele>19.3</ele>
        <time>2022-03-11T13:30:01Z</time>
      </trkpt>
      <trkpt lat="49.9258" lon="2.2393">
        <ele>19.3</ele>
        <time>2022-03-11T13:30:02Z</time>
      </trkpt>
      <trkpt lat="49.9258" lon="2.23926">
        <ele>19.2</ele>
        <time>2022-03-11T13:30:03Z</time>
      </trkpt>
      <trkpt lat="49.92581" lon="2.23925">
        <ele>19.2</ele>
        <time>2022-03-11T13:30:04Z</time>
      </trkpt>
      <trkpt lat="49.92581" lon="2.23923">
        <ele>19.2</ele>
        <time>2022-03-11T13:30:05Z</time>
      </trkpt>
      <trkpt lat="49.92581" lon="2.23921">
        <ele>19.2</ele>
        <time>2022-03-11T13:30:07Z</time>
      </trkpt>
      <trkpt lat="49.92581" lon="2.23918">
        <ele>19.2</ele>
        <time>2022-03-11T13:30:08Z</time>
      </trkpt>
      <trkpt lat="49.92581" lon="2.23915">
        <ele>19.1</ele>
        <time>2022-03-11T13:30:09Z</time>
      </trkpt>
      <trkpt lat="49.92582" lon="2.23913">
        <ele>19.1</ele>
        <time>2022-03-11T13:30:10Z</time>
      </trkpt>
      <trkpt lat="49.92582" lon="2.23911">
        <ele>19</ele>
        <time>2022-03-11T13:30:11Z</time>
      </trkpt>
      <trkpt lat="49.92582" lon="2.23908">
        <ele>19</ele>
        <time>2022-03-11T13:30:13Z</time>
      </trkpt>
      <trkpt lat="49.92582" lon="2.23906">
        <ele>19</ele>
        <time>2022-03-11T13:30:14Z</time>
      </trkpt>
      <trkpt lat="49.92582" lon="2.23904">
        <ele>19</ele>
        <time>2022-03-11T13:30:15Z</time>
      </trkpt>
      <trkpt lat="49.92582" lon="2.23902">
        <ele>19</ele>
        <time>2022-03-11T13:30:16Z</time>
      </trkpt>
      <trkpt lat="49.92582" lon="2.23899">
        <ele>19</ele>
        <time>2022-03-11T13:30:17Z</time>
      </trkpt>
      <trkpt lat="49.92582" lon="2.23897">
        <ele>19</ele>
        <time>2022-03-11T13:30:18Z</time>
      </trkpt>
      <trkpt lat="49.92582" lon="2.23896">
        <ele>19</ele>
        <time>2022-03-11T13:30:19Z</time>
      </trkpt>
      <trkpt lat="49.92583" lon="2.23894">
        <ele>19</ele>
        <time>2022-03-11T13:30:21Z</time>
      </trkpt>
      <trkpt lat="49.92583" lon="2.23893">
        <ele>19</ele>
        <time>2022-03-11T13:30:22Z</time>
      </trkpt>
      <trkpt lat="49.92583" lon="2.23891">
        <ele>19</ele>
        <time>2022-03-11T13:30:23Z</time>
      </trkpt>
      <trkpt lat="49.92583" lon="2.23889">
        <ele>19</ele>
        <time>2022-03-11T13:30:24Z</time>
      </trkpt>
      <trkpt lat="49.92584" lon="2.23887">
        <ele>19</ele>
        <time>2022-03-11T13:30:25Z</time>
      </trkpt>
      <trkpt lat="49.92584" lon="2.23885">
        <ele>19</ele>
        <time>2022-03-11T13:30:26Z</time>
      </trkpt>
      <trkpt lat="49.92585" lon="2.23882">
        <ele>19</ele>
        <time>2022-03-11T13:30:28Z</time>
      </trkpt>
      <trkpt lat="49.92585" lon="2.23881">
        <ele>19</ele>
        <time>2022-03-11T13:30:29Z</time>
      </trkpt>
      <trkpt lat="49.92585" lon="2.23879">
        <ele>19</ele>
        <time>2022-03-11T13:30:30Z</time>
      </trkpt>
      <trkpt lat="49.92585" lon="2.23877">
        <ele>19</ele>
        <time>2022-03-11T13:30:31Z</time>
      </trkpt>
      <trkpt lat="49.92585" lon="2.23875">
        <ele>19</ele>
        <time>2022-03-11T13:30:32Z</time>
      </trkpt>
      <trkpt lat="49.92585" lon="2.23873">
        <ele>19</ele>
        <time>2022-03-11T13:30:34Z</time>
      </trkpt>
      <trkpt lat="49.92585" lon="2.23871">
        <ele>19</ele>
        <time>2022-03-11T13:30:35Z</time>
      </trkpt>
      <trkpt lat="49.92585" lon="2.2387">
        <ele>19</ele>
        <time>2022-03-11T13:30:36Z</time>
      </trkpt>
      <trkpt lat="49.92585" lon="2.23868">
        <ele>19</ele>
        <time>2022-03-11T13:30:37Z</time>
      </trkpt>
      <trkpt lat="49.92584" lon="2.23866">
        <ele>19</ele>
        <time>2022-03-11T13:30:38Z</time>
      </trkpt>
      <trkpt lat="49.92584" lon="2.23864">
        <ele>19</ele>
        <time>2022-03-11T13:30:40Z</time>
      </trkpt>
      <trkpt lat="49.92585" lon="2.23861">
        <ele>19</ele>
        <time>2022-03-11T13:30:41Z</time>
      </trkpt>
      <trkpt lat="49.92585" lon="2.23859">
        <ele>19</ele>
        <time>2022-03-11T13:30:42Z</time>
      </trkpt>
      <trkpt lat="49.92585" lon="2.23857">
        <ele>19</ele>
        <time>2022-03-11T13:30:43Z</time>
      </trkpt>
      <trkpt lat="49.92585" lon="2.23856">
        <ele>19</ele>
        <time>2022-03-11T13:30:45Z</time>
      </trkpt>
      <trkpt lat="49.92585" lon="2.23854">
        <ele>19</ele>
        <time>2022-03-11T13:30:46Z</time>
      </trkpt>
      <trkpt lat="49.92585" lon="2.23852">
        <ele>19</ele>
        <time>2022-03-11T13:30:47Z</time>
      </trkpt>
      <trkpt lat="49.92585" lon="2.2385">
        <ele>19</ele>
        <time>2022-03-11T13:30:48Z</time>
      </trkpt>
      <trkpt lat="49.92585" lon="2.23848">
        <ele>19</ele>
        <time>2022-03-11T13:30:49Z</time>
      </trkpt>
      <trkpt lat="49.92586" lon="2.23846">
        <ele>19</ele>
        <time>2022-03-11T13:30:50Z</time>
      </trkpt>
      <trkpt lat="49.92587" lon="2.23845">
        <ele>19</ele>
        <time>2022-03-11T13:30:51Z</time>
      </trkpt>
      <trkpt lat="49.92588" lon="2.23844">
        <ele>19</ele>
        <time>2022-03-11T13:30:53Z</time>
      </trkpt>
      <trkpt lat="49.92589" lon="2.23842">
        <ele>18.9</ele>
        <time>2022-03-11T13:30:54Z</time>
      </trkpt>
      <trkpt lat="49.92589" lon="2.23841">
        <ele>18.9</ele>
        <time>2022-03-11T13:30:55Z</time>
      </trkpt>
      <trkpt lat="49.9259" lon="2.23839">
        <ele>18.9</ele>
        <time>2022-03-11T13:30:56Z</time>
      </trkpt>
      <trkpt lat="49.9259" lon="2.23838">
        <ele>18.9</ele>
        <time>2022-03-11T13:30:57Z</time>
      </trkpt>
      <trkpt lat="49.92591" lon="2.23837">
        <ele>18.9</ele>
        <time>2022-03-11T13:30:58Z</time>
      </trkpt>
      <trkpt lat="49.92591" lon="2.23836">
        <ele>18.9</ele>
        <time>2022-03-11T13:30:59Z</time>
      </trkpt>
      <trkpt lat="49.92591" lon="2.23835">
        <ele>18.9</ele>
        <time>2022-03-11T13:31:00Z</time>
      </trkpt>
      <trkpt lat="49.92592" lon="2.23836">
        <ele>18.9</ele>
        <time>2022-03-11T13:31:02Z</time>
      </trkpt>
      <trkpt lat="49.92592" lon="2.23835">
        <ele>18.9</ele>
        <time>2022-03-11T13:31:03Z</time>
      </trkpt>
      <trkpt lat="49.92593" lon="2.23833">
        <ele>18.9</ele>
        <time>2022-03-11T13:31:04Z</time>
      </trkpt>
      <trkpt lat="49.92593" lon="2.23831">
        <ele>18.9</ele>
        <time>2022-03-11T13:31:05Z</time>
      </trkpt>
      <trkpt lat="49.92593" lon="2.2383">
        <ele>18.9</ele>
        <time>2022-03-11T13:31:06Z</time>
      </trkpt>
      <trkpt lat="49.92593" lon="2.23829">
        <ele>18.9</ele>
        <time>2022-03-11T13:31:07Z</time>
      </trkpt>
      <trkpt lat="49.92594" lon="2.23827">
        <ele>18.9</ele>
        <time>2022-03-11T13:31:08Z</time>
      </trkpt>
      <trkpt lat="49.92594" lon="2.23826">
        <ele>18.9</ele>
        <time>2022-03-11T13:31:09Z</time>
      </trkpt>
      <trkpt lat="49.92594" lon="2.23826">
        <ele>18.9</ele>
        <time>2022-03-11T13:31:11Z</time>
      </trkpt>
      <trkpt lat="49.92594" lon="2.23824">
        <ele>18.9</ele>
        <time>2022-03-11T13:31:12Z</time>
      </trkpt>
      <trkpt lat="49.92594" lon="2.23822">
        <ele>18.9</ele>
        <time>2022-03-11T13:31:13Z</time>
      </trkpt>
      <trkpt lat="49.92595" lon="2.23819">
        <ele>18.9</ele>
        <time>2022-03-11T13:31:14Z</time>
      </trkpt>
      <trkpt lat="49.92595" lon="2.23818">
        <ele>18.8</ele>
        <time>2022-03-11T13:31:15Z</time>
      </trkpt>
      <trkpt lat="49.92595" lon="2.23816">
        <ele>18.8</ele>
        <time>2022-03-11T13:31:16Z</time>
      </trkpt>
      <trkpt lat="49.92596" lon="2.23814">
        <ele>18.8</ele>
        <time>2022-03-11T13:31:17Z</time>
      </trkpt>
      <trkpt lat="49.92596" lon="2.23812">
        <ele>18.8</ele>
        <time>2022-03-11T13:31:19Z</time>
      </trkpt>
      <trkpt lat="49.92596" lon="2.2381">
        <ele>18.8</ele>
        <time>2022-03-11T13:31:20Z</time>
      </trkpt>
      <trkpt lat="49.92597" lon="2.23807">
        <ele>18.8</ele>
        <time>2022-03-11T13:31:21Z</time>
      </trkpt>
      <trkpt lat="49.92598" lon="2.23805">
        <ele>18.8</ele>
        <time>2022-03-11T13:31:22Z</time>
      </trkpt>
      <trkpt lat="49.92598" lon="2.23803">
        <ele>18.8</ele>
        <time>2022-03-11T13:31:23Z</time>
      </trkpt>
      <trkpt lat="49.92598" lon="2.23799">
        <ele>18.7</ele>
        <time>2022-03-11T13:31:24Z</time>
      </trkpt>
      <trkpt lat="49.92598" lon="2.23797">
        <ele>18.7</ele>
        <time>2022-03-11T13:31:26Z</time>
      </trkpt>
      <trkpt lat="49.92598" lon="2.23794">
        <ele>18.7</ele>
        <time>2022-03-11T13:31:27Z</time>
      </trkpt>
      <trkpt lat="49.92598" lon="2.23792">
        <ele>18.7</ele>
        <time>2022-03-11T13:31:28Z</time>
      </trkpt>
      <trkpt lat="49.92599" lon="2.23789">
        <ele>18.7</ele>
        <time>2022-03-11T13:31:29Z</time>
      </trkpt>
      <trkpt lat="49.926" lon="2.23788">
        <ele>18.7</ele>
        <time>2022-03-11T13:31:30Z</time>
      </trkpt>
      <trkpt lat="49.926" lon="2.23786">
        <ele>18.7</ele>
        <time>2022-03-11T13:31:31Z</time>
      </trkpt>
      <trkpt lat="49.926" lon="2.23784">
        <ele>18.7</ele>
        <time>2022-03-11T13:31:32Z</time>
      </trkpt>
      <trkpt lat="49.92601" lon="2.23783">
        <ele>18.7</ele>
        <time>2022-03-11T13:31:33Z</time>
      </trkpt>
      <trkpt lat="49.92601" lon="2.2378">
        <ele>18.7</ele>
        <time>2022-03-11T13:31:35Z</time>
      </trkpt>
      <trkpt lat="49.92602" lon="2.23778">
        <ele>18.6</ele>
        <time>2022-03-11T13:31:36Z</time>
      </trkpt>
      <trkpt lat="49.92602" lon="2.23776">
        <ele>18.6</ele>
        <time>2022-03-11T13:31:37Z</time>
      </trkpt>
      <trkpt lat="49.92602" lon="2.23772">
        <ele>18.6</ele>
        <time>2022-03-11T13:31:38Z</time>
      </trkpt>
      <trkpt lat="49.92602" lon="2.2377">
        <ele>18.6</ele>
        <time>2022-03-11T13:31:39Z</time>
      </trkpt>
      <trkpt lat="49.92601" lon="2.23766">
        <ele>18.6</ele>
        <time>2022-03-11T13:31:40Z</time>
      </trkpt>
      <trkpt lat="49.926" lon="2.23764">
        <ele>18.6</ele>
        <time>2022-03-11T13:31:41Z</time>
      </trkpt>
      <trkpt lat="49.92599" lon="2.23761">
        <ele>18.6</ele>
        <time>2022-03-11T13:31:43Z</time>
      </trkpt>
      <trkpt lat="49.92599" lon="2.23758">
        <ele>18.6</ele>
        <time>2022-03-11T13:31:44Z</time>
      </trkpt>
      <trkpt lat="49.92599" lon="2.23756">
        <ele>18.6</ele>
        <time>2022-03-11T13:31:45Z</time>
      </trkpt>
      <trkpt lat="49.92599" lon="2.23753">
        <ele>18.6</ele>
        <time>2022-03-11T13:31:46Z</time>
      </trkpt>
      <trkpt lat="49.92599" lon="2.23751">
        <ele>18.7</ele>
        <time>2022-03-11T13:31:47Z</time>
      </trkpt>
      <trkpt lat="49.926" lon="2.23749">
        <ele>18.7</ele>
        <time>2022-03-11T13:31:48Z</time>
      </trkpt>
      <trkpt lat="49.926" lon="2.23747">
        <ele>18.7</ele>
        <time>2022-03-11T13:31:49Z</time>
      </trkpt>
      <trkpt lat="49.926" lon="2.23746">
        <ele>18.7</ele>
        <time>2022-03-11T13:31:51Z</time>
      </trkpt>
      <trkpt lat="49.926" lon="2.23745">
        <ele>18.7</ele>
        <time>2022-03-11T13:31:52Z</time>
      </trkpt>
      <trkpt lat="49.926" lon="2.23744">
        <ele>18.7</ele>
        <time>2022-03-11T13:31:53Z</time>
      </trkpt>
      <trkpt lat="49.926" lon="2.23742">
        <ele>18.7</ele>
        <time>2022-03-11T13:31:54Z</time>
      </trkpt>
      <trkpt lat="49.92601" lon="2.2374">
        <ele>18.7</ele>
        <time>2022-03-11T13:31:55Z</time>
      </trkpt>
      <trkpt lat="49.92601" lon="2.23738">
        <ele>18.7</ele>
        <time>2022-03-11T13:31:56Z</time>
      </trkpt>
      <trkpt lat="49.92602" lon="2.23735">
        <ele>18.7</ele>
        <time>2022-03-11T13:31:57Z</time>
      </trkpt>
      <trkpt lat="49.92602" lon="2.23733">
        <ele>18.7</ele>
        <time>2022-03-11T13:31:58Z</time>
      </trkpt>
      <trkpt lat="49.92604" lon="2.23729">
        <ele>18.7</ele>
        <time>2022-03-11T13:31:59Z</time>
      </trkpt>
      <trkpt lat="49.92604" lon="2.23728">
        <ele>18.7</ele>
        <time>2022-03-11T13:32:00Z</time>
      </trkpt>
      <trkpt lat="49.92605" lon="2.23726">
        <ele>18.7</ele>
        <time>2022-03-11T13:32:01Z</time>
      </trkpt>
      <trkpt lat="49.92605" lon="2.23725">
        <ele>18.8</ele>
        <time>2022-03-11T13:32:03Z</time>
      </trkpt>
      <trkpt lat="49.92605" lon="2.23723">
        <ele>18.8</ele>
        <time>2022-03-11T13:32:04Z</time>
      </trkpt>
      <trkpt lat="49.92606" lon="2.23723">
        <ele>18.8</ele>
        <time>2022-03-11T13:32:05Z</time>
      </trkpt>
      <trkpt lat="49.92606" lon="2.23722">
        <ele>18.8</ele>
        <time>2022-03-11T13:32:06Z</time>
      </trkpt>
      <trkpt lat="49.92607" lon="2.23721">
        <ele>18.8</ele>
        <time>2022-03-11T13:32:07Z</time>
      </trkpt>
      <trkpt lat="49.92607" lon="2.23719">
        <ele>18.8</ele>
        <time>2022-03-11T13:32:08Z</time>
      </trkpt>
      <trkpt lat="49.92608" lon="2.23717">
        <ele>18.8</ele>
        <time>2022-03-11T13:32:09Z</time>
      </trkpt>
      <trkpt lat="49.92609" lon="2.23716">
        <ele>18.8</ele>
        <time>2022-03-11T13:32:10Z</time>
      </trkpt>
      <trkpt lat="49.92609" lon="2.23714">
        <ele>18.8</ele>
        <time>2022-03-11T13:32:12Z</time>
      </trkpt>
      <trkpt lat="49.92609" lon="2.23712">
        <ele>18.8</ele>
        <time>2022-03-11T13:32:13Z</time>
      </trkpt>
      <trkpt lat="49.92609" lon="2.2371">
        <ele>18.8</ele>
        <time>2022-03-11T13:32:14Z</time>
      </trkpt>
      <trkpt lat="49.9261" lon="2.23707">
        <ele>18.8</ele>
        <time>2022-03-11T13:32:15Z</time>
      </trkpt>
      <trkpt lat="49.9261" lon="2.23705">
        <ele>18.8</ele>
        <time>2022-03-11T13:32:16Z</time>
      </trkpt>
      <trkpt lat="49.9261" lon="2.23703">
        <ele>18.8</ele>
        <time>2022-03-11T13:32:17Z</time>
      </trkpt>
      <trkpt lat="49.92611" lon="2.237">
        <ele>18.8</ele>
        <time>2022-03-11T13:32:18Z</time>
      </trkpt>
      <trkpt lat="49.92612" lon="2.23698">
        <ele>18.8</ele>
        <time>2022-03-11T13:32:20Z</time>
      </trkpt>
      <trkpt lat="49.92612" lon="2.23698">
        <ele>18.8</ele>
        <time>2022-03-11T13:32:21Z</time>
      </trkpt>
      <trkpt lat="49.92612" lon="2.23697">
        <ele>18.8</ele>
        <time>2022-03-11T13:32:22Z</time>
      </trkpt>
      <trkpt lat="49.92612" lon="2.23695">
        <ele>18.8</ele>
        <time>2022-03-11T13:32:23Z</time>
      </trkpt>
      <trkpt lat="49.92613" lon="2.23693">
        <ele>18.8</ele>
        <time>2022-03-11T13:32:24Z</time>
      </trkpt>
      <trkpt lat="49.92613" lon="2.23692">
        <ele>18.8</ele>
        <time>2022-03-11T13:32:25Z</time>
      </trkpt>
      <trkpt lat="49.92613" lon="2.23691">
        <ele>18.8</ele>
        <time>2022-03-11T13:32:26Z</time>
      </trkpt>
      <trkpt lat="49.92614" lon="2.23688">
        <ele>18.8</ele>
        <time>2022-03-11T13:32:27Z</time>
      </trkpt>
      <trkpt lat="49.92615" lon="2.23687">
        <ele>18.8</ele>
        <time>2022-03-11T13:32:29Z</time>
      </trkpt>
      <trkpt lat="49.92615" lon="2.23685">
        <ele>18.8</ele>
        <time>2022-03-11T13:32:30Z</time>
      </trkpt>
      <trkpt lat="49.92615" lon="2.23683">
        <ele>18.8</ele>
        <time>2022-03-11T13:32:31Z</time>
      </trkpt>
      <trkpt lat="49.92615" lon="2.23682">
        <ele>18.8</ele>
        <time>2022-03-11T13:32:32Z</time>
      </trkpt>
      <trkpt lat="49.92615" lon="2.23681">
        <ele>18.8</ele>
        <time>2022-03-11T13:32:33Z</time>
      </trkpt>
      <trkpt lat="49.92615" lon="2.2368">
        <ele>18.8</ele>
        <time>2022-03-11T13:32:34Z</time>
      </trkpt>
      <trkpt lat="49.92615" lon="2.23679">
        <ele>18.8</ele>
        <time>2022-03-11T13:32:35Z</time>
      </trkpt>
      <trkpt lat="49.92616" lon="2.23676">
        <ele>18.8</ele>
        <time>2022-03-11T13:32:37Z</time>
      </trkpt>
      <trkpt lat="49.92616" lon="2.23674">
        <ele>18.8</ele>
        <time>2022-03-11T13:32:38Z</time>
      </trkpt>
      <trkpt lat="49.92616" lon="2.23671">
        <ele>18.8</ele>
        <time>2022-03-11T13:32:39Z</time>
      </trkpt>
      <trkpt lat="49.92616" lon="2.23669">
        <ele>18.8</ele>
        <time>2022-03-11T13:32:40Z</time>
      </trkpt>
      <trkpt lat="49.92616" lon="2.23668">
        <ele>18.8</ele>
        <time>2022-03-11T13:32:41Z</time>
      </trkpt>
      <trkpt lat="49.92616" lon="2.23666">
        <ele>18.8</ele>
        <time>2022-03-11T13:32:42Z</time>
      </trkpt>
      <trkpt lat="49.92617" lon="2.23663">
        <ele>18.8</ele>
        <time>2022-03-11T13:32:43Z</time>
      </trkpt>
      <trkpt lat="49.92617" lon="2.23662">
        <ele>18.8</ele>
        <time>2022-03-11T13:32:45Z</time>
      </trkpt>
      <trkpt lat="49.92618" lon="2.2366">
        <ele>18.8</ele>
        <time>2022-03-11T13:32:46Z</time>
      </trkpt>
      <trkpt lat="49.92618" lon="2.23659">
        <ele>18.8</ele>
        <time>2022-03-11T13:32:47Z</time>
      </trkpt>
      <trkpt lat="49.92618" lon="2.23658">
        <ele>18.8</ele>
        <time>2022-03-11T13:32:48Z</time>
      </trkpt>
      <trkpt lat="49.92619" lon="2.23656">
        <ele>18.8</ele>
        <time>2022-03-11T13:32:49Z</time>
      </trkpt>
      <trkpt lat="49.92619" lon="2.23655">
        <ele>18.9</ele>
        <time>2022-03-11T13:32:50Z</time>
      </trkpt>
      <trkpt lat="49.9262" lon="2.23654">
        <ele>18.9</ele>
        <time>2022-03-11T13:32:51Z</time>
      </trkpt>
      <trkpt lat="49.9262" lon="2.23651">
        <ele>18.9</ele>
        <time>2022-03-11T13:32:53Z</time>
      </trkpt>
      <trkpt lat="49.92621" lon="2.23649">
        <ele>18.9</ele>
        <time>2022-03-11T13:32:54Z</time>
      </trkpt>
      <trkpt lat="49.92621" lon="2.23647">
        <ele>18.9</ele>
        <time>2022-03-11T13:32:55Z</time>
      </trkpt>
      <trkpt lat="49.92622" lon="2.23645">
        <ele>18.9</ele>
        <time>2022-03-11T13:32:56Z</time>
      </trkpt>
      <trkpt lat="49.92622" lon="2.23642">
        <ele>18.9</ele>
        <time>2022-03-11T13:32:57Z</time>
      </trkpt>
      <trkpt lat="49.92623" lon="2.2364">
        <ele>18.9</ele>
        <time>2022-03-11T13:32:58Z</time>
      </trkpt>
      <trkpt lat="49.92623" lon="2.23638">
        <ele>18.9</ele>
        <time>2022-03-11T13:32:59Z</time>
      </trkpt>
      <trkpt lat="49.92623" lon="2.23635">
        <ele>18.9</ele>
        <time>2022-03-11T13:33:01Z</time>
      </trkpt>
      <trkpt lat="49.92624" lon="2.23633">
        <ele>18.9</ele>
        <time>2022-03-11T13:33:02Z</time>
      </trkpt>
      <trkpt lat="49.92624" lon="2.23631">
        <ele>18.9</ele>
        <time>2022-03-11T13:33:03Z</time>
      </trkpt>
      <trkpt lat="49.92624" lon="2.23629">
        <ele>18.9</ele>
        <time>2022-03-11T13:33:05Z</time>
      </trkpt>
      <trkpt lat="49.92624" lon="2.23627">
        <ele>18.9</ele>
        <time>2022-03-11T13:33:06Z</time>
      </trkpt>
      <trkpt lat="49.92625" lon="2.23624">
        <ele>18.9</ele>
        <time>2022-03-11T13:33:07Z</time>
      </trkpt>
      <trkpt lat="49.92625" lon="2.23622">
        <ele>19</ele>
        <time>2022-03-11T13:33:08Z</time>
      </trkpt>
      <trkpt lat="49.92626" lon="2.2362">
        <ele>19</ele>
        <time>2022-03-11T13:33:09Z</time>
      </trkpt>
      <trkpt lat="49.92626" lon="2.23619">
        <ele>19</ele>
        <time>2022-03-11T13:33:10Z</time>
      </trkpt>
      <trkpt lat="49.92627" lon="2.23618">
        <ele>19</ele>
        <time>2022-03-11T13:33:11Z</time>
      </trkpt>
      <trkpt lat="49.92628" lon="2.23615">
        <ele>19</ele>
        <time>2022-03-11T13:33:12Z</time>
      </trkpt>
      <trkpt lat="49.92628" lon="2.23615">
        <ele>19</ele>
        <time>2022-03-11T13:33:14Z</time>
      </trkpt>
      <trkpt lat="49.92629" lon="2.23614">
        <ele>19</ele>
        <time>2022-03-11T13:33:15Z</time>
      </trkpt>
      <trkpt lat="49.92629" lon="2.23613">
        <ele>19.1</ele>
        <time>2022-03-11T13:33:16Z</time>
      </trkpt>
      <trkpt lat="49.9263" lon="2.2361">
        <ele>19.1</ele>
        <time>2022-03-11T13:33:17Z</time>
      </trkpt>
      <trkpt lat="49.92631" lon="2.23609">
        <ele>19.1</ele>
        <time>2022-03-11T13:33:18Z</time>
      </trkpt>
      <trkpt lat="49.92631" lon="2.23608">
        <ele>19.1</ele>
        <time>2022-03-11T13:33:19Z</time>
      </trkpt>
      <trkpt lat="49.92632" lon="2.23606">
        <ele>19.2</ele>
        <time>2022-03-11T13:33:21Z</time>
      </trkpt>
      <trkpt lat="49.92633" lon="2.23604">
        <ele>19.2</ele>
        <time>2022-03-11T13:33:22Z</time>
      </trkpt>
      <trkpt lat="49.92633" lon="2.23601">
        <ele>19.2</ele>
        <time>2022-03-11T13:33:23Z</time>
      </trkpt>
      <trkpt lat="49.92634" lon="2.236">
        <ele>19.3</ele>
        <time>2022-03-11T13:33:24Z</time>
      </trkpt>
      <trkpt lat="49.92634" lon="2.23598">
        <ele>19.3</ele>
        <time>2022-03-11T13:33:25Z</time>
      </trkpt>
      <trkpt lat="49.92634" lon="2.23597">
        <ele>19.3</ele>
        <time>2022-03-11T13:33:26Z</time>
      </trkpt>
      <trkpt lat="49.92634" lon="2.23596">
        <ele>19.3</ele>
        <time>2022-03-11T13:33:27Z</time>
      </trkpt>
      <trkpt lat="49.92634" lon="2.23596">
        <ele>19.3</ele>
        <time>2022-03-11T13:33:29Z</time>
      </trkpt>
      <trkpt lat="49.92634" lon="2.23594">
        <ele>19.4</ele>
        <time>2022-03-11T13:33:30Z</time>
      </trkpt>
      <trkpt lat="49.92635" lon="2.23591">
        <ele>19.4</ele>
        <time>2022-03-11T13:33:31Z</time>
      </trkpt>
      <trkpt lat="49.92635" lon="2.2359">
        <ele>19.4</ele>
        <time>2022-03-11T13:33:32Z</time>
      </trkpt>
      <trkpt lat="49.92635" lon="2.23588">
        <ele>19.5</ele>
        <time>2022-03-11T13:33:33Z</time>
      </trkpt>
      <trkpt lat="49.92635" lon="2.23587">
        <ele>19.5</ele>
        <time>2022-03-11T13:33:34Z</time>
      </trkpt>
      <trkpt lat="49.92635" lon="2.23585">
        <ele>19.5</ele>
        <time>2022-03-11T13:33:36Z</time>
      </trkpt>
      <trkpt lat="49.92635" lon="2.23584">
        <ele>19.5</ele>
        <time>2022-03-11T13:33:37Z</time>
      </trkpt>
      <trkpt lat="49.92635" lon="2.23582">
        <ele>19.6</ele>
        <time>2022-03-11T13:33:38Z</time>
      </trkpt>
      <trkpt lat="49.92636" lon="2.2358">
        <ele>19.6</ele>
        <time>2022-03-11T13:33:39Z</time>
      </trkpt>
      <trkpt lat="49.92636" lon="2.23578">
        <ele>19.6</ele>
        <time>2022-03-11T13:33:40Z</time>
      </trkpt>
      <trkpt lat="49.92637" lon="2.23576">
        <ele>19.7</ele>
        <time>2022-03-11T13:33:42Z</time>
      </trkpt>
      <trkpt lat="49.92637" lon="2.23574">
        <ele>19.7</ele>
        <time>2022-03-11T13:33:43Z</time>
      </trkpt>
      <trkpt lat="49.92638" lon="2.23572">
        <ele>19.7</ele>
        <time>2022-03-11T13:33:44Z</time>
      </trkpt>
      <trkpt lat="49.92639" lon="2.2357">
        <ele>19.8</ele>
        <time>2022-03-11T13:33:45Z</time>
      </trkpt>
      <trkpt lat="49.92639" lon="2.23568">
        <ele>19.8</ele>
        <time>2022-03-11T13:33:46Z</time>
      </trkpt>
      <trkpt lat="49.92639" lon="2.23566">
        <ele>19.8</ele>
        <time>2022-03-11T13:33:47Z</time>
      </trkpt>
      <trkpt lat="49.92639" lon="2.23565">
        <ele>19.9</ele>
        <time>2022-03-11T13:33:48Z</time>
      </trkpt>
      <trkpt lat="49.9264" lon="2.23563">
        <ele>19.9</ele>
        <time>2022-03-11T13:33:49Z</time>
      </trkpt>
      <trkpt lat="49.9264" lon="2.23561">
        <ele>19.9</ele>
        <time>2022-03-11T13:33:50Z</time>
      </trkpt>
      <trkpt lat="49.9264" lon="2.2356">
        <ele>19.9</ele>
        <time>2022-03-11T13:33:51Z</time>
      </trkpt>
      <trkpt lat="49.92641" lon="2.23558">
        <ele>20</ele>
        <time>2022-03-11T13:33:52Z</time>
      </trkpt>
      <trkpt lat="49.92641" lon="2.23557">
        <ele>20</ele>
        <time>2022-03-11T13:33:53Z</time>
      </trkpt>
      <trkpt lat="49.92642" lon="2.23555">
        <ele>20</ele>
        <time>2022-03-11T13:33:54Z</time>
      </trkpt>
      <trkpt lat="49.92642" lon="2.23553">
        <ele>20</ele>
        <time>2022-03-11T13:33:55Z</time>
      </trkpt>
      <trkpt lat="49.92642" lon="2.23552">
        <ele>20</ele>
        <time>2022-03-11T13:33:56Z</time>
      </trkpt>
      <trkpt lat="49.92643" lon="2.23551">
        <ele>20.1</ele>
        <time>2022-03-11T13:33:57Z</time>
      </trkpt>
      <trkpt lat="49.92643" lon="2.23548">
        <ele>20.1</ele>
        <time>2022-03-11T13:33:58Z</time>
      </trkpt>
      <trkpt lat="49.92643" lon="2.23547">
        <ele>20.1</ele>
        <time>2022-03-11T13:33:59Z</time>
      </trkpt>
      <trkpt lat="49.92643" lon="2.23546">
        <ele>20.1</ele>
        <time>2022-03-11T13:34:01Z</time>
      </trkpt>
      <trkpt lat="49.92643" lon="2.23544">
        <ele>20.1</ele>
        <time>2022-03-11T13:34:02Z</time>
      </trkpt>
      <trkpt lat="49.92643" lon="2.23543">
        <ele>20.1</ele>
        <time>2022-03-11T13:34:03Z</time>
      </trkpt>
      <trkpt lat="49.92644" lon="2.23541">
        <ele>20.2</ele>
        <time>2022-03-11T13:34:04Z</time>
      </trkpt>
      <trkpt lat="49.92644" lon="2.23538">
        <ele>20.2</ele>
        <time>2022-03-11T13:34:05Z</time>
      </trkpt>
      <trkpt lat="49.92645" lon="2.23536">
        <ele>20.2</ele>
        <time>2022-03-11T13:34:06Z</time>
      </trkpt>
      <trkpt lat="49.92645" lon="2.23534">
        <ele>20.2</ele>
        <time>2022-03-11T13:34:07Z</time>
      </trkpt>
      <trkpt lat="49.92645" lon="2.23531">
        <ele>20.2</ele>
        <time>2022-03-11T13:34:09Z</time>
      </trkpt>
      <trkpt lat="49.92646" lon="2.23529">
        <ele>20.3</ele>
        <time>2022-03-11T13:34:10Z</time>
      </trkpt>
      <trkpt lat="49.92646" lon="2.23526">
        <ele>20.3</ele>
        <time>2022-03-11T13:34:11Z</time>
      </trkpt>
      <trkpt lat="49.92647" lon="2.23524">
        <ele>20.3</ele>
        <time>2022-03-11T13:34:12Z</time>
      </trkpt>
      <trkpt lat="49.92648" lon="2.23522">
        <ele>20.3</ele>
        <time>2022-03-11T13:34:13Z</time>
      </trkpt>
      <trkpt lat="49.92649" lon="2.23518">
        <ele>20.3</ele>
        <time>2022-03-11T13:34:14Z</time>
      </trkpt>
      <trkpt lat="49.92649" lon="2.23517">
        <ele>20.3</ele>
        <time>2022-03-11T13:34:16Z</time>
      </trkpt>
      <trkpt lat="49.9265" lon="2.23515">
        <ele>20.3</ele>
        <time>2022-03-11T13:34:17Z</time>
      </trkpt>
      <trkpt lat="49.9265" lon="2.23514">
        <ele>20.3</ele>
        <time>2022-03-11T13:34:18Z</time>
      </trkpt>
      <trkpt lat="49.92651" lon="2.23513">
        <ele>20.3</ele>
        <time>2022-03-11T13:34:19Z</time>
      </trkpt>
      <trkpt lat="49.92651" lon="2.23511">
        <ele>20.3</ele>
        <time>2022-03-11T13:34:20Z</time>
      </trkpt>
      <trkpt lat="49.92652" lon="2.23508">
        <ele>20.3</ele>
        <time>2022-03-11T13:34:21Z</time>
      </trkpt>
      <trkpt lat="49.92652" lon="2.23507">
        <ele>20.4</ele>
        <time>2022-03-11T13:34:22Z</time>
      </trkpt>
      <trkpt lat="49.92653" lon="2.23505">
        <ele>20.4</ele>
        <time>2022-03-11T13:34:23Z</time>
      </trkpt>
      <trkpt lat="49.92653" lon="2.23503">
        <ele>20.4</ele>
        <time>2022-03-11T13:34:25Z</time>
      </trkpt>
      <trkpt lat="49.92654" lon="2.235">
        <ele>20.4</ele>
        <time>2022-03-11T13:34:26Z</time>
      </trkpt>
      <trkpt lat="49.92655" lon="2.23499">
        <ele>20.4</ele>
        <time>2022-03-11T13:34:27Z</time>
      </trkpt>
      <trkpt lat="49.92655" lon="2.23497">
        <ele>20.4</ele>
        <time>2022-03-11T13:34:28Z</time>
      </trkpt>
      <trkpt lat="49.92655" lon="2.23496">
        <ele>20.4</ele>
        <time>2022-03-11T13:34:29Z</time>
      </trkpt>
      <trkpt lat="49.92656" lon="2.23494">
        <ele>20.4</ele>
        <time>2022-03-11T13:34:30Z</time>
      </trkpt>
      <trkpt lat="49.92656" lon="2.23492">
        <ele>20.4</ele>
        <time>2022-03-11T13:34:32Z</time>
      </trkpt>
      <trkpt lat="49.92656" lon="2.2349">
        <ele>20.4</ele>
        <time>2022-03-11T13:34:33Z</time>
      </trkpt>
      <trkpt lat="49.92657" lon="2.23488">
        <ele>20.4</ele>
        <time>2022-03-11T13:34:34Z</time>
      </trkpt>
      <trkpt lat="49.92657" lon="2.23487">
        <ele>20.4</ele>
        <time>2022-03-11T13:34:35Z</time>
      </trkpt>
      <trkpt lat="49.92657" lon="2.23485">
        <ele>20.4</ele>
        <time>2022-03-11T13:34:36Z</time>
      </trkpt>
      <trkpt lat="49.92658" lon="2.23483">
        <ele>20.4</ele>
        <time>2022-03-11T13:34:37Z</time>
      </trkpt>
      <trkpt lat="49.92658" lon="2.23482">
        <ele>20.4</ele>
        <time>2022-03-11T13:34:38Z</time>
      </trkpt>
      <trkpt lat="49.92659" lon="2.23479">
        <ele>20.4</ele>
        <time>2022-03-11T13:34:40Z</time>
      </trkpt>
      <trkpt lat="49.92659" lon="2.23477">
        <ele>20.4</ele>
        <time>2022-03-11T13:34:41Z</time>
      </trkpt>
      <trkpt lat="49.92659" lon="2.23476">
        <ele>20.5</ele>
        <time>2022-03-11T13:34:42Z</time>
      </trkpt>
      <trkpt lat="49.9266" lon="2.23473">
        <ele>20.5</ele>
        <time>2022-03-11T13:34:43Z</time>
      </trkpt>
      <trkpt lat="49.9266" lon="2.23471">
        <ele>20.5</ele>
        <time>2022-03-11T13:34:44Z</time>
      </trkpt>
      <trkpt lat="49.9266" lon="2.2347">
        <ele>20.5</ele>
        <time>2022-03-11T13:34:45Z</time>
      </trkpt>
      <trkpt lat="49.92661" lon="2.23467">
        <ele>20.5</ele>
        <time>2022-03-11T13:34:46Z</time>
      </trkpt>
      <trkpt lat="49.92661" lon="2.23466">
        <ele>20.5</ele>
        <time>2022-03-11T13:34:48Z</time>
      </trkpt>
      <trkpt lat="49.92661" lon="2.23464">
        <ele>20.5</ele>
        <time>2022-03-11T13:34:49Z</time>
      </trkpt>
      <trkpt lat="49.92661" lon="2.23461">
        <ele>20.5</ele>
        <time>2022-03-11T13:34:50Z</time>
      </trkpt>
      <trkpt lat="49.92662" lon="2.2346">
        <ele>20.5</ele>
        <time>2022-03-11T13:34:51Z</time>
      </trkpt>
      <trkpt lat="49.92662" lon="2.23458">
        <ele>20.5</ele>
        <time>2022-03-11T13:34:52Z</time>
      </trkpt>
      <trkpt lat="49.92663" lon="2.23457">
        <ele>20.5</ele>
        <time>2022-03-11T13:34:54Z</time>
      </trkpt>
      <trkpt lat="49.92664" lon="2.23457">
        <ele>20.5</ele>
        <time>2022-03-11T13:34:55Z</time>
      </trkpt>
      <trkpt lat="49.92664" lon="2.23457">
        <ele>20.5</ele>
        <time>2022-03-11T13:34:56Z</time>
      </trkpt>
      <trkpt lat="49.92665" lon="2.23457">
        <ele>20.5</ele>
        <time>2022-03-11T13:34:57Z</time>
      </trkpt>
      <trkpt lat="49.92665" lon="2.23456">
        <ele>20.6</ele>
        <time>2022-03-11T13:34:59Z</time>
      </trkpt>
      <trkpt lat="49.92665" lon="2.23456">
        <ele>20.6</ele>
        <time>2022-03-11T13:35:00Z</time>
      </trkpt>
      <trkpt lat="49.92665" lon="2.23455">
        <ele>20.6</ele>
        <time>2022-03-11T13:35:01Z</time>
      </trkpt>
      <trkpt lat="49.92665" lon="2.23454">
        <ele>20.6</ele>
        <time>2022-03-11T13:35:02Z</time>
      </trkpt>
      <trkpt lat="49.92665" lon="2.23453">
        <ele>20.6</ele>
        <time>2022-03-11T13:35:03Z</time>
      </trkpt>
      <trkpt lat="49.92665" lon="2.23452">
        <ele>20.6</ele>
        <time>2022-03-11T13:35:04Z</time>
      </trkpt>
      <trkpt lat="49.92665" lon="2.23452">
        <ele>20.6</ele>
        <time>2022-03-11T13:35:05Z</time>
      </trkpt>
      <trkpt lat="49.92665" lon="2.23452">
        <ele>20.6</ele>
        <time>2022-03-11T13:35:06Z</time>
      </trkpt>
      <trkpt lat="49.92664" lon="2.23451">
        <ele>20.6</ele>
        <time>2022-03-11T13:35:07Z</time>
      </trkpt>
      <trkpt lat="49.92664" lon="2.23451">
        <ele>20.6</ele>
        <time>2022-03-11T13:35:08Z</time>
      </trkpt>
      <trkpt lat="49.92664" lon="2.23451">
        <ele>20.6</ele>
        <time>2022-03-11T13:35:09Z</time>
      </trkpt>
      <trkpt lat="49.92665" lon="2.23451">
        <ele>20.6</ele>
        <time>2022-03-11T13:35:10Z</time>
      </trkpt>
      <trkpt lat="49.92665" lon="2.23451">
        <ele>20.6</ele>
        <time>2022-03-11T13:35:11Z</time>
      </trkpt>
      <trkpt lat="49.92665" lon="2.23451">
        <ele>20.6</ele>
        <time>2022-03-11T13:35:12Z</time>
      </trkpt>
      <trkpt lat="49.92665" lon="2.23452">
        <ele>20.6</ele>
        <time>2022-03-11T13:35:13Z</time>
      </trkpt>
      <trkpt lat="49.92665" lon="2.23452">
        <ele>20.6</ele>
        <time>2022-03-11T13:35:14Z</time>
      </trkpt>
      <trkpt lat="49.92665" lon="2.23452">
        <ele>20.6</ele>
        <time>2022-03-11T13:35:15Z</time>
      </trkpt>
      <trkpt lat="49.92665" lon="2.23452">
        <ele>20.6</ele>
        <time>2022-03-11T13:35:16Z</time>
      </trkpt>
      <trkpt lat="49.92665" lon="2.23453">
        <ele>20.6</ele>
        <time>2022-03-11T13:35:17Z</time>
      </trkpt>
      <trkpt lat="49.92665" lon="2.23453">
        <ele>20.6</ele>
        <time>2022-03-11T13:35:18Z</time>
      </trkpt>
      <trkpt lat="49.92665" lon="2.23453">
        <ele>20.6</ele>
        <time>2022-03-11T13:35:19Z</time>
      </trkpt>
      <trkpt lat="49.92665" lon="2.23453">
        <ele>20.6</ele>
        <time>2022-03-11T13:35:20Z</time>
      </trkpt>
      <trkpt lat="49.92665" lon="2.23453">
        <ele>20.6</ele>
        <time>2022-03-11T13:35:21Z</time>
      </trkpt>
      <trkpt lat="49.92665" lon="2.23453">
        <ele>20.6</ele>
        <time>2022-03-11T13:35:22Z</time>
      </trkpt>
      <trkpt lat="49.92665" lon="2.23453">
        <ele>20.6</ele>
        <time>2022-03-11T13:35:23Z</time>
      </trkpt>
      <trkpt lat="49.92665" lon="2.23453">
        <ele>20.6</ele>
        <time>2022-03-11T13:35:24Z</time>
      </trkpt>
      <trkpt lat="49.92665" lon="2.23453">
        <ele>20.6</ele>
        <time>2022-03-11T13:35:25Z</time>
      </trkpt>
      <trkpt lat="49.92665" lon="2.23453">
        <ele>20.6</ele>
        <time>2022-03-11T13:35:26Z</time>
      </trkpt>
      <trkpt lat="49.92665" lon="2.23453">
        <ele>20.6</ele>
        <time>2022-03-11T13:35:27Z</time>
      </trkpt>
      <trkpt lat="49.92665" lon="2.23453">
        <ele>20.6</ele>
        <time>2022-03-11T13:35:28Z</time>
      </trkpt>
      <trkpt lat="49.92665" lon="2.23453">
        <ele>20.6</ele>
        <time>2022-03-11T13:35:29Z</time>
      </trkpt>
      <trkpt lat="49.92665" lon="2.23453">
        <ele>20.6</ele>
        <time>2022-03-11T13:35:30Z</time>
      </trkpt>
      <trkpt lat="49.92665" lon="2.23453">
        <ele>20.6</ele>
        <time>2022-03-11T13:35:31Z</time>
      </trkpt>
      <trkpt lat="49.92665" lon="2.23453">
        <ele>20.6</ele>
        <time>2022-03-11T13:35:32Z</time>
      </trkpt>
      <trkpt lat="49.92665" lon="2.23453">
        <ele>20.6</ele>
        <time>2022-03-11T13:35:33Z</time>
      </trkpt>
      <trkpt lat="49.92665" lon="2.23453">
        <ele>20.6</ele>
        <time>2022-03-11T13:35:34Z</time>
      </trkpt>
      <trkpt lat="49.92665" lon="2.23453">
        <ele>20.6</ele>
        <time>2022-03-11T13:35:35Z</time>
      </trkpt>
      <trkpt lat="49.92665" lon="2.23453">
        <ele>20.6</ele>
        <time>2022-03-11T13:35:36Z</time>
      </trkpt>
      <trkpt lat="49.92665" lon="2.23453">
        <ele>20.6</ele>
        <time>2022-03-11T13:35:37Z</time>
      </trkpt>
      <trkpt lat="49.92665" lon="2.23453">
        <ele>20.6</ele>
        <time>2022-03-11T13:35:38Z</time>
      </trkpt>
      <trkpt lat="49.92665" lon="2.23453">
        <ele>20.6</ele>
        <time>2022-03-11T13:35:39Z</time>
      </trkpt>
      <trkpt lat="49.92665" lon="2.23453">
        <ele>20.6</ele>
        <time>2022-03-11T13:35:40Z</time>
      </trkpt>
      <trkpt lat="49.92665" lon="2.23453">
        <ele>20.6</ele>
        <time>2022-03-11T13:35:41Z</time>
      </trkpt>
      <trkpt lat="49.92665" lon="2.23453">
        <ele>20.6</ele>
        <time>2022-03-11T13:35:42Z</time>
      </trkpt>
      <trkpt lat="49.92665" lon="2.23453">
        <ele>20.6</ele>
        <time>2022-03-11T13:35:43Z</time>
      </trkpt>
      <trkpt lat="49.92665" lon="2.23453">
        <ele>20.6</ele>
        <time>2022-03-11T13:35:44Z</time>
      </trkpt>
      <trkpt lat="49.92665" lon="2.23453">
        <ele>20.6</ele>
        <time>2022-03-11T13:35:45Z</time>
      </trkpt>
      <trkpt lat="49.92665" lon="2.23453">
        <ele>20.6</ele>
        <time>2022-03-11T13:35:46Z</time>
      </trkpt>
      <trkpt lat="49.92665" lon="2.23453">
        <ele>20.6</ele>
        <time>2022-03-11T13:35:47Z</time>
      </trkpt>
      <trkpt lat="49.92665" lon="2.23453">
        <ele>20.6</ele>
        <time>2022-03-11T13:35:48Z</time>
      </trkpt>
      <trkpt lat="49.92665" lon="2.23453">
        <ele>20.6</ele>
        <time>2022-03-11T13:35:49Z</time>
      </trkpt>
      <trkpt lat="49.92665" lon="2.23453">
        <ele>20.6</ele>
        <time>2022-03-11T13:35:50Z</time>
      </trkpt>
      <trkpt lat="49.92665" lon="2.23453">
        <ele>20.6</ele>
        <time>2022-03-11T13:35:51Z</time>
      </trkpt>
      <trkpt lat="49.92665" lon="2.23453">
        <ele>20.6</ele>
        <time>2022-03-11T13:35:52Z</time>
      </trkpt>
      <trkpt lat="49.92665" lon="2.23453">
        <ele>20.6</ele>
        <time>2022-03-11T13:35:53Z</time>
      </trkpt>
      <trkpt lat="49.92665" lon="2.23453">
        <ele>20.6</ele>
        <time>2022-03-11T13:35:54Z</time>
      </trkpt>
      <trkpt lat="49.92665" lon="2.23453">
        <ele>20.6</ele>
        <time>2022-03-11T13:35:55Z</time>
      </trkpt>
      <trkpt lat="49.92665" lon="2.23453">
        <ele>20.6</ele>
        <time>2022-03-11T13:35:56Z</time>
      </trkpt>
      <trkpt lat="49.92665" lon="2.23453">
        <ele>20.6</ele>
        <time>2022-03-11T13:35:57Z</time>
      </trkpt>
      <trkpt lat="49.92665" lon="2.23453">
        <ele>20.6</ele>
        <time>2022-03-11T13:35:58Z</time>
      </trkpt>
      <trkpt lat="49.92665" lon="2.23453">
        <ele>20.6</ele>
        <time>2022-03-11T13:35:59Z</time>
      </trkpt>
      <trkpt lat="49.92665" lon="2.23453">
        <ele>20.6</ele>
        <time>2022-03-11T13:36:00Z</time>
      </trkpt>
      <trkpt lat="49.92665" lon="2.23453">
        <ele>20.6</ele>
        <time>2022-03-11T13:36:01Z</time>
      </trkpt>
      <trkpt lat="49.92665" lon="2.23453">
        <ele>20.6</ele>
        <time>2022-03-11T13:36:02Z</time>
      </trkpt>
      <trkpt lat="49.92664" lon="2.23453">
        <ele>20.6</ele>
        <time>2022-03-11T13:36:03Z</time>
      </trkpt>
      <trkpt lat="49.92664" lon="2.23454">
        <ele>20.6</ele>
        <time>2022-03-11T13:36:04Z</time>
      </trkpt>
      <trkpt lat="49.92664" lon="2.23454">
        <ele>20.6</ele>
        <time>2022-03-11T13:36:05Z</time>
      </trkpt>
      <trkpt lat="49.92664" lon="2.23454">
        <ele>20.6</ele>
        <time>2022-03-11T13:36:06Z</time>
      </trkpt>
      <trkpt lat="49.92664" lon="2.23453">
        <ele>20.6</ele>
        <time>2022-03-11T13:36:07Z</time>
      </trkpt>
      <trkpt lat="49.92664" lon="2.23452">
        <ele>20.6</ele>
        <time>2022-03-11T13:36:08Z</time>
      </trkpt>
      <trkpt lat="49.92664" lon="2.23451">
        <ele>20.6</ele>
        <time>2022-03-11T13:36:09Z</time>
      </trkpt>
      <trkpt lat="49.92664" lon="2.23449">
        <ele>20.6</ele>
        <time>2022-03-11T13:36:10Z</time>
      </trkpt>
      <trkpt lat="49.92664" lon="2.23447">
        <ele>20.6</ele>
        <time>2022-03-11T13:36:11Z</time>
      </trkpt>
      <trkpt lat="49.92664" lon="2.23446">
        <ele>20.6</ele>
        <time>2022-03-11T13:36:12Z</time>
      </trkpt>
      <trkpt lat="49.92664" lon="2.23445">
        <ele>20.7</ele>
        <time>2022-03-11T13:36:13Z</time>
      </trkpt>
      <trkpt lat="49.92665" lon="2.23443">
        <ele>20.7</ele>
        <time>2022-03-11T13:36:14Z</time>
      </trkpt>
      <trkpt lat="49.92665" lon="2.23442">
        <ele>20.7</ele>
        <time>2022-03-11T13:36:15Z</time>
      </trkpt>
      <trkpt lat="49.92665" lon="2.2344">
        <ele>20.7</ele>
        <time>2022-03-11T13:36:16Z</time>
      </trkpt>
      <trkpt lat="49.92665" lon="2.23438">
        <ele>20.7</ele>
        <time>2022-03-11T13:36:17Z</time>
      </trkpt>
      <trkpt lat="49.92665" lon="2.23436">
        <ele>20.7</ele>
        <time>2022-03-11T13:36:18Z</time>
      </trkpt>
      <trkpt lat="49.92665" lon="2.23435">
        <ele>20.7</ele>
        <time>2022-03-11T13:36:19Z</time>
      </trkpt>
      <trkpt lat="49.92665" lon="2.23433">
        <ele>20.7</ele>
        <time>2022-03-11T13:36:20Z</time>
      </trkpt>
      <trkpt lat="49.92665" lon="2.23432">
        <ele>20.7</ele>
        <time>2022-03-11T13:36:21Z</time>
      </trkpt>
      <trkpt lat="49.92665" lon="2.2343">
        <ele>20.7</ele>
        <time>2022-03-11T13:36:22Z</time>
      </trkpt>
      <trkpt lat="49.92665" lon="2.23428">
        <ele>20.7</ele>
        <time>2022-03-11T13:36:23Z</time>
      </trkpt>
      <trkpt lat="49.92666" lon="2.23426">
        <ele>20.8</ele>
        <time>2022-03-11T13:36:24Z</time>
      </trkpt>
      <trkpt lat="49.92666" lon="2.23424">
        <ele>20.8</ele>
        <time>2022-03-11T13:36:25Z</time>
      </trkpt>
      <trkpt lat="49.92666" lon="2.23423">
        <ele>20.8</ele>
        <time>2022-03-11T13:36:26Z</time>
      </trkpt>
      <trkpt lat="49.92666" lon="2.23421">
        <ele>20.8</ele>
        <time>2022-03-11T13:36:27Z</time>
      </trkpt>
      <trkpt lat="49.92666" lon="2.23419">
        <ele>20.8</ele>
        <time>2022-03-11T13:36:28Z</time>
      </trkpt>
      <trkpt lat="49.92666" lon="2.23416">
        <ele>20.8</ele>
        <time>2022-03-11T13:36:29Z</time>
      </trkpt>
      <trkpt lat="49.92666" lon="2.23414">
        <ele>20.8</ele>
        <time>2022-03-11T13:36:30Z</time>
      </trkpt>
      <trkpt lat="49.92666" lon="2.23413">
        <ele>20.8</ele>
        <time>2022-03-11T13:36:31Z</time>
      </trkpt>
      <trkpt lat="49.92666" lon="2.23412">
        <ele>20.8</ele>
        <time>2022-03-11T13:36:32Z</time>
      </trkpt>
      <trkpt lat="49.92666" lon="2.2341">
        <ele>20.8</ele>
        <time>2022-03-11T13:36:33Z</time>
      </trkpt>
      <trkpt lat="49.92666" lon="2.23408">
        <ele>20.8</ele>
        <time>2022-03-11T13:36:34Z</time>
      </trkpt>
      <trkpt lat="49.92666" lon="2.23405">
        <ele>20.8</ele>
        <time>2022-03-11T13:36:35Z</time>
      </trkpt>
      <trkpt lat="49.92666" lon="2.23404">
        <ele>20.8</ele>
        <time>2022-03-11T13:36:36Z</time>
      </trkpt>
      <trkpt lat="49.92666" lon="2.23403">
        <ele>20.8</ele>
        <time>2022-03-11T13:36:37Z</time>
      </trkpt>
      <trkpt lat="49.92666" lon="2.23401">
        <ele>20.8</ele>
        <time>2022-03-11T13:36:38Z</time>
      </trkpt>
      <trkpt lat="49.92666" lon="2.234">
        <ele>20.8</ele>
        <time>2022-03-11T13:36:39Z</time>
      </trkpt>
      <trkpt lat="49.92666" lon="2.23398">
        <ele>20.8</ele>
        <time>2022-03-11T13:36:40Z</time>
      </trkpt>
      <trkpt lat="49.92666" lon="2.23396">
        <ele>20.8</ele>
        <time>2022-03-11T13:36:41Z</time>
      </trkpt>
      <trkpt lat="49.92666" lon="2.23395">
        <ele>20.8</ele>
        <time>2022-03-11T13:36:42Z</time>
      </trkpt>
      <trkpt lat="49.92666" lon="2.23393">
        <ele>20.8</ele>
        <time>2022-03-11T13:36:43Z</time>
      </trkpt>
      <trkpt lat="49.92666" lon="2.2339">
        <ele>20.8</ele>
        <time>2022-03-11T13:36:44Z</time>
      </trkpt>
      <trkpt lat="49.92666" lon="2.23388">
        <ele>20.8</ele>
        <time>2022-03-11T13:36:45Z</time>
      </trkpt>
      <trkpt lat="49.92666" lon="2.23386">
        <ele>20.8</ele>
        <time>2022-03-11T13:36:46Z</time>
      </trkpt>
      <trkpt lat="49.92666" lon="2.23384">
        <ele>20.8</ele>
        <time>2022-03-11T13:36:47Z</time>
      </trkpt>
      <trkpt lat="49.92666" lon="2.23383">
        <ele>20.8</ele>
        <time>2022-03-11T13:36:49Z</time>
      </trkpt>
      <trkpt lat="49.92666" lon="2.23381">
        <ele>20.8</ele>
        <time>2022-03-11T13:36:50Z</time>
      </trkpt>
      <trkpt lat="49.92666" lon="2.23379">
        <ele>20.8</ele>
        <time>2022-03-11T13:36:51Z</time>
      </trkpt>
      <trkpt lat="49.92666" lon="2.23378">
        <ele>20.8</ele>
        <time>2022-03-11T13:36:52Z</time>
      </trkpt>
      <trkpt lat="49.92666" lon="2.23374">
        <ele>20.8</ele>
        <time>2022-03-11T13:36:53Z</time>
      </trkpt>
      <trkpt lat="49.92666" lon="2.23373">
        <ele>20.8</ele>
        <time>2022-03-11T13:36:54Z</time>
      </trkpt>
      <trkpt lat="49.92665" lon="2.23372">
        <ele>20.8</ele>
        <time>2022-03-11T13:36:55Z</time>
      </trkpt>
      <trkpt lat="49.92665" lon="2.2337">
        <ele>20.8</ele>
        <time>2022-03-11T13:36:56Z</time>
      </trkpt>
      <trkpt lat="49.92665" lon="2.23368">
        <ele>20.8</ele>
        <time>2022-03-11T13:36:57Z</time>
      </trkpt>
      <trkpt lat="49.92665" lon="2.23366">
        <ele>20.8</ele>
        <time>2022-03-11T13:36:58Z</time>
      </trkpt>
      <trkpt lat="49.92665" lon="2.23364">
        <ele>20.8</ele>
        <time>2022-03-11T13:36:59Z</time>
      </trkpt>
      <trkpt lat="49.92665" lon="2.23362">
        <ele>20.9</ele>
        <time>2022-03-11T13:37:00Z</time>
      </trkpt>
      <trkpt lat="49.92665" lon="2.2336">
        <ele>20.9</ele>
        <time>2022-03-11T13:37:01Z</time>
      </trkpt>
      <trkpt lat="49.92665" lon="2.23358">
        <ele>20.9</ele>
        <time>2022-03-11T13:37:02Z</time>
      </trkpt>
      <trkpt lat="49.92665" lon="2.23356">
        <ele>20.9</ele>
        <time>2022-03-11T13:37:04Z</time>
      </trkpt>
      <trkpt lat="49.92665" lon="2.23353">
        <ele>20.9</ele>
        <time>2022-03-11T13:37:05Z</time>
      </trkpt>
      <trkpt lat="49.92665" lon="2.23352">
        <ele>20.9</ele>
        <time>2022-03-11T13:37:06Z</time>
      </trkpt>
      <trkpt lat="49.92666" lon="2.2335">
        <ele>20.9</ele>
        <time>2022-03-11T13:37:07Z</time>
      </trkpt>
      <trkpt lat="49.92666" lon="2.23348">
        <ele>21</ele>
        <time>2022-03-11T13:37:08Z</time>
      </trkpt>
      <trkpt lat="49.92666" lon="2.23347">
        <ele>21</ele>
        <time>2022-03-11T13:37:09Z</time>
      </trkpt>
      <trkpt lat="49.92666" lon="2.23345">
        <ele>21</ele>
        <time>2022-03-11T13:37:11Z</time>
      </trkpt>
      <trkpt lat="49.92666" lon="2.23343">
        <ele>21</ele>
        <time>2022-03-11T13:37:12Z</time>
      </trkpt>
      <trkpt lat="49.92666" lon="2.23342">
        <ele>21</ele>
        <time>2022-03-11T13:37:13Z</time>
      </trkpt>
      <trkpt lat="49.92666" lon="2.2334">
        <ele>21</ele>
        <time>2022-03-11T13:37:14Z</time>
      </trkpt>
      <trkpt lat="49.92666" lon="2.23339">
        <ele>21</ele>
        <time>2022-03-11T13:37:15Z</time>
      </trkpt>
      <trkpt lat="49.92666" lon="2.23337">
        <ele>21</ele>
        <time>2022-03-11T13:37:16Z</time>
      </trkpt>
      <trkpt lat="49.92667" lon="2.23336">
        <ele>21</ele>
        <time>2022-03-11T13:37:17Z</time>
      </trkpt>
      <trkpt lat="49.92667" lon="2.23334">
        <ele>21.1</ele>
        <time>2022-03-11T13:37:19Z</time>
      </trkpt>
      <trkpt lat="49.92668" lon="2.23332">
        <ele>21.1</ele>
        <time>2022-03-11T13:37:20Z</time>
      </trkpt>
      <trkpt lat="49.92668" lon="2.23331">
        <ele>21.1</ele>
        <time>2022-03-11T13:37:21Z</time>
      </trkpt>
      <trkpt lat="49.92668" lon="2.2333">
        <ele>21.1</ele>
        <time>2022-03-11T13:37:22Z</time>
      </trkpt>
      <trkpt lat="49.92669" lon="2.23328">
        <ele>21.1</ele>
        <time>2022-03-11T13:37:23Z</time>
      </trkpt>
      <trkpt lat="49.92669" lon="2.23327">
        <ele>21.1</ele>
        <time>2022-03-11T13:37:24Z</time>
      </trkpt>
      <trkpt lat="49.92669" lon="2.23325">
        <ele>21.1</ele>
        <time>2022-03-11T13:37:26Z</time>
      </trkpt>
      <trkpt lat="49.92669" lon="2.23324">
        <ele>21.1</ele>
        <time>2022-03-11T13:37:27Z</time>
      </trkpt>
      <trkpt lat="49.9267" lon="2.23323">
        <ele>21.1</ele>
        <time>2022-03-11T13:37:28Z</time>
      </trkpt>
      <trkpt lat="49.9267" lon="2.23321">
        <ele>21.2</ele>
        <time>2022-03-11T13:37:29Z</time>
      </trkpt>
      <trkpt lat="49.9267" lon="2.23319">
        <ele>21.2</ele>
        <time>2022-03-11T13:37:30Z</time>
      </trkpt>
      <trkpt lat="49.92671" lon="2.23317">
        <ele>21.2</ele>
        <time>2022-03-11T13:37:31Z</time>
      </trkpt>
      <trkpt lat="49.92671" lon="2.23315">
        <ele>21.2</ele>
        <time>2022-03-11T13:37:32Z</time>
      </trkpt>
      <trkpt lat="49.9267" lon="2.23312">
        <ele>21.2</ele>
        <time>2022-03-11T13:37:33Z</time>
      </trkpt>
      <trkpt lat="49.9267" lon="2.2331">
        <ele>21.2</ele>
        <time>2022-03-11T13:37:35Z</time>
      </trkpt>
      <trkpt lat="49.9267" lon="2.23309">
        <ele>21.2</ele>
        <time>2022-03-11T13:37:36Z</time>
      </trkpt>
      <trkpt lat="49.92669" lon="2.23307">
        <ele>21.2</ele>
        <time>2022-03-11T13:37:37Z</time>
      </trkpt>
      <trkpt lat="49.92669" lon="2.23304">
        <ele>21.3</ele>
        <time>2022-03-11T13:37:38Z</time>
      </trkpt>
      <trkpt lat="49.92669" lon="2.23302">
        <ele>21.3</ele>
        <time>2022-03-11T13:37:39Z</time>
      </trkpt>
      <trkpt lat="49.92669" lon="2.233">
        <ele>21.3</ele>
        <time>2022-03-11T13:37:40Z</time>
      </trkpt>
      <trkpt lat="49.92669" lon="2.23297">
        <ele>21.3</ele>
        <time>2022-03-11T13:37:41Z</time>
      </trkpt>
      <trkpt lat="49.92669" lon="2.23295">
        <ele>21.3</ele>
        <time>2022-03-11T13:37:42Z</time>
      </trkpt>
      <trkpt lat="49.92669" lon="2.23293">
        <ele>21.3</ele>
        <time>2022-03-11T13:37:44Z</time>
      </trkpt>
      <trkpt lat="49.92668" lon="2.2329">
        <ele>21.3</ele>
        <time>2022-03-11T13:37:45Z</time>
      </trkpt>
      <trkpt lat="49.92668" lon="2.23288">
        <ele>21.3</ele>
        <time>2022-03-11T13:37:46Z</time>
      </trkpt>
      <trkpt lat="49.92667" lon="2.23286">
        <ele>21.3</ele>
        <time>2022-03-11T13:37:47Z</time>
      </trkpt>
      <trkpt lat="49.92667" lon="2.23284">
        <ele>21.4</ele>
        <time>2022-03-11T13:37:48Z</time>
      </trkpt>
      <trkpt lat="49.92667" lon="2.23282">
        <ele>21.4</ele>
        <time>2022-03-11T13:37:50Z</time>
      </trkpt>
      <trkpt lat="49.92667" lon="2.2328">
        <ele>21.4</ele>
        <time>2022-03-11T13:37:51Z</time>
      </trkpt>
      <trkpt lat="49.92667" lon="2.23279">
        <ele>21.4</ele>
        <time>2022-03-11T13:37:52Z</time>
      </trkpt>
      <trkpt lat="49.92667" lon="2.23277">
        <ele>21.4</ele>
        <time>2022-03-11T13:37:53Z</time>
      </trkpt>
      <trkpt lat="49.92667" lon="2.23276">
        <ele>21.4</ele>
        <time>2022-03-11T13:37:54Z</time>
      </trkpt>
      <trkpt lat="49.92667" lon="2.23275">
        <ele>21.4</ele>
        <time>2022-03-11T13:37:55Z</time>
      </trkpt>
      <trkpt lat="49.92667" lon="2.23273">
        <ele>21.4</ele>
        <time>2022-03-11T13:37:56Z</time>
      </trkpt>
      <trkpt lat="49.92667" lon="2.23271">
        <ele>21.4</ele>
        <time>2022-03-11T13:37:57Z</time>
      </trkpt>
      <trkpt lat="49.92667" lon="2.2327">
        <ele>21.4</ele>
        <time>2022-03-11T13:37:58Z</time>
      </trkpt>
      <trkpt lat="49.92668" lon="2.23268">
        <ele>21.4</ele>
        <time>2022-03-11T13:37:59Z</time>
      </trkpt>
      <trkpt lat="49.92668" lon="2.23266">
        <ele>21.4</ele>
        <time>2022-03-11T13:38:00Z</time>
      </trkpt>
      <trkpt lat="49.92668" lon="2.23265">
        <ele>21.5</ele>
        <time>2022-03-11T13:38:01Z</time>
      </trkpt>
      <trkpt lat="49.92669" lon="2.23263">
        <ele>21.5</ele>
        <time>2022-03-11T13:38:02Z</time>
      </trkpt>
      <trkpt lat="49.92669" lon="2.23261">
        <ele>21.5</ele>
        <time>2022-03-11T13:38:03Z</time>
      </trkpt>
      <trkpt lat="49.9267" lon="2.23259">
        <ele>21.5</ele>
        <time>2022-03-11T13:38:04Z</time>
      </trkpt>
      <trkpt lat="49.9267" lon="2.23258">
        <ele>21.5</ele>
        <time>2022-03-11T13:38:05Z</time>
      </trkpt>
      <trkpt lat="49.92671" lon="2.23256">
        <ele>21.5</ele>
        <time>2022-03-11T13:38:06Z</time>
      </trkpt>
      <trkpt lat="49.92672" lon="2.23254">
        <ele>21.5</ele>
        <time>2022-03-11T13:38:07Z</time>
      </trkpt>
      <trkpt lat="49.92672" lon="2.23252">
        <ele>21.6</ele>
        <time>2022-03-11T13:38:08Z</time>
      </trkpt>
      <trkpt lat="49.92673" lon="2.2325">
        <ele>21.6</ele>
        <time>2022-03-11T13:38:09Z</time>
      </trkpt>
      <trkpt lat="49.92674" lon="2.23247">
        <ele>21.6</ele>
        <time>2022-03-11T13:38:11Z</time>
      </trkpt>
      <trkpt lat="49.92674" lon="2.23245">
        <ele>21.6</ele>
        <time>2022-03-11T13:38:12Z</time>
      </trkpt>
      <trkpt lat="49.92675" lon="2.23244">
        <ele>21.6</ele>
        <time>2022-03-11T13:38:13Z</time>
      </trkpt>
      <trkpt lat="49.92675" lon="2.23243">
        <ele>21.6</ele>
        <time>2022-03-11T13:38:14Z</time>
      </trkpt>
      <trkpt lat="49.92676" lon="2.23241">
        <ele>21.6</ele>
        <time>2022-03-11T13:38:15Z</time>
      </trkpt>
      <trkpt lat="49.92677" lon="2.23237">
        <ele>21.7</ele>
        <time>2022-03-11T13:38:16Z</time>
      </trkpt>
      <trkpt lat="49.92678" lon="2.23236">
        <ele>21.7</ele>
        <time>2022-03-11T13:38:18Z</time>
      </trkpt>
      <trkpt lat="49.92679" lon="2.23235">
        <ele>21.7</ele>
        <time>2022-03-11T13:38:19Z</time>
      </trkpt>
      <trkpt lat="49.92679" lon="2.23234">
        <ele>21.7</ele>
        <time>2022-03-11T13:38:20Z</time>
      </trkpt>
      <trkpt lat="49.9268" lon="2.23232">
        <ele>21.7</ele>
        <time>2022-03-11T13:38:21Z</time>
      </trkpt>
      <trkpt lat="49.92681" lon="2.23231">
        <ele>21.7</ele>
        <time>2022-03-11T13:38:22Z</time>
      </trkpt>
      <trkpt lat="49.92682" lon="2.23229">
        <ele>21.7</ele>
        <time>2022-03-11T13:38:23Z</time>
      </trkpt>
      <trkpt lat="49.92682" lon="2.23228">
        <ele>21.7</ele>
        <time>2022-03-11T13:38:25Z</time>
      </trkpt>
      <trkpt lat="49.92683" lon="2.23226">
        <ele>21.7</ele>
        <time>2022-03-11T13:38:26Z</time>
      </trkpt>
      <trkpt lat="49.92683" lon="2.23225">
        <ele>21.8</ele>
        <time>2022-03-11T13:38:27Z</time>
      </trkpt>
      <trkpt lat="49.92684" lon="2.23223">
        <ele>21.8</ele>
        <time>2022-03-11T13:38:28Z</time>
      </trkpt>
      <trkpt lat="49.92685" lon="2.23221">
        <ele>21.8</ele>
        <time>2022-03-11T13:38:29Z</time>
      </trkpt>
      <trkpt lat="49.92685" lon="2.2322">
        <ele>21.8</ele>
        <time>2022-03-11T13:38:30Z</time>
      </trkpt>
      <trkpt lat="49.92686" lon="2.23218">
        <ele>21.8</ele>
        <time>2022-03-11T13:38:32Z</time>
      </trkpt>
      <trkpt lat="49.92686" lon="2.23217">
        <ele>21.8</ele>
        <time>2022-03-11T13:38:33Z</time>
      </trkpt>
      <trkpt lat="49.92687" lon="2.23216">
        <ele>21.8</ele>
        <time>2022-03-11T13:38:34Z</time>
      </trkpt>
      <trkpt lat="49.92688" lon="2.23215">
        <ele>21.8</ele>
        <time>2022-03-11T13:38:35Z</time>
      </trkpt>
      <trkpt lat="49.92688" lon="2.23214">
        <ele>21.8</ele>
        <time>2022-03-11T13:38:36Z</time>
      </trkpt>
      <trkpt lat="49.92688" lon="2.23212">
        <ele>21.8</ele>
        <time>2022-03-11T13:38:37Z</time>
      </trkpt>
      <trkpt lat="49.92688" lon="2.23211">
        <ele>21.9</ele>
        <time>2022-03-11T13:38:38Z</time>
      </trkpt>
      <trkpt lat="49.92688" lon="2.2321">
        <ele>21.9</ele>
        <time>2022-03-11T13:38:40Z</time>
      </trkpt>
      <trkpt lat="49.92689" lon="2.23208">
        <ele>21.9</ele>
        <time>2022-03-11T13:38:41Z</time>
      </trkpt>
      <trkpt lat="49.92689" lon="2.23207">
        <ele>21.9</ele>
        <time>2022-03-11T13:38:42Z</time>
      </trkpt>
      <trkpt lat="49.9269" lon="2.23206">
        <ele>21.9</ele>
        <time>2022-03-11T13:38:43Z</time>
      </trkpt>
      <trkpt lat="49.9269" lon="2.23204">
        <ele>21.9</ele>
        <time>2022-03-11T13:38:44Z</time>
      </trkpt>
      <trkpt lat="49.9269" lon="2.23202">
        <ele>21.9</ele>
        <time>2022-03-11T13:38:45Z</time>
      </trkpt>
      <trkpt lat="49.92691" lon="2.232">
        <ele>21.9</ele>
        <time>2022-03-11T13:38:47Z</time>
      </trkpt>
      <trkpt lat="49.92692" lon="2.23197">
        <ele>21.9</ele>
        <time>2022-03-11T13:38:48Z</time>
      </trkpt>
      <trkpt lat="49.92692" lon="2.23196">
        <ele>22</ele>
        <time>2022-03-11T13:38:49Z</time>
      </trkpt>
      <trkpt lat="49.92692" lon="2.23195">
        <ele>22</ele>
        <time>2022-03-11T13:38:50Z</time>
      </trkpt>
      <trkpt lat="49.92693" lon="2.23193">
        <ele>22</ele>
        <time>2022-03-11T13:38:51Z</time>
      </trkpt>
      <trkpt lat="49.92694" lon="2.23191">
        <ele>22</ele>
        <time>2022-03-11T13:38:52Z</time>
      </trkpt>
      <trkpt lat="49.92694" lon="2.23189">
        <ele>22</ele>
        <time>2022-03-11T13:38:54Z</time>
      </trkpt>
      <trkpt lat="49.92694" lon="2.23187">
        <ele>22</ele>
        <time>2022-03-11T13:38:55Z</time>
      </trkpt>
      <trkpt lat="49.92695" lon="2.23184">
        <ele>22</ele>
        <time>2022-03-11T13:38:56Z</time>
      </trkpt>
      <trkpt lat="49.92696" lon="2.23183">
        <ele>22</ele>
        <time>2022-03-11T13:38:57Z</time>
      </trkpt>
      <trkpt lat="49.92696" lon="2.23182">
        <ele>22</ele>
        <time>2022-03-11T13:38:58Z</time>
      </trkpt>
      <trkpt lat="49.92698" lon="2.23179">
        <ele>22</ele>
        <time>2022-03-11T13:39:00Z</time>
      </trkpt>
      <trkpt lat="49.92698" lon="2.23179">
        <ele>22</ele>
        <time>2022-03-11T13:39:01Z</time>
      </trkpt>
      <trkpt lat="49.92699" lon="2.23178">
        <ele>22</ele>
        <time>2022-03-11T13:39:02Z</time>
      </trkpt>
      <trkpt lat="49.92699" lon="2.23176">
        <ele>22</ele>
        <time>2022-03-11T13:39:03Z</time>
      </trkpt>
      <trkpt lat="49.927" lon="2.23175">
        <ele>22</ele>
        <time>2022-03-11T13:39:04Z</time>
      </trkpt>
      <trkpt lat="49.92701" lon="2.23173">
        <ele>22</ele>
        <time>2022-03-11T13:39:05Z</time>
      </trkpt>
      <trkpt lat="49.92701" lon="2.23171">
        <ele>22</ele>
        <time>2022-03-11T13:39:06Z</time>
      </trkpt>
      <trkpt lat="49.92702" lon="2.23169">
        <ele>22</ele>
        <time>2022-03-11T13:39:07Z</time>
      </trkpt>
      <trkpt lat="49.92703" lon="2.23167">
        <ele>22</ele>
        <time>2022-03-11T13:39:09Z</time>
      </trkpt>
      <trkpt lat="49.92703" lon="2.23165">
        <ele>22</ele>
        <time>2022-03-11T13:39:10Z</time>
      </trkpt>
      <trkpt lat="49.92704" lon="2.23164">
        <ele>22</ele>
        <time>2022-03-11T13:39:11Z</time>
      </trkpt>
      <trkpt lat="49.92705" lon="2.23162">
        <ele>22</ele>
        <time>2022-03-11T13:39:12Z</time>
      </trkpt>
      <trkpt lat="49.92705" lon="2.23161">
        <ele>22</ele>
        <time>2022-03-11T13:39:13Z</time>
      </trkpt>
      <trkpt lat="49.92705" lon="2.2316">
        <ele>22</ele>
        <time>2022-03-11T13:39:14Z</time>
      </trkpt>
      <trkpt lat="49.92705" lon="2.23158">
        <ele>21.9</ele>
        <time>2022-03-11T13:39:16Z</time>
      </trkpt>
      <trkpt lat="49.92705" lon="2.23157">
        <ele>21.8</ele>
        <time>2022-03-11T13:39:17Z</time>
      </trkpt>
      <trkpt lat="49.92705" lon="2.23155">
        <ele>21.7</ele>
        <time>2022-03-11T13:39:18Z</time>
      </trkpt>
      <trkpt lat="49.92705" lon="2.23154">
        <ele>21.7</ele>
        <time>2022-03-11T13:39:19Z</time>
      </trkpt>
      <trkpt lat="49.92704" lon="2.23154">
        <ele>21.6</ele>
        <time>2022-03-11T13:39:20Z</time>
      </trkpt>
      <trkpt lat="49.92704" lon="2.23153">
        <ele>21.6</ele>
        <time>2022-03-11T13:39:21Z</time>
      </trkpt>
      <trkpt lat="49.92703" lon="2.23153">
        <ele>21.5</ele>
        <time>2022-03-11T13:39:22Z</time>
      </trkpt>
      <trkpt lat="49.92703" lon="2.23154">
        <ele>21.5</ele>
        <time>2022-03-11T13:39:23Z</time>
      </trkpt>
      <trkpt lat="49.92703" lon="2.23154">
        <ele>21.5</ele>
        <time>2022-03-11T13:39:24Z</time>
      </trkpt>
      <trkpt lat="49.92702" lon="2.23154">
        <ele>21.4</ele>
        <time>2022-03-11T13:39:25Z</time>
      </trkpt>
      <trkpt lat="49.92702" lon="2.23154">
        <ele>21.4</ele>
        <time>2022-03-11T13:39:26Z</time>
      </trkpt>
      <trkpt lat="49.92702" lon="2.23154">
        <ele>21.4</ele>
        <time>2022-03-11T13:39:27Z</time>
      </trkpt>
      <trkpt lat="49.92702" lon="2.23153">
        <ele>21.4</ele>
        <time>2022-03-11T13:39:28Z</time>
      </trkpt>
      <trkpt lat="49.92701" lon="2.23153">
        <ele>21.3</ele>
        <time>2022-03-11T13:39:29Z</time>
      </trkpt>
      <trkpt lat="49.92701" lon="2.23152">
        <ele>21.3</ele>
        <time>2022-03-11T13:39:30Z</time>
      </trkpt>
      <trkpt lat="49.927" lon="2.23152">
        <ele>21.2</ele>
        <time>2022-03-11T13:39:32Z</time>
      </trkpt>
      <trkpt lat="49.92699" lon="2.23151">
        <ele>21.1</ele>
        <time>2022-03-11T13:39:33Z</time>
      </trkpt>
      <trkpt lat="49.92698" lon="2.2315">
        <ele>20.9</ele>
        <time>2022-03-11T13:39:34Z</time>
      </trkpt>
      <trkpt lat="49.92697" lon="2.2315">
        <ele>20.8</ele>
        <time>2022-03-11T13:39:36Z</time>
      </trkpt>
      <trkpt lat="49.92696" lon="2.23149">
        <ele>20.7</ele>
        <time>2022-03-11T13:39:37Z</time>
      </trkpt>
      <trkpt lat="49.92695" lon="2.23148">
        <ele>20.6</ele>
        <time>2022-03-11T13:39:38Z</time>
      </trkpt>
      <trkpt lat="49.92694" lon="2.23148">
        <ele>20.5</ele>
        <time>2022-03-11T13:39:39Z</time>
      </trkpt>
      <trkpt lat="49.92692" lon="2.23147">
        <ele>20.3</ele>
        <time>2022-03-11T13:39:40Z</time>
      </trkpt>
      <trkpt lat="49.92691" lon="2.23146">
        <ele>20.2</ele>
        <time>2022-03-11T13:39:41Z</time>
      </trkpt>
      <trkpt lat="49.9269" lon="2.23145">
        <ele>20.1</ele>
        <time>2022-03-11T13:39:42Z</time>
      </trkpt>
      <trkpt lat="49.92689" lon="2.23144">
        <ele>19.9</ele>
        <time>2022-03-11T13:39:44Z</time>
      </trkpt>
      <trkpt lat="49.92687" lon="2.23143">
        <ele>19.8</ele>
        <time>2022-03-11T13:39:45Z</time>
      </trkpt>
      <trkpt lat="49.92686" lon="2.23143">
        <ele>19.7</ele>
        <time>2022-03-11T13:39:46Z</time>
      </trkpt>
      <trkpt lat="49.92684" lon="2.23141">
        <ele>19.4</ele>
        <time>2022-03-11T13:39:47Z</time>
      </trkpt>
      <trkpt lat="49.92683" lon="2.23141">
        <ele>19.4</ele>
        <time>2022-03-11T13:39:48Z</time>
      </trkpt>
      <trkpt lat="49.92682" lon="2.2314">
        <ele>19.3</ele>
        <time>2022-03-11T13:39:49Z</time>
      </trkpt>
      <trkpt lat="49.92681" lon="2.2314">
        <ele>19.1</ele>
        <time>2022-03-11T13:39:50Z</time>
      </trkpt>
      <trkpt lat="49.9268" lon="2.23138">
        <ele>19</ele>
        <time>2022-03-11T13:39:52Z</time>
      </trkpt>
      <trkpt lat="49.92679" lon="2.23137">
        <ele>18.9</ele>
        <time>2022-03-11T13:39:53Z</time>
      </trkpt>
      <trkpt lat="49.92678" lon="2.23136">
        <ele>18.8</ele>
        <time>2022-03-11T13:39:54Z</time>
      </trkpt>
      <trkpt lat="49.92676" lon="2.23135">
        <ele>18.7</ele>
        <time>2022-03-11T13:39:55Z</time>
      </trkpt>
      <trkpt lat="49.92675" lon="2.23134">
        <ele>18.5</ele>
        <time>2022-03-11T13:39:56Z</time>
      </trkpt>
      <trkpt lat="49.92673" lon="2.23133">
        <ele>18.4</ele>
        <time>2022-03-11T13:39:57Z</time>
      </trkpt>
      <trkpt lat="49.92672" lon="2.23132">
        <ele>18.3</ele>
        <time>2022-03-11T13:39:58Z</time>
      </trkpt>
      <trkpt lat="49.9267" lon="2.23131">
        <ele>18.2</ele>
        <time>2022-03-11T13:39:59Z</time>
      </trkpt>
      <trkpt lat="49.92669" lon="2.23131">
        <ele>18.1</ele>
        <time>2022-03-11T13:40:01Z</time>
      </trkpt>
      <trkpt lat="49.92668" lon="2.2313">
        <ele>18.1</ele>
        <time>2022-03-11T13:40:02Z</time>
      </trkpt>
      <trkpt lat="49.92667" lon="2.2313">
        <ele>18</ele>
        <time>2022-03-11T13:40:03Z</time>
      </trkpt>
      <trkpt lat="49.92666" lon="2.23129">
        <ele>17.9</ele>
        <time>2022-03-11T13:40:04Z</time>
      </trkpt>
      <trkpt lat="49.92664" lon="2.23128">
        <ele>17.8</ele>
        <time>2022-03-11T13:40:05Z</time>
      </trkpt>
      <trkpt lat="49.92663" lon="2.23127">
        <ele>17.8</ele>
        <time>2022-03-11T13:40:06Z</time>
      </trkpt>
      <trkpt lat="49.92662" lon="2.23127">
        <ele>17.7</ele>
        <time>2022-03-11T13:40:08Z</time>
      </trkpt>
      <trkpt lat="49.9266" lon="2.23126">
        <ele>17.7</ele>
        <time>2022-03-11T13:40:09Z</time>
      </trkpt>
      <trkpt lat="49.92659" lon="2.23125">
        <ele>17.6</ele>
        <time>2022-03-11T13:40:10Z</time>
      </trkpt>
      <trkpt lat="49.92658" lon="2.23124">
        <ele>17.5</ele>
        <time>2022-03-11T13:40:11Z</time>
      </trkpt>
      <trkpt lat="49.92657" lon="2.23124">
        <ele>17.5</ele>
        <time>2022-03-11T13:40:12Z</time>
      </trkpt>
      <trkpt lat="49.92655" lon="2.23123">
        <ele>17.2</ele>
        <time>2022-03-11T13:40:13Z</time>
      </trkpt>
      <trkpt lat="49.92655" lon="2.23123">
        <ele>17.2</ele>
        <time>2022-03-11T13:40:14Z</time>
      </trkpt>
      <trkpt lat="49.92654" lon="2.23122">
        <ele>17.1</ele>
        <time>2022-03-11T13:40:15Z</time>
      </trkpt>
      <trkpt lat="49.92653" lon="2.23121">
        <ele>17.1</ele>
        <time>2022-03-11T13:40:17Z</time>
      </trkpt>
      <trkpt lat="49.92652" lon="2.23121">
        <ele>17.1</ele>
        <time>2022-03-11T13:40:18Z</time>
      </trkpt>
      <trkpt lat="49.92651" lon="2.2312">
        <ele>17</ele>
        <time>2022-03-11T13:40:19Z</time>
      </trkpt>
      <trkpt lat="49.92651" lon="2.23119">
        <ele>17</ele>
        <time>2022-03-11T13:40:20Z</time>
      </trkpt>
      <trkpt lat="49.9265" lon="2.23118">
        <ele>17</ele>
        <time>2022-03-11T13:40:21Z</time>
      </trkpt>
      <trkpt lat="49.92649" lon="2.23117">
        <ele>16.9</ele>
        <time>2022-03-11T13:40:22Z</time>
      </trkpt>
      <trkpt lat="49.92648" lon="2.23116">
        <ele>16.9</ele>
        <time>2022-03-11T13:40:23Z</time>
      </trkpt>
      <trkpt lat="49.92647" lon="2.23114">
        <ele>16.8</ele>
        <time>2022-03-11T13:40:24Z</time>
      </trkpt>
      <trkpt lat="49.92645" lon="2.2311">
        <ele>16.7</ele>
        <time>2022-03-11T13:40:26Z</time>
      </trkpt>
      <trkpt lat="49.92645" lon="2.23109">
        <ele>16.7</ele>
        <time>2022-03-11T13:40:27Z</time>
      </trkpt>
      <trkpt lat="49.92644" lon="2.23108">
        <ele>16.6</ele>
        <time>2022-03-11T13:40:28Z</time>
      </trkpt>
      <trkpt lat="49.92643" lon="2.23105">
        <ele>16.5</ele>
        <time>2022-03-11T13:40:29Z</time>
      </trkpt>
      <trkpt lat="49.92643" lon="2.23102">
        <ele>16.5</ele>
        <time>2022-03-11T13:40:31Z</time>
      </trkpt>
      <trkpt lat="49.92643" lon="2.231">
        <ele>16.5</ele>
        <time>2022-03-11T13:40:32Z</time>
      </trkpt>
      <trkpt lat="49.92642" lon="2.23099">
        <ele>16.4</ele>
        <time>2022-03-11T13:40:33Z</time>
      </trkpt>
      <trkpt lat="49.92642" lon="2.23098">
        <ele>16.4</ele>
        <time>2022-03-11T13:40:34Z</time>
      </trkpt>
      <trkpt lat="49.92641" lon="2.23097">
        <ele>16.4</ele>
        <time>2022-03-11T13:40:35Z</time>
      </trkpt>
      <trkpt lat="49.9264" lon="2.23096">
        <ele>16.4</ele>
        <time>2022-03-11T13:40:36Z</time>
      </trkpt>
      <trkpt lat="49.92639" lon="2.23096">
        <ele>16.4</ele>
        <time>2022-03-11T13:40:38Z</time>
      </trkpt>
      <trkpt lat="49.92639" lon="2.23096">
        <ele>16.3</ele>
        <time>2022-03-11T13:40:39Z</time>
      </trkpt>
      <trkpt lat="49.92638" lon="2.23095">
        <ele>16.3</ele>
        <time>2022-03-11T13:40:41Z</time>
      </trkpt>
      <trkpt lat="49.92638" lon="2.23095">
        <ele>16.3</ele>
        <time>2022-03-11T13:40:43Z</time>
      </trkpt>
      <trkpt lat="49.92638" lon="2.23095">
        <ele>16.3</ele>
        <time>2022-03-11T13:40:44Z</time>
      </trkpt>
      <trkpt lat="49.92638" lon="2.23096">
        <ele>16.3</ele>
        <time>2022-03-11T13:40:45Z</time>
      </trkpt>
      <trkpt lat="49.92637" lon="2.23096">
        <ele>16.3</ele>
        <time>2022-03-11T13:40:47Z</time>
      </trkpt>
      <trkpt lat="49.92637" lon="2.23096">
        <ele>16.3</ele>
        <time>2022-03-11T13:40:48Z</time>
      </trkpt>
      <trkpt lat="49.92637" lon="2.23096">
        <ele>16.3</ele>
        <time>2022-03-11T13:40:49Z</time>
      </trkpt>
      <trkpt lat="49.92638" lon="2.23096">
        <ele>16.3</ele>
        <time>2022-03-11T13:40:50Z</time>
      </trkpt>
      <trkpt lat="49.92638" lon="2.23097">
        <ele>16.3</ele>
        <time>2022-03-11T13:40:51Z</time>
      </trkpt>
      <trkpt lat="49.92638" lon="2.23097">
        <ele>16.3</ele>
        <time>2022-03-11T13:40:52Z</time>
      </trkpt>
      <trkpt lat="49.92638" lon="2.23097">
        <ele>16.3</ele>
        <time>2022-03-11T13:40:53Z</time>
      </trkpt>
      <trkpt lat="49.92638" lon="2.23097">
        <ele>16.3</ele>
        <time>2022-03-11T13:40:54Z</time>
      </trkpt>
      <trkpt lat="49.92638" lon="2.23097">
        <ele>16.3</ele>
        <time>2022-03-11T13:40:55Z</time>
      </trkpt>
      <trkpt lat="49.92638" lon="2.23098">
        <ele>16.3</ele>
        <time>2022-03-11T13:40:57Z</time>
      </trkpt>
      <trkpt lat="49.92638" lon="2.23098">
        <ele>16.3</ele>
        <time>2022-03-11T13:40:58Z</time>
      </trkpt>
      <trkpt lat="49.92638" lon="2.23098">
        <ele>16.3</ele>
        <time>2022-03-11T13:40:59Z</time>
      </trkpt>
      <trkpt lat="49.92638" lon="2.23098">
        <ele>16.3</ele>
        <time>2022-03-11T13:41:00Z</time>
      </trkpt>
      <trkpt lat="49.92638" lon="2.23097">
        <ele>16.3</ele>
        <time>2022-03-11T13:41:01Z</time>
      </trkpt>
      <trkpt lat="49.92638" lon="2.23097">
        <ele>16.3</ele>
        <time>2022-03-11T13:41:02Z</time>
      </trkpt>
      <trkpt lat="49.92638" lon="2.23097">
        <ele>16.3</ele>
        <time>2022-03-11T13:41:03Z</time>
      </trkpt>
      <trkpt lat="49.92638" lon="2.23097">
        <ele>16.3</ele>
        <time>2022-03-11T13:41:04Z</time>
      </trkpt>
      <trkpt lat="49.92638" lon="2.23097">
        <ele>16.3</ele>
        <time>2022-03-11T13:41:05Z</time>
      </trkpt>
      <trkpt lat="49.9264" lon="2.23098">
        <ele>16.2</ele>
        <time>2022-03-11T13:41:06Z</time>
      </trkpt>
      <trkpt lat="49.92641" lon="2.23099">
        <ele>16.2</ele>
        <time>2022-03-11T13:41:07Z</time>
      </trkpt>
      <trkpt lat="49.92642" lon="2.23099">
        <ele>16.2</ele>
        <time>2022-03-11T13:41:08Z</time>
      </trkpt>
      <trkpt lat="49.92642" lon="2.23099">
        <ele>16.2</ele>
        <time>2022-03-11T13:41:09Z</time>
      </trkpt>
      <trkpt lat="49.92642" lon="2.23099">
        <ele>16.2</ele>
        <time>2022-03-11T13:41:10Z</time>
      </trkpt>
      <trkpt lat="49.92643" lon="2.23099">
        <ele>16.2</ele>
        <time>2022-03-11T13:41:11Z</time>
      </trkpt>
      <trkpt lat="49.92643" lon="2.23099">
        <ele>16.2</ele>
        <time>2022-03-11T13:41:12Z</time>
      </trkpt>
      <trkpt lat="49.92644" lon="2.23099">
        <ele>16.2</ele>
        <time>2022-03-11T13:41:13Z</time>
      </trkpt>
      <trkpt lat="49.92645" lon="2.23097">
        <ele>16.1</ele>
        <time>2022-03-11T13:41:15Z</time>
      </trkpt>
      <trkpt lat="49.92646" lon="2.23096">
        <ele>16.1</ele>
        <time>2022-03-11T13:41:16Z</time>
      </trkpt>
      <trkpt lat="49.92647" lon="2.23095">
        <ele>16.1</ele>
        <time>2022-03-11T13:41:17Z</time>
      </trkpt>
      <trkpt lat="49.92648" lon="2.23094">
        <ele>16.1</ele>
        <time>2022-03-11T13:41:18Z</time>
      </trkpt>
      <trkpt lat="49.92649" lon="2.23093">
        <ele>16.1</ele>
        <time>2022-03-11T13:41:19Z</time>
      </trkpt>
      <trkpt lat="49.9265" lon="2.23092">
        <ele>16.1</ele>
        <time>2022-03-11T13:41:20Z</time>
      </trkpt>
      <trkpt lat="49.92651" lon="2.23092">
        <ele>16.1</ele>
        <time>2022-03-11T13:41:21Z</time>
      </trkpt>
      <trkpt lat="49.92651" lon="2.23091">
        <ele>16.1</ele>
        <time>2022-03-11T13:41:22Z</time>
      </trkpt>
      <trkpt lat="49.92652" lon="2.2309">
        <ele>16.1</ele>
        <time>2022-03-11T13:41:23Z</time>
      </trkpt>
      <trkpt lat="49.92653" lon="2.2309">
        <ele>16.1</ele>
        <time>2022-03-11T13:41:25Z</time>
      </trkpt>
      <trkpt lat="49.92654" lon="2.23088">
        <ele>16</ele>
        <time>2022-03-11T13:41:26Z</time>
      </trkpt>
      <trkpt lat="49.92654" lon="2.23087">
        <ele>16</ele>
        <time>2022-03-11T13:41:27Z</time>
      </trkpt>
      <trkpt lat="49.92655" lon="2.23085">
        <ele>16</ele>
        <time>2022-03-11T13:41:28Z</time>
      </trkpt>
      <trkpt lat="49.92656" lon="2.23083">
        <ele>16</ele>
        <time>2022-03-11T13:41:29Z</time>
      </trkpt>
      <trkpt lat="49.92657" lon="2.23081">
        <ele>16</ele>
        <time>2022-03-11T13:41:31Z</time>
      </trkpt>
      <trkpt lat="49.92657" lon="2.2308">
        <ele>16</ele>
        <time>2022-03-11T13:41:32Z</time>
      </trkpt>
      <trkpt lat="49.92657" lon="2.23078">
        <ele>16</ele>
        <time>2022-03-11T13:41:33Z</time>
      </trkpt>
      <trkpt lat="49.92657" lon="2.23075">
        <ele>16</ele>
        <time>2022-03-11T13:41:34Z</time>
      </trkpt>
      <trkpt lat="49.92657" lon="2.23074">
        <ele>16</ele>
        <time>2022-03-11T13:41:35Z</time>
      </trkpt>
      <trkpt lat="49.92658" lon="2.23072">
        <ele>16</ele>
        <time>2022-03-11T13:41:36Z</time>
      </trkpt>
      <trkpt lat="49.92658" lon="2.23071">
        <ele>16</ele>
        <time>2022-03-11T13:41:38Z</time>
      </trkpt>
      <trkpt lat="49.92658" lon="2.23069">
        <ele>16</ele>
        <time>2022-03-11T13:41:39Z</time>
      </trkpt>
      <trkpt lat="49.92657" lon="2.23067">
        <ele>16</ele>
        <time>2022-03-11T13:41:40Z</time>
      </trkpt>
      <trkpt lat="49.92658" lon="2.23065">
        <ele>16</ele>
        <time>2022-03-11T13:41:41Z</time>
      </trkpt>
      <trkpt lat="49.92658" lon="2.23063">
        <ele>16</ele>
        <time>2022-03-11T13:41:42Z</time>
      </trkpt>
      <trkpt lat="49.92659" lon="2.2306">
        <ele>16</ele>
        <time>2022-03-11T13:41:43Z</time>
      </trkpt>
      <trkpt lat="49.92659" lon="2.23058">
        <ele>16</ele>
        <time>2022-03-11T13:41:45Z</time>
      </trkpt>
      <trkpt lat="49.92659" lon="2.23057">
        <ele>16</ele>
        <time>2022-03-11T13:41:46Z</time>
      </trkpt>
      <trkpt lat="49.9266" lon="2.23055">
        <ele>16</ele>
        <time>2022-03-11T13:41:47Z</time>
      </trkpt>
      <trkpt lat="49.9266" lon="2.23053">
        <ele>16</ele>
        <time>2022-03-11T13:41:48Z</time>
      </trkpt>
      <trkpt lat="49.9266" lon="2.2305">
        <ele>16</ele>
        <time>2022-03-11T13:41:49Z</time>
      </trkpt>
      <trkpt lat="49.92661" lon="2.23048">
        <ele>16</ele>
        <time>2022-03-11T13:41:50Z</time>
      </trkpt>
      <trkpt lat="49.92661" lon="2.23043">
        <ele>16</ele>
        <time>2022-03-11T13:41:51Z</time>
      </trkpt>
      <trkpt lat="49.92662" lon="2.23041">
        <ele>16</ele>
        <time>2022-03-11T13:41:53Z</time>
      </trkpt>
      <trkpt lat="49.92662" lon="2.23039">
        <ele>16</ele>
        <time>2022-03-11T13:41:54Z</time>
      </trkpt>
      <trkpt lat="49.92663" lon="2.23037">
        <ele>16</ele>
        <time>2022-03-11T13:41:55Z</time>
      </trkpt>
      <trkpt lat="49.92664" lon="2.23034">
        <ele>16</ele>
        <time>2022-03-11T13:41:56Z</time>
      </trkpt>
      <trkpt lat="49.92664" lon="2.23031">
        <ele>16.1</ele>
        <time>2022-03-11T13:41:57Z</time>
      </trkpt>
      <trkpt lat="49.92665" lon="2.23028">
        <ele>16.1</ele>
        <time>2022-03-11T13:41:58Z</time>
      </trkpt>
      <trkpt lat="49.92666" lon="2.23027">
        <ele>16.1</ele>
        <time>2022-03-11T13:42:00Z</time>
      </trkpt>
      <trkpt lat="49.92667" lon="2.23025">
        <ele>16.1</ele>
        <time>2022-03-11T13:42:01Z</time>
      </trkpt>
      <trkpt lat="49.92667" lon="2.23024">
        <ele>16.1</ele>
        <time>2022-03-11T13:42:02Z</time>
      </trkpt>
      <trkpt lat="49.92668" lon="2.23022">
        <ele>16.1</ele>
        <time>2022-03-11T13:42:03Z</time>
      </trkpt>
      <trkpt lat="49.92669" lon="2.23019">
        <ele>16.1</ele>
        <time>2022-03-11T13:42:04Z</time>
      </trkpt>
      <trkpt lat="49.92669" lon="2.23018">
        <ele>16.1</ele>
        <time>2022-03-11T13:42:06Z</time>
      </trkpt>
      <trkpt lat="49.92669" lon="2.23017">
        <ele>16.1</ele>
        <time>2022-03-11T13:42:07Z</time>
      </trkpt>
      <trkpt lat="49.9267" lon="2.23016">
        <ele>16.1</ele>
        <time>2022-03-11T13:42:08Z</time>
      </trkpt>
      <trkpt lat="49.92671" lon="2.23014">
        <ele>16.1</ele>
        <time>2022-03-11T13:42:09Z</time>
      </trkpt>
      <trkpt lat="49.92672" lon="2.23013">
        <ele>16.2</ele>
        <time>2022-03-11T13:42:10Z</time>
      </trkpt>
      <trkpt lat="49.92672" lon="2.23011">
        <ele>16.2</ele>
        <time>2022-03-11T13:42:11Z</time>
      </trkpt>
      <trkpt lat="49.92673" lon="2.2301">
        <ele>16.2</ele>
        <time>2022-03-11T13:42:12Z</time>
      </trkpt>
      <trkpt lat="49.92674" lon="2.23008">
        <ele>16.2</ele>
        <time>2022-03-11T13:42:14Z</time>
      </trkpt>
      <trkpt lat="49.92674" lon="2.23005">
        <ele>16.2</ele>
        <time>2022-03-11T13:42:15Z</time>
      </trkpt>
      <trkpt lat="49.92675" lon="2.23004">
        <ele>16.2</ele>
        <time>2022-03-11T13:42:16Z</time>
      </trkpt>
      <trkpt lat="49.92675" lon="2.23003">
        <ele>16.2</ele>
        <time>2022-03-11T13:42:17Z</time>
      </trkpt>
      <trkpt lat="49.92675" lon="2.23001">
        <ele>16.3</ele>
        <time>2022-03-11T13:42:18Z</time>
      </trkpt>
      <trkpt lat="49.92676" lon="2.22999">
        <ele>16.3</ele>
        <time>2022-03-11T13:42:19Z</time>
      </trkpt>
      <trkpt lat="49.92677" lon="2.22996">
        <ele>16.3</ele>
        <time>2022-03-11T13:42:20Z</time>
      </trkpt>
      <trkpt lat="49.92677" lon="2.22995">
        <ele>16.3</ele>
        <time>2022-03-11T13:42:22Z</time>
      </trkpt>
      <trkpt lat="49.92677" lon="2.22993">
        <ele>16.4</ele>
        <time>2022-03-11T13:42:23Z</time>
      </trkpt>
      <trkpt lat="49.92678" lon="2.2299">
        <ele>16.4</ele>
        <time>2022-03-11T13:42:24Z</time>
      </trkpt>
      <trkpt lat="49.92678" lon="2.22989">
        <ele>16.4</ele>
        <time>2022-03-11T13:42:25Z</time>
      </trkpt>
      <trkpt lat="49.92678" lon="2.22988">
        <ele>16.4</ele>
        <time>2022-03-11T13:42:26Z</time>
      </trkpt>
      <trkpt lat="49.92679" lon="2.22986">
        <ele>16.4</ele>
        <time>2022-03-11T13:42:27Z</time>
      </trkpt>
      <trkpt lat="49.92679" lon="2.22984">
        <ele>16.5</ele>
        <time>2022-03-11T13:42:28Z</time>
      </trkpt>
      <trkpt lat="49.92679" lon="2.22982">
        <ele>16.5</ele>
        <time>2022-03-11T13:42:30Z</time>
      </trkpt>
      <trkpt lat="49.9268" lon="2.22981">
        <ele>16.5</ele>
        <time>2022-03-11T13:42:31Z</time>
      </trkpt>
      <trkpt lat="49.9268" lon="2.22979">
        <ele>16.5</ele>
        <time>2022-03-11T13:42:32Z</time>
      </trkpt>
      <trkpt lat="49.9268" lon="2.22978">
        <ele>16.5</ele>
        <time>2022-03-11T13:42:33Z</time>
      </trkpt>
      <trkpt lat="49.92681" lon="2.22976">
        <ele>16.5</ele>
        <time>2022-03-11T13:42:34Z</time>
      </trkpt>
      <trkpt lat="49.92681" lon="2.22974">
        <ele>16.6</ele>
        <time>2022-03-11T13:42:35Z</time>
      </trkpt>
      <trkpt lat="49.92682" lon="2.22971">
        <ele>16.6</ele>
        <time>2022-03-11T13:42:36Z</time>
      </trkpt>
      <trkpt lat="49.92682" lon="2.2297">
        <ele>16.6</ele>
        <time>2022-03-11T13:42:38Z</time>
      </trkpt>
      <trkpt lat="49.92682" lon="2.22968">
        <ele>16.6</ele>
        <time>2022-03-11T13:42:39Z</time>
      </trkpt>
      <trkpt lat="49.92682" lon="2.22967">
        <ele>16.6</ele>
        <time>2022-03-11T13:42:40Z</time>
      </trkpt>
      <trkpt lat="49.92682" lon="2.22965">
        <ele>16.6</ele>
        <time>2022-03-11T13:42:41Z</time>
      </trkpt>
      <trkpt lat="49.92682" lon="2.22963">
        <ele>16.6</ele>
        <time>2022-03-11T13:42:42Z</time>
      </trkpt>
      <trkpt lat="49.92682" lon="2.22961">
        <ele>16.6</ele>
        <time>2022-03-11T13:42:44Z</time>
      </trkpt>
      <trkpt lat="49.92683" lon="2.2296">
        <ele>16.6</ele>
        <time>2022-03-11T13:42:45Z</time>
      </trkpt>
      <trkpt lat="49.92683" lon="2.22958">
        <ele>16.6</ele>
        <time>2022-03-11T13:42:46Z</time>
      </trkpt>
      <trkpt lat="49.92684" lon="2.22957">
        <ele>16.6</ele>
        <time>2022-03-11T13:42:47Z</time>
      </trkpt>
      <trkpt lat="49.92684" lon="2.22956">
        <ele>16.6</ele>
        <time>2022-03-11T13:42:48Z</time>
      </trkpt>
      <trkpt lat="49.92685" lon="2.22954">
        <ele>16.6</ele>
        <time>2022-03-11T13:42:49Z</time>
      </trkpt>
      <trkpt lat="49.92687" lon="2.22952">
        <ele>16.6</ele>
        <time>2022-03-11T13:42:51Z</time>
      </trkpt>
      <trkpt lat="49.92687" lon="2.22951">
        <ele>16.6</ele>
        <time>2022-03-11T13:42:52Z</time>
      </trkpt>
      <trkpt lat="49.92688" lon="2.22951">
        <ele>16.6</ele>
        <time>2022-03-11T13:42:53Z</time>
      </trkpt>
      <trkpt lat="49.92688" lon="2.22948">
        <ele>16.6</ele>
        <time>2022-03-11T13:42:54Z</time>
      </trkpt>
      <trkpt lat="49.92688" lon="2.22946">
        <ele>16.6</ele>
        <time>2022-03-11T13:42:55Z</time>
      </trkpt>
      <trkpt lat="49.92687" lon="2.22945">
        <ele>16.6</ele>
        <time>2022-03-11T13:42:56Z</time>
      </trkpt>
      <trkpt lat="49.92687" lon="2.22941">
        <ele>16.6</ele>
        <time>2022-03-11T13:42:58Z</time>
      </trkpt>
      <trkpt lat="49.92687" lon="2.2294">
        <ele>16.6</ele>
        <time>2022-03-11T13:42:59Z</time>
      </trkpt>
      <trkpt lat="49.92688" lon="2.22939">
        <ele>16.6</ele>
        <time>2022-03-11T13:43:00Z</time>
      </trkpt>
      <trkpt lat="49.92688" lon="2.22937">
        <ele>16.6</ele>
        <time>2022-03-11T13:43:01Z</time>
      </trkpt>
      <trkpt lat="49.92688" lon="2.22935">
        <ele>16.6</ele>
        <time>2022-03-11T13:43:02Z</time>
      </trkpt>
      <trkpt lat="49.92689" lon="2.22933">
        <ele>16.6</ele>
        <time>2022-03-11T13:43:03Z</time>
      </trkpt>
      <trkpt lat="49.9269" lon="2.22931">
        <ele>16.6</ele>
        <time>2022-03-11T13:43:04Z</time>
      </trkpt>
      <trkpt lat="49.9269" lon="2.22929">
        <ele>16.5</ele>
        <time>2022-03-11T13:43:06Z</time>
      </trkpt>
      <trkpt lat="49.92691" lon="2.22927">
        <ele>16.5</ele>
        <time>2022-03-11T13:43:07Z</time>
      </trkpt>
      <trkpt lat="49.92691" lon="2.22924">
        <ele>16.5</ele>
        <time>2022-03-11T13:43:08Z</time>
      </trkpt>
      <trkpt lat="49.92692" lon="2.22922">
        <ele>16.5</ele>
        <time>2022-03-11T13:43:09Z</time>
      </trkpt>
      <trkpt lat="49.92692" lon="2.22921">
        <ele>16.5</ele>
        <time>2022-03-11T13:43:10Z</time>
      </trkpt>
      <trkpt lat="49.92692" lon="2.22919">
        <ele>16.5</ele>
        <time>2022-03-11T13:43:11Z</time>
      </trkpt>
      <trkpt lat="49.92692" lon="2.22917">
        <ele>16.5</ele>
        <time>2022-03-11T13:43:13Z</time>
      </trkpt>
      <trkpt lat="49.92692" lon="2.22915">
        <ele>16.5</ele>
        <time>2022-03-11T13:43:14Z</time>
      </trkpt>
      <trkpt lat="49.92693" lon="2.22913">
        <ele>16.5</ele>
        <time>2022-03-11T13:43:15Z</time>
      </trkpt>
      <trkpt lat="49.92693" lon="2.22911">
        <ele>16.5</ele>
        <time>2022-03-11T13:43:16Z</time>
      </trkpt>
      <trkpt lat="49.92694" lon="2.2291">
        <ele>16.5</ele>
        <time>2022-03-11T13:43:17Z</time>
      </trkpt>
      <trkpt lat="49.92694" lon="2.22908">
        <ele>16.5</ele>
        <time>2022-03-11T13:43:18Z</time>
      </trkpt>
      <trkpt lat="49.92695" lon="2.22905">
        <ele>16.5</ele>
        <time>2022-03-11T13:43:19Z</time>
      </trkpt>
      <trkpt lat="49.92696" lon="2.22904">
        <ele>16.5</ele>
        <time>2022-03-11T13:43:21Z</time>
      </trkpt>
      <trkpt lat="49.92696" lon="2.22903">
        <ele>16.5</ele>
        <time>2022-03-11T13:43:22Z</time>
      </trkpt>
      <trkpt lat="49.92697" lon="2.22901">
        <ele>16.5</ele>
        <time>2022-03-11T13:43:23Z</time>
      </trkpt>
      <trkpt lat="49.92697" lon="2.229">
        <ele>16.5</ele>
        <time>2022-03-11T13:43:24Z</time>
      </trkpt>
      <trkpt lat="49.92697" lon="2.22898">
        <ele>16.5</ele>
        <time>2022-03-11T13:43:26Z</time>
      </trkpt>
      <trkpt lat="49.92698" lon="2.22896">
        <ele>16.5</ele>
        <time>2022-03-11T13:43:27Z</time>
      </trkpt>
      <trkpt lat="49.92699" lon="2.22895">
        <ele>16.5</ele>
        <time>2022-03-11T13:43:28Z</time>
      </trkpt>
      <trkpt lat="49.92699" lon="2.22893">
        <ele>16.5</ele>
        <time>2022-03-11T13:43:29Z</time>
      </trkpt>
      <trkpt lat="49.92699" lon="2.22892">
        <ele>16.5</ele>
        <time>2022-03-11T13:43:30Z</time>
      </trkpt>
      <trkpt lat="49.927" lon="2.2289">
        <ele>16.6</ele>
        <time>2022-03-11T13:43:31Z</time>
      </trkpt>
      <trkpt lat="49.927" lon="2.22889">
        <ele>16.6</ele>
        <time>2022-03-11T13:43:32Z</time>
      </trkpt>
      <trkpt lat="49.92701" lon="2.22886">
        <ele>16.6</ele>
        <time>2022-03-11T13:43:33Z</time>
      </trkpt>
      <trkpt lat="49.92701" lon="2.22885">
        <ele>16.6</ele>
        <time>2022-03-11T13:43:34Z</time>
      </trkpt>
      <trkpt lat="49.92701" lon="2.22883">
        <ele>16.6</ele>
        <time>2022-03-11T13:43:35Z</time>
      </trkpt>
      <trkpt lat="49.92702" lon="2.2288">
        <ele>16.6</ele>
        <time>2022-03-11T13:43:36Z</time>
      </trkpt>
      <trkpt lat="49.92702" lon="2.22879">
        <ele>16.6</ele>
        <time>2022-03-11T13:43:38Z</time>
      </trkpt>
      <trkpt lat="49.92702" lon="2.22878">
        <ele>16.6</ele>
        <time>2022-03-11T13:43:39Z</time>
      </trkpt>
      <trkpt lat="49.92703" lon="2.22876">
        <ele>16.6</ele>
        <time>2022-03-11T13:43:40Z</time>
      </trkpt>
      <trkpt lat="49.92703" lon="2.22875">
        <ele>16.6</ele>
        <time>2022-03-11T13:43:41Z</time>
      </trkpt>
      <trkpt lat="49.92703" lon="2.22874">
        <ele>16.6</ele>
        <time>2022-03-11T13:43:42Z</time>
      </trkpt>
      <trkpt lat="49.92703" lon="2.22872">
        <ele>16.6</ele>
        <time>2022-03-11T13:43:43Z</time>
      </trkpt>
      <trkpt lat="49.92703" lon="2.22869">
        <ele>16.6</ele>
        <time>2022-03-11T13:43:44Z</time>
      </trkpt>
      <trkpt lat="49.92704" lon="2.22865">
        <ele>16.7</ele>
        <time>2022-03-11T13:43:45Z</time>
      </trkpt>
      <trkpt lat="49.92704" lon="2.22863">
        <ele>16.7</ele>
        <time>2022-03-11T13:43:47Z</time>
      </trkpt>
      <trkpt lat="49.92704" lon="2.22861">
        <ele>16.7</ele>
        <time>2022-03-11T13:43:48Z</time>
      </trkpt>
      <trkpt lat="49.92704" lon="2.2286">
        <ele>16.7</ele>
        <time>2022-03-11T13:43:49Z</time>
      </trkpt>
      <trkpt lat="49.92704" lon="2.22858">
        <ele>16.7</ele>
        <time>2022-03-11T13:43:50Z</time>
      </trkpt>
      <trkpt lat="49.92704" lon="2.22856">
        <ele>16.7</ele>
        <time>2022-03-11T13:43:51Z</time>
      </trkpt>
      <trkpt lat="49.92704" lon="2.22854">
        <ele>16.7</ele>
        <time>2022-03-11T13:43:52Z</time>
      </trkpt>
      <trkpt lat="49.92703" lon="2.2285">
        <ele>16.7</ele>
        <time>2022-03-11T13:43:53Z</time>
      </trkpt>
      <trkpt lat="49.92702" lon="2.22849">
        <ele>16.6</ele>
        <time>2022-03-11T13:43:55Z</time>
      </trkpt>
      <trkpt lat="49.92702" lon="2.22848">
        <ele>16.6</ele>
        <time>2022-03-11T13:43:56Z</time>
      </trkpt>
      <trkpt lat="49.92701" lon="2.22846">
        <ele>16.6</ele>
        <time>2022-03-11T13:43:57Z</time>
      </trkpt>
      <trkpt lat="49.927" lon="2.22845">
        <ele>16.6</ele>
        <time>2022-03-11T13:43:58Z</time>
      </trkpt>
      <trkpt lat="49.92699" lon="2.22844">
        <ele>16.6</ele>
        <time>2022-03-11T13:43:59Z</time>
      </trkpt>
      <trkpt lat="49.92698" lon="2.22842">
        <ele>16.6</ele>
        <time>2022-03-11T13:44:00Z</time>
      </trkpt>
      <trkpt lat="49.92696" lon="2.22841">
        <ele>16.5</ele>
        <time>2022-03-11T13:44:01Z</time>
      </trkpt>
      <trkpt lat="49.92695" lon="2.22841">
        <ele>16.5</ele>
        <time>2022-03-11T13:44:03Z</time>
      </trkpt>
      <trkpt lat="49.92694" lon="2.22841">
        <ele>16.5</ele>
        <time>2022-03-11T13:44:04Z</time>
      </trkpt>
      <trkpt lat="49.92693" lon="2.2284">
        <ele>16.5</ele>
        <time>2022-03-11T13:44:05Z</time>
      </trkpt>
      <trkpt lat="49.92692" lon="2.2284">
        <ele>16.5</ele>
        <time>2022-03-11T13:44:06Z</time>
      </trkpt>
      <trkpt lat="49.92691" lon="2.22839">
        <ele>16.5</ele>
        <time>2022-03-11T13:44:07Z</time>
      </trkpt>
      <trkpt lat="49.92689" lon="2.22839">
        <ele>16.4</ele>
        <time>2022-03-11T13:44:09Z</time>
      </trkpt>
      <trkpt lat="49.92688" lon="2.22838">
        <ele>16.4</ele>
        <time>2022-03-11T13:44:10Z</time>
      </trkpt>
      <trkpt lat="49.92687" lon="2.22838">
        <ele>16.4</ele>
        <time>2022-03-11T13:44:11Z</time>
      </trkpt>
      <trkpt lat="49.92686" lon="2.22838">
        <ele>16.4</ele>
        <time>2022-03-11T13:44:12Z</time>
      </trkpt>
      <trkpt lat="49.92685" lon="2.22838">
        <ele>16.4</ele>
        <time>2022-03-11T13:44:13Z</time>
      </trkpt>
      <trkpt lat="49.92684" lon="2.22837">
        <ele>16.4</ele>
        <time>2022-03-11T13:44:14Z</time>
      </trkpt>
      <trkpt lat="49.92683" lon="2.22837">
        <ele>16.3</ele>
        <time>2022-03-11T13:44:15Z</time>
      </trkpt>
      <trkpt lat="49.92682" lon="2.22836">
        <ele>16.3</ele>
        <time>2022-03-11T13:44:17Z</time>
      </trkpt>
      <trkpt lat="49.92681" lon="2.22836">
        <ele>16.3</ele>
        <time>2022-03-11T13:44:18Z</time>
      </trkpt>
      <trkpt lat="49.92679" lon="2.22835">
        <ele>16.3</ele>
        <time>2022-03-11T13:44:19Z</time>
      </trkpt>
      <trkpt lat="49.92678" lon="2.22834">
        <ele>16.3</ele>
        <time>2022-03-11T13:44:20Z</time>
      </trkpt>
      <trkpt lat="49.92677" lon="2.22834">
        <ele>16.3</ele>
        <time>2022-03-11T13:44:21Z</time>
      </trkpt>
      <trkpt lat="49.92675" lon="2.22832">
        <ele>16.2</ele>
        <time>2022-03-11T13:44:22Z</time>
      </trkpt>
      <trkpt lat="49.92674" lon="2.22832">
        <ele>16.2</ele>
        <time>2022-03-11T13:44:24Z</time>
      </trkpt>
      <trkpt lat="49.92674" lon="2.22831">
        <ele>16.2</ele>
        <time>2022-03-11T13:44:25Z</time>
      </trkpt>
      <trkpt lat="49.92672" lon="2.2283">
        <ele>16.2</ele>
        <time>2022-03-11T13:44:26Z</time>
      </trkpt>
      <trkpt lat="49.92671" lon="2.22829">
        <ele>16.1</ele>
        <time>2022-03-11T13:44:27Z</time>
      </trkpt>
      <trkpt lat="49.9267" lon="2.22829">
        <ele>16.1</ele>
        <time>2022-03-11T13:44:28Z</time>
      </trkpt>
      <trkpt lat="49.92668" lon="2.22828">
        <ele>16.1</ele>
        <time>2022-03-11T13:44:29Z</time>
      </trkpt>
      <trkpt lat="49.92667" lon="2.22828">
        <ele>16.1</ele>
        <time>2022-03-11T13:44:30Z</time>
      </trkpt>
      <trkpt lat="49.92666" lon="2.22827">
        <ele>16.1</ele>
        <time>2022-03-11T13:44:32Z</time>
      </trkpt>
      <trkpt lat="49.92664" lon="2.22826">
        <ele>16</ele>
        <time>2022-03-11T13:44:33Z</time>
      </trkpt>
      <trkpt lat="49.92663" lon="2.22825">
        <ele>16</ele>
        <time>2022-03-11T13:44:34Z</time>
      </trkpt>
      <trkpt lat="49.92662" lon="2.22824">
        <ele>16</ele>
        <time>2022-03-11T13:44:35Z</time>
      </trkpt>
      <trkpt lat="49.9266" lon="2.22823">
        <ele>16</ele>
        <time>2022-03-11T13:44:36Z</time>
      </trkpt>
      <trkpt lat="49.92659" lon="2.22822">
        <ele>15.9</ele>
        <time>2022-03-11T13:44:37Z</time>
      </trkpt>
      <trkpt lat="49.92657" lon="2.22821">
        <ele>15.9</ele>
        <time>2022-03-11T13:44:38Z</time>
      </trkpt>
      <trkpt lat="49.92656" lon="2.2282">
        <ele>15.9</ele>
        <time>2022-03-11T13:44:39Z</time>
      </trkpt>
      <trkpt lat="49.92655" lon="2.22819">
        <ele>15.9</ele>
        <time>2022-03-11T13:44:41Z</time>
      </trkpt>
      <trkpt lat="49.92654" lon="2.22818">
        <ele>15.9</ele>
        <time>2022-03-11T13:44:42Z</time>
      </trkpt>
      <trkpt lat="49.92652" lon="2.22818">
        <ele>15.8</ele>
        <time>2022-03-11T13:44:43Z</time>
      </trkpt>
      <trkpt lat="49.92652" lon="2.22817">
        <ele>15.8</ele>
        <time>2022-03-11T13:44:44Z</time>
      </trkpt>
      <trkpt lat="49.92651" lon="2.22816">
        <ele>15.8</ele>
        <time>2022-03-11T13:44:45Z</time>
      </trkpt>
      <trkpt lat="49.92649" lon="2.22815">
        <ele>15.8</ele>
        <time>2022-03-11T13:44:46Z</time>
      </trkpt>
      <trkpt lat="49.92648" lon="2.22814">
        <ele>15.8</ele>
        <time>2022-03-11T13:44:47Z</time>
      </trkpt>
      <trkpt lat="49.92647" lon="2.22813">
        <ele>15.7</ele>
        <time>2022-03-11T13:44:48Z</time>
      </trkpt>
      <trkpt lat="49.92645" lon="2.22812">
        <ele>15.7</ele>
        <time>2022-03-11T13:44:50Z</time>
      </trkpt>
      <trkpt lat="49.92644" lon="2.22811">
        <ele>15.7</ele>
        <time>2022-03-11T13:44:51Z</time>
      </trkpt>
      <trkpt lat="49.92644" lon="2.2281">
        <ele>15.7</ele>
        <time>2022-03-11T13:44:52Z</time>
      </trkpt>
      <trkpt lat="49.92642" lon="2.22808">
        <ele>15.6</ele>
        <time>2022-03-11T13:44:53Z</time>
      </trkpt>
      <trkpt lat="49.92642" lon="2.22807">
        <ele>15.6</ele>
        <time>2022-03-11T13:44:54Z</time>
      </trkpt>
      <trkpt lat="49.92641" lon="2.22806">
        <ele>15.6</ele>
        <time>2022-03-11T13:44:55Z</time>
      </trkpt>
      <trkpt lat="49.92639" lon="2.22804">
        <ele>15.6</ele>
        <time>2022-03-11T13:44:56Z</time>
      </trkpt>
      <trkpt lat="49.92638" lon="2.22804">
        <ele>15.6</ele>
        <time>2022-03-11T13:44:58Z</time>
      </trkpt>
      <trkpt lat="49.92638" lon="2.22803">
        <ele>15.6</ele>
        <time>2022-03-11T13:44:59Z</time>
      </trkpt>
      <trkpt lat="49.92637" lon="2.22802">
        <ele>15.5</ele>
        <time>2022-03-11T13:45:00Z</time>
      </trkpt>
      <trkpt lat="49.92636" lon="2.22801">
        <ele>15.5</ele>
        <time>2022-03-11T13:45:01Z</time>
      </trkpt>
      <trkpt lat="49.92635" lon="2.228">
        <ele>15.5</ele>
        <time>2022-03-11T13:45:02Z</time>
      </trkpt>
      <trkpt lat="49.92634" lon="2.22799">
        <ele>15.5</ele>
        <time>2022-03-11T13:45:03Z</time>
      </trkpt>
      <trkpt lat="49.92633" lon="2.22798">
        <ele>15.5</ele>
        <time>2022-03-11T13:45:04Z</time>
      </trkpt>
      <trkpt lat="49.92632" lon="2.22797">
        <ele>15.5</ele>
        <time>2022-03-11T13:45:06Z</time>
      </trkpt>
      <trkpt lat="49.92631" lon="2.22796">
        <ele>15.5</ele>
        <time>2022-03-11T13:45:07Z</time>
      </trkpt>
      <trkpt lat="49.9263" lon="2.22795">
        <ele>15.4</ele>
        <time>2022-03-11T13:45:08Z</time>
      </trkpt>
      <trkpt lat="49.92629" lon="2.22794">
        <ele>15.4</ele>
        <time>2022-03-11T13:45:09Z</time>
      </trkpt>
      <trkpt lat="49.92627" lon="2.22792">
        <ele>15.4</ele>
        <time>2022-03-11T13:45:10Z</time>
      </trkpt>
      <trkpt lat="49.92627" lon="2.22791">
        <ele>15.4</ele>
        <time>2022-03-11T13:45:12Z</time>
      </trkpt>
      <trkpt lat="49.92626" lon="2.2279">
        <ele>15.4</ele>
        <time>2022-03-11T13:45:13Z</time>
      </trkpt>
      <trkpt lat="49.92625" lon="2.22789">
        <ele>15.4</ele>
        <time>2022-03-11T13:45:14Z</time>
      </trkpt>
      <trkpt lat="49.92625" lon="2.22788">
        <ele>15.4</ele>
        <time>2022-03-11T13:45:15Z</time>
      </trkpt>
      <trkpt lat="49.92624" lon="2.22787">
        <ele>15.4</ele>
        <time>2022-03-11T13:45:16Z</time>
      </trkpt>
      <trkpt lat="49.92623" lon="2.22786">
        <ele>15.3</ele>
        <time>2022-03-11T13:45:17Z</time>
      </trkpt>
      <trkpt lat="49.92622" lon="2.22784">
        <ele>15.3</ele>
        <time>2022-03-11T13:45:18Z</time>
      </trkpt>
      <trkpt lat="49.92621" lon="2.22783">
        <ele>15.3</ele>
        <time>2022-03-11T13:45:20Z</time>
      </trkpt>
      <trkpt lat="49.9262" lon="2.22782">
        <ele>15.3</ele>
        <time>2022-03-11T13:45:21Z</time>
      </trkpt>
      <trkpt lat="49.9262" lon="2.22781">
        <ele>15.3</ele>
        <time>2022-03-11T13:45:22Z</time>
      </trkpt>
      <trkpt lat="49.92619" lon="2.2278">
        <ele>15.3</ele>
        <time>2022-03-11T13:45:23Z</time>
      </trkpt>
      <trkpt lat="49.92619" lon="2.22779">
        <ele>15.3</ele>
        <time>2022-03-11T13:45:24Z</time>
      </trkpt>
      <trkpt lat="49.92618" lon="2.22777">
        <ele>15.3</ele>
        <time>2022-03-11T13:45:25Z</time>
      </trkpt>
      <trkpt lat="49.92617" lon="2.22776">
        <ele>15.3</ele>
        <time>2022-03-11T13:45:27Z</time>
      </trkpt>
      <trkpt lat="49.92617" lon="2.22775">
        <ele>15.2</ele>
        <time>2022-03-11T13:45:28Z</time>
      </trkpt>
      <trkpt lat="49.92616" lon="2.22774">
        <ele>15.2</ele>
        <time>2022-03-11T13:45:29Z</time>
      </trkpt>
      <trkpt lat="49.92615" lon="2.22773">
        <ele>15.2</ele>
        <time>2022-03-11T13:45:30Z</time>
      </trkpt>
      <trkpt lat="49.92615" lon="2.22772">
        <ele>15.2</ele>
        <time>2022-03-11T13:45:31Z</time>
      </trkpt>
      <trkpt lat="49.92614" lon="2.22771">
        <ele>15.2</ele>
        <time>2022-03-11T13:45:32Z</time>
      </trkpt>
      <trkpt lat="49.92614" lon="2.2277">
        <ele>15.2</ele>
        <time>2022-03-11T13:45:34Z</time>
      </trkpt>
      <trkpt lat="49.92613" lon="2.22768">
        <ele>15.2</ele>
        <time>2022-03-11T13:45:35Z</time>
      </trkpt>
      <trkpt lat="49.92612" lon="2.22767">
        <ele>15.2</ele>
        <time>2022-03-11T13:45:36Z</time>
      </trkpt>
      <trkpt lat="49.92612" lon="2.22766">
        <ele>15.2</ele>
        <time>2022-03-11T13:45:37Z</time>
      </trkpt>
      <trkpt lat="49.92611" lon="2.22765">
        <ele>15.1</ele>
        <time>2022-03-11T13:45:39Z</time>
      </trkpt>
      <trkpt lat="49.9261" lon="2.22764">
        <ele>15.1</ele>
        <time>2022-03-11T13:45:40Z</time>
      </trkpt>
      <trkpt lat="49.92609" lon="2.22762">
        <ele>15.1</ele>
        <time>2022-03-11T13:45:42Z</time>
      </trkpt>
      <trkpt lat="49.92609" lon="2.22761">
        <ele>15.1</ele>
        <time>2022-03-11T13:45:43Z</time>
      </trkpt>
      <trkpt lat="49.92609" lon="2.2276">
        <ele>15.1</ele>
        <time>2022-03-11T13:45:44Z</time>
      </trkpt>
      <trkpt lat="49.92609" lon="2.22759">
        <ele>15.1</ele>
        <time>2022-03-11T13:45:45Z</time>
      </trkpt>
      <trkpt lat="49.92608" lon="2.22758">
        <ele>15.1</ele>
        <time>2022-03-11T13:45:46Z</time>
      </trkpt>
      <trkpt lat="49.92608" lon="2.22757">
        <ele>15.1</ele>
        <time>2022-03-11T13:45:47Z</time>
      </trkpt>
      <trkpt lat="49.92608" lon="2.22757">
        <ele>15.1</ele>
        <time>2022-03-11T13:45:48Z</time>
      </trkpt>
      <trkpt lat="49.92608" lon="2.22757">
        <ele>15.1</ele>
        <time>2022-03-11T13:45:49Z</time>
      </trkpt>
      <trkpt lat="49.92608" lon="2.22756">
        <ele>15.1</ele>
        <time>2022-03-11T13:45:50Z</time>
      </trkpt>
      <trkpt lat="49.92608" lon="2.22756">
        <ele>15.1</ele>
        <time>2022-03-11T13:45:51Z</time>
      </trkpt>
      <trkpt lat="49.92608" lon="2.22756">
        <ele>15.1</ele>
        <time>2022-03-11T13:45:52Z</time>
      </trkpt>
      <trkpt lat="49.92608" lon="2.22756">
        <ele>15.1</ele>
        <time>2022-03-11T13:45:53Z</time>
      </trkpt>
      <trkpt lat="49.92609" lon="2.22755">
        <ele>15.1</ele>
        <time>2022-03-11T13:45:54Z</time>
      </trkpt>
      <trkpt lat="49.92609" lon="2.22755">
        <ele>15.1</ele>
        <time>2022-03-11T13:45:55Z</time>
      </trkpt>
      <trkpt lat="49.92609" lon="2.22755">
        <ele>15.1</ele>
        <time>2022-03-11T13:45:56Z</time>
      </trkpt>
      <trkpt lat="49.92609" lon="2.22755">
        <ele>15.1</ele>
        <time>2022-03-11T13:45:57Z</time>
      </trkpt>
      <trkpt lat="49.92609" lon="2.22755">
        <ele>15.1</ele>
        <time>2022-03-11T13:45:58Z</time>
      </trkpt>
      <trkpt lat="49.9261" lon="2.22756">
        <ele>15.1</ele>
        <time>2022-03-11T13:45:59Z</time>
      </trkpt>
      <trkpt lat="49.9261" lon="2.22756">
        <ele>15.1</ele>
        <time>2022-03-11T13:46:00Z</time>
      </trkpt>
      <trkpt lat="49.9261" lon="2.22756">
        <ele>15.1</ele>
        <time>2022-03-11T13:46:01Z</time>
      </trkpt>
      <trkpt lat="49.9261" lon="2.22756">
        <ele>15.1</ele>
        <time>2022-03-11T13:46:02Z</time>
      </trkpt>
      <trkpt lat="49.9261" lon="2.22755">
        <ele>15.1</ele>
        <time>2022-03-11T13:46:03Z</time>
      </trkpt>
      <trkpt lat="49.9261" lon="2.22756">
        <ele>15.2</ele>
        <time>2022-03-11T13:46:04Z</time>
      </trkpt>
      <trkpt lat="49.92611" lon="2.22757">
        <ele>15.2</ele>
        <time>2022-03-11T13:46:05Z</time>
      </trkpt>
      <trkpt lat="49.9261" lon="2.22758">
        <ele>15.2</ele>
        <time>2022-03-11T13:46:06Z</time>
      </trkpt>
      <trkpt lat="49.9261" lon="2.22756">
        <ele>15.2</ele>
        <time>2022-03-11T13:46:07Z</time>
      </trkpt>
      <trkpt lat="49.9261" lon="2.22756">
        <ele>15.2</ele>
        <time>2022-03-11T13:46:08Z</time>
      </trkpt>
      <trkpt lat="49.92609" lon="2.22755">
        <ele>15.2</ele>
        <time>2022-03-11T13:46:09Z</time>
      </trkpt>
      <trkpt lat="49.92609" lon="2.22754">
        <ele>15.2</ele>
        <time>2022-03-11T13:46:11Z</time>
      </trkpt>
      <trkpt lat="49.92608" lon="2.22753">
        <ele>15.2</ele>
        <time>2022-03-11T13:46:12Z</time>
      </trkpt>
      <trkpt lat="49.92608" lon="2.22752">
        <ele>15.2</ele>
        <time>2022-03-11T13:46:13Z</time>
      </trkpt>
      <trkpt lat="49.92608" lon="2.22751">
        <ele>15.2</ele>
        <time>2022-03-11T13:46:14Z</time>
      </trkpt>
      <trkpt lat="49.92607" lon="2.2275">
        <ele>15.2</ele>
        <time>2022-03-11T13:46:15Z</time>
      </trkpt>
      <trkpt lat="49.92607" lon="2.22749">
        <ele>15.2</ele>
        <time>2022-03-11T13:46:16Z</time>
      </trkpt>
      <trkpt lat="49.92606" lon="2.22748">
        <ele>15.2</ele>
        <time>2022-03-11T13:46:17Z</time>
      </trkpt>
      <trkpt lat="49.92605" lon="2.22746">
        <ele>15.2</ele>
        <time>2022-03-11T13:46:18Z</time>
      </trkpt>
      <trkpt lat="49.92605" lon="2.22744">
        <ele>15.2</ele>
        <time>2022-03-11T13:46:19Z</time>
      </trkpt>
      <trkpt lat="49.92603" lon="2.22742">
        <ele>15.2</ele>
        <time>2022-03-11T13:46:20Z</time>
      </trkpt>
      <trkpt lat="49.92603" lon="2.22741">
        <ele>15.2</ele>
        <time>2022-03-11T13:46:22Z</time>
      </trkpt>
      <trkpt lat="49.92602" lon="2.2274">
        <ele>15.2</ele>
        <time>2022-03-11T13:46:23Z</time>
      </trkpt>
      <trkpt lat="49.92602" lon="2.22738">
        <ele>15.2</ele>
        <time>2022-03-11T13:46:24Z</time>
      </trkpt>
      <trkpt lat="49.92601" lon="2.22736">
        <ele>15.2</ele>
        <time>2022-03-11T13:46:25Z</time>
      </trkpt>
      <trkpt lat="49.926" lon="2.22733">
        <ele>15.2</ele>
        <time>2022-03-11T13:46:26Z</time>
      </trkpt>
      <trkpt lat="49.926" lon="2.22732">
        <ele>15.2</ele>
        <time>2022-03-11T13:46:28Z</time>
      </trkpt>
      <trkpt lat="49.926" lon="2.2273">
        <ele>15.1</ele>
        <time>2022-03-11T13:46:29Z</time>
      </trkpt>
      <trkpt lat="49.926" lon="2.22729">
        <ele>15.1</ele>
        <time>2022-03-11T13:46:30Z</time>
      </trkpt>
      <trkpt lat="49.926" lon="2.22727">
        <ele>15.1</ele>
        <time>2022-03-11T13:46:31Z</time>
      </trkpt>
      <trkpt lat="49.926" lon="2.22726">
        <ele>15.1</ele>
        <time>2022-03-11T13:46:32Z</time>
      </trkpt>
      <trkpt lat="49.926" lon="2.22725">
        <ele>15.1</ele>
        <time>2022-03-11T13:46:33Z</time>
      </trkpt>
      <trkpt lat="49.926" lon="2.22723">
        <ele>15.1</ele>
        <time>2022-03-11T13:46:34Z</time>
      </trkpt>
      <trkpt lat="49.926" lon="2.22722">
        <ele>15.1</ele>
        <time>2022-03-11T13:46:35Z</time>
      </trkpt>
      <trkpt lat="49.926" lon="2.2272">
        <ele>15.1</ele>
        <time>2022-03-11T13:46:36Z</time>
      </trkpt>
      <trkpt lat="49.926" lon="2.22718">
        <ele>15.1</ele>
        <time>2022-03-11T13:46:37Z</time>
      </trkpt>
      <trkpt lat="49.926" lon="2.22716">
        <ele>15.1</ele>
        <time>2022-03-11T13:46:38Z</time>
      </trkpt>
      <trkpt lat="49.926" lon="2.22713">
        <ele>15.1</ele>
        <time>2022-03-11T13:46:40Z</time>
      </trkpt>
      <trkpt lat="49.926" lon="2.22712">
        <ele>15.1</ele>
        <time>2022-03-11T13:46:41Z</time>
      </trkpt>
      <trkpt lat="49.926" lon="2.22711">
        <ele>15.1</ele>
        <time>2022-03-11T13:46:42Z</time>
      </trkpt>
      <trkpt lat="49.92601" lon="2.22707">
        <ele>15.1</ele>
        <time>2022-03-11T13:46:43Z</time>
      </trkpt>
      <trkpt lat="49.92601" lon="2.22706">
        <ele>15.1</ele>
        <time>2022-03-11T13:46:44Z</time>
      </trkpt>
      <trkpt lat="49.92601" lon="2.22705">
        <ele>15.1</ele>
        <time>2022-03-11T13:46:45Z</time>
      </trkpt>
      <trkpt lat="49.92601" lon="2.22703">
        <ele>15</ele>
        <time>2022-03-11T13:46:47Z</time>
      </trkpt>
      <trkpt lat="49.92601" lon="2.22701">
        <ele>15</ele>
        <time>2022-03-11T13:46:48Z</time>
      </trkpt>
      <trkpt lat="49.92601" lon="2.22699">
        <ele>15</ele>
        <time>2022-03-11T13:46:49Z</time>
      </trkpt>
      <trkpt lat="49.926" lon="2.22696">
        <ele>15</ele>
        <time>2022-03-11T13:46:50Z</time>
      </trkpt>
      <trkpt lat="49.926" lon="2.22694">
        <ele>15</ele>
        <time>2022-03-11T13:46:51Z</time>
      </trkpt>
      <trkpt lat="49.926" lon="2.22693">
        <ele>15</ele>
        <time>2022-03-11T13:46:52Z</time>
      </trkpt>
      <trkpt lat="49.92599" lon="2.2269">
        <ele>15</ele>
        <time>2022-03-11T13:46:53Z</time>
      </trkpt>
      <trkpt lat="49.92599" lon="2.22689">
        <ele>15</ele>
        <time>2022-03-11T13:46:55Z</time>
      </trkpt>
      <trkpt lat="49.92599" lon="2.22688">
        <ele>15</ele>
        <time>2022-03-11T13:46:56Z</time>
      </trkpt>
      <trkpt lat="49.92598" lon="2.22684">
        <ele>15</ele>
        <time>2022-03-11T13:46:57Z</time>
      </trkpt>
      <trkpt lat="49.92598" lon="2.22683">
        <ele>15</ele>
        <time>2022-03-11T13:46:58Z</time>
      </trkpt>
      <trkpt lat="49.92598" lon="2.22682">
        <ele>15</ele>
        <time>2022-03-11T13:46:59Z</time>
      </trkpt>
      <trkpt lat="49.92598" lon="2.2268">
        <ele>15</ele>
        <time>2022-03-11T13:47:00Z</time>
      </trkpt>
      <trkpt lat="49.92598" lon="2.22678">
        <ele>15</ele>
        <time>2022-03-11T13:47:02Z</time>
      </trkpt>
      <trkpt lat="49.92599" lon="2.22677">
        <ele>15</ele>
        <time>2022-03-11T13:47:03Z</time>
      </trkpt>
      <trkpt lat="49.92599" lon="2.22674">
        <ele>15</ele>
        <time>2022-03-11T13:47:04Z</time>
      </trkpt>
      <trkpt lat="49.926" lon="2.22672">
        <ele>14.9</ele>
        <time>2022-03-11T13:47:05Z</time>
      </trkpt>
      <trkpt lat="49.926" lon="2.22671">
        <ele>14.9</ele>
        <time>2022-03-11T13:47:06Z</time>
      </trkpt>
      <trkpt lat="49.926" lon="2.22669">
        <ele>14.9</ele>
        <time>2022-03-11T13:47:07Z</time>
      </trkpt>
      <trkpt lat="49.926" lon="2.22668">
        <ele>14.9</ele>
        <time>2022-03-11T13:47:09Z</time>
      </trkpt>
      <trkpt lat="49.926" lon="2.22666">
        <ele>14.9</ele>
        <time>2022-03-11T13:47:10Z</time>
      </trkpt>
      <trkpt lat="49.92601" lon="2.22663">
        <ele>14.9</ele>
        <time>2022-03-11T13:47:11Z</time>
      </trkpt>
      <trkpt lat="49.92601" lon="2.22662">
        <ele>14.9</ele>
        <time>2022-03-11T13:47:12Z</time>
      </trkpt>
      <trkpt lat="49.92601" lon="2.2266">
        <ele>14.9</ele>
        <time>2022-03-11T13:47:13Z</time>
      </trkpt>
      <trkpt lat="49.92601" lon="2.22658">
        <ele>15</ele>
        <time>2022-03-11T13:47:14Z</time>
      </trkpt>
      <trkpt lat="49.92602" lon="2.22656">
        <ele>15</ele>
        <time>2022-03-11T13:47:15Z</time>
      </trkpt>
      <trkpt lat="49.92602" lon="2.22654">
        <ele>15</ele>
        <time>2022-03-11T13:47:17Z</time>
      </trkpt>
      <trkpt lat="49.92602" lon="2.22653">
        <ele>15</ele>
        <time>2022-03-11T13:47:18Z</time>
      </trkpt>
      <trkpt lat="49.92602" lon="2.22651">
        <ele>15</ele>
        <time>2022-03-11T13:47:19Z</time>
      </trkpt>
      <trkpt lat="49.92602" lon="2.22648">
        <ele>15</ele>
        <time>2022-03-11T13:47:20Z</time>
      </trkpt>
      <trkpt lat="49.92602" lon="2.22646">
        <ele>15</ele>
        <time>2022-03-11T13:47:21Z</time>
      </trkpt>
      <trkpt lat="49.92602" lon="2.22645">
        <ele>15</ele>
        <time>2022-03-11T13:47:23Z</time>
      </trkpt>
      <trkpt lat="49.92602" lon="2.22643">
        <ele>15</ele>
        <time>2022-03-11T13:47:24Z</time>
      </trkpt>
      <trkpt lat="49.92602" lon="2.22641">
        <ele>15</ele>
        <time>2022-03-11T13:47:25Z</time>
      </trkpt>
      <trkpt lat="49.92603" lon="2.2264">
        <ele>15</ele>
        <time>2022-03-11T13:47:26Z</time>
      </trkpt>
      <trkpt lat="49.92603" lon="2.22636">
        <ele>15</ele>
        <time>2022-03-11T13:47:27Z</time>
      </trkpt>
      <trkpt lat="49.92603" lon="2.22635">
        <ele>15</ele>
        <time>2022-03-11T13:47:29Z</time>
      </trkpt>
      <trkpt lat="49.92603" lon="2.22634">
        <ele>15</ele>
        <time>2022-03-11T13:47:30Z</time>
      </trkpt>
      <trkpt lat="49.92603" lon="2.22632">
        <ele>15.1</ele>
        <time>2022-03-11T13:47:31Z</time>
      </trkpt>
      <trkpt lat="49.92603" lon="2.22629">
        <ele>15.1</ele>
        <time>2022-03-11T13:47:32Z</time>
      </trkpt>
      <trkpt lat="49.92603" lon="2.22627">
        <ele>15.1</ele>
        <time>2022-03-11T13:47:33Z</time>
      </trkpt>
      <trkpt lat="49.92603" lon="2.22625">
        <ele>15.1</ele>
        <time>2022-03-11T13:47:35Z</time>
      </trkpt>
      <trkpt lat="49.92602" lon="2.22623">
        <ele>15.1</ele>
        <time>2022-03-11T13:47:36Z</time>
      </trkpt>
      <trkpt lat="49.92602" lon="2.22621">
        <ele>15.1</ele>
        <time>2022-03-11T13:47:37Z</time>
      </trkpt>
      <trkpt lat="49.92602" lon="2.2262">
        <ele>15.2</ele>
        <time>2022-03-11T13:47:38Z</time>
      </trkpt>
      <trkpt lat="49.92602" lon="2.22617">
        <ele>15.2</ele>
        <time>2022-03-11T13:47:39Z</time>
      </trkpt>
      <trkpt lat="49.92602" lon="2.22615">
        <ele>15.2</ele>
        <time>2022-03-11T13:47:40Z</time>
      </trkpt>
      <trkpt lat="49.92602" lon="2.22614">
        <ele>15.2</ele>
        <time>2022-03-11T13:47:41Z</time>
      </trkpt>
      <trkpt lat="49.92602" lon="2.22611">
        <ele>15.2</ele>
        <time>2022-03-11T13:47:42Z</time>
      </trkpt>
      <trkpt lat="49.92602" lon="2.2261">
        <ele>15.2</ele>
        <time>2022-03-11T13:47:44Z</time>
      </trkpt>
      <trkpt lat="49.92602" lon="2.22608">
        <ele>15.2</ele>
        <time>2022-03-11T13:47:45Z</time>
      </trkpt>
      <trkpt lat="49.92602" lon="2.22605">
        <ele>15.3</ele>
        <time>2022-03-11T13:47:46Z</time>
      </trkpt>
      <trkpt lat="49.92602" lon="2.22604">
        <ele>15.3</ele>
        <time>2022-03-11T13:47:47Z</time>
      </trkpt>
      <trkpt lat="49.92602" lon="2.22602">
        <ele>15.3</ele>
        <time>2022-03-11T13:47:48Z</time>
      </trkpt>
      <trkpt lat="49.92602" lon="2.226">
        <ele>15.3</ele>
        <time>2022-03-11T13:47:50Z</time>
      </trkpt>
      <trkpt lat="49.92602" lon="2.22598">
        <ele>15.3</ele>
        <time>2022-03-11T13:47:51Z</time>
      </trkpt>
      <trkpt lat="49.92602" lon="2.22596">
        <ele>15.3</ele>
        <time>2022-03-11T13:47:52Z</time>
      </trkpt>
      <trkpt lat="49.92602" lon="2.22594">
        <ele>15.3</ele>
        <time>2022-03-11T13:47:53Z</time>
      </trkpt>
      <trkpt lat="49.92602" lon="2.22592">
        <ele>15.4</ele>
        <time>2022-03-11T13:47:55Z</time>
      </trkpt>
      <trkpt lat="49.92602" lon="2.22589">
        <ele>15.4</ele>
        <time>2022-03-11T13:47:56Z</time>
      </trkpt>
      <trkpt lat="49.92602" lon="2.22587">
        <ele>15.4</ele>
        <time>2022-03-11T13:47:57Z</time>
      </trkpt>
      <trkpt lat="49.92602" lon="2.22586">
        <ele>15.4</ele>
        <time>2022-03-11T13:47:58Z</time>
      </trkpt>
      <trkpt lat="49.92602" lon="2.22584">
        <ele>15.4</ele>
        <time>2022-03-11T13:47:59Z</time>
      </trkpt>
      <trkpt lat="49.92601" lon="2.22582">
        <ele>15.4</ele>
        <time>2022-03-11T13:48:00Z</time>
      </trkpt>
      <trkpt lat="49.92601" lon="2.2258">
        <ele>15.4</ele>
        <time>2022-03-11T13:48:02Z</time>
      </trkpt>
      <trkpt lat="49.92601" lon="2.22578">
        <ele>15.5</ele>
        <time>2022-03-11T13:48:03Z</time>
      </trkpt>
      <trkpt lat="49.92601" lon="2.22577">
        <ele>15.5</ele>
        <time>2022-03-11T13:48:04Z</time>
      </trkpt>
      <trkpt lat="49.92601" lon="2.22575">
        <ele>15.5</ele>
        <time>2022-03-11T13:48:05Z</time>
      </trkpt>
      <trkpt lat="49.92601" lon="2.22574">
        <ele>15.5</ele>
        <time>2022-03-11T13:48:06Z</time>
      </trkpt>
      <trkpt lat="49.92601" lon="2.22572">
        <ele>15.5</ele>
        <time>2022-03-11T13:48:08Z</time>
      </trkpt>
      <trkpt lat="49.92602" lon="2.2257">
        <ele>14</ele>
        <time>2022-03-11T13:48:09Z</time>
      </trkpt>
      <trkpt lat="49.92602" lon="2.22569">
        <ele>14</ele>
        <time>2022-03-11T13:48:10Z</time>
      </trkpt>
      <trkpt lat="49.92602" lon="2.22567">
        <ele>14</ele>
        <time>2022-03-11T13:48:11Z</time>
      </trkpt>
      <trkpt lat="49.92603" lon="2.22566">
        <ele>14</ele>
        <time>2022-03-11T13:48:12Z</time>
      </trkpt>
      <trkpt lat="49.92603" lon="2.22564">
        <ele>14</ele>
        <time>2022-03-11T13:48:14Z</time>
      </trkpt>
      <trkpt lat="49.92603" lon="2.22563">
        <ele>14</ele>
        <time>2022-03-11T13:48:15Z</time>
      </trkpt>
      <trkpt lat="49.92603" lon="2.22561">
        <ele>14</ele>
        <time>2022-03-11T13:48:16Z</time>
      </trkpt>
      <trkpt lat="49.92603" lon="2.22559">
        <ele>14</ele>
        <time>2022-03-11T13:48:17Z</time>
      </trkpt>
      <trkpt lat="49.92603" lon="2.22557">
        <ele>14</ele>
        <time>2022-03-11T13:48:19Z</time>
      </trkpt>
      <trkpt lat="49.92604" lon="2.22557">
        <ele>14</ele>
        <time>2022-03-11T13:48:20Z</time>
      </trkpt>
      <trkpt lat="49.92605" lon="2.22557">
        <ele>14</ele>
        <time>2022-03-11T13:48:21Z</time>
      </trkpt>
      <trkpt lat="49.92606" lon="2.22556">
        <ele>14</ele>
        <time>2022-03-11T13:48:22Z</time>
      </trkpt>
      <trkpt lat="49.92606" lon="2.22556">
        <ele>14</ele>
        <time>2022-03-11T13:48:23Z</time>
      </trkpt>
      <trkpt lat="49.92606" lon="2.22556">
        <ele>14</ele>
        <time>2022-03-11T13:48:24Z</time>
      </trkpt>
      <trkpt lat="49.92606" lon="2.22556">
        <ele>14</ele>
        <time>2022-03-11T13:48:25Z</time>
      </trkpt>
      <trkpt lat="49.92606" lon="2.22556">
        <ele>14</ele>
        <time>2022-03-11T13:48:26Z</time>
      </trkpt>
      <trkpt lat="49.92606" lon="2.22556">
        <ele>14</ele>
        <time>2022-03-11T13:48:27Z</time>
      </trkpt>
      <trkpt lat="49.92606" lon="2.22556">
        <ele>14</ele>
        <time>2022-03-11T13:48:28Z</time>
      </trkpt>
      <trkpt lat="49.92606" lon="2.22557">
        <ele>14</ele>
        <time>2022-03-11T13:48:30Z</time>
      </trkpt>
    </trkseg>
  </trk>
</gpx>